<?xml version='1.0' encoding='UTF-8'?><gpx version="1.1" creator="JPX - https://github.com/jenetics/jpx" xmlns="http://www.topografix.com/GPX/1/1"><trk><trkseg><trkpt lat="44.522832342756004" lon="10.888161227359692"><ele>136.0</ele><time>2026-04-19T07:06:46.999Z</time></trkpt><trkpt lat="44.52281759033085" lon="10.888254702137234"><ele>136.0</ele><time>2026-04-19T07:06:52Z</time></trkpt><trkpt lat="44.52285341571176" lon="10.888159176628305"><ele>136.0</ele><time>2026-04-19T07:07:06.999Z</time></trkpt><trkpt lat="44.52280927543717" lon="10.88802828795563"><ele>136.0</ele><time>2026-04-19T07:07:13.999Z</time></trkpt><trkpt lat="44.52273016332107" lon="10.887978105402594"><ele>136.0</ele><time>2026-04-19T07:07:16.999Z</time></trkpt><trkpt lat="44.52275134560773" lon="10.887869770744231"><ele>136.0</ele><time>2026-04-19T07:07:18.999Z</time></trkpt><trkpt lat="44.52278947014089" lon="10.887769214513755"><ele>136.0</ele><time>2026-04-19T07:07:20.999Z</time></trkpt><trkpt lat="44.52282116701397" lon="10.88765866291169"><ele>136.0</ele><time>2026-04-19T07:07:22.999Z</time></trkpt><trkpt lat="44.52285170283668" lon="10.887547136247038"><ele>136.0</ele><time>2026-04-19T07:07:24.999Z</time></trkpt><trkpt lat="44.52289687310873" lon="10.88745382403959"><ele>136.0</ele><time>2026-04-19T07:07:26.999Z</time></trkpt><trkpt lat="44.52293228748468" lon="10.88735116130661"><ele>136.0</ele><time>2026-04-19T07:07:28.999Z</time></trkpt><trkpt lat="44.522972008872905" lon="10.887258636027058"><ele>136.0</ele><time>2026-04-19T07:07:30.999Z</time></trkpt><trkpt lat="44.523016438975965" lon="10.88714796595237"><ele>135.66666666666669</ele><time>2026-04-19T07:07:32.999Z</time></trkpt><trkpt lat="44.523079443613405" lon="10.887048974888122"><ele>135.33333333333334</ele><time>2026-04-19T07:07:34.999Z</time></trkpt><trkpt lat="44.523125397186575" lon="10.88695166634003"><ele>135.0</ele><time>2026-04-19T07:07:36.999Z</time></trkpt><trkpt lat="44.52316135209416" lon="10.88684921340248"><ele>134.66666666666666</ele><time>2026-04-19T07:07:38.999Z</time></trkpt><trkpt lat="44.52320795099411" lon="10.886745510353396"><ele>134.33333333333331</ele><time>2026-04-19T07:07:40.999Z</time></trkpt><trkpt lat="44.52323400773252" lon="10.886625376406837"><ele>134.0</ele><time>2026-04-19T07:07:42.999Z</time></trkpt><trkpt lat="44.52328236659097" lon="10.886526850116777"><ele>134.0</ele><time>2026-04-19T07:07:44.999Z</time></trkpt><trkpt lat="44.523327552045906" lon="10.886418355239085"><ele>134.0</ele><time>2026-04-19T07:07:46.999Z</time></trkpt><trkpt lat="44.523383311428525" lon="10.886317317368796"><ele>134.0</ele><time>2026-04-19T07:07:48.999Z</time></trkpt><trkpt lat="44.523416029846715" lon="10.886199602549793"><ele>134.0</ele><time>2026-04-19T07:07:50.999Z</time></trkpt><trkpt lat="44.5234586627481" lon="10.886089943097728"><ele>134.0</ele><time>2026-04-19T07:07:52.999Z</time></trkpt><trkpt lat="44.52350933753048" lon="10.88598711653325"><ele>134.0</ele><time>2026-04-19T07:07:54.999Z</time></trkpt><trkpt lat="44.52354735438862" lon="10.88587067493344"><ele>134.0</ele><time>2026-04-19T07:07:56.999Z</time></trkpt><trkpt lat="44.52359357357046" lon="10.885773475617269"><ele>134.0</ele><time>2026-04-19T07:07:58.999Z</time></trkpt><trkpt lat="44.523667504483264" lon="10.885681861467651"><ele>134.0</ele><time>2026-04-19T07:08:00.999Z</time></trkpt><trkpt lat="44.52372196106792" lon="10.8855825907542"><ele>134.0</ele><time>2026-04-19T07:08:02.999Z</time></trkpt><trkpt lat="44.52366900661641" lon="10.885497167392389"><ele>134.0</ele><time>2026-04-19T07:08:04.999Z</time></trkpt><trkpt lat="44.52359631164381" lon="10.885462523910284"><ele>134.0</ele><time>2026-04-19T07:08:06.999Z</time></trkpt><trkpt lat="44.523530738734024" lon="10.885420479299333"><ele>134.0</ele><time>2026-04-19T07:08:08.999Z</time></trkpt><trkpt lat="44.523467307693814" lon="10.885378654976408"><ele>134.0</ele><time>2026-04-19T07:08:10.999Z</time></trkpt><trkpt lat="44.523414844522904" lon="10.88530391481089"><ele>134.0</ele><time>2026-04-19T07:08:12.999Z</time></trkpt><trkpt lat="44.52342228459316" lon="10.885183718165237"><ele>134.0</ele><time>2026-04-19T07:08:15.999Z</time></trkpt><trkpt lat="44.52344767044695" lon="10.885095065425046"><ele>134.0</ele><time>2026-04-19T07:08:17.998Z</time></trkpt><trkpt lat="44.52346128427788" lon="10.885000241211745"><ele>134.0</ele><time>2026-04-19T07:08:19.998Z</time></trkpt><trkpt lat="44.52344423297832" lon="10.884900933403422"><ele>134.0</ele><time>2026-04-19T07:08:21.998Z</time></trkpt><trkpt lat="44.523375068458" lon="10.884845223774834"><ele>133.66666666666666</ele><time>2026-04-19T07:08:23.998Z</time></trkpt><trkpt lat="44.523304791093" lon="10.884808904468569"><ele>133.33333333333331</ele><time>2026-04-19T07:08:25.998Z</time></trkpt><trkpt lat="44.52323551438803" lon="10.88476051858141"><ele>133.0</ele><time>2026-04-19T07:08:28Z</time></trkpt><trkpt lat="44.52316439021907" lon="10.884714839742312"><ele>132.66666666666666</ele><time>2026-04-19T07:08:30Z</time></trkpt><trkpt lat="44.52309526919445" lon="10.88466791194814"><ele>132.33333333333334</ele><time>2026-04-19T07:08:32Z</time></trkpt><trkpt lat="44.52302625060276" lon="10.884621017911414"><ele>132.0</ele><time>2026-04-19T07:08:34Z</time></trkpt><trkpt lat="44.52295938010197" lon="10.884579798179624"><ele>132.0</ele><time>2026-04-19T07:08:36Z</time></trkpt><trkpt lat="44.5228874496843" lon="10.884537119975922"><ele>132.0</ele><time>2026-04-19T07:08:38Z</time></trkpt><trkpt lat="44.52281602744289" lon="10.884501056206929"><ele>132.0</ele><time>2026-04-19T07:08:40Z</time></trkpt><trkpt lat="44.52280665407855" lon="10.884407009488681"><ele>132.0</ele><time>2026-04-19T07:08:42Z</time></trkpt><trkpt lat="44.52284555859736" lon="10.884323754364775"><ele>132.0</ele><time>2026-04-19T07:08:44Z</time></trkpt><trkpt lat="44.52288323644804" lon="10.884238293707538"><ele>132.0</ele><time>2026-04-19T07:08:46Z</time></trkpt><trkpt lat="44.522914943204135" lon="10.884149031753696"><ele>132.0</ele><time>2026-04-19T07:08:48Z</time></trkpt><trkpt lat="44.52294933952725" lon="10.884061330036921"><ele>132.0</ele><time>2026-04-19T07:08:50Z</time></trkpt><trkpt lat="44.52297813017681" lon="10.883967168092562"><ele>132.0</ele><time>2026-04-19T07:08:52Z</time></trkpt><trkpt lat="44.523015213455174" lon="10.883872301392818"><ele>132.0</ele><time>2026-04-19T07:08:54Z</time></trkpt><trkpt lat="44.52305538448326" lon="10.88377860599871"><ele>132.0</ele><time>2026-04-19T07:08:56Z</time></trkpt><trkpt lat="44.52309153115849" lon="10.883680288843216"><ele>132.0</ele><time>2026-04-19T07:08:58Z</time></trkpt><trkpt lat="44.523134108281454" lon="10.88357869407291"><ele>132.0</ele><time>2026-04-19T07:09:00Z</time></trkpt><trkpt lat="44.5231677165164" lon="10.883476971304443"><ele>132.4</ele><time>2026-04-19T07:09:02Z</time></trkpt><trkpt lat="44.523201126238376" lon="10.883383268743668"><ele>132.79999999999998</ele><time>2026-04-19T07:09:04Z</time></trkpt><trkpt lat="44.52324465038524" lon="10.88327533947771"><ele>133.2</ele><time>2026-04-19T07:09:06Z</time></trkpt><trkpt lat="44.523337173582426" lon="10.883296836899962"><ele>133.6</ele><time>2026-04-19T07:09:08Z</time></trkpt><trkpt lat="44.523396263202585" lon="10.883413800970523"><ele>134.0</ele><time>2026-04-19T07:09:10Z</time></trkpt><trkpt lat="44.5235018674123" lon="10.883404180768597"><ele>134.0</ele><time>2026-04-19T07:09:12Z</time></trkpt><trkpt lat="44.52355345449234" lon="10.883287133814415"><ele>134.0</ele><time>2026-04-19T07:09:14Z</time></trkpt><trkpt lat="44.52358129181343" lon="10.883163266258858"><ele>134.0</ele><time>2026-04-19T07:09:15.999Z</time></trkpt><trkpt lat="44.52362024835448" lon="10.883032372211384"><ele>134.0</ele><time>2026-04-19T07:09:17.999Z</time></trkpt><trkpt lat="44.523659032546234" lon="10.882910547370757"><ele>134.0</ele><time>2026-04-19T07:09:19.999Z</time></trkpt><trkpt lat="44.52370380304752" lon="10.88278727016104"><ele>134.0</ele><time>2026-04-19T07:09:21.999Z</time></trkpt><trkpt lat="44.52374387801896" lon="10.882664343819584"><ele>134.0</ele><time>2026-04-19T07:09:23.999Z</time></trkpt><trkpt lat="44.52378740454317" lon="10.882536956444598"><ele>134.0</ele><time>2026-04-19T07:09:25.999Z</time></trkpt><trkpt lat="44.52382190668528" lon="10.882416530097393"><ele>134.0</ele><time>2026-04-19T07:09:27.999Z</time></trkpt><trkpt lat="44.523868818595666" lon="10.882300622884532"><ele>134.0</ele><time>2026-04-19T07:09:29.999Z</time></trkpt><trkpt lat="44.5238941022681" lon="10.882174012750495"><ele>134.0</ele><time>2026-04-19T07:09:31.999Z</time></trkpt><trkpt lat="44.52393308658138" lon="10.882055932760123"><ele>134.0</ele><time>2026-04-19T07:09:33.999Z</time></trkpt><trkpt lat="44.5239699117102" lon="10.881940106184238"><ele>134.0</ele><time>2026-04-19T07:09:35.999Z</time></trkpt><trkpt lat="44.52401211536281" lon="10.881817823252966"><ele>134.0</ele><time>2026-04-19T07:09:37.999Z</time></trkpt><trkpt lat="44.52405342628667" lon="10.88169451816724"><ele>134.0</ele><time>2026-04-19T07:09:39.999Z</time></trkpt><trkpt lat="44.524096930712716" lon="10.881574263822603"><ele>134.2</ele><time>2026-04-19T07:09:41.999Z</time></trkpt><trkpt lat="44.52413694149673" lon="10.881444802092833"><ele>134.4</ele><time>2026-04-19T07:09:43.999Z</time></trkpt><trkpt lat="44.52417710084836" lon="10.881313836303809"><ele>134.6</ele><time>2026-04-19T07:09:45.999Z</time></trkpt><trkpt lat="44.52421785008313" lon="10.881184088449736"><ele>134.8</ele><time>2026-04-19T07:09:47.999Z</time></trkpt><trkpt lat="44.524253933795556" lon="10.881060778259691"><ele>135.0</ele><time>2026-04-19T07:09:49.999Z</time></trkpt><trkpt lat="44.52429546234888" lon="10.880933979560414"><ele>135.0</ele><time>2026-04-19T07:09:51.999Z</time></trkpt><trkpt lat="44.52434577392658" lon="10.880801612168804"><ele>135.0</ele><time>2026-04-19T07:09:53.999Z</time></trkpt><trkpt lat="44.524374138644305" lon="10.880677611026044"><ele>135.0</ele><time>2026-04-19T07:09:55.999Z</time></trkpt><trkpt lat="44.52441506484297" lon="10.88054973510477"><ele>135.0</ele><time>2026-04-19T07:09:57.999Z</time></trkpt><trkpt lat="44.5244589842923" lon="10.880418352764556"><ele>135.0</ele><time>2026-04-19T07:09:59.999Z</time></trkpt><trkpt lat="44.52450154514012" lon="10.880291006508276"><ele>135.0</ele><time>2026-04-19T07:10:01.999Z</time></trkpt><trkpt lat="44.52454209905957" lon="10.880165134809786"><ele>135.0</ele><time>2026-04-19T07:10:03.999Z</time></trkpt><trkpt lat="44.52458332111221" lon="10.880046533215781"><ele>135.0</ele><time>2026-04-19T07:10:05.999Z</time></trkpt><trkpt lat="44.52461695060797" lon="10.87990667219832"><ele>135.0</ele><time>2026-04-19T07:10:07.999Z</time></trkpt><trkpt lat="44.5246458293225" lon="10.879768658192516"><ele>135.0</ele><time>2026-04-19T07:10:09.999Z</time></trkpt><trkpt lat="44.52466912705414" lon="10.879639498332628"><ele>134.83333333333334</ele><time>2026-04-19T07:10:11.999Z</time></trkpt><trkpt lat="44.52469887091846" lon="10.879509273154907"><ele>134.66666666666666</ele><time>2026-04-19T07:10:13.999Z</time></trkpt><trkpt lat="44.52473513496868" lon="10.879424530947874"><ele>134.5</ele><time>2026-04-19T07:10:15.999Z</time></trkpt><trkpt lat="44.524814942050256" lon="10.879428326680094"><ele>134.33333333333331</ele><time>2026-04-19T07:10:18.999Z</time></trkpt><trkpt lat="44.52489338542461" lon="10.879442408677377"><ele>134.16666666666666</ele><time>2026-04-19T07:10:20.999Z</time></trkpt><trkpt lat="44.524987365308284" lon="10.879429776468381"><ele>134.0</ele><time>2026-04-19T07:10:22.999Z</time></trkpt><trkpt lat="44.525062318322014" lon="10.879413334987863"><ele>134.0</ele><time>2026-04-19T07:10:23.998Z</time></trkpt><trkpt lat="44.525148990023816" lon="10.879409582384055"><ele>134.0</ele><time>2026-04-19T07:10:25.998Z</time></trkpt><trkpt lat="44.525249212928024" lon="10.879407790544896"><ele>134.0</ele><time>2026-04-19T07:10:27.998Z</time></trkpt><trkpt lat="44.52534512748017" lon="10.87941195111471"><ele>134.0</ele><time>2026-04-19T07:10:29.998Z</time></trkpt><trkpt lat="44.52543238441678" lon="10.879415911899153"><ele>134.0</ele><time>2026-04-19T07:10:36Z</time></trkpt><trkpt lat="44.525511477079526" lon="10.879423029284812"><ele>134.0</ele><time>2026-04-19T07:10:39Z</time></trkpt><trkpt lat="44.52559419512061" lon="10.87943168154404"><ele>133.5</ele><time>2026-04-19T07:10:41Z</time></trkpt><trkpt lat="44.52565764956764" lon="10.87941358426646"><ele>133.0</ele><time>2026-04-19T07:10:44Z</time></trkpt><trkpt lat="44.52573551281523" lon="10.879054777454932"><ele>132.5</ele><time>2026-04-19T07:10:47Z</time></trkpt><trkpt lat="44.52574301069624" lon="10.878911041755975"><ele>132.0</ele><time>2026-04-19T07:10:49Z</time></trkpt><trkpt lat="44.52575126117164" lon="10.87878539691878"><ele>132.0</ele><time>2026-04-19T07:10:51Z</time></trkpt><trkpt lat="44.525784143866886" lon="10.87865504489041"><ele>132.0</ele><time>2026-04-19T07:10:53Z</time></trkpt><trkpt lat="44.5257816654462" lon="10.878501894038225"><ele>132.0</ele><time>2026-04-19T07:10:55Z</time></trkpt><trkpt lat="44.52579437679968" lon="10.878362935868251"><ele>132.0</ele><time>2026-04-19T07:10:57Z</time></trkpt><trkpt lat="44.525813419071156" lon="10.87822981816219"><ele>132.0</ele><time>2026-04-19T07:10:59Z</time></trkpt><trkpt lat="44.525823086053514" lon="10.878091767914642"><ele>132.0</ele><time>2026-04-19T07:11:01Z</time></trkpt><trkpt lat="44.52583127019544" lon="10.877947812442496"><ele>132.0</ele><time>2026-04-19T07:11:03Z</time></trkpt><trkpt lat="44.52584493755816" lon="10.877805112322124"><ele>132.0</ele><time>2026-04-19T07:11:05Z</time></trkpt><trkpt lat="44.52586152318587" lon="10.877661245370922"><ele>132.0</ele><time>2026-04-19T07:11:07Z</time></trkpt><trkpt lat="44.52587965188836" lon="10.877521536784645"><ele>132.0</ele><time>2026-04-19T07:11:09Z</time></trkpt><trkpt lat="44.52589337472791" lon="10.877389299197143"><ele>131.79999999999998</ele><time>2026-04-19T07:11:11Z</time></trkpt><trkpt lat="44.52589550655711" lon="10.87724858513568"><ele>131.6</ele><time>2026-04-19T07:11:13Z</time></trkpt><trkpt lat="44.52592240513948" lon="10.877118760023704"><ele>131.39999999999998</ele><time>2026-04-19T07:11:15Z</time></trkpt><trkpt lat="44.525939782602684" lon="10.876966942439225"><ele>131.2</ele><time>2026-04-19T07:11:17Z</time></trkpt><trkpt lat="44.525948095674885" lon="10.876816922005375"><ele>131.0</ele><time>2026-04-19T07:11:19Z</time></trkpt><trkpt lat="44.525967108646064" lon="10.87667219706685"><ele>130.66666666666666</ele><time>2026-04-19T07:11:21Z</time></trkpt><trkpt lat="44.52597874905801" lon="10.87652484618476"><ele>130.33333333333334</ele><time>2026-04-19T07:11:23Z</time></trkpt><trkpt lat="44.525987849520355" lon="10.876386261021102"><ele>130.0</ele><time>2026-04-19T07:11:24.999Z</time></trkpt><trkpt lat="44.52617622898331" lon="10.87605683284064"><ele>130.0</ele><time>2026-04-19T07:11:28.999Z</time></trkpt><trkpt lat="44.52628237351665" lon="10.876055851493495"><ele>130.0</ele><time>2026-04-19T07:11:30.999Z</time></trkpt><trkpt lat="44.526397191988366" lon="10.876054886434705"><ele>130.0</ele><time>2026-04-19T07:11:32.999Z</time></trkpt><trkpt lat="44.52650203319762" lon="10.876054120316347"><ele>130.0</ele><time>2026-04-19T07:11:34.999Z</time></trkpt><trkpt lat="44.52661913172513" lon="10.87605326460931"><ele>130.0</ele><time>2026-04-19T07:11:36.999Z</time></trkpt><trkpt lat="44.52672729912722" lon="10.876052474173436"><ele>130.0</ele><time>2026-04-19T07:11:38.999Z</time></trkpt><trkpt lat="44.52684610404909" lon="10.876363209361672"><ele>130.0</ele><time>2026-04-19T07:11:40.999Z</time></trkpt><trkpt lat="44.52695946324802" lon="10.876357357227548"><ele>130.0</ele><time>2026-04-19T07:11:42.999Z</time></trkpt><trkpt lat="44.52701459073536" lon="10.876286318807251"><ele>130.0</ele><time>2026-04-19T07:11:43.999Z</time></trkpt><trkpt lat="44.52710540372148" lon="10.876283161295724"><ele>130.0</ele><time>2026-04-19T07:11:45.999Z</time></trkpt><trkpt lat="44.5270686208288" lon="10.87607310827402"><ele>130.0</ele><time>2026-04-19T07:11:50.999Z</time></trkpt><trkpt lat="44.52701271178126" lon="10.875980914615376"><ele>130.0</ele><time>2026-04-19T07:11:52.999Z</time></trkpt><trkpt lat="44.52702600447086" lon="10.875860855841967"><ele>130.0</ele><time>2026-04-19T07:11:54.999Z</time></trkpt><trkpt lat="44.52702029101672" lon="10.875736784403442"><ele>130.0</ele><time>2026-04-19T07:11:56.999Z</time></trkpt><trkpt lat="44.52700870031296" lon="10.875608824175456"><ele>130.0</ele><time>2026-04-19T07:11:58.999Z</time></trkpt><trkpt lat="44.527012705800026" lon="10.875477061169766"><ele>130.0</ele><time>2026-04-19T07:12:00.999Z</time></trkpt><trkpt lat="44.52700811116849" lon="10.875348681852742"><ele>130.0</ele><time>2026-04-19T07:12:02.999Z</time></trkpt><trkpt lat="44.52703147662663" lon="10.875245137399444"><ele>130.0</ele><time>2026-04-19T07:12:04.999Z</time></trkpt><trkpt lat="44.527103724080234" lon="10.875233871400733"><ele>130.0</ele><time>2026-04-19T07:12:06.999Z</time></trkpt><trkpt lat="44.52709398288411" lon="10.875144812353001"><ele>130.0</ele><time>2026-04-19T07:12:08.999Z</time></trkpt><trkpt lat="44.52703318786018" lon="10.875073353177317"><ele>130.0</ele><time>2026-04-19T07:12:10.999Z</time></trkpt><trkpt lat="44.527051488532415" lon="10.874951627137499"><ele>130.0</ele><time>2026-04-19T07:12:12.999Z</time></trkpt><trkpt lat="44.52704717973639" lon="10.87483214992112"><ele>130.0</ele><time>2026-04-19T07:12:14.999Z</time></trkpt><trkpt lat="44.52704906961232" lon="10.874700452099727"><ele>130.0</ele><time>2026-04-19T07:12:16.999Z</time></trkpt><trkpt lat="44.52704948544915" lon="10.874564513258905"><ele>130.0</ele><time>2026-04-19T07:12:18.999Z</time></trkpt><trkpt lat="44.527050239801085" lon="10.874440864918167"><ele>130.0</ele><time>2026-04-19T07:12:20.999Z</time></trkpt><trkpt lat="44.52707244761824" lon="10.87434529318984"><ele>130.0</ele><time>2026-04-19T07:12:22.999Z</time></trkpt><trkpt lat="44.52693621512562" lon="10.874296571752113"><ele>130.0</ele><time>2026-04-19T07:12:25.999Z</time></trkpt><trkpt lat="44.52686250519153" lon="10.874301024665147"><ele>130.0</ele><time>2026-04-19T07:12:27.999Z</time></trkpt><trkpt lat="44.52677410455765" lon="10.874312145644568"><ele>130.0</ele><time>2026-04-19T07:12:29.998Z</time></trkpt><trkpt lat="44.52668229216961" lon="10.874314728250779"><ele>130.0</ele><time>2026-04-19T07:12:31.998Z</time></trkpt><trkpt lat="44.526591062805146" lon="10.874319691164338"><ele>130.0</ele><time>2026-04-19T07:12:33.998Z</time></trkpt><trkpt lat="44.52649241375993" lon="10.87431876328286"><ele>130.0</ele><time>2026-04-19T07:12:35.998Z</time></trkpt><trkpt lat="44.52639769704087" lon="10.87431947519601"><ele>130.0</ele><time>2026-04-19T07:12:37.998Z</time></trkpt><trkpt lat="44.526302257896766" lon="10.874322294511668"><ele>130.0</ele><time>2026-04-19T07:12:40Z</time></trkpt><trkpt lat="44.5262644951558" lon="10.87419867573642"><ele>130.0</ele><time>2026-04-19T07:12:42Z</time></trkpt><trkpt lat="44.526279402079695" lon="10.874058853659706"><ele>130.0</ele><time>2026-04-19T07:12:44Z</time></trkpt><trkpt lat="44.52630245470831" lon="10.873924449262066"><ele>130.0</ele><time>2026-04-19T07:12:46Z</time></trkpt><trkpt lat="44.52631383182575" lon="10.873783215379973"><ele>130.0</ele><time>2026-04-19T07:12:48Z</time></trkpt><trkpt lat="44.52633080304999" lon="10.87364808406893"><ele>130.0</ele><time>2026-04-19T07:12:50Z</time></trkpt><trkpt lat="44.526344916196265" lon="10.873503164279354"><ele>130.2</ele><time>2026-04-19T07:12:52Z</time></trkpt><trkpt lat="44.52635686502126" lon="10.873361075102878"><ele>130.4</ele><time>2026-04-19T07:12:54Z</time></trkpt><trkpt lat="44.526364578490515" lon="10.873220515241666"><ele>130.6</ele><time>2026-04-19T07:12:56Z</time></trkpt><trkpt lat="44.52637278650745" lon="10.873077171254359"><ele>130.8</ele><time>2026-04-19T07:12:58Z</time></trkpt><trkpt lat="44.5263859540682" lon="10.87293709844347"><ele>131.0</ele><time>2026-04-19T07:13:00Z</time></trkpt><trkpt lat="44.526406310989" lon="10.87280165725459"><ele>131.0</ele><time>2026-04-19T07:13:02Z</time></trkpt><trkpt lat="44.526415034326234" lon="10.872659882468461"><ele>131.0</ele><time>2026-04-19T07:13:04Z</time></trkpt><trkpt lat="44.52644423471751" lon="10.872520531463802"><ele>131.0</ele><time>2026-04-19T07:13:06Z</time></trkpt><trkpt lat="44.52645758724575" lon="10.872384728033538"><ele>131.0</ele><time>2026-04-19T07:13:08Z</time></trkpt><trkpt lat="44.5264565903016" lon="10.872246004212698"><ele>131.0</ele><time>2026-04-19T07:13:10Z</time></trkpt><trkpt lat="44.526483602060324" lon="10.872108597980015"><ele>130.8</ele><time>2026-04-19T07:13:12Z</time></trkpt><trkpt lat="44.526482801095966" lon="10.871969598287698"><ele>130.6</ele><time>2026-04-19T07:13:14Z</time></trkpt><trkpt lat="44.526491728935206" lon="10.871864949505616"><ele>130.4</ele><time>2026-04-19T07:13:16Z</time></trkpt><trkpt lat="44.5265425218865" lon="10.871750040826534"><ele>130.2</ele><time>2026-04-19T07:13:19Z</time></trkpt><trkpt lat="44.52664130991462" lon="10.87172481102106"><ele>130.0</ele><time>2026-04-19T07:13:21Z</time></trkpt><trkpt lat="44.52672431005542" lon="10.871654670946276"><ele>130.0</ele><time>2026-04-19T07:13:23Z</time></trkpt><trkpt lat="44.526813776283134" lon="10.871578900702447"><ele>130.0</ele><time>2026-04-19T07:13:25Z</time></trkpt><trkpt lat="44.52690842862505" lon="10.871485784698134"><ele>130.0</ele><time>2026-04-19T07:13:27Z</time></trkpt><trkpt lat="44.526999592149885" lon="10.871375077623515"><ele>130.0</ele><time>2026-04-19T07:13:29Z</time></trkpt><trkpt lat="44.52705942702425" lon="10.871299293924343"><ele>130.0</ele><time>2026-04-19T07:13:30.999Z</time></trkpt><trkpt lat="44.52711425245338" lon="10.871208857815688"><ele>130.0</ele><time>2026-04-19T07:13:34.999Z</time></trkpt><trkpt lat="44.52699734661257" lon="10.871107398400495"><ele>130.0</ele><time>2026-04-19T07:13:39.999Z</time></trkpt><trkpt lat="44.52693148794506" lon="10.871071179333256"><ele>130.0</ele><time>2026-04-19T07:13:41.999Z</time></trkpt><trkpt lat="44.52686240832514" lon="10.871037157413223"><ele>130.0</ele><time>2026-04-19T07:13:43.999Z</time></trkpt><trkpt lat="44.52678418183513" lon="10.871001942314749"><ele>130.0</ele><time>2026-04-19T07:13:45.999Z</time></trkpt><trkpt lat="44.526705202929826" lon="10.870968943053727"><ele>130.0</ele><time>2026-04-19T07:13:47.999Z</time></trkpt><trkpt lat="44.52663341050232" lon="10.87092575335452"><ele>130.16666666666669</ele><time>2026-04-19T07:13:49.999Z</time></trkpt><trkpt lat="44.52656396730225" lon="10.870874538210579"><ele>130.33333333333334</ele><time>2026-04-19T07:13:51.999Z</time></trkpt><trkpt lat="44.52648080644408" lon="10.870833873072472"><ele>130.5</ele><time>2026-04-19T07:13:53.999Z</time></trkpt><trkpt lat="44.526404688019106" lon="10.870781262098681"><ele>130.66666666666666</ele><time>2026-04-19T07:13:55.999Z</time></trkpt><trkpt lat="44.52632029568906" lon="10.870735781978484"><ele>130.83333333333331</ele><time>2026-04-19T07:13:57.999Z</time></trkpt><trkpt lat="44.5262383986632" lon="10.870693800529578"><ele>131.0</ele><time>2026-04-19T07:13:59.999Z</time></trkpt><trkpt lat="44.52615812058088" lon="10.87063793521207"><ele>131.2</ele><time>2026-04-19T07:14:01.999Z</time></trkpt><trkpt lat="44.52606609904669" lon="10.870606419170498"><ele>131.39999999999998</ele><time>2026-04-19T07:14:03.999Z</time></trkpt><trkpt lat="44.525976464710226" lon="10.87057430354746"><ele>131.6</ele><time>2026-04-19T07:14:05.999Z</time></trkpt><trkpt lat="44.525873887970505" lon="10.870596230309665"><ele>131.79999999999998</ele><time>2026-04-19T07:14:07.999Z</time></trkpt><trkpt lat="44.52578788010911" lon="10.87057323994963"><ele>132.0</ele><time>2026-04-19T07:14:09.999Z</time></trkpt><trkpt lat="44.52569181988477" lon="10.870570931067816"><ele>132.0</ele><time>2026-04-19T07:14:11.999Z</time></trkpt><trkpt lat="44.525596913933605" lon="10.870566616091512"><ele>132.0</ele><time>2026-04-19T07:14:13.999Z</time></trkpt><trkpt lat="44.525499516199304" lon="10.870568271227619"><ele>132.0</ele><time>2026-04-19T07:14:15.999Z</time></trkpt><trkpt lat="44.52541076358943" lon="10.870554815911031"><ele>132.0</ele><time>2026-04-19T07:14:17.999Z</time></trkpt><trkpt lat="44.52532421596399" lon="10.870556161264219"><ele>132.0</ele><time>2026-04-19T07:14:19.999Z</time></trkpt><trkpt lat="44.525234132825126" lon="10.870557564425432"><ele>131.79999999999998</ele><time>2026-04-19T07:14:21.999Z</time></trkpt><trkpt lat="44.52514632809005" lon="10.870558677061089"><ele>131.6</ele><time>2026-04-19T07:14:23.999Z</time></trkpt><trkpt lat="44.52504663329839" lon="10.870560891255902"><ele>131.39999999999998</ele><time>2026-04-19T07:14:25.999Z</time></trkpt><trkpt lat="44.524949143238715" lon="10.870559098480106"><ele>131.2</ele><time>2026-04-19T07:14:27.999Z</time></trkpt><trkpt lat="44.524853502137546" lon="10.87055568424686"><ele>131.0</ele><time>2026-04-19T07:14:29.999Z</time></trkpt><trkpt lat="44.52475636600816" lon="10.870565069881032"><ele>131.0</ele><time>2026-04-19T07:14:31.999Z</time></trkpt><trkpt lat="44.52465186557495" lon="10.87055687150866"><ele>131.0</ele><time>2026-04-19T07:14:33.998Z</time></trkpt><trkpt lat="44.52454248588628" lon="10.87055169048883"><ele>131.0</ele><time>2026-04-19T07:14:35.998Z</time></trkpt><trkpt lat="44.52445709007748" lon="10.87054685007632"><ele>131.0</ele><time>2026-04-19T07:14:37.998Z</time></trkpt><trkpt lat="44.524360786021894" lon="10.870550625222823"><ele>131.0</ele><time>2026-04-19T07:14:39.998Z</time></trkpt><trkpt lat="44.5242716601711" lon="10.870545506848844"><ele>131.4</ele><time>2026-04-19T07:14:41.998Z</time></trkpt><trkpt lat="44.524189353779995" lon="10.870487704588445"><ele>131.8</ele><time>2026-04-19T07:14:43.998Z</time></trkpt><trkpt lat="44.52412385234216" lon="10.870401576288824"><ele>132.20000000000002</ele><time>2026-04-19T07:14:47Z</time></trkpt><trkpt lat="44.52416677141267" lon="10.870274980848038"><ele>132.6</ele><time>2026-04-19T07:14:49Z</time></trkpt><trkpt lat="44.52415651607801" lon="10.870120430374598"><ele>133.0</ele><time>2026-04-19T07:14:51Z</time></trkpt><trkpt lat="44.52417399213816" lon="10.86997848805088"><ele>133.6</ele><time>2026-04-19T07:14:53Z</time></trkpt><trkpt lat="44.52416314565828" lon="10.869822515010187"><ele>134.20000000000002</ele><time>2026-04-19T07:14:55Z</time></trkpt><trkpt lat="44.524181488290644" lon="10.869670688349013"><ele>134.8</ele><time>2026-04-19T07:14:57Z</time></trkpt><trkpt lat="44.5241847488085" lon="10.869518304909931"><ele>135.4</ele><time>2026-04-19T07:14:59Z</time></trkpt><trkpt lat="44.52419231848668" lon="10.869354778845006"><ele>136.0</ele><time>2026-04-19T07:15:01Z</time></trkpt><trkpt lat="44.524208919457415" lon="10.869201305789822"><ele>136.2</ele><time>2026-04-19T07:15:03Z</time></trkpt><trkpt lat="44.5242299944806" lon="10.869051821653123"><ele>136.39999999999998</ele><time>2026-04-19T07:15:05Z</time></trkpt><trkpt lat="44.52424609459634" lon="10.868892208200249"><ele>136.6</ele><time>2026-04-19T07:15:07Z</time></trkpt><trkpt lat="44.52427933326329" lon="10.868816863247678"><ele>136.79999999999998</ele><time>2026-04-19T07:15:08Z</time></trkpt><trkpt lat="44.52431299090261" lon="10.868658196858998"><ele>137.0</ele><time>2026-04-19T07:15:10Z</time></trkpt><trkpt lat="44.52434954447073" lon="10.868485878717555"><ele>137.00000000000003</ele><time>2026-04-19T07:15:12Z</time></trkpt><trkpt lat="44.52436792327925" lon="10.868399239855966"><ele>137.0</ele><time>2026-04-19T07:15:13Z</time></trkpt><trkpt lat="44.52438684864813" lon="10.868312124479129"><ele>137.0</ele><time>2026-04-19T07:15:14Z</time></trkpt><trkpt lat="44.52436107631125" lon="10.868212033572526"><ele>137.0</ele><time>2026-04-19T07:15:15Z</time></trkpt><trkpt lat="44.52438075043746" lon="10.868119804974702"><ele>137.0</ele><time>2026-04-19T07:15:16Z</time></trkpt><trkpt lat="44.524401794010075" lon="10.86802979951933"><ele>137.00000000000003</ele><time>2026-04-19T07:15:17Z</time></trkpt><trkpt lat="44.52442488455674" lon="10.867939380486732"><ele>137.0</ele><time>2026-04-19T07:15:18Z</time></trkpt><trkpt lat="44.5244423129815" lon="10.86785357283724"><ele>137.0</ele><time>2026-04-19T07:15:19Z</time></trkpt><trkpt lat="44.52450081678341" lon="10.867776957653343"><ele>137.0</ele><time>2026-04-19T07:15:20Z</time></trkpt><trkpt lat="44.52451972146262" lon="10.867691566376578"><ele>137.0</ele><time>2026-04-19T07:15:21Z</time></trkpt><trkpt lat="44.52455544043715" lon="10.867524382432322"><ele>137.0</ele><time>2026-04-19T07:15:23Z</time></trkpt><trkpt lat="44.52458464931537" lon="10.867360188317742"><ele>137.0</ele><time>2026-04-19T07:15:25Z</time></trkpt><trkpt lat="44.52462372125606" lon="10.867196811140216"><ele>136.25</ele><time>2026-04-19T07:15:27Z</time></trkpt><trkpt lat="44.52465491004134" lon="10.867044196854108"><ele>135.5</ele><time>2026-04-19T07:15:29Z</time></trkpt><trkpt lat="44.52468925135101" lon="10.8668900172936"><ele>134.75</ele><time>2026-04-19T07:15:31Z</time></trkpt><trkpt lat="44.52471632153213" lon="10.866735840258269"><ele>134.0</ele><time>2026-04-19T07:15:33Z</time></trkpt><trkpt lat="44.524763366598016" lon="10.866586914859202"><ele>134.0</ele><time>2026-04-19T07:15:35Z</time></trkpt><trkpt lat="44.52478728634458" lon="10.866436686980022"><ele>134.0</ele><time>2026-04-19T07:15:36.999Z</time></trkpt><trkpt lat="44.52482949026349" lon="10.866290416858558"><ele>134.0</ele><time>2026-04-19T07:15:38.999Z</time></trkpt><trkpt lat="44.5248519581367" lon="10.866149595067771"><ele>134.0</ele><time>2026-04-19T07:15:40.999Z</time></trkpt><trkpt lat="44.524885181093225" lon="10.86601036639035"><ele>134.0</ele><time>2026-04-19T07:15:42.999Z</time></trkpt><trkpt lat="44.52497245164681" lon="10.865953309934419"><ele>134.0</ele><time>2026-04-19T07:15:44.999Z</time></trkpt><trkpt lat="44.525053317925185" lon="10.866018881257595"><ele>134.0</ele><time>2026-04-19T07:15:46.999Z</time></trkpt><trkpt lat="44.525143847469415" lon="10.866071738015078"><ele>134.0</ele><time>2026-04-19T07:15:48.999Z</time></trkpt><trkpt lat="44.52523776354904" lon="10.866125422046604"><ele>134.0</ele><time>2026-04-19T07:15:50.999Z</time></trkpt><trkpt lat="44.52533960599401" lon="10.865902417108932"><ele>133.75</ele><time>2026-04-19T07:15:52.999Z</time></trkpt><trkpt lat="44.52537705940858" lon="10.865748917585105"><ele>133.5</ele><time>2026-04-19T07:15:54.999Z</time></trkpt><trkpt lat="44.52541576793911" lon="10.865587636637583"><ele>133.25</ele><time>2026-04-19T07:15:56.999Z</time></trkpt><trkpt lat="44.525478085250334" lon="10.865439628408986"><ele>133.0</ele><time>2026-04-19T07:15:58.999Z</time></trkpt><trkpt lat="44.52552481935849" lon="10.86528935749153"><ele>133.0</ele><time>2026-04-19T07:16:00.999Z</time></trkpt><trkpt lat="44.525576822375626" lon="10.86515172780295"><ele>133.0</ele><time>2026-04-19T07:16:02.999Z</time></trkpt><trkpt lat="44.52561943084479" lon="10.86500962553948"><ele>133.0</ele><time>2026-04-19T07:16:04.999Z</time></trkpt><trkpt lat="44.52566025347614" lon="10.864867795014366"><ele>133.0</ele><time>2026-04-19T07:16:06.999Z</time></trkpt><trkpt lat="44.52570573568748" lon="10.864733599779786"><ele>133.0</ele><time>2026-04-19T07:16:08.999Z</time></trkpt><trkpt lat="44.5257574471044" lon="10.864592025785937"><ele>133.0</ele><time>2026-04-19T07:16:10.999Z</time></trkpt><trkpt lat="44.52578641571826" lon="10.864451803957834"><ele>133.0</ele><time>2026-04-19T07:16:12.999Z</time></trkpt><trkpt lat="44.525827623776145" lon="10.864319972040335"><ele>133.0</ele><time>2026-04-19T07:16:14.999Z</time></trkpt><trkpt lat="44.52586387506444" lon="10.864172902428612"><ele>133.0</ele><time>2026-04-19T07:16:16.999Z</time></trkpt><trkpt lat="44.5259151592232" lon="10.864041219774194"><ele>133.0</ele><time>2026-04-19T07:16:18.999Z</time></trkpt><trkpt lat="44.5259529989164" lon="10.863921012570422"><ele>133.0</ele><time>2026-04-19T07:16:20.999Z</time></trkpt><trkpt lat="44.52599856786056" lon="10.863776251420942"><ele>133.0</ele><time>2026-04-19T07:16:22.999Z</time></trkpt><trkpt lat="44.52602473230956" lon="10.863691020063788"><ele>133.0</ele><time>2026-04-19T07:16:23.999Z</time></trkpt><trkpt lat="44.52606465685143" lon="10.863566303183179"><ele>133.0</ele><time>2026-04-19T07:16:25.999Z</time></trkpt><trkpt lat="44.52608229484281" lon="10.863477512363819"><ele>133.0</ele><time>2026-04-19T07:16:26.999Z</time></trkpt><trkpt lat="44.52613146882677" lon="10.86333536214402"><ele>133.0</ele><time>2026-04-19T07:16:28.999Z</time></trkpt><trkpt lat="44.52617436011351" lon="10.863193372092276"><ele>133.0</ele><time>2026-04-19T07:16:30.999Z</time></trkpt><trkpt lat="44.526215532014255" lon="10.863054678382248"><ele>133.0</ele><time>2026-04-19T07:16:32.999Z</time></trkpt><trkpt lat="44.52626258503463" lon="10.862936374872891"><ele>133.0</ele><time>2026-04-19T07:16:34.999Z</time></trkpt><trkpt lat="44.526305341247046" lon="10.862800721510126"><ele>133.0</ele><time>2026-04-19T07:16:36.999Z</time></trkpt><trkpt lat="44.52635261836085" lon="10.862657950836399"><ele>133.20000000000002</ele><time>2026-04-19T07:16:38.998Z</time></trkpt><trkpt lat="44.52639503317464" lon="10.862542953218355"><ele>133.4</ele><time>2026-04-19T07:16:40.998Z</time></trkpt><trkpt lat="44.52645181275667" lon="10.862423432627596"><ele>133.60000000000002</ele><time>2026-04-19T07:16:42.998Z</time></trkpt><trkpt lat="44.52651506408975" lon="10.862306341228637"><ele>133.8</ele><time>2026-04-19T07:16:44.998Z</time></trkpt><trkpt lat="44.526579951635405" lon="10.862196512298487"><ele>134.0</ele><time>2026-04-19T07:16:46.998Z</time></trkpt><trkpt lat="44.52662549579587" lon="10.862057871128703"><ele>134.0</ele><time>2026-04-19T07:16:48.998Z</time></trkpt><trkpt lat="44.5266860466952" lon="10.861961423406091"><ele>134.0</ele><time>2026-04-19T07:16:50.998Z</time></trkpt><trkpt lat="44.52672559146435" lon="10.861859138233383"><ele>134.0</ele><time>2026-04-19T07:16:53Z</time></trkpt><trkpt lat="44.52678002137249" lon="10.861731374953617"><ele>134.0</ele><time>2026-04-19T07:16:55Z</time></trkpt><trkpt lat="44.52681249012845" lon="10.86162108893237"><ele>134.0</ele><time>2026-04-19T07:16:57Z</time></trkpt><trkpt lat="44.52683953227219" lon="10.861488737343732"><ele>134.0</ele><time>2026-04-19T07:16:59Z</time></trkpt><trkpt lat="44.52688111435154" lon="10.861372145397217"><ele>134.0</ele><time>2026-04-19T07:17:01Z</time></trkpt><trkpt lat="44.52695536480034" lon="10.861263514680639"><ele>134.0</ele><time>2026-04-19T07:17:03Z</time></trkpt><trkpt lat="44.52704412120867" lon="10.861157779288902"><ele>134.0</ele><time>2026-04-19T07:17:05Z</time></trkpt><trkpt lat="44.52707688906486" lon="10.861029777422589"><ele>134.0</ele><time>2026-04-19T07:17:07Z</time></trkpt><trkpt lat="44.52711917190335" lon="10.860902729757276"><ele>134.0</ele><time>2026-04-19T07:17:09Z</time></trkpt><trkpt lat="44.52710284763032" lon="10.860753774355064"><ele>134.0</ele><time>2026-04-19T07:17:11Z</time></trkpt><trkpt lat="44.52704284804269" lon="10.86064577923706"><ele>134.0</ele><time>2026-04-19T07:17:13Z</time></trkpt><trkpt lat="44.5269692414257" lon="10.86056541125567"><ele>134.0</ele><time>2026-04-19T07:17:15Z</time></trkpt><trkpt lat="44.52690588077386" lon="10.860481823617075"><ele>134.0</ele><time>2026-04-19T07:17:17Z</time></trkpt><trkpt lat="44.52684020976614" lon="10.860398724510503"><ele>134.5</ele><time>2026-04-19T07:17:19Z</time></trkpt><trkpt lat="44.52680915260893" lon="10.860302827874245"><ele>135.0</ele><time>2026-04-19T07:17:21Z</time></trkpt><trkpt lat="44.526809796411996" lon="10.860203645156808"><ele>135.5</ele><time>2026-04-19T07:17:23Z</time></trkpt><trkpt lat="44.526830544677345" lon="10.86007713872077"><ele>136.0</ele><time>2026-04-19T07:17:25Z</time></trkpt><trkpt lat="44.52686247629859" lon="10.859988465764335"><ele>136.5</ele><time>2026-04-19T07:17:27Z</time></trkpt><trkpt lat="44.52689690684648" lon="10.859858911894253"><ele>137.0</ele><time>2026-04-19T07:17:29Z</time></trkpt><trkpt lat="44.52694517723116" lon="10.859783880177028"><ele>137.33333333333331</ele><time>2026-04-19T07:17:32Z</time></trkpt><trkpt lat="44.52691536660936" lon="10.859677507620136"><ele>137.66666666666666</ele><time>2026-04-19T07:17:35Z</time></trkpt><trkpt lat="44.52685106045811" lon="10.859611978016275"><ele>138.0</ele><time>2026-04-19T07:17:37Z</time></trkpt><trkpt lat="44.5268078723148" lon="10.859525419999896"><ele>138.33333333333334</ele><time>2026-04-19T07:17:38.999Z</time></trkpt><trkpt lat="44.526860300768725" lon="10.859440425149543"><ele>138.66666666666669</ele><time>2026-04-19T07:17:40.999Z</time></trkpt><trkpt lat="44.52692397338408" lon="10.85936703351205"><ele>139.0</ele><time>2026-04-19T07:17:42.999Z</time></trkpt><trkpt lat="44.52696875391999" lon="10.859253676526427"><ele>139.0</ele><time>2026-04-19T07:17:44.999Z</time></trkpt><trkpt lat="44.52701058300568" lon="10.85916123050248"><ele>139.0</ele><time>2026-04-19T07:17:46.999Z</time></trkpt><trkpt lat="44.52702160755723" lon="10.85904903184423"><ele>139.0</ele><time>2026-04-19T07:17:48.999Z</time></trkpt><trkpt lat="44.52704075667343" lon="10.85894974757688"><ele>139.0</ele><time>2026-04-19T07:17:50.999Z</time></trkpt><trkpt lat="44.52705151604097" lon="10.858834480875693"><ele>139.0</ele><time>2026-04-19T07:17:52.999Z</time></trkpt><trkpt lat="44.52706196537762" lon="10.858741573036212"><ele>139.0</ele><time>2026-04-19T07:17:54.999Z</time></trkpt><trkpt lat="44.52707978963381" lon="10.858644962351242"><ele>139.16666666666669</ele><time>2026-04-19T07:17:56.999Z</time></trkpt><trkpt lat="44.52709114580947" lon="10.85854839883052"><ele>139.33333333333334</ele><time>2026-04-19T07:17:58.999Z</time></trkpt><trkpt lat="44.52710348265094" lon="10.858452522190877"><ele>139.5</ele><time>2026-04-19T07:18:00.999Z</time></trkpt><trkpt lat="44.52709952350922" lon="10.858360212910613"><ele>139.66666666666666</ele><time>2026-04-19T07:18:02.999Z</time></trkpt><trkpt lat="44.527077894875305" lon="10.858227322817017"><ele>139.83333333333331</ele><time>2026-04-19T07:18:05.999Z</time></trkpt><trkpt lat="44.52706088475198" lon="10.858132321234818"><ele>140.0</ele><time>2026-04-19T07:18:07.999Z</time></trkpt><trkpt lat="44.527035779566106" lon="10.858011717097792"><ele>140.0</ele><time>2026-04-19T07:18:10.999Z</time></trkpt><trkpt lat="44.52702406622276" lon="10.857921092453426"><ele>140.0</ele><time>2026-04-19T07:18:12.999Z</time></trkpt><trkpt lat="44.527036585563415" lon="10.857821296635374"><ele>140.0</ele><time>2026-04-19T07:18:14.999Z</time></trkpt><trkpt lat="44.52704319330795" lon="10.857719318294919"><ele>140.0</ele><time>2026-04-19T07:18:16.999Z</time></trkpt><trkpt lat="44.527042706032574" lon="10.857599343815007"><ele>140.0</ele><time>2026-04-19T07:18:18.999Z</time></trkpt><trkpt lat="44.52706288317515" lon="10.8574792062437"><ele>140.0</ele><time>2026-04-19T07:18:20.999Z</time></trkpt><trkpt lat="44.52707839199608" lon="10.857364478263776"><ele>139.4</ele><time>2026-04-19T07:18:22.999Z</time></trkpt><trkpt lat="44.52719543210527" lon="10.857353086868276"><ele>138.8</ele><time>2026-04-19T07:18:25.999Z</time></trkpt><trkpt lat="44.52728972008107" lon="10.857392162339469"><ele>138.2</ele><time>2026-04-19T07:18:27.999Z</time></trkpt><trkpt lat="44.527370227921374" lon="10.857435209777476"><ele>137.6</ele><time>2026-04-19T07:18:29.999Z</time></trkpt><trkpt lat="44.52746103009047" lon="10.857449860323348"><ele>137.0</ele><time>2026-04-19T07:18:31.999Z</time></trkpt><trkpt lat="44.5275619512386" lon="10.857477729254718"><ele>137.0</ele><time>2026-04-19T07:18:33.999Z</time></trkpt><trkpt lat="44.527659470050104" lon="10.857512163086282"><ele>137.0</ele><time>2026-04-19T07:18:35.999Z</time></trkpt><trkpt lat="44.52775667416801" lon="10.857529110562002"><ele>137.0</ele><time>2026-04-19T07:18:37.999Z</time></trkpt><trkpt lat="44.527846648884406" lon="10.857562619500177"><ele>137.0</ele><time>2026-04-19T07:18:39.999Z</time></trkpt><trkpt lat="44.52796178095512" lon="10.8575802619422"><ele>137.0</ele><time>2026-04-19T07:18:41.998Z</time></trkpt><trkpt lat="44.528043440251295" lon="10.857590512444007"><ele>137.0</ele><time>2026-04-19T07:18:42.998Z</time></trkpt><trkpt lat="44.52810705976584" lon="10.85760458897939"><ele>137.0</ele><time>2026-04-19T07:18:43.998Z</time></trkpt><trkpt lat="44.52819855032439" lon="10.857628896631072"><ele>137.0</ele><time>2026-04-19T07:18:45.998Z</time></trkpt><trkpt lat="44.528245352269614" lon="10.85755282125346"><ele>137.0</ele><time>2026-04-19T07:18:50.998Z</time></trkpt><trkpt lat="44.5283029547018" lon="10.85761538941924"><ele>137.0</ele><time>2026-04-19T07:18:53.998Z</time></trkpt><trkpt lat="44.52838595991378" lon="10.857639116500385"><ele>137.0</ele><time>2026-04-19T07:18:55.998Z</time></trkpt><trkpt lat="44.52843868143216" lon="10.85739401237104"><ele>137.0</ele><time>2026-04-19T07:18:58Z</time></trkpt><trkpt lat="44.52852631997474" lon="10.857393754881567"><ele>137.0</ele><time>2026-04-19T07:18:59Z</time></trkpt><trkpt lat="44.528552133150626" lon="10.857280115506777"><ele>137.0</ele><time>2026-04-19T07:19:01Z</time></trkpt><trkpt lat="44.528573623419" lon="10.857172719954681"><ele>137.0</ele><time>2026-04-19T07:19:03Z</time></trkpt><trkpt lat="44.52859367009355" lon="10.857059553047295"><ele>137.0</ele><time>2026-04-19T07:19:05Z</time></trkpt><trkpt lat="44.528612831346166" lon="10.856947276573418"><ele>137.0</ele><time>2026-04-19T07:19:07Z</time></trkpt><trkpt lat="44.52863362730633" lon="10.85682182753175"><ele>137.0</ele><time>2026-04-19T07:19:09Z</time></trkpt><trkpt lat="44.52865280501225" lon="10.856701393057273"><ele>137.0</ele><time>2026-04-19T07:19:11Z</time></trkpt><trkpt lat="44.52867051782611" lon="10.856589940041978"><ele>137.0</ele><time>2026-04-19T07:19:13Z</time></trkpt><trkpt lat="44.52869168991408" lon="10.856466934360784"><ele>137.0</ele><time>2026-04-19T07:19:15Z</time></trkpt><trkpt lat="44.528714536170405" lon="10.856342601653418"><ele>137.0</ele><time>2026-04-19T07:19:17Z</time></trkpt><trkpt lat="44.52873887837359" lon="10.85621306929129"><ele>137.0</ele><time>2026-04-19T07:19:19Z</time></trkpt><trkpt lat="44.52876349116587" lon="10.856086789878262"><ele>135.79999999999998</ele><time>2026-04-19T07:19:21Z</time></trkpt><trkpt lat="44.528789916135125" lon="10.855960093330456"><ele>134.6</ele><time>2026-04-19T07:19:23Z</time></trkpt><trkpt lat="44.52881690044657" lon="10.855836835171072"><ele>133.39999999999998</ele><time>2026-04-19T07:19:25Z</time></trkpt><trkpt lat="44.528847414853274" lon="10.855705951599655"><ele>132.2</ele><time>2026-04-19T07:19:27Z</time></trkpt><trkpt lat="44.52888000272143" lon="10.855576580240498"><ele>131.0</ele><time>2026-04-19T07:19:29Z</time></trkpt><trkpt lat="44.52891403406094" lon="10.855448690818474"><ele>131.0</ele><time>2026-04-19T07:19:31Z</time></trkpt><trkpt lat="44.52895008579077" lon="10.855325429206571"><ele>131.0</ele><time>2026-04-19T07:19:33Z</time></trkpt><trkpt lat="44.52898477628875" lon="10.85521391621794"><ele>131.0</ele><time>2026-04-19T07:19:35Z</time></trkpt><trkpt lat="44.52902632652131" lon="10.855096943159136"><ele>131.0</ele><time>2026-04-19T07:19:37Z</time></trkpt><trkpt lat="44.52905559182013" lon="10.855018356677686"><ele>131.0</ele><time>2026-04-19T07:19:39Z</time></trkpt><trkpt lat="44.52913101599224" lon="10.854921699919933"><ele>131.0</ele><time>2026-04-19T07:20:04.999Z</time></trkpt><trkpt lat="44.52921194796312" lon="10.854851680569165"><ele>131.42857142857144</ele><time>2026-04-19T07:20:06.999Z</time></trkpt><trkpt lat="44.52927657727629" lon="10.854859019038715"><ele>131.85714285714286</ele><time>2026-04-19T07:20:07.999Z</time></trkpt><trkpt lat="44.52934237953118" lon="10.854846343784438"><ele>132.28571428571428</ele><time>2026-04-19T07:20:08.999Z</time></trkpt><trkpt lat="44.52939956843071" lon="10.854798868249235"><ele>132.71428571428572</ele><time>2026-04-19T07:20:09.999Z</time></trkpt><trkpt lat="44.52944083316129" lon="10.854722067976317"><ele>133.14285714285714</ele><time>2026-04-19T07:20:10.999Z</time></trkpt><trkpt lat="44.52945871317529" lon="10.854635412833996"><ele>133.57142857142858</ele><time>2026-04-19T07:20:11.999Z</time></trkpt><trkpt lat="44.52943437930073" lon="10.854551550558403"><ele>134.0</ele><time>2026-04-19T07:20:12.999Z</time></trkpt><trkpt lat="44.529479585086136" lon="10.854384924214031"><ele>134.0</ele><time>2026-04-19T07:20:14.999Z</time></trkpt><trkpt lat="44.52952478241738" lon="10.85431227765852"><ele>134.0</ele><time>2026-04-19T07:20:15.999Z</time></trkpt><trkpt lat="44.52956463431646" lon="10.854238937989125"><ele>134.0</ele><time>2026-04-19T07:20:16.999Z</time></trkpt><trkpt lat="44.5295992799819" lon="10.854163718577214"><ele>134.0</ele><time>2026-04-19T07:20:17.999Z</time></trkpt><trkpt lat="44.529642289662696" lon="10.854095769338269"><ele>134.0</ele><time>2026-04-19T07:20:18.999Z</time></trkpt><trkpt lat="44.52969202094653" lon="10.854031646875274"><ele>134.0</ele><time>2026-04-19T07:20:19.999Z</time></trkpt><trkpt lat="44.52974958660711" lon="10.85397416956234"><ele>134.0</ele><time>2026-04-19T07:20:20.999Z</time></trkpt><trkpt lat="44.52989287476384" lon="10.853946779524763"><ele>133.57142857142858</ele><time>2026-04-19T07:20:22.999Z</time></trkpt><trkpt lat="44.52995928321149" lon="10.853926417664717"><ele>133.14285714285714</ele><time>2026-04-19T07:20:23.999Z</time></trkpt><trkpt lat="44.530017353195724" lon="10.853872434005266"><ele>132.71428571428572</ele><time>2026-04-19T07:20:24.999Z</time></trkpt><trkpt lat="44.53005582874762" lon="10.853788446556731"><ele>132.28571428571428</ele><time>2026-04-19T07:20:25.999Z</time></trkpt><trkpt lat="44.53007684320075" lon="10.853694304457019"><ele>131.85714285714286</ele><time>2026-04-19T07:20:26.999Z</time></trkpt><trkpt lat="44.53007261445692" lon="10.853593316511372"><ele>131.42857142857144</ele><time>2026-04-19T07:20:27.999Z</time></trkpt><trkpt lat="44.53004725881548" lon="10.853498819040711"><ele>131.0</ele><time>2026-04-19T07:20:28.999Z</time></trkpt><trkpt lat="44.53001044796668" lon="10.853417318117932"><ele>130.83333333333331</ele><time>2026-04-19T07:20:29.999Z</time></trkpt><trkpt lat="44.52995837290602" lon="10.853358686147423"><ele>130.66666666666666</ele><time>2026-04-19T07:20:30.999Z</time></trkpt><trkpt lat="44.52994415645921" lon="10.85315563940682"><ele>130.5</ele><time>2026-04-19T07:20:32.999Z</time></trkpt><trkpt lat="44.529934553532804" lon="10.853067679484012"><ele>130.33333333333334</ele><time>2026-04-19T07:20:33.999Z</time></trkpt><trkpt lat="44.529978687395065" lon="10.852975980554506"><ele>130.16666666666669</ele><time>2026-04-19T07:20:34.999Z</time></trkpt><trkpt lat="44.53001499272837" lon="10.852893827686852"><ele>130.0</ele><time>2026-04-19T07:20:35.999Z</time></trkpt><trkpt lat="44.53005181679999" lon="10.852815469427163"><ele>130.00000000000003</ele><time>2026-04-19T07:20:36.999Z</time></trkpt><trkpt lat="44.5300879561063" lon="10.852738005961507"><ele>130.0</ele><time>2026-04-19T07:20:37.999Z</time></trkpt><trkpt lat="44.53012298018315" lon="10.852653645359458"><ele>130.0</ele><time>2026-04-19T07:20:38.999Z</time></trkpt><trkpt lat="44.530154976908115" lon="10.852574432876485"><ele>130.0</ele><time>2026-04-19T07:20:39.999Z</time></trkpt><trkpt lat="44.530191954054295" lon="10.8524926262748"><ele>130.0</ele><time>2026-04-19T07:20:40.999Z</time></trkpt><trkpt lat="44.53022898138939" lon="10.852409430103675"><ele>130.00000000000003</ele><time>2026-04-19T07:20:41.999Z</time></trkpt><trkpt lat="44.530263720104145" lon="10.852330050475738"><ele>130.0</ele><time>2026-04-19T07:20:42.999Z</time></trkpt><trkpt lat="44.53030108653734" lon="10.852253051542895"><ele>130.0</ele><time>2026-04-19T07:20:43.999Z</time></trkpt><trkpt lat="44.53034018075658" lon="10.852177308916108"><ele>130.0</ele><time>2026-04-19T07:20:44.999Z</time></trkpt><trkpt lat="44.530372052479734" lon="10.852097225853642"><ele>130.0</ele><time>2026-04-19T07:20:45.998Z</time></trkpt><trkpt lat="44.5304186756906" lon="10.852025185463011"><ele>130.0</ele><time>2026-04-19T07:20:46.998Z</time></trkpt><trkpt lat="44.53048320409138" lon="10.85186908219585"><ele>130.0</ele><time>2026-04-19T07:20:48.998Z</time></trkpt><trkpt lat="44.5305460071727" lon="10.851719431347867"><ele>130.0</ele><time>2026-04-19T07:20:50.998Z</time></trkpt><trkpt lat="44.530600915874416" lon="10.85156288804844"><ele>130.0</ele><time>2026-04-19T07:20:52.998Z</time></trkpt><trkpt lat="44.53066067904718" lon="10.851410910366052"><ele>130.0</ele><time>2026-04-19T07:20:54.998Z</time></trkpt><trkpt lat="44.53068213935535" lon="10.85132503065177"><ele>130.0</ele><time>2026-04-19T07:20:55.998Z</time></trkpt><trkpt lat="44.53070608734018" lon="10.851240298113904"><ele>130.0</ele><time>2026-04-19T07:20:56.998Z</time></trkpt><trkpt lat="44.53075509389863" lon="10.851080154228155"><ele>130.0</ele><time>2026-04-19T07:20:58.998Z</time></trkpt><trkpt lat="44.53077159006127" lon="10.850986964929602"><ele>130.0</ele><time>2026-04-19T07:20:59.998Z</time></trkpt><trkpt lat="44.530813297072854" lon="10.850830249011231"><ele>130.0</ele><time>2026-04-19T07:21:01.998Z</time></trkpt><trkpt lat="44.53084797704999" lon="10.850666007075654"><ele>130.0</ele><time>2026-04-19T07:21:04Z</time></trkpt><trkpt lat="44.53086998072644" lon="10.850580451747348"><ele>130.0</ele><time>2026-04-19T07:21:05Z</time></trkpt><trkpt lat="44.530914586169594" lon="10.850422006130644"><ele>130.4</ele><time>2026-04-19T07:21:07Z</time></trkpt><trkpt lat="44.5309316497241" lon="10.850336785607201"><ele>130.8</ele><time>2026-04-19T07:21:08Z</time></trkpt><trkpt lat="44.53096693181942" lon="10.850172640104486"><ele>131.2</ele><time>2026-04-19T07:21:10Z</time></trkpt><trkpt lat="44.53101195883724" lon="10.850018044475062"><ele>131.6</ele><time>2026-04-19T07:21:12Z</time></trkpt><trkpt lat="44.53103530283026" lon="10.849859794996883"><ele>132.0</ele><time>2026-04-19T07:21:14Z</time></trkpt><trkpt lat="44.531077760965815" lon="10.849703313289087"><ele>132.25</ele><time>2026-04-19T07:21:16Z</time></trkpt><trkpt lat="44.53112573752133" lon="10.849552663889124"><ele>132.5</ele><time>2026-04-19T07:21:18Z</time></trkpt><trkpt lat="44.53116040839849" lon="10.84940180847268"><ele>132.75</ele><time>2026-04-19T07:21:20Z</time></trkpt><trkpt lat="44.531199499396145" lon="10.849250080819356"><ele>133.0</ele><time>2026-04-19T07:21:22Z</time></trkpt><trkpt lat="44.531242411191066" lon="10.849091049205697"><ele>132.25</ele><time>2026-04-19T07:21:24Z</time></trkpt><trkpt lat="44.531284648124746" lon="10.848926488101606"><ele>131.5</ele><time>2026-04-19T07:21:26Z</time></trkpt><trkpt lat="44.53132044955458" lon="10.848777585517063"><ele>130.75</ele><time>2026-04-19T07:21:28Z</time></trkpt><trkpt lat="44.53136102807352" lon="10.848621352119604"><ele>130.0</ele><time>2026-04-19T07:21:30Z</time></trkpt><trkpt lat="44.53139528292962" lon="10.848469331343372"><ele>130.0</ele><time>2026-04-19T07:21:32Z</time></trkpt><trkpt lat="44.531433149367224" lon="10.848307909072618"><ele>130.0</ele><time>2026-04-19T07:21:34Z</time></trkpt><trkpt lat="44.53146406234785" lon="10.848155978524781"><ele>130.0</ele><time>2026-04-19T07:21:36Z</time></trkpt><trkpt lat="44.531494727356176" lon="10.848014064059326"><ele>130.0</ele><time>2026-04-19T07:21:38Z</time></trkpt><trkpt lat="44.53152912884889" lon="10.847868535831024"><ele>130.0</ele><time>2026-04-19T07:21:40Z</time></trkpt><trkpt lat="44.531569417499014" lon="10.847712828435599"><ele>130.0</ele><time>2026-04-19T07:21:42Z</time></trkpt><trkpt lat="44.53160657383852" lon="10.847568079705088"><ele>130.0</ele><time>2026-04-19T07:21:44Z</time></trkpt><trkpt lat="44.5316355374438" lon="10.8474132430602"><ele>130.0</ele><time>2026-04-19T07:21:46Z</time></trkpt><trkpt lat="44.53167239337014" lon="10.847272372747929"><ele>130.0</ele><time>2026-04-19T07:21:48Z</time></trkpt><trkpt lat="44.53169948728083" lon="10.847126077335533"><ele>130.0</ele><time>2026-04-19T07:21:49.999Z</time></trkpt><trkpt lat="44.53172722391817" lon="10.846981975707251"><ele>130.0</ele><time>2026-04-19T07:21:51.999Z</time></trkpt><trkpt lat="44.531755813967585" lon="10.846848906695268"><ele>130.0</ele><time>2026-04-19T07:21:53.999Z</time></trkpt><trkpt lat="44.531777895112484" lon="10.846726204362342"><ele>130.0</ele><time>2026-04-19T07:21:55.999Z</time></trkpt><trkpt lat="44.531800576823876" lon="10.846601901666888"><ele>130.0</ele><time>2026-04-19T07:21:57.999Z</time></trkpt><trkpt lat="44.531821738375655" lon="10.846491873700687"><ele>130.0</ele><time>2026-04-19T07:21:59.999Z</time></trkpt><trkpt lat="44.531840706800004" lon="10.846399273943703"><ele>130.0</ele><time>2026-04-19T07:22:02.999Z</time></trkpt><trkpt lat="44.53184164112225" lon="10.846284455328192"><ele>130.0</ele><time>2026-04-19T07:22:39.999Z</time></trkpt><trkpt lat="44.5318655980578" lon="10.846172494872174"><ele>130.0</ele><time>2026-04-19T07:22:41.999Z</time></trkpt><trkpt lat="44.53189452321933" lon="10.846038340867285"><ele>130.0</ele><time>2026-04-19T07:22:43.999Z</time></trkpt><trkpt lat="44.531925391578056" lon="10.845900044684196"><ele>130.0</ele><time>2026-04-19T07:22:45.999Z</time></trkpt><trkpt lat="44.53196107377938" lon="10.845751551889926"><ele>130.0</ele><time>2026-04-19T07:22:47.999Z</time></trkpt><trkpt lat="44.53198968852899" lon="10.845614421508708"><ele>130.2</ele><time>2026-04-19T07:22:49.999Z</time></trkpt><trkpt lat="44.53201745579102" lon="10.845459324869157"><ele>130.4</ele><time>2026-04-19T07:22:51.998Z</time></trkpt><trkpt lat="44.53204673507702" lon="10.845317238171557"><ele>130.6</ele><time>2026-04-19T07:22:53.998Z</time></trkpt><trkpt lat="44.53206844628185" lon="10.845176767525073"><ele>130.8</ele><time>2026-04-19T07:22:55.998Z</time></trkpt><trkpt lat="44.53211856465806" lon="10.845017510785496"><ele>131.0</ele><time>2026-04-19T07:22:57.998Z</time></trkpt><trkpt lat="44.532151514727204" lon="10.84488123657226"><ele>131.0</ele><time>2026-04-19T07:22:59.998Z</time></trkpt><trkpt lat="44.5321739825532" lon="10.8447196324213"><ele>131.0</ele><time>2026-04-19T07:23:01.998Z</time></trkpt><trkpt lat="44.53220473829406" lon="10.844569808877461"><ele>131.0</ele><time>2026-04-19T07:23:03.998Z</time></trkpt><trkpt lat="44.5322271015335" lon="10.84442392068523"><ele>131.0</ele><time>2026-04-19T07:23:05.998Z</time></trkpt><trkpt lat="44.53224978772488" lon="10.844278140092134"><ele>131.0</ele><time>2026-04-19T07:23:07.998Z</time></trkpt><trkpt lat="44.53228126804031" lon="10.844125735268857"><ele>131.0</ele><time>2026-04-19T07:23:10Z</time></trkpt><trkpt lat="44.5323048567026" lon="10.843959200826628"><ele>131.0</ele><time>2026-04-19T07:23:12Z</time></trkpt><trkpt lat="44.532341591535776" lon="10.84379531857148"><ele>131.0</ele><time>2026-04-19T07:23:14Z</time></trkpt><trkpt lat="44.53237389898515" lon="10.8436374560678"><ele>131.0</ele><time>2026-04-19T07:23:16Z</time></trkpt><trkpt lat="44.53239603863577" lon="10.843553515325526"><ele>131.0</ele><time>2026-04-19T07:23:17Z</time></trkpt><trkpt lat="44.53242751727471" lon="10.84338720598792"><ele>130.8</ele><time>2026-04-19T07:23:19Z</time></trkpt><trkpt lat="44.532465886642704" lon="10.843230316424757"><ele>130.6</ele><time>2026-04-19T07:23:21Z</time></trkpt><trkpt lat="44.5324892042604" lon="10.84314672876547"><ele>130.4</ele><time>2026-04-19T07:23:22Z</time></trkpt><trkpt lat="44.532524933047796" lon="10.842982412655527"><ele>130.2</ele><time>2026-04-19T07:23:24Z</time></trkpt><trkpt lat="44.53255821372926" lon="10.842906438315142"><ele>130.0</ele><time>2026-04-19T07:23:25Z</time></trkpt><trkpt lat="44.53262906622106" lon="10.842761030723944"><ele>130.0</ele><time>2026-04-19T07:23:27Z</time></trkpt><trkpt lat="44.53267211270393" lon="10.84259910511387"><ele>130.0</ele><time>2026-04-19T07:23:29Z</time></trkpt><trkpt lat="44.532704571352674" lon="10.842522222580602"><ele>130.0</ele><time>2026-04-19T07:23:30Z</time></trkpt><trkpt lat="44.53277165668488" lon="10.842375842017292"><ele>130.0</ele><time>2026-04-19T07:23:32Z</time></trkpt><trkpt lat="44.53282334393392" lon="10.842305283124052"><ele>130.0</ele><time>2026-04-19T07:23:33Z</time></trkpt><trkpt lat="44.53288215932256" lon="10.842252915482577"><ele>129.83333333333334</ele><time>2026-04-19T07:23:34Z</time></trkpt><trkpt lat="44.53296846962913" lon="10.842137582496179"><ele>129.66666666666669</ele><time>2026-04-19T07:23:36Z</time></trkpt><trkpt lat="44.53299966348737" lon="10.84205681996476"><ele>129.5</ele><time>2026-04-19T07:23:37Z</time></trkpt><trkpt lat="44.532995437569184" lon="10.841965289492675"><ele>129.33333333333334</ele><time>2026-04-19T07:23:38Z</time></trkpt><trkpt lat="44.53299603160332" lon="10.84187120671467"><ele>129.16666666666666</ele><time>2026-04-19T07:23:39Z</time></trkpt><trkpt lat="44.533025151723635" lon="10.841695633272105"><ele>129.0</ele><time>2026-04-19T07:23:41Z</time></trkpt><trkpt lat="44.533054712291964" lon="10.841606421053239"><ele>128.99999999999997</ele><time>2026-04-19T07:23:42Z</time></trkpt><trkpt lat="44.53308406558328" lon="10.84151796820762"><ele>129.0</ele><time>2026-04-19T07:23:43Z</time></trkpt><trkpt lat="44.53311432426265" lon="10.841427367868603"><ele>129.0</ele><time>2026-04-19T07:23:44Z</time></trkpt><trkpt lat="44.53313771601425" lon="10.841337731601474"><ele>129.0</ele><time>2026-04-19T07:23:45Z</time></trkpt><trkpt lat="44.533167886826625" lon="10.841254679295083"><ele>129.0</ele><time>2026-04-19T07:23:46Z</time></trkpt><trkpt lat="44.533187448393114" lon="10.841162648038909"><ele>128.99999999999997</ele><time>2026-04-19T07:23:47Z</time></trkpt><trkpt lat="44.53321147923134" lon="10.84107981951835"><ele>129.0</ele><time>2026-04-19T07:23:48Z</time></trkpt><trkpt lat="44.53323920003146" lon="10.840998115176498"><ele>128.83333333333334</ele><time>2026-04-19T07:23:49Z</time></trkpt><trkpt lat="44.533266096141816" lon="10.840912899993352"><ele>128.66666666666666</ele><time>2026-04-19T07:23:50Z</time></trkpt><trkpt lat="44.5332931741784" lon="10.840831830865609"><ele>128.5</ele><time>2026-04-19T07:23:51Z</time></trkpt><trkpt lat="44.533312753837336" lon="10.840728064685292"><ele>128.33333333333331</ele><time>2026-04-19T07:23:52Z</time></trkpt><trkpt lat="44.533359592182826" lon="10.840557221727172"><ele>128.16666666666666</ele><time>2026-04-19T07:23:54Z</time></trkpt><trkpt lat="44.53338718964343" lon="10.840473977580064"><ele>128.0</ele><time>2026-04-19T07:23:54.999Z</time></trkpt><trkpt lat="44.533414230561945" lon="10.840391792184663"><ele>127.99999999999999</ele><time>2026-04-19T07:23:55.999Z</time></trkpt><trkpt lat="44.53343614512833" lon="10.840297958068565"><ele>128.0</ele><time>2026-04-19T07:23:56.999Z</time></trkpt><trkpt lat="44.533458052338204" lon="10.84020445613643"><ele>128.0</ele><time>2026-04-19T07:23:57.999Z</time></trkpt><trkpt lat="44.53350038588712" lon="10.840121383955172"><ele>128.0</ele><time>2026-04-19T07:23:58.999Z</time></trkpt><trkpt lat="44.53352533098022" lon="10.840036710261252"><ele>127.99999999999999</ele><time>2026-04-19T07:23:59.999Z</time></trkpt><trkpt lat="44.5335504907956" lon="10.839952161126565"><ele>128.0</ele><time>2026-04-19T07:24:00.999Z</time></trkpt><trkpt lat="44.53360103072023" lon="10.839782434704812"><ele>128.0</ele><time>2026-04-19T07:24:02.999Z</time></trkpt><trkpt lat="44.53362577791192" lon="10.839699327134067"><ele>127.99999999999999</ele><time>2026-04-19T07:24:03.999Z</time></trkpt><trkpt lat="44.53363691606464" lon="10.839605598343685"><ele>128.0</ele><time>2026-04-19T07:24:04.999Z</time></trkpt><trkpt lat="44.53366310986311" lon="10.839520214493149"><ele>128.0</ele><time>2026-04-19T07:24:05.999Z</time></trkpt><trkpt lat="44.53368829805463" lon="10.839431948278898"><ele>127.99999999999999</ele><time>2026-04-19T07:24:06.999Z</time></trkpt><trkpt lat="44.5337155771138" lon="10.839347798758993"><ele>128.0</ele><time>2026-04-19T07:24:07.999Z</time></trkpt><trkpt lat="44.53374440050456" lon="10.83926215431759"><ele>128.0</ele><time>2026-04-19T07:24:08.999Z</time></trkpt><trkpt lat="44.53376845372654" lon="10.839173124094797"><ele>127.71428571428571</ele><time>2026-04-19T07:24:09.999Z</time></trkpt><trkpt lat="44.53379541413113" lon="10.83908969597832"><ele>127.42857142857142</ele><time>2026-04-19T07:24:10.999Z</time></trkpt><trkpt lat="44.53383230039534" lon="10.839006773315424"><ele>127.14285714285714</ele><time>2026-04-19T07:24:11.999Z</time></trkpt><trkpt lat="44.53385362938109" lon="10.838909656847735"><ele>126.85714285714286</ele><time>2026-04-19T07:24:12.999Z</time></trkpt><trkpt lat="44.5338751771404" lon="10.838812220670805"><ele>126.57142857142857</ele><time>2026-04-19T07:24:13.999Z</time></trkpt><trkpt lat="44.53391406495605" lon="10.838730017145712"><ele>126.28571428571428</ele><time>2026-04-19T07:24:14.999Z</time></trkpt><trkpt lat="44.53393602794136" lon="10.838636321165088"><ele>126.0</ele><time>2026-04-19T07:24:15.999Z</time></trkpt><trkpt lat="44.533961608286454" lon="10.83854341263805"><ele>126.16666666666667</ele><time>2026-04-19T07:24:16.999Z</time></trkpt><trkpt lat="44.53399056056721" lon="10.838454988555853"><ele>126.33333333333334</ele><time>2026-04-19T07:24:17.999Z</time></trkpt><trkpt lat="44.53401115059918" lon="10.83836424133994"><ele>126.5</ele><time>2026-04-19T07:24:18.999Z</time></trkpt><trkpt lat="44.534041417178756" lon="10.838281750476659"><ele>126.66666666666667</ele><time>2026-04-19T07:24:19.999Z</time></trkpt><trkpt lat="44.53407037594052" lon="10.838199666915301"><ele>126.83333333333334</ele><time>2026-04-19T07:24:20.999Z</time></trkpt><trkpt lat="44.53411864296196" lon="10.838032326317903"><ele>127.0</ele><time>2026-04-19T07:24:22.999Z</time></trkpt><trkpt lat="44.53414288086594" lon="10.837947363198678"><ele>127.0</ele><time>2026-04-19T07:24:23.999Z</time></trkpt><trkpt lat="44.5342324386081" lon="10.83783300426968"><ele>126.99999999999999</ele><time>2026-04-19T07:24:25.999Z</time></trkpt><trkpt lat="44.53429915792108" lon="10.837831181029157"><ele>126.99999999999999</ele><time>2026-04-19T07:24:26.999Z</time></trkpt><trkpt lat="44.53439194094297" lon="10.837830286451867"><ele>127.0</ele><time>2026-04-19T07:24:28.999Z</time></trkpt><trkpt lat="44.53439296249182" lon="10.837686697535943"><ele>127.0</ele><time>2026-04-19T07:24:29.999Z</time></trkpt><trkpt lat="44.53440910305422" lon="10.837585143782837"><ele>127.0</ele><time>2026-04-19T07:24:31.999Z</time></trkpt><trkpt lat="44.534337261511205" lon="10.837464744127928"><ele>126.99999999999999</ele><time>2026-04-19T07:24:32.999Z</time></trkpt><trkpt lat="44.534394041646365" lon="10.837344114980368"><ele>126.99999999999999</ele><time>2026-04-19T07:24:34.999Z</time></trkpt><trkpt lat="44.53443951457731" lon="10.837206212464503"><ele>127.0</ele><time>2026-04-19T07:24:36.999Z</time></trkpt><trkpt lat="44.53447980458298" lon="10.837072170890435"><ele>127.0</ele><time>2026-04-19T07:24:38.999Z</time></trkpt><trkpt lat="44.534519124484945" lon="10.836937004832514"><ele>127.0</ele><time>2026-04-19T07:24:40.999Z</time></trkpt><trkpt lat="44.53454436032882" lon="10.83680676328587"><ele>126.99999999999999</ele><time>2026-04-19T07:24:42.999Z</time></trkpt><trkpt lat="44.53458117877574" lon="10.836695111089867"><ele>126.99999999999999</ele><time>2026-04-19T07:24:44.999Z</time></trkpt><trkpt lat="44.534615456550945" lon="10.83656829574578"><ele>127.0</ele><time>2026-04-19T07:24:46.999Z</time></trkpt><trkpt lat="44.534652343706654" lon="10.836441417069807"><ele>127.0</ele><time>2026-04-19T07:24:48.999Z</time></trkpt><trkpt lat="44.534692741392895" lon="10.836319789489957"><ele>126.19999999999999</ele><time>2026-04-19T07:24:50.999Z</time></trkpt><trkpt lat="44.53470234589715" lon="10.8361878325812"><ele>125.39999999999999</ele><time>2026-04-19T07:24:52.999Z</time></trkpt><trkpt lat="44.5347303544519" lon="10.836042868711726"><ele>124.60000000000001</ele><time>2026-04-19T07:24:54.999Z</time></trkpt><trkpt lat="44.53475398192965" lon="10.835888999472031"><ele>123.80000000000001</ele><time>2026-04-19T07:24:56.998Z</time></trkpt><trkpt lat="44.53477611766048" lon="10.835740028176481"><ele>123.0</ele><time>2026-04-19T07:24:58.998Z</time></trkpt><trkpt lat="44.53479456966195" lon="10.835574934608202"><ele>122.83333333333333</ele><time>2026-04-19T07:25:00.998Z</time></trkpt><trkpt lat="44.534814586629565" lon="10.835398572640687"><ele>122.66666666666666</ele><time>2026-04-19T07:25:02.998Z</time></trkpt><trkpt lat="44.53482767902949" lon="10.83530799174402"><ele>122.5</ele><time>2026-04-19T07:25:03.998Z</time></trkpt><trkpt lat="44.53484045744851" lon="10.835217847205698"><ele>122.33333333333333</ele><time>2026-04-19T07:25:04.998Z</time></trkpt><trkpt lat="44.534858175036774" lon="10.835130224600965"><ele>122.16666666666666</ele><time>2026-04-19T07:25:05.998Z</time></trkpt><trkpt lat="44.534913744683315" lon="10.834989025636194"><ele>122.0</ele><time>2026-04-19T07:25:07.998Z</time></trkpt><trkpt lat="44.534972727939646" lon="10.834941567993173"><ele>121.99999999999999</ele><time>2026-04-19T07:25:09.998Z</time></trkpt><trkpt lat="44.53505025244367" lon="10.834878288157624"><ele>122.0</ele><time>2026-04-19T07:25:11.998Z</time></trkpt><trkpt lat="44.53511822548195" lon="10.834812794300042"><ele>122.0</ele><time>2026-04-19T07:25:13.998Z</time></trkpt><trkpt lat="44.53513431353795" lon="10.83470941426126"><ele>122.0</ele><time>2026-04-19T07:25:19Z</time></trkpt><trkpt lat="44.535128622145635" lon="10.834621138458555"><ele>121.99999999999999</ele><time>2026-04-19T07:25:21Z</time></trkpt><trkpt lat="44.535047812383006" lon="10.834558070021638"><ele>122.0</ele><time>2026-04-19T07:25:23Z</time></trkpt><trkpt lat="44.53501492007927" lon="10.834445894979245"><ele>122.0</ele><time>2026-04-19T07:25:25Z</time></trkpt><trkpt lat="44.53501323882263" lon="10.834310372295711"><ele>121.99999999999999</ele><time>2026-04-19T07:25:27Z</time></trkpt><trkpt lat="44.535017773498325" lon="10.834171166346392"><ele>121.99999999999999</ele><time>2026-04-19T07:25:29Z</time></trkpt><trkpt lat="44.53502190385771" lon="10.834031634774473"><ele>122.0</ele><time>2026-04-19T07:25:31Z</time></trkpt><trkpt lat="44.53506228420677" lon="10.833901836443646"><ele>122.0</ele><time>2026-04-19T07:25:33Z</time></trkpt><trkpt lat="44.53507162502597" lon="10.833776926213112"><ele>122.19999999999999</ele><time>2026-04-19T07:25:35Z</time></trkpt><trkpt lat="44.53506298464822" lon="10.83364837507892"><ele>122.39999999999999</ele><time>2026-04-19T07:25:39Z</time></trkpt><trkpt lat="44.53507098152855" lon="10.833532397251142"><ele>122.60000000000001</ele><time>2026-04-19T07:25:41Z</time></trkpt><trkpt lat="44.53508026231771" lon="10.833395491097145"><ele>122.80000000000001</ele><time>2026-04-19T07:25:43Z</time></trkpt><trkpt lat="44.535105438728756" lon="10.833251999473303"><ele>123.0</ele><time>2026-04-19T07:25:45Z</time></trkpt><trkpt lat="44.5351217989251" lon="10.83310539020762"><ele>123.0</ele><time>2026-04-19T07:25:47Z</time></trkpt><trkpt lat="44.53514567875742" lon="10.832956473976141"><ele>123.00000000000001</ele><time>2026-04-19T07:25:49Z</time></trkpt><trkpt lat="44.535161046184065" lon="10.832808274481033"><ele>123.00000000000001</ele><time>2026-04-19T07:25:51Z</time></trkpt><trkpt lat="44.53517651591194" lon="10.83265362880715"><ele>123.0</ele><time>2026-04-19T07:25:53Z</time></trkpt><trkpt lat="44.53520173155" lon="10.832505361263198"><ele>123.0</ele><time>2026-04-19T07:25:55Z</time></trkpt><trkpt lat="44.53521104925134" lon="10.832348718176412"><ele>123.0</ele><time>2026-04-19T07:25:57Z</time></trkpt><trkpt lat="44.53523139601865" lon="10.832190950550233"><ele>123.0</ele><time>2026-04-19T07:25:59Z</time></trkpt><trkpt lat="44.535250921833544" lon="10.832027002956005"><ele>123.0</ele><time>2026-04-19T07:26:00.999Z</time></trkpt><trkpt lat="44.53526966792932" lon="10.831868721165183"><ele>123.0</ele><time>2026-04-19T07:26:02.999Z</time></trkpt><trkpt lat="44.53528547712923" lon="10.831713358875398"><ele>123.0</ele><time>2026-04-19T07:26:04.999Z</time></trkpt><trkpt lat="44.53531369765852" lon="10.831556847920913"><ele>123.00000000000001</ele><time>2026-04-19T07:26:06.999Z</time></trkpt><trkpt lat="44.535333174965814" lon="10.83140294590671"><ele>123.00000000000001</ele><time>2026-04-19T07:26:08.999Z</time></trkpt><trkpt lat="44.535361247543555" lon="10.831263038100309"><ele>123.0</ele><time>2026-04-19T07:26:10.999Z</time></trkpt><trkpt lat="44.53537371062154" lon="10.83110758611761"><ele>123.0</ele><time>2026-04-19T07:26:12.999Z</time></trkpt><trkpt lat="44.535395349564844" lon="10.830956784808402"><ele>122.80000000000001</ele><time>2026-04-19T07:26:14.999Z</time></trkpt><trkpt lat="44.53541243000256" lon="10.830802963896437"><ele>122.60000000000001</ele><time>2026-04-19T07:26:16.999Z</time></trkpt><trkpt lat="44.53542972007692" lon="10.830647142514797"><ele>122.39999999999999</ele><time>2026-04-19T07:26:18.999Z</time></trkpt><trkpt lat="44.53544834698002" lon="10.830499576511514"><ele>122.19999999999999</ele><time>2026-04-19T07:26:20.999Z</time></trkpt><trkpt lat="44.53546957017764" lon="10.830351751005534"><ele>122.0</ele><time>2026-04-19T07:26:22.999Z</time></trkpt><trkpt lat="44.535485760957286" lon="10.830205814288247"><ele>122.19999999999999</ele><time>2026-04-19T07:26:24.999Z</time></trkpt><trkpt lat="44.53549912101033" lon="10.830054356646508"><ele>122.39999999999999</ele><time>2026-04-19T07:26:26.999Z</time></trkpt><trkpt lat="44.535526519218166" lon="10.82991415462199"><ele>122.60000000000001</ele><time>2026-04-19T07:26:28.999Z</time></trkpt><trkpt lat="44.53554292248398" lon="10.829775154562936"><ele>122.80000000000001</ele><time>2026-04-19T07:26:30.999Z</time></trkpt><trkpt lat="44.535560892034496" lon="10.829635320751857"><ele>123.0</ele><time>2026-04-19T07:26:32.999Z</time></trkpt><trkpt lat="44.535577691225356" lon="10.829500420196132"><ele>123.0</ele><time>2026-04-19T07:26:34.999Z</time></trkpt><trkpt lat="44.53558903668076" lon="10.829365755174374"><ele>123.00000000000001</ele><time>2026-04-19T07:26:36.999Z</time></trkpt><trkpt lat="44.53560625820973" lon="10.829233862302173"><ele>123.00000000000001</ele><time>2026-04-19T07:26:38.999Z</time></trkpt><trkpt lat="44.53561943979043" lon="10.829094263376495"><ele>123.0</ele><time>2026-04-19T07:26:40.999Z</time></trkpt><trkpt lat="44.535633548899945" lon="10.828958659725402"><ele>123.0</ele><time>2026-04-19T07:26:42.999Z</time></trkpt><trkpt lat="44.53564983678191" lon="10.828822343918526"><ele>122.80000000000001</ele><time>2026-04-19T07:26:44.999Z</time></trkpt><trkpt lat="44.53566248867976" lon="10.828679021694459"><ele>122.60000000000001</ele><time>2026-04-19T07:26:46.999Z</time></trkpt><trkpt lat="44.535681580482496" lon="10.82854141271243"><ele>122.39999999999999</ele><time>2026-04-19T07:26:48.999Z</time></trkpt><trkpt lat="44.53570279061941" lon="10.828396491605384"><ele>122.19999999999999</ele><time>2026-04-19T07:26:50.999Z</time></trkpt><trkpt lat="44.53571916360174" lon="10.82825255664368"><ele>122.0</ele><time>2026-04-19T07:26:52.999Z</time></trkpt><trkpt lat="44.53573721503748" lon="10.828098804639684"><ele>122.0</ele><time>2026-04-19T07:26:54.999Z</time></trkpt><trkpt lat="44.535756376875156" lon="10.827942221241436"><ele>122.0</ele><time>2026-04-19T07:26:56.999Z</time></trkpt><trkpt lat="44.53577208691628" lon="10.827780754530222"><ele>122.0</ele><time>2026-04-19T07:26:58.999Z</time></trkpt><trkpt lat="44.53580757963689" lon="10.827625479968718"><ele>122.0</ele><time>2026-04-19T07:27:00.999Z</time></trkpt><trkpt lat="44.53583642908838" lon="10.827465079493912"><ele>122.25</ele><time>2026-04-19T07:27:02.998Z</time></trkpt><trkpt lat="44.53584971936417" lon="10.82729639687506"><ele>122.5</ele><time>2026-04-19T07:27:04.998Z</time></trkpt><trkpt lat="44.53586836983528" lon="10.827133903171303"><ele>122.75</ele><time>2026-04-19T07:27:06.998Z</time></trkpt><trkpt lat="44.535880430218796" lon="10.826977582533663"><ele>123.0</ele><time>2026-04-19T07:27:08.998Z</time></trkpt><trkpt lat="44.53589488435678" lon="10.826821611472658"><ele>123.2</ele><time>2026-04-19T07:27:10.998Z</time></trkpt><trkpt lat="44.53591451154712" lon="10.826672117813626"><ele>123.4</ele><time>2026-04-19T07:27:12.998Z</time></trkpt><trkpt lat="44.535932287529754" lon="10.826523342214047"><ele>123.60000000000001</ele><time>2026-04-19T07:27:14.998Z</time></trkpt><trkpt lat="44.535944964895634" lon="10.82637958634238"><ele>123.80000000000001</ele><time>2026-04-19T07:27:16.998Z</time></trkpt><trkpt lat="44.53596898120157" lon="10.82623386529367"><ele>124.0</ele><time>2026-04-19T07:27:18.998Z</time></trkpt><trkpt lat="44.53599057364144" lon="10.826090166271232"><ele>123.80000000000001</ele><time>2026-04-19T07:27:20.998Z</time></trkpt><trkpt lat="44.53600713875572" lon="10.82594378601788"><ele>123.60000000000001</ele><time>2026-04-19T07:27:23Z</time></trkpt><trkpt lat="44.536034497414924" lon="10.825807864757381"><ele>123.4</ele><time>2026-04-19T07:27:25Z</time></trkpt><trkpt lat="44.53606547610166" lon="10.825659178908815"><ele>123.2</ele><time>2026-04-19T07:27:27Z</time></trkpt><trkpt lat="44.53610263511328" lon="10.825524368032378"><ele>123.0</ele><time>2026-04-19T07:27:29Z</time></trkpt><trkpt lat="44.53613352633454" lon="10.825382367209302"><ele>123.0</ele><time>2026-04-19T07:27:31Z</time></trkpt><trkpt lat="44.53616398737781" lon="10.82523445113986"><ele>123.0</ele><time>2026-04-19T07:27:33Z</time></trkpt><trkpt lat="44.536206198136924" lon="10.825084249900652"><ele>123.0</ele><time>2026-04-19T07:27:35Z</time></trkpt><trkpt lat="44.53624195859679" lon="10.824921593510517"><ele>123.0</ele><time>2026-04-19T07:27:37Z</time></trkpt><trkpt lat="44.53628273850211" lon="10.824766976586917"><ele>123.0</ele><time>2026-04-19T07:27:39Z</time></trkpt><trkpt lat="44.53632590452274" lon="10.824607127264136"><ele>123.0</ele><time>2026-04-19T07:27:41Z</time></trkpt><trkpt lat="44.53636202827798" lon="10.824439793667803"><ele>123.0</ele><time>2026-04-19T07:27:43Z</time></trkpt><trkpt lat="44.53642307480233" lon="10.824300480952516"><ele>123.0</ele><time>2026-04-19T07:27:45Z</time></trkpt><trkpt lat="44.5365194888796" lon="10.824197508142374"><ele>123.2</ele><time>2026-04-19T07:27:47Z</time></trkpt><trkpt lat="44.53658563168601" lon="10.82417037047531"><ele>123.4</ele><time>2026-04-19T07:27:48Z</time></trkpt><trkpt lat="44.53665259573638" lon="10.824009175468168"><ele>123.60000000000001</ele><time>2026-04-19T07:27:50Z</time></trkpt><trkpt lat="44.536627976027596" lon="10.823893832750905"><ele>123.80000000000001</ele><time>2026-04-19T07:27:51Z</time></trkpt><trkpt lat="44.53658092960879" lon="10.823810705308436"><ele>124.0</ele><time>2026-04-19T07:27:52Z</time></trkpt><trkpt lat="44.536575341647826" lon="10.823653511409194"><ele>124.0</ele><time>2026-04-19T07:27:54Z</time></trkpt><trkpt lat="44.53661978198559" lon="10.82348705791785"><ele>124.0</ele><time>2026-04-19T07:27:56Z</time></trkpt><trkpt lat="44.53666044500467" lon="10.823329549809193"><ele>124.0</ele><time>2026-04-19T07:27:58Z</time></trkpt><trkpt lat="44.5367028024494" lon="10.823163601142024"><ele>124.0</ele><time>2026-04-19T07:28:00Z</time></trkpt><trkpt lat="44.53672257014251" lon="10.823076097883405"><ele>124.0</ele><time>2026-04-19T07:28:01Z</time></trkpt><trkpt lat="44.53674234685289" lon="10.822988022252954"><ele>124.00000000000001</ele><time>2026-04-19T07:28:02Z</time></trkpt><trkpt lat="44.536786492928364" lon="10.82282045756996"><ele>124.0</ele><time>2026-04-19T07:28:04Z</time></trkpt><trkpt lat="44.53680974054696" lon="10.822731814443426"><ele>124.0</ele><time>2026-04-19T07:28:05Z</time></trkpt><trkpt lat="44.53683103474215" lon="10.822647257097733"><ele>124.0</ele><time>2026-04-19T07:28:05.999Z</time></trkpt><trkpt lat="44.53685164642826" lon="10.822555941619184"><ele>124.00000000000001</ele><time>2026-04-19T07:28:06.999Z</time></trkpt><trkpt lat="44.53687539144551" lon="10.822470327021819"><ele>124.0</ele><time>2026-04-19T07:28:07.999Z</time></trkpt><trkpt lat="44.536895834660015" lon="10.822385141820805"><ele>123.85714285714286</ele><time>2026-04-19T07:28:08.999Z</time></trkpt><trkpt lat="44.536915339828624" lon="10.822300558422624"><ele>123.71428571428572</ele><time>2026-04-19T07:28:09.999Z</time></trkpt><trkpt lat="44.53693503216623" lon="10.822211405960102"><ele>123.57142857142858</ele><time>2026-04-19T07:28:10.999Z</time></trkpt><trkpt lat="44.53696209292476" lon="10.822123778610234"><ele>123.42857142857144</ele><time>2026-04-19T07:28:11.999Z</time></trkpt><trkpt lat="44.53698405125449" lon="10.822040739972973"><ele>123.28571428571429</ele><time>2026-04-19T07:28:12.999Z</time></trkpt><trkpt lat="44.53700686731327" lon="10.821956987260634"><ele>123.14285714285717</ele><time>2026-04-19T07:28:13.999Z</time></trkpt><trkpt lat="44.537028055017004" lon="10.821868417150606"><ele>123.00000000000001</ele><time>2026-04-19T07:28:14.999Z</time></trkpt><trkpt lat="44.53704886627085" lon="10.82178204936898"><ele>122.60000000000001</ele><time>2026-04-19T07:28:15.999Z</time></trkpt><trkpt lat="44.53707319344969" lon="10.821695348827456"><ele>122.20000000000002</ele><time>2026-04-19T07:28:16.999Z</time></trkpt><trkpt lat="44.53711674319732" lon="10.821535301846724"><ele>121.8</ele><time>2026-04-19T07:28:18.999Z</time></trkpt><trkpt lat="44.53713741761305" lon="10.821450611049332"><ele>121.4</ele><time>2026-04-19T07:28:19.999Z</time></trkpt><trkpt lat="44.53717576361629" lon="10.821287330022555"><ele>121.0</ele><time>2026-04-19T07:28:21.999Z</time></trkpt><trkpt lat="44.53722757735997" lon="10.821136521018508"><ele>121.0</ele><time>2026-04-19T07:28:23.999Z</time></trkpt><trkpt lat="44.53734360355664" lon="10.821115788826784"><ele>121.0</ele><time>2026-04-19T07:28:25.999Z</time></trkpt><trkpt lat="44.53740403580568" lon="10.821158480829812"><ele>121.0</ele><time>2026-04-19T07:28:26.999Z</time></trkpt><trkpt lat="44.53751912233986" lon="10.821226760979636"><ele>121.0</ele><time>2026-04-19T07:28:28.999Z</time></trkpt><trkpt lat="44.53763338600443" lon="10.821284868691547"><ele>121.0</ele><time>2026-04-19T07:28:30.999Z</time></trkpt><trkpt lat="44.5377505966407" lon="10.821356122545463"><ele>121.0</ele><time>2026-04-19T07:28:32.999Z</time></trkpt><trkpt lat="44.53781309797265" lon="10.821375282502224"><ele>121.0</ele><time>2026-04-19T07:28:33.999Z</time></trkpt><trkpt lat="44.53787521123817" lon="10.821399471105329"><ele>121.0</ele><time>2026-04-19T07:28:34.999Z</time></trkpt><trkpt lat="44.53793548052625" lon="10.821425569433154"><ele>121.0</ele><time>2026-04-19T07:28:35.999Z</time></trkpt><trkpt lat="44.537998438632535" lon="10.821452748765255"><ele>121.0</ele><time>2026-04-19T07:28:36.999Z</time></trkpt><trkpt lat="44.53805769127411" lon="10.821486035902394"><ele>121.0</ele><time>2026-04-19T07:28:37.999Z</time></trkpt><trkpt lat="44.53811795519879" lon="10.821514063521652"><ele>121.0</ele><time>2026-04-19T07:28:38.999Z</time></trkpt><trkpt lat="44.53817545563047" lon="10.821550162142833"><ele>121.0</ele><time>2026-04-19T07:28:39.999Z</time></trkpt><trkpt lat="44.53823545257945" lon="10.821580057695812"><ele>120.66666666666667</ele><time>2026-04-19T07:28:40.999Z</time></trkpt><trkpt lat="44.53829754387402" lon="10.821614684942977"><ele>120.33333333333334</ele><time>2026-04-19T07:28:41.999Z</time></trkpt><trkpt lat="44.538361482410224" lon="10.821646836787822"><ele>120.0</ele><time>2026-04-19T07:28:42.999Z</time></trkpt><trkpt lat="44.5384218251346" lon="10.821678150714252"><ele>119.66666666666666</ele><time>2026-04-19T07:28:43.999Z</time></trkpt><trkpt lat="44.538484488943375" lon="10.821708300426765"><ele>119.33333333333333</ele><time>2026-04-19T07:28:44.999Z</time></trkpt><trkpt lat="44.538544252346874" lon="10.8217394510145"><ele>119.0</ele><time>2026-04-19T07:28:45.999Z</time></trkpt><trkpt lat="44.5386611995502" lon="10.821812059658336"><ele>118.33333333333333</ele><time>2026-04-19T07:28:47.999Z</time></trkpt><trkpt lat="44.53872072395027" lon="10.821778553685158"><ele>117.66666666666666</ele><time>2026-04-19T07:28:48.999Z</time></trkpt><trkpt lat="44.53876341487315" lon="10.821707195556263"><ele>117.0</ele><time>2026-04-19T07:28:49.999Z</time></trkpt><trkpt lat="44.53878558318431" lon="10.821623960512547"><ele>116.33333333333334</ele><time>2026-04-19T07:28:50.999Z</time></trkpt><trkpt lat="44.53882077350468" lon="10.821458890095784"><ele>115.66666666666667</ele><time>2026-04-19T07:28:52.999Z</time></trkpt><trkpt lat="44.538872655293325" lon="10.82130704307586"><ele>115.0</ele><time>2026-04-19T07:28:54.999Z</time></trkpt><trkpt lat="44.538911321943296" lon="10.82115128102427"><ele>115.0</ele><time>2026-04-19T07:28:56.999Z</time></trkpt><trkpt lat="44.53894927193424" lon="10.820990130598023"><ele>115.0</ele><time>2026-04-19T07:28:58.999Z</time></trkpt><trkpt lat="44.538988030735936" lon="10.82083138137403"><ele>115.0</ele><time>2026-04-19T07:29:00.999Z</time></trkpt><trkpt lat="44.539027809263935" lon="10.820678788368413"><ele>115.0</ele><time>2026-04-19T07:29:02.999Z</time></trkpt><trkpt lat="44.539058285673086" lon="10.820523061306266"><ele>115.4</ele><time>2026-04-19T07:29:04.999Z</time></trkpt><trkpt lat="44.53910918381139" lon="10.820385552632564"><ele>115.8</ele><time>2026-04-19T07:29:06.999Z</time></trkpt><trkpt lat="44.53914214914412" lon="10.820241066044918"><ele>116.19999999999999</ele><time>2026-04-19T07:29:08.998Z</time></trkpt><trkpt lat="44.53917138650476" lon="10.820107709277542"><ele>116.6</ele><time>2026-04-19T07:29:10.998Z</time></trkpt><trkpt lat="44.539199146772184" lon="10.819962638300765"><ele>117.0</ele><time>2026-04-19T07:29:12.998Z</time></trkpt><trkpt lat="44.539221475180575" lon="10.819830457017476"><ele>117.0</ele><time>2026-04-19T07:29:14.998Z</time></trkpt><trkpt lat="44.539245390041266" lon="10.819684857177085"><ele>116.99999999999999</ele><time>2026-04-19T07:29:16.998Z</time></trkpt><trkpt lat="44.53928559644467" lon="10.81954838202103"><ele>116.99999999999999</ele><time>2026-04-19T07:29:18.998Z</time></trkpt><trkpt lat="44.5393014910222" lon="10.819401180477934"><ele>117.0</ele><time>2026-04-19T07:29:20.998Z</time></trkpt><trkpt lat="44.539341175243244" lon="10.819260308562445"><ele>117.0</ele><time>2026-04-19T07:29:22.998Z</time></trkpt><trkpt lat="44.539369683796885" lon="10.819113391062528"><ele>116.83333333333333</ele><time>2026-04-19T07:29:24.998Z</time></trkpt><trkpt lat="44.539412606968874" lon="10.818987168636882"><ele>116.66666666666666</ele><time>2026-04-19T07:29:26.998Z</time></trkpt><trkpt lat="44.53943901091709" lon="10.818861538814442"><ele>116.5</ele><time>2026-04-19T07:29:29Z</time></trkpt><trkpt lat="44.53945552139348" lon="10.818738891462457"><ele>116.33333333333333</ele><time>2026-04-19T07:29:31Z</time></trkpt><trkpt lat="44.539471467438126" lon="10.818651944878983"><ele>116.16666666666666</ele><time>2026-04-19T07:29:33Z</time></trkpt><trkpt lat="44.539534245778334" lon="10.818544453713525"><ele>116.0</ele><time>2026-04-19T07:29:36Z</time></trkpt><trkpt lat="44.53973912042724" lon="10.818569972245582"><ele>116.0</ele><time>2026-04-19T07:29:37Z</time></trkpt><trkpt lat="44.53983154660729" lon="10.818501269197302"><ele>116.0</ele><time>2026-04-19T07:29:39Z</time></trkpt><trkpt lat="44.539924604410956" lon="10.818433921336105"><ele>116.0</ele><time>2026-04-19T07:29:41Z</time></trkpt><trkpt lat="44.54001742084202" lon="10.818363186912233"><ele>116.0</ele><time>2026-04-19T07:29:43Z</time></trkpt><trkpt lat="44.54011207536365" lon="10.818292791440154"><ele>116.0</ele><time>2026-04-19T07:29:45Z</time></trkpt><trkpt lat="44.54020141175648" lon="10.818227166558291"><ele>116.0</ele><time>2026-04-19T07:29:47Z</time></trkpt><trkpt lat="44.54029600471686" lon="10.818159500018242"><ele>116.0</ele><time>2026-04-19T07:29:49Z</time></trkpt><trkpt lat="44.54038498347406" lon="10.818086752610297"><ele>116.0</ele><time>2026-04-19T07:29:51Z</time></trkpt><trkpt lat="44.540472692052575" lon="10.81801942836561"><ele>116.0</ele><time>2026-04-19T07:29:53Z</time></trkpt><trkpt lat="44.54054030968722" lon="10.81795072777096"><ele>116.0</ele><time>2026-04-19T07:29:55Z</time></trkpt><trkpt lat="44.54062391943596" lon="10.817905569789307"><ele>116.0</ele><time>2026-04-19T07:29:57Z</time></trkpt><trkpt lat="44.54071568418711" lon="10.817847753223669"><ele>116.0</ele><time>2026-04-19T07:29:59Z</time></trkpt><trkpt lat="44.54080258988064" lon="10.817775975522736"><ele>116.0</ele><time>2026-04-19T07:30:01Z</time></trkpt><trkpt lat="44.54088742278846" lon="10.817707836167594"><ele>116.0</ele><time>2026-04-19T07:30:03Z</time></trkpt><trkpt lat="44.54097532714563" lon="10.81763917838771"><ele>116.0</ele><time>2026-04-19T07:30:05Z</time></trkpt><trkpt lat="44.54106866719441" lon="10.817569482978724"><ele>116.0</ele><time>2026-04-19T07:30:07Z</time></trkpt><trkpt lat="44.54116398883971" lon="10.817500858555679"><ele>116.0</ele><time>2026-04-19T07:30:09Z</time></trkpt><trkpt lat="44.54125296241295" lon="10.817434108176277"><ele>116.0</ele><time>2026-04-19T07:30:11Z</time></trkpt><trkpt lat="44.54133925218523" lon="10.817369014480464"><ele>116.0</ele><time>2026-04-19T07:30:12.999Z</time></trkpt><trkpt lat="44.54138962093977" lon="10.817309072762404"><ele>116.0</ele><time>2026-04-19T07:30:15.999Z</time></trkpt><trkpt lat="44.541493261762646" lon="10.817336521933763"><ele>116.0</ele><time>2026-04-19T07:30:18.999Z</time></trkpt><trkpt lat="44.541578291995116" lon="10.817418376831283"><ele>116.0</ele><time>2026-04-19T07:30:20.999Z</time></trkpt><trkpt lat="44.541673158212596" lon="10.817497709639103"><ele>116.0</ele><time>2026-04-19T07:30:22.999Z</time></trkpt><trkpt lat="44.5417416752179" lon="10.81762310329365"><ele>116.0</ele><time>2026-04-19T07:30:24.999Z</time></trkpt><trkpt lat="44.54173895501535" lon="10.81771138822423"><ele>116.0</ele><time>2026-04-19T07:30:26.999Z</time></trkpt><trkpt lat="44.54175639749938" lon="10.817821433615137"><ele>116.16666666666666</ele><time>2026-04-19T07:30:28.999Z</time></trkpt><trkpt lat="44.54178882377031" lon="10.817902252643762"><ele>116.33333333333333</ele><time>2026-04-19T07:30:30.999Z</time></trkpt><trkpt lat="44.541705915986014" lon="10.818046009282648"><ele>116.5</ele><time>2026-04-19T07:30:32.999Z</time></trkpt><trkpt lat="44.54164135546029" lon="10.81812383118997"><ele>116.66666666666666</ele><time>2026-04-19T07:30:34.999Z</time></trkpt><trkpt lat="44.54170561967483" lon="10.818023342309134"><ele>116.83333333333333</ele><time>2026-04-19T07:30:42.999Z</time></trkpt><trkpt lat="44.5417427638584" lon="10.817941583400517"><ele>117.0</ele><time>2026-04-19T07:30:44.999Z</time></trkpt><trkpt lat="44.54177698193128" lon="10.817844908793404"><ele>117.0</ele><time>2026-04-19T07:30:46.999Z</time></trkpt><trkpt lat="44.541913826276094" lon="10.817856982884374"><ele>117.0</ele><time>2026-04-19T07:30:48.999Z</time></trkpt><trkpt lat="44.54163662671596" lon="10.817655514748322"><ele>117.0</ele><time>2026-04-19T07:30:49.999Z</time></trkpt><trkpt lat="44.54167625686558" lon="10.81756283899237"><ele>117.0</ele><time>2026-04-19T07:30:52.999Z</time></trkpt><trkpt lat="44.54167867165056" lon="10.817696469144206"><ele>117.0</ele><time>2026-04-19T07:30:57.999Z</time></trkpt><trkpt lat="44.54178825418304" lon="10.817805914729478"><ele>117.0</ele><time>2026-04-19T07:30:58.999Z</time></trkpt><trkpt lat="44.5418817040278" lon="10.817889895187216"><ele>117.0</ele><time>2026-04-19T07:31:00.999Z</time></trkpt><trkpt lat="44.54199238925091" lon="10.817839949847476"><ele>116.75</ele><time>2026-04-19T07:31:02.999Z</time></trkpt><trkpt lat="44.54206815335451" lon="10.817710748026553"><ele>116.5</ele><time>2026-04-19T07:31:04.999Z</time></trkpt><trkpt lat="44.542127661173254" lon="10.817569209005919"><ele>116.25</ele><time>2026-04-19T07:31:06.999Z</time></trkpt><trkpt lat="44.54221075955439" lon="10.817459151285464"><ele>116.0</ele><time>2026-04-19T07:31:08.999Z</time></trkpt><trkpt lat="44.542297711976126" lon="10.817339009769634"><ele>115.5</ele><time>2026-04-19T07:31:10.999Z</time></trkpt><trkpt lat="44.54238797155551" lon="10.817222652670795"><ele>115.0</ele><time>2026-04-19T07:31:12.999Z</time></trkpt><trkpt lat="44.54247991825945" lon="10.81710697515243"><ele>114.5</ele><time>2026-04-19T07:31:14.998Z</time></trkpt><trkpt lat="44.542569603062034" lon="10.81698849534701"><ele>114.0</ele><time>2026-04-19T07:31:16.998Z</time></trkpt><trkpt lat="44.542672353743875" lon="10.816898498123669"><ele>114.0</ele><time>2026-04-19T07:31:18.998Z</time></trkpt><trkpt lat="44.54279201433542" lon="10.816903817754245"><ele>114.0</ele><time>2026-04-19T07:31:20.998Z</time></trkpt><trkpt lat="44.542903449926726" lon="10.816853122595308"><ele>114.0</ele><time>2026-04-19T07:31:22.998Z</time></trkpt><trkpt lat="44.542982186891884" lon="10.81671499876323"><ele>114.0</ele><time>2026-04-19T07:31:24.998Z</time></trkpt><trkpt lat="44.54301840926333" lon="10.816637781124713"><ele>114.0</ele><time>2026-04-19T07:31:25.998Z</time></trkpt><trkpt lat="44.543076739807574" lon="10.816593250052492"><ele>113.71428571428571</ele><time>2026-04-19T07:31:26.998Z</time></trkpt><trkpt lat="44.54314403592545" lon="10.816560380096906"><ele>113.42857142857142</ele><time>2026-04-19T07:31:27.998Z</time></trkpt><trkpt lat="44.54321373642483" lon="10.816563115146248"><ele>113.14285714285714</ele><time>2026-04-19T07:31:28.998Z</time></trkpt><trkpt lat="44.543277184304806" lon="10.816592804598805"><ele>112.85714285714286</ele><time>2026-04-19T07:31:29.998Z</time></trkpt><trkpt lat="44.543344155776346" lon="10.816597549084628"><ele>112.57142857142857</ele><time>2026-04-19T07:31:30.998Z</time></trkpt><trkpt lat="44.54341034785072" lon="10.816604619637223"><ele>112.28571428571428</ele><time>2026-04-19T07:31:31.998Z</time></trkpt><trkpt lat="44.54347642543971" lon="10.816614612562732"><ele>112.0</ele><time>2026-04-19T07:31:32.998Z</time></trkpt><trkpt lat="44.54354296812591" lon="10.816624627612923"><ele>112.0</ele><time>2026-04-19T07:31:34Z</time></trkpt><trkpt lat="44.543607640257015" lon="10.816628305079897"><ele>112.0</ele><time>2026-04-19T07:31:35Z</time></trkpt><trkpt lat="44.54367167052476" lon="10.816637412498284"><ele>112.0</ele><time>2026-04-19T07:31:36Z</time></trkpt><trkpt lat="44.54373666458092" lon="10.816645214275168"><ele>112.0</ele><time>2026-04-19T07:31:37Z</time></trkpt><trkpt lat="44.54380279628876" lon="10.81665220427148"><ele>112.0</ele><time>2026-04-19T07:31:38Z</time></trkpt><trkpt lat="44.54386920440601" lon="10.816658782770572"><ele>112.0</ele><time>2026-04-19T07:31:39Z</time></trkpt><trkpt lat="44.54393528234995" lon="10.816666359853306"><ele>112.0</ele><time>2026-04-19T07:31:40Z</time></trkpt><trkpt lat="44.54399949068598" lon="10.816676019216782"><ele>111.83333333333334</ele><time>2026-04-19T07:31:41Z</time></trkpt><trkpt lat="44.544062986865875" lon="10.81667312532035"><ele>111.66666666666667</ele><time>2026-04-19T07:31:42Z</time></trkpt><trkpt lat="44.54412665252904" lon="10.816687244398578"><ele>111.5</ele><time>2026-04-19T07:31:43Z</time></trkpt><trkpt lat="44.54425200017834" lon="10.816704453632664"><ele>111.33333333333334</ele><time>2026-04-19T07:31:45Z</time></trkpt><trkpt lat="44.54431554880763" lon="10.816710841238422"><ele>111.16666666666667</ele><time>2026-04-19T07:31:46Z</time></trkpt><trkpt lat="44.54437915481817" lon="10.816717863062085"><ele>111.0</ele><time>2026-04-19T07:31:47Z</time></trkpt><trkpt lat="44.544502955673806" lon="10.81673433264204"><ele>111.16666666666667</ele><time>2026-04-19T07:31:49Z</time></trkpt><trkpt lat="44.544626304975296" lon="10.816751128217259"><ele>111.33333333333334</ele><time>2026-04-19T07:31:51Z</time></trkpt><trkpt lat="44.544691074288494" lon="10.816759841118227"><ele>111.5</ele><time>2026-04-19T07:31:52Z</time></trkpt><trkpt lat="44.54481114770314" lon="10.81678350303796"><ele>111.66666666666667</ele><time>2026-04-19T07:31:54Z</time></trkpt><trkpt lat="44.54487412981364" lon="10.816793641010612"><ele>111.83333333333334</ele><time>2026-04-19T07:31:55Z</time></trkpt><trkpt lat="44.54493837586604" lon="10.81680552246198"><ele>112.0</ele><time>2026-04-19T07:31:56Z</time></trkpt><trkpt lat="44.545003396702846" lon="10.816815820717828"><ele>111.8</ele><time>2026-04-19T07:31:57Z</time></trkpt><trkpt lat="44.54512897328997" lon="10.816840689306053"><ele>111.6</ele><time>2026-04-19T07:31:59Z</time></trkpt><trkpt lat="44.54525470928616" lon="10.816863244655368"><ele>111.39999999999999</ele><time>2026-04-19T07:32:01Z</time></trkpt><trkpt lat="44.54537987050694" lon="10.81688780178613"><ele>111.19999999999999</ele><time>2026-04-19T07:32:03Z</time></trkpt><trkpt lat="44.54544375632924" lon="10.816899661965724"><ele>111.0</ele><time>2026-04-19T07:32:04Z</time></trkpt><trkpt lat="44.5455685698884" lon="10.816924268017685"><ele>111.5</ele><time>2026-04-19T07:32:06Z</time></trkpt><trkpt lat="44.545690477743285" lon="10.816949242884286"><ele>112.0</ele><time>2026-04-19T07:32:08Z</time></trkpt><trkpt lat="44.54580963934578" lon="10.816974179243722"><ele>112.5</ele><time>2026-04-19T07:32:10Z</time></trkpt><trkpt lat="44.545927429518585" lon="10.81699675067163"><ele>113.0</ele><time>2026-04-19T07:32:12Z</time></trkpt><trkpt lat="44.546044686463816" lon="10.817018792398137"><ele>113.0</ele><time>2026-04-19T07:32:14Z</time></trkpt><trkpt lat="44.54616139068765" lon="10.817041757208207"><ele>113.0</ele><time>2026-04-19T07:32:16Z</time></trkpt><trkpt lat="44.54627822004912" lon="10.817066609122366"><ele>113.0</ele><time>2026-04-19T07:32:18Z</time></trkpt><trkpt lat="44.5463941142545" lon="10.817090088835178"><ele>113.0</ele><time>2026-04-19T07:32:19.999Z</time></trkpt><trkpt lat="44.54650948151326" lon="10.817113473303417"><ele>112.0</ele><time>2026-04-19T07:32:21.999Z</time></trkpt><trkpt lat="44.5466215683157" lon="10.817136588152373"><ele>111.0</ele><time>2026-04-19T07:32:23.999Z</time></trkpt><trkpt lat="44.54673572781533" lon="10.817159014580602"><ele>110.0</ele><time>2026-04-19T07:32:25.999Z</time></trkpt><trkpt lat="44.5468473554078" lon="10.817185547671437"><ele>109.0</ele><time>2026-04-19T07:32:27.999Z</time></trkpt><trkpt lat="44.546958622279384" lon="10.817212234259387"><ele>109.2</ele><time>2026-04-19T07:32:29.999Z</time></trkpt><trkpt lat="44.54706395439434" lon="10.817244233587532"><ele>109.4</ele><time>2026-04-19T07:32:31.999Z</time></trkpt><trkpt lat="44.54716853238868" lon="10.81728241750654"><ele>109.6</ele><time>2026-04-19T07:32:33.999Z</time></trkpt><trkpt lat="44.54727094926323" lon="10.817325726872443"><ele>109.8</ele><time>2026-04-19T07:32:35.999Z</time></trkpt><trkpt lat="44.5473689892229" lon="10.817382986707122"><ele>110.0</ele><time>2026-04-19T07:32:37.999Z</time></trkpt><trkpt lat="44.547466859498904" lon="10.817453347830151"><ele>110.0</ele><time>2026-04-19T07:32:39.999Z</time></trkpt><trkpt lat="44.54755960589119" lon="10.81753245303636"><ele>110.0</ele><time>2026-04-19T07:32:41.999Z</time></trkpt><trkpt lat="44.54764515884924" lon="10.817622777732664"><ele>110.0</ele><time>2026-04-19T07:32:43.999Z</time></trkpt><trkpt lat="44.547724912210995" lon="10.817721278413025"><ele>110.0</ele><time>2026-04-19T07:32:45.999Z</time></trkpt><trkpt lat="44.54780380385892" lon="10.817833058287908"><ele>110.0</ele><time>2026-04-19T07:32:47.999Z</time></trkpt><trkpt lat="44.5478750434003" lon="10.817948220845151"><ele>110.0</ele><time>2026-04-19T07:32:49.999Z</time></trkpt><trkpt lat="44.54794129089603" lon="10.818071794624688"><ele>110.0</ele><time>2026-04-19T07:32:51.999Z</time></trkpt><trkpt lat="44.54800519402393" lon="10.818198326686197"><ele>110.0</ele><time>2026-04-19T07:32:53.999Z</time></trkpt><trkpt lat="44.54806715815195" lon="10.818336174619768"><ele>110.0</ele><time>2026-04-19T07:32:55.999Z</time></trkpt><trkpt lat="44.548128149979476" lon="10.81847084256054"><ele>109.75</ele><time>2026-04-19T07:32:57.999Z</time></trkpt><trkpt lat="44.548199278563885" lon="10.818603708710128"><ele>109.5</ele><time>2026-04-19T07:32:59.999Z</time></trkpt><trkpt lat="44.548270713664145" lon="10.818733752115858"><ele>109.25</ele><time>2026-04-19T07:33:01.999Z</time></trkpt><trkpt lat="44.54834200857167" lon="10.81886221761949"><ele>109.0</ele><time>2026-04-19T07:33:03.999Z</time></trkpt><trkpt lat="44.54842014261158" lon="10.81899054467763"><ele>109.0</ele><time>2026-04-19T07:33:05.999Z</time></trkpt><trkpt lat="44.548497620618726" lon="10.819115184130329"><ele>109.0</ele><time>2026-04-19T07:33:07.999Z</time></trkpt><trkpt lat="44.5485763131763" lon="10.819238690992933"><ele>109.0</ele><time>2026-04-19T07:33:09.999Z</time></trkpt><trkpt lat="44.548654927831606" lon="10.819359845953883"><ele>109.0</ele><time>2026-04-19T07:33:11.999Z</time></trkpt><trkpt lat="44.54873496868011" lon="10.819480954396383"><ele>109.0</ele><time>2026-04-19T07:33:13.999Z</time></trkpt><trkpt lat="44.548814321089104" lon="10.819599309423397"><ele>109.0</ele><time>2026-04-19T07:33:15.999Z</time></trkpt><trkpt lat="44.54889130633068" lon="10.81972018812045"><ele>109.0</ele><time>2026-04-19T07:33:17.999Z</time></trkpt><trkpt lat="44.54897310782819" lon="10.819843043765243"><ele>109.0</ele><time>2026-04-19T07:33:19.999Z</time></trkpt><trkpt lat="44.549048862337045" lon="10.819964164423334"><ele>109.0</ele><time>2026-04-19T07:33:21.998Z</time></trkpt><trkpt lat="44.54913103766116" lon="10.820087269037751"><ele>109.0</ele><time>2026-04-19T07:33:23.998Z</time></trkpt><trkpt lat="44.54921255083529" lon="10.820210645712578"><ele>109.0</ele><time>2026-04-19T07:33:25.998Z</time></trkpt><trkpt lat="44.549298948027094" lon="10.820322577683992"><ele>109.0</ele><time>2026-04-19T07:33:27.998Z</time></trkpt><trkpt lat="44.549380328320396" lon="10.820430406968907"><ele>109.2</ele><time>2026-04-19T07:33:29.998Z</time></trkpt><trkpt lat="44.54946367197311" lon="10.820541878292419"><ele>109.4</ele><time>2026-04-19T07:33:31.998Z</time></trkpt><trkpt lat="44.549541598449636" lon="10.820671344448872"><ele>109.6</ele><time>2026-04-19T07:33:33.998Z</time></trkpt><trkpt lat="44.549585138747204" lon="10.820814121318202"><ele>109.8</ele><time>2026-04-19T07:33:35.998Z</time></trkpt><trkpt lat="44.54962621551295" lon="10.820884161701066"><ele>110.0</ele><time>2026-04-19T07:33:36.998Z</time></trkpt><trkpt lat="44.549609384314856" lon="10.82107459634521"><ele>109.0</ele><time>2026-04-19T07:33:38.998Z</time></trkpt><trkpt lat="44.54960000149211" lon="10.821213280640297"><ele>108.0</ele><time>2026-04-19T07:33:41Z</time></trkpt><trkpt lat="44.549642007763055" lon="10.82134029051489"><ele>107.0</ele><time>2026-04-19T07:33:43Z</time></trkpt><trkpt lat="44.549720899047365" lon="10.821414904289636"><ele>106.0</ele><time>2026-04-19T07:33:45Z</time></trkpt><trkpt lat="44.549829218763016" lon="10.821517162560594"><ele>105.0</ele><time>2026-04-19T07:33:47Z</time></trkpt><trkpt lat="44.54987821604311" lon="10.821578594711172"><ele>105.0</ele><time>2026-04-19T07:33:48Z</time></trkpt><trkpt lat="44.54993537208187" lon="10.821740308267408"><ele>105.0</ele><time>2026-04-19T07:33:50Z</time></trkpt><trkpt lat="44.54998698931318" lon="10.821878254100138"><ele>105.0</ele><time>2026-04-19T07:33:52Z</time></trkpt><trkpt lat="44.55005674409581" lon="10.8219896501945"><ele>105.0</ele><time>2026-04-19T07:33:54Z</time></trkpt><trkpt lat="44.55013119386218" lon="10.822089222407548"><ele>105.0</ele><time>2026-04-19T07:33:56Z</time></trkpt><trkpt lat="44.55021298414024" lon="10.822173016578983"><ele>105.0</ele><time>2026-04-19T07:33:58Z</time></trkpt><trkpt lat="44.55029762575269" lon="10.822229138727893"><ele>105.0</ele><time>2026-04-19T07:34:00Z</time></trkpt><trkpt lat="44.55038679574807" lon="10.822270665269128"><ele>105.0</ele><time>2026-04-19T07:34:02Z</time></trkpt><trkpt lat="44.55047861509863" lon="10.82228644850882"><ele>105.0</ele><time>2026-04-19T07:34:04Z</time></trkpt><trkpt lat="44.55056986034558" lon="10.822292668438815"><ele>105.0</ele><time>2026-04-19T07:34:06Z</time></trkpt><trkpt lat="44.550670616452976" lon="10.822304059289516"><ele>105.0</ele><time>2026-04-19T07:34:08Z</time></trkpt><trkpt lat="44.55076065432853" lon="10.82231504640649"><ele>105.0</ele><time>2026-04-19T07:34:10Z</time></trkpt><trkpt lat="44.5508542916272" lon="10.822315796963542"><ele>105.0</ele><time>2026-04-19T07:34:12Z</time></trkpt><trkpt lat="44.550945308085716" lon="10.822322693753744"><ele>105.0</ele><time>2026-04-19T07:34:14Z</time></trkpt><trkpt lat="44.551041779053946" lon="10.822333909960754"><ele>105.0</ele><time>2026-04-19T07:34:16Z</time></trkpt><trkpt lat="44.55114536831955" lon="10.822346614226158"><ele>105.5</ele><time>2026-04-19T07:34:18Z</time></trkpt><trkpt lat="44.55126192033644" lon="10.822349868738712"><ele>106.0</ele><time>2026-04-19T07:34:20Z</time></trkpt><trkpt lat="44.55138563601142" lon="10.822356639777453"><ele>106.5</ele><time>2026-04-19T07:34:22Z</time></trkpt><trkpt lat="44.55145123759213" lon="10.822354342141818"><ele>107.0</ele><time>2026-04-19T07:34:23Z</time></trkpt><trkpt lat="44.55152133640686" lon="10.822344758515367"><ele>107.5</ele><time>2026-04-19T07:34:23.999Z</time></trkpt><trkpt lat="44.551592652692875" lon="10.822330257480532"><ele>108.0</ele><time>2026-04-19T07:34:24.999Z</time></trkpt><trkpt lat="44.5516635336507" lon="10.822308887091054"><ele>108.0</ele><time>2026-04-19T07:34:25.999Z</time></trkpt><trkpt lat="44.55173276902572" lon="10.822272723535107"><ele>108.0</ele><time>2026-04-19T07:34:26.999Z</time></trkpt><trkpt lat="44.55180332164709" lon="10.822227296801"><ele>108.0</ele><time>2026-04-19T07:34:27.999Z</time></trkpt><trkpt lat="44.55187316181371" lon="10.822174508228494"><ele>108.0</ele><time>2026-04-19T07:34:28.999Z</time></trkpt><trkpt lat="44.551941664397425" lon="10.822112486591532"><ele>108.0</ele><time>2026-04-19T07:34:29.999Z</time></trkpt><trkpt lat="44.552009526974665" lon="10.822043821045282"><ele>108.0</ele><time>2026-04-19T07:34:30.999Z</time></trkpt><trkpt lat="44.55207986147473" lon="10.821971506424841"><ele>107.33333333333333</ele><time>2026-04-19T07:34:31.999Z</time></trkpt><trkpt lat="44.552148016033335" lon="10.821900345272773"><ele>106.66666666666666</ele><time>2026-04-19T07:34:32.999Z</time></trkpt><trkpt lat="44.55222294758821" lon="10.821872640166642"><ele>106.0</ele><time>2026-04-19T07:34:33.999Z</time></trkpt><trkpt lat="44.55229950002571" lon="10.821840666711198"><ele>105.33333333333333</ele><time>2026-04-19T07:34:34.999Z</time></trkpt><trkpt lat="44.55237836553146" lon="10.821859334123374"><ele>104.66666666666666</ele><time>2026-04-19T07:34:35.999Z</time></trkpt><trkpt lat="44.55244032808886" lon="10.821837490474739"><ele>104.0</ele><time>2026-04-19T07:34:36.999Z</time></trkpt><trkpt lat="44.55252297905274" lon="10.821729521333584"><ele>104.0</ele><time>2026-04-19T07:34:38.999Z</time></trkpt><trkpt lat="44.55258793371267" lon="10.821597800938765"><ele>104.0</ele><time>2026-04-19T07:34:40.999Z</time></trkpt><trkpt lat="44.55272958514577" lon="10.821631878272514"><ele>104.0</ele><time>2026-04-19T07:34:41.999Z</time></trkpt><trkpt lat="44.55279752871755" lon="10.821758780452885"><ele>104.0</ele><time>2026-04-19T07:34:42.999Z</time></trkpt><trkpt lat="44.552895282210514" lon="10.821865922132229"><ele>104.0</ele><time>2026-04-19T07:34:44.999Z</time></trkpt><trkpt lat="44.552991054998756" lon="10.82194699947772"><ele>104.0</ele><time>2026-04-19T07:34:46.999Z</time></trkpt><trkpt lat="44.55308693682409" lon="10.822035466228298"><ele>104.0</ele><time>2026-04-19T07:34:48.999Z</time></trkpt><trkpt lat="44.55318762079094" lon="10.822091427528354"><ele>104.0</ele><time>2026-04-19T07:34:50.999Z</time></trkpt><trkpt lat="44.5532932118974" lon="10.822171491053279"><ele>103.99999999999999</ele><time>2026-04-19T07:34:52.999Z</time></trkpt><trkpt lat="44.55339336102787" lon="10.822273514484214"><ele>104.0</ele><time>2026-04-19T07:34:54.999Z</time></trkpt><trkpt lat="44.55344652810814" lon="10.822323540777719"><ele>104.0</ele><time>2026-04-19T07:34:55.999Z</time></trkpt><trkpt lat="44.55349911459796" lon="10.82237360803882"><ele>104.0</ele><time>2026-04-19T07:34:56.999Z</time></trkpt><trkpt lat="44.553554358134484" lon="10.822423487963777"><ele>103.99999999999999</ele><time>2026-04-19T07:34:57.999Z</time></trkpt><trkpt lat="44.55360788024206" lon="10.822473645662036"><ele>104.0</ele><time>2026-04-19T07:34:58.999Z</time></trkpt><trkpt lat="44.55371220661251" lon="10.822572275867953"><ele>104.0</ele><time>2026-04-19T07:35:00.999Z</time></trkpt><trkpt lat="44.55376500069199" lon="10.822621122363346"><ele>104.0</ele><time>2026-04-19T07:35:01.999Z</time></trkpt><trkpt lat="44.55386937230816" lon="10.822718743309814"><ele>104.0</ele><time>2026-04-19T07:35:03.999Z</time></trkpt><trkpt lat="44.5539203477022" lon="10.822770903499775"><ele>104.0</ele><time>2026-04-19T07:35:04.999Z</time></trkpt><trkpt lat="44.55401783701617" lon="10.822875619303991"><ele>104.0</ele><time>2026-04-19T07:35:06.999Z</time></trkpt><trkpt lat="44.554116122682515" lon="10.822985539212922"><ele>104.0</ele><time>2026-04-19T07:35:08.999Z</time></trkpt><trkpt lat="44.554206388206694" lon="10.823101165119851"><ele>104.0</ele><time>2026-04-19T07:35:10.999Z</time></trkpt><trkpt lat="44.55429190832355" lon="10.823220267484533"><ele>104.0</ele><time>2026-04-19T07:35:12.999Z</time></trkpt><trkpt lat="44.554378935905405" lon="10.82333973619764"><ele>104.0</ele><time>2026-04-19T07:35:14.999Z</time></trkpt><trkpt lat="44.55446630040562" lon="10.823458085730126"><ele>103.5</ele><time>2026-04-19T07:35:16.999Z</time></trkpt><trkpt lat="44.5545526134864" lon="10.823577482695045"><ele>103.0</ele><time>2026-04-19T07:35:18.999Z</time></trkpt><trkpt lat="44.55463896712612" lon="10.823693967104855"><ele>102.5</ele><time>2026-04-19T07:35:20.999Z</time></trkpt><trkpt lat="44.554728930118394" lon="10.82380672430674"><ele>102.0</ele><time>2026-04-19T07:35:22.999Z</time></trkpt><trkpt lat="44.554825580124444" lon="10.823912206525568"><ele>102.0</ele><time>2026-04-19T07:35:24.999Z</time></trkpt><trkpt lat="44.554922125116306" lon="10.824011727594785"><ele>102.0</ele><time>2026-04-19T07:35:26.998Z</time></trkpt><trkpt lat="44.555026009582384" lon="10.824098412836547"><ele>102.0</ele><time>2026-04-19T07:35:28.998Z</time></trkpt><trkpt lat="44.55513048966154" lon="10.824171857879879"><ele>102.0</ele><time>2026-04-19T07:35:30.998Z</time></trkpt><trkpt lat="44.55523633448992" lon="10.824238079141544"><ele>102.0</ele><time>2026-04-19T07:35:32.998Z</time></trkpt><trkpt lat="44.555345657470376" lon="10.824291495302536"><ele>102.0</ele><time>2026-04-19T07:35:34.998Z</time></trkpt><trkpt lat="44.555456689748915" lon="10.824330920443531"><ele>102.0</ele><time>2026-04-19T07:35:36.998Z</time></trkpt><trkpt lat="44.555568530377094" lon="10.824372407219133"><ele>102.0</ele><time>2026-04-19T07:35:38.998Z</time></trkpt><trkpt lat="44.55568244819159" lon="10.824407736152486"><ele>102.39999999999999</ele><time>2026-04-19T07:35:40.998Z</time></trkpt><trkpt lat="44.55579485580933" lon="10.824437394054652"><ele>102.8</ele><time>2026-04-19T07:35:42.998Z</time></trkpt><trkpt lat="44.55591129910888" lon="10.824473117179078"><ele>103.2</ele><time>2026-04-19T07:35:44.998Z</time></trkpt><trkpt lat="44.55603260457653" lon="10.82451019133743"><ele>103.6</ele><time>2026-04-19T07:35:47Z</time></trkpt><trkpt lat="44.55609422803299" lon="10.8245290825014"><ele>104.0</ele><time>2026-04-19T07:35:48Z</time></trkpt><trkpt lat="44.55615603554521" lon="10.824547611800032"><ele>103.83333333333333</ele><time>2026-04-19T07:35:49Z</time></trkpt><trkpt lat="44.556276861450925" lon="10.824599858061212"><ele>103.66666666666666</ele><time>2026-04-19T07:35:51Z</time></trkpt><trkpt lat="44.55639309774867" lon="10.82466537593357"><ele>103.5</ele><time>2026-04-19T07:35:53Z</time></trkpt><trkpt lat="44.55644987464745" lon="10.82470401662633"><ele>103.33333333333334</ele><time>2026-04-19T07:35:54Z</time></trkpt><trkpt lat="44.556505556186266" lon="10.82474558522587"><ele>103.16666666666667</ele><time>2026-04-19T07:35:55Z</time></trkpt><trkpt lat="44.55656150388744" lon="10.824790234735959"><ele>103.0</ele><time>2026-04-19T07:35:56Z</time></trkpt><trkpt lat="44.55661606435613" lon="10.82483969900075"><ele>102.99999999999999</ele><time>2026-04-19T07:35:57Z</time></trkpt><trkpt lat="44.5566696273531" lon="10.824891613006532"><ele>103.0</ele><time>2026-04-19T07:35:58Z</time></trkpt><trkpt lat="44.55672249707611" lon="10.8249459448628"><ele>103.0</ele><time>2026-04-19T07:35:59Z</time></trkpt><trkpt lat="44.55677568084666" lon="10.82500036381904"><ele>103.0</ele><time>2026-04-19T07:36:00Z</time></trkpt><trkpt lat="44.55682771786502" lon="10.825057488452389"><ele>103.0</ele><time>2026-04-19T07:36:01Z</time></trkpt><trkpt lat="44.55687940872803" lon="10.825116288053966"><ele>102.99999999999999</ele><time>2026-04-19T07:36:02Z</time></trkpt><trkpt lat="44.55692938197773" lon="10.82517593592181"><ele>103.0</ele><time>2026-04-19T07:36:03Z</time></trkpt><trkpt lat="44.556979494139476" lon="10.825235087056953"><ele>103.14285714285714</ele><time>2026-04-19T07:36:04Z</time></trkpt><trkpt lat="44.557028924260756" lon="10.8252967267785"><ele>103.28571428571428</ele><time>2026-04-19T07:36:05Z</time></trkpt><trkpt lat="44.55707937224805" lon="10.825356594374158"><ele>103.42857142857142</ele><time>2026-04-19T07:36:06Z</time></trkpt><trkpt lat="44.557132255050284" lon="10.825416239455464"><ele>103.57142857142857</ele><time>2026-04-19T07:36:07Z</time></trkpt><trkpt lat="44.557184023520385" lon="10.825479504802914"><ele>103.71428571428572</ele><time>2026-04-19T07:36:08Z</time></trkpt><trkpt lat="44.55723526334097" lon="10.825542589581474"><ele>103.85714285714285</ele><time>2026-04-19T07:36:09Z</time></trkpt><trkpt lat="44.55728595184681" lon="10.825607311597295"><ele>104.0</ele><time>2026-04-19T07:36:10Z</time></trkpt><trkpt lat="44.557336894719455" lon="10.825670454175404"><ele>104.0</ele><time>2026-04-19T07:36:11Z</time></trkpt><trkpt lat="44.55738714326666" lon="10.825733996366354"><ele>104.0</ele><time>2026-04-19T07:36:12Z</time></trkpt><trkpt lat="44.55743730975454" lon="10.82579854593863"><ele>104.0</ele><time>2026-04-19T07:36:13Z</time></trkpt><trkpt lat="44.557486484719995" lon="10.825864047535307"><ele>104.0</ele><time>2026-04-19T07:36:14Z</time></trkpt><trkpt lat="44.557535136236865" lon="10.825929126394406"><ele>104.0</ele><time>2026-04-19T07:36:15Z</time></trkpt><trkpt lat="44.55758288376836" lon="10.825992968905616"><ele>104.0</ele><time>2026-04-19T07:36:16Z</time></trkpt><trkpt lat="44.5576316142868" lon="10.82605623220351"><ele>104.0</ele><time>2026-04-19T07:36:17Z</time></trkpt><trkpt lat="44.557678556056516" lon="10.826118084174322"><ele>104.4</ele><time>2026-04-19T07:36:18Z</time></trkpt><trkpt lat="44.55772565699364" lon="10.826177091360591"><ele>104.80000000000001</ele><time>2026-04-19T07:36:19Z</time></trkpt><trkpt lat="44.557773252744575" lon="10.826235561520818"><ele>105.19999999999999</ele><time>2026-04-19T07:36:20Z</time></trkpt><trkpt lat="44.55786135563415" lon="10.826348769817992"><ele>105.6</ele><time>2026-04-19T07:36:22Z</time></trkpt><trkpt lat="44.55794466493085" lon="10.82645955705487"><ele>106.0</ele><time>2026-04-19T07:36:24Z</time></trkpt><trkpt lat="44.55802444146107" lon="10.82656428083173"><ele>105.0</ele><time>2026-04-19T07:36:26Z</time></trkpt><trkpt lat="44.558106092999154" lon="10.826666390011832"><ele>104.0</ele><time>2026-04-19T07:36:28Z</time></trkpt><trkpt lat="44.55818406625872" lon="10.826768805583011"><ele>103.0</ele><time>2026-04-19T07:36:30Z</time></trkpt><trkpt lat="44.55826952890699" lon="10.826871416613725"><ele>102.0</ele><time>2026-04-19T07:36:31.999Z</time></trkpt><trkpt lat="44.558352841491285" lon="10.826977039714713"><ele>101.0</ele><time>2026-04-19T07:36:33.999Z</time></trkpt><trkpt lat="44.55843658167841" lon="10.827086612700333"><ele>100.99999999999999</ele><time>2026-04-19T07:36:35.999Z</time></trkpt><trkpt lat="44.558527775844546" lon="10.827203762502338"><ele>101.0</ele><time>2026-04-19T07:36:37.999Z</time></trkpt><trkpt lat="44.55857632289616" lon="10.827263250136918"><ele>101.0</ele><time>2026-04-19T07:36:38.999Z</time></trkpt><trkpt lat="44.55862515083658" lon="10.827328285900096"><ele>101.0</ele><time>2026-04-19T07:36:39.999Z</time></trkpt><trkpt lat="44.558677107887746" lon="10.827393834471325"><ele>100.99999999999999</ele><time>2026-04-19T07:36:40.999Z</time></trkpt><trkpt lat="44.558732244761686" lon="10.827462096972797"><ele>101.0</ele><time>2026-04-19T07:36:41.999Z</time></trkpt><trkpt lat="44.5587896361799" lon="10.827533762902021"><ele>100.66666666666666</ele><time>2026-04-19T07:36:42.999Z</time></trkpt><trkpt lat="44.558846859291776" lon="10.827608209610732"><ele>100.33333333333333</ele><time>2026-04-19T07:36:43.999Z</time></trkpt><trkpt lat="44.558906355299946" lon="10.827685147831522"><ele>100.0</ele><time>2026-04-19T07:36:44.999Z</time></trkpt><trkpt lat="44.558967933804375" lon="10.827762764150638"><ele>99.66666666666666</ele><time>2026-04-19T07:36:45.999Z</time></trkpt><trkpt lat="44.5590305071401" lon="10.827844714164469"><ele>99.33333333333333</ele><time>2026-04-19T07:36:46.999Z</time></trkpt><trkpt lat="44.55909478395678" lon="10.827927229576087"><ele>99.0</ele><time>2026-04-19T07:36:47.999Z</time></trkpt><trkpt lat="44.559161060857626" lon="10.828011235332847"><ele>99.0</ele><time>2026-04-19T07:36:48.999Z</time></trkpt><trkpt lat="44.55922695616633" lon="10.828096774961438"><ele>99.0</ele><time>2026-04-19T07:36:49.999Z</time></trkpt><trkpt lat="44.55929258835684" lon="10.82818160326952"><ele>99.0</ele><time>2026-04-19T07:36:50.999Z</time></trkpt><trkpt lat="44.559359382148116" lon="10.828262482261152"><ele>99.0</ele><time>2026-04-19T07:36:51.999Z</time></trkpt><trkpt lat="44.559424918600186" lon="10.82834730329064"><ele>99.0</ele><time>2026-04-19T07:36:52.999Z</time></trkpt><trkpt lat="44.55948959370186" lon="10.828428501990654"><ele>99.0</ele><time>2026-04-19T07:36:53.999Z</time></trkpt><trkpt lat="44.55955384194836" lon="10.828511860416882"><ele>98.66666666666667</ele><time>2026-04-19T07:36:54.999Z</time></trkpt><trkpt lat="44.55961705769825" lon="10.82859571293073"><ele>98.33333333333334</ele><time>2026-04-19T07:36:55.999Z</time></trkpt><trkpt lat="44.559681353647264" lon="10.828675765096925"><ele>98.0</ele><time>2026-04-19T07:36:56.999Z</time></trkpt><trkpt lat="44.55974309030535" lon="10.828757055160985"><ele>97.66666666666667</ele><time>2026-04-19T07:36:57.999Z</time></trkpt><trkpt lat="44.55980284478724" lon="10.828837852266975"><ele>97.33333333333334</ele><time>2026-04-19T07:36:58.999Z</time></trkpt><trkpt lat="44.55986302602077" lon="10.828916166166334"><ele>97.0</ele><time>2026-04-19T07:36:59.999Z</time></trkpt><trkpt lat="44.559927087150996" lon="10.828997083843067"><ele>97.00000000000001</ele><time>2026-04-19T07:37:00.999Z</time></trkpt><trkpt lat="44.559986639878" lon="10.829073493006014"><ele>97.0</ele><time>2026-04-19T07:37:01.999Z</time></trkpt><trkpt lat="44.560043626921335" lon="10.829153353509893"><ele>97.0</ele><time>2026-04-19T07:37:02.999Z</time></trkpt><trkpt lat="44.560098685573465" lon="10.82923414031292"><ele>97.0</ele><time>2026-04-19T07:37:03.999Z</time></trkpt><trkpt lat="44.56015619104125" lon="10.829302995258832"><ele>97.00000000000001</ele><time>2026-04-19T07:37:04.999Z</time></trkpt><trkpt lat="44.560212085122" lon="10.829375364519333"><ele>97.0</ele><time>2026-04-19T07:37:05.999Z</time></trkpt><trkpt lat="44.56026906722904" lon="10.829448917372945"><ele>97.00000000000001</ele><time>2026-04-19T07:37:06.999Z</time></trkpt><trkpt lat="44.56032442634264" lon="10.829524375809553"><ele>97.0</ele><time>2026-04-19T07:37:07.999Z</time></trkpt><trkpt lat="44.5603799149477" lon="10.829595588159284"><ele>97.0</ele><time>2026-04-19T07:37:08.999Z</time></trkpt><trkpt lat="44.56043935970082" lon="10.829666132522936"><ele>97.0</ele><time>2026-04-19T07:37:09.999Z</time></trkpt><trkpt lat="44.56049308052742" lon="10.829736490810582"><ele>97.00000000000001</ele><time>2026-04-19T07:37:10.999Z</time></trkpt><trkpt lat="44.560551338259486" lon="10.829808375442992"><ele>97.0</ele><time>2026-04-19T07:37:11.999Z</time></trkpt><trkpt lat="44.56059956012708" lon="10.829887331404441"><ele>97.0</ele><time>2026-04-19T07:37:12.999Z</time></trkpt><trkpt lat="44.56065297673545" lon="10.829960604536573"><ele>97.0</ele><time>2026-04-19T07:37:13.999Z</time></trkpt><trkpt lat="44.560706543566106" lon="10.830034622709817"><ele>97.0</ele><time>2026-04-19T07:37:14.999Z</time></trkpt><trkpt lat="44.560761823947665" lon="10.830108332628031"><ele>97.0</ele><time>2026-04-19T07:37:15.999Z</time></trkpt><trkpt lat="44.560813022930446" lon="10.83018158625953"><ele>97.0</ele><time>2026-04-19T07:37:16.999Z</time></trkpt><trkpt lat="44.56086348413009" lon="10.830253227162688"><ele>97.0</ele><time>2026-04-19T07:37:17.999Z</time></trkpt><trkpt lat="44.56091581029074" lon="10.83032571564622"><ele>97.0</ele><time>2026-04-19T07:37:18.999Z</time></trkpt><trkpt lat="44.56096606709481" lon="10.83039765525715"><ele>96.85714285714285</ele><time>2026-04-19T07:37:19.999Z</time></trkpt><trkpt lat="44.561017966617364" lon="10.830469365197924"><ele>96.71428571428572</ele><time>2026-04-19T07:37:20.999Z</time></trkpt><trkpt lat="44.56106870094201" lon="10.830539677875391"><ele>96.57142857142857</ele><time>2026-04-19T07:37:21.999Z</time></trkpt><trkpt lat="44.56112024189292" lon="10.830611552267271"><ele>96.42857142857142</ele><time>2026-04-19T07:37:22.999Z</time></trkpt><trkpt lat="44.56117502289689" lon="10.830674699199157"><ele>96.28571428571428</ele><time>2026-04-19T07:37:23.999Z</time></trkpt><trkpt lat="44.561225368294565" lon="10.830752722584915"><ele>96.14285714285714</ele><time>2026-04-19T07:37:24.999Z</time></trkpt><trkpt lat="44.56126768633992" lon="10.830829444241218"><ele>96.0</ele><time>2026-04-19T07:37:25.999Z</time></trkpt><trkpt lat="44.56131565569704" lon="10.83090891071291"><ele>95.57142857142857</ele><time>2026-04-19T07:37:26.999Z</time></trkpt><trkpt lat="44.56136991334546" lon="10.830982895154435"><ele>95.14285714285714</ele><time>2026-04-19T07:37:27.999Z</time></trkpt><trkpt lat="44.56142048921061" lon="10.831058109956988"><ele>94.71428571428572</ele><time>2026-04-19T07:37:28.999Z</time></trkpt><trkpt lat="44.561471151878436" lon="10.831134651273613"><ele>94.28571428571428</ele><time>2026-04-19T07:37:29.999Z</time></trkpt><trkpt lat="44.56152468441473" lon="10.831207584311345"><ele>93.85714285714286</ele><time>2026-04-19T07:37:30.999Z</time></trkpt><trkpt lat="44.56157140665512" lon="10.831287085562646"><ele>93.42857142857143</ele><time>2026-04-19T07:37:31.999Z</time></trkpt><trkpt lat="44.56162400181123" lon="10.831356185835757"><ele>93.0</ele><time>2026-04-19T07:37:32.998Z</time></trkpt><trkpt lat="44.56167248980067" lon="10.831432700651888"><ele>93.00000000000001</ele><time>2026-04-19T07:37:33.998Z</time></trkpt><trkpt lat="44.561718302231654" lon="10.831503886987237"><ele>93.0</ele><time>2026-04-19T07:37:34.998Z</time></trkpt><trkpt lat="44.561765317496466" lon="10.83158202746324"><ele>93.0</ele><time>2026-04-19T07:37:35.998Z</time></trkpt><trkpt lat="44.56181514070017" lon="10.831659063763688"><ele>93.0</ele><time>2026-04-19T07:37:36.998Z</time></trkpt><trkpt lat="44.56186845526761" lon="10.831732005608462"><ele>93.0</ele><time>2026-04-19T07:37:37.998Z</time></trkpt><trkpt lat="44.56192056526365" lon="10.831805762029036"><ele>93.00000000000001</ele><time>2026-04-19T07:37:38.998Z</time></trkpt><trkpt lat="44.56197246159219" lon="10.831880042359144"><ele>93.0</ele><time>2026-04-19T07:37:39.998Z</time></trkpt><trkpt lat="44.56202228019188" lon="10.831955497442623"><ele>92.85714285714286</ele><time>2026-04-19T07:37:40.998Z</time></trkpt><trkpt lat="44.56207404724599" lon="10.832030413316296"><ele>92.71428571428572</ele><time>2026-04-19T07:37:41.998Z</time></trkpt><trkpt lat="44.56212370759724" lon="10.832106867876554"><ele>92.57142857142858</ele><time>2026-04-19T07:37:42.998Z</time></trkpt><trkpt lat="44.562174906383675" lon="10.832181915236163"><ele>92.42857142857143</ele><time>2026-04-19T07:37:43.998Z</time></trkpt><trkpt lat="44.56222792782299" lon="10.832254670343263"><ele>92.28571428571428</ele><time>2026-04-19T07:37:44.998Z</time></trkpt><trkpt lat="44.562280606013275" lon="10.832326233433667"><ele>92.14285714285715</ele><time>2026-04-19T07:37:45.998Z</time></trkpt><trkpt lat="44.5623345406714" lon="10.832394965166287"><ele>92.0</ele><time>2026-04-19T07:37:46.998Z</time></trkpt><trkpt lat="44.56238931115783" lon="10.832463369490652"><ele>92.0</ele><time>2026-04-19T07:37:47.998Z</time></trkpt><trkpt lat="44.562443760576656" lon="10.832530007869043"><ele>92.0</ele><time>2026-04-19T07:37:48.998Z</time></trkpt><trkpt lat="44.56249815179835" lon="10.83259766723381"><ele>92.0</ele><time>2026-04-19T07:37:49.998Z</time></trkpt><trkpt lat="44.56255503290267" lon="10.832663493430395"><ele>92.0</ele><time>2026-04-19T07:37:50.998Z</time></trkpt><trkpt lat="44.56261222402489" lon="10.83272602668191"><ele>92.0</ele><time>2026-04-19T07:37:52Z</time></trkpt><trkpt lat="44.56266922019531" lon="10.832792146106762"><ele>92.0</ele><time>2026-04-19T07:37:53Z</time></trkpt><trkpt lat="44.562720056318334" lon="10.83285840956595"><ele>92.0</ele><time>2026-04-19T07:37:54Z</time></trkpt><trkpt lat="44.56277149481548" lon="10.832927525490437"><ele>92.0</ele><time>2026-04-19T07:37:55Z</time></trkpt><trkpt lat="44.56282154439923" lon="10.83299619423207"><ele>92.0</ele><time>2026-04-19T07:37:56Z</time></trkpt><trkpt lat="44.562866598137816" lon="10.833066165159385"><ele>92.0</ele><time>2026-04-19T07:37:57Z</time></trkpt><trkpt lat="44.56289299423134" lon="10.833155024278415"><ele>92.0</ele><time>2026-04-19T07:37:58Z</time></trkpt><trkpt lat="44.56290307621108" lon="10.833255278278395"><ele>92.0</ele><time>2026-04-19T07:37:59Z</time></trkpt><trkpt lat="44.562896384224615" lon="10.833352133575053"><ele>92.0</ele><time>2026-04-19T07:38:00Z</time></trkpt><trkpt lat="44.56287504868066" lon="10.833444736984394"><ele>92.0</ele><time>2026-04-19T07:38:01Z</time></trkpt><trkpt lat="44.56284414819449" lon="10.833534652881951"><ele>91.83333333333334</ele><time>2026-04-19T07:38:02Z</time></trkpt><trkpt lat="44.56280405272933" lon="10.83361259197686"><ele>91.66666666666667</ele><time>2026-04-19T07:38:03Z</time></trkpt><trkpt lat="44.5627572218414" lon="10.833678515791963"><ele>91.5</ele><time>2026-04-19T07:38:04Z</time></trkpt><trkpt lat="44.562712722185886" lon="10.833742268855106"><ele>91.33333333333333</ele><time>2026-04-19T07:38:05Z</time></trkpt><trkpt lat="44.56263043035858" lon="10.83387023307773"><ele>91.16666666666666</ele><time>2026-04-19T07:38:07Z</time></trkpt><trkpt lat="44.56255053336675" lon="10.83400279031301"><ele>91.0</ele><time>2026-04-19T07:38:09Z</time></trkpt><trkpt lat="44.56247248500225" lon="10.83413385456754"><ele>91.0</ele><time>2026-04-19T07:38:11Z</time></trkpt><trkpt lat="44.56239426346829" lon="10.83426249814176"><ele>91.0</ele><time>2026-04-19T07:38:13Z</time></trkpt><trkpt lat="44.56231829618242" lon="10.834382825797425"><ele>91.0</ele><time>2026-04-19T07:38:15Z</time></trkpt><trkpt lat="44.56224192564322" lon="10.834511981761755"><ele>91.0</ele><time>2026-04-19T07:38:17Z</time></trkpt><trkpt lat="44.56216515753678" lon="10.834640712570142"><ele>91.0</ele><time>2026-04-19T07:38:19Z</time></trkpt><trkpt lat="44.56208787939942" lon="10.834762897538194"><ele>91.0</ele><time>2026-04-19T07:38:21Z</time></trkpt><trkpt lat="44.56201208318792" lon="10.834886917501592"><ele>91.0</ele><time>2026-04-19T07:38:23Z</time></trkpt><trkpt lat="44.56193599472468" lon="10.83501559906117"><ele>91.0</ele><time>2026-04-19T07:38:25Z</time></trkpt><trkpt lat="44.561856167174454" lon="10.835139996333245"><ele>90.5</ele><time>2026-04-19T07:38:27Z</time></trkpt><trkpt lat="44.56178548202694" lon="10.83526674269023"><ele>90.0</ele><time>2026-04-19T07:38:29Z</time></trkpt><trkpt lat="44.56170819602644" lon="10.835392693436496"><ele>89.5</ele><time>2026-04-19T07:38:31Z</time></trkpt><trkpt lat="44.56162983034804" lon="10.835516248783133"><ele>89.0</ele><time>2026-04-19T07:38:33Z</time></trkpt><trkpt lat="44.561550724518696" lon="10.835640807301028"><ele>89.0</ele><time>2026-04-19T07:38:35Z</time></trkpt><trkpt lat="44.56147671710166" lon="10.835770370798684"><ele>89.0</ele><time>2026-04-19T07:38:36.999Z</time></trkpt><trkpt lat="44.56139668871082" lon="10.835896495804697"><ele>89.0</ele><time>2026-04-19T07:38:38.999Z</time></trkpt><trkpt lat="44.561314193817424" lon="10.836019651836907"><ele>89.0</ele><time>2026-04-19T07:38:40.999Z</time></trkpt><trkpt lat="44.561241062674114" lon="10.836147396529155"><ele>89.25</ele><time>2026-04-19T07:38:42.999Z</time></trkpt><trkpt lat="44.56116413085064" lon="10.836278224201859"><ele>89.5</ele><time>2026-04-19T07:38:44.999Z</time></trkpt><trkpt lat="44.56108595489334" lon="10.836415364314862"><ele>89.75</ele><time>2026-04-19T07:38:46.999Z</time></trkpt><trkpt lat="44.56101164536516" lon="10.836551460846561"><ele>90.0</ele><time>2026-04-19T07:38:48.999Z</time></trkpt><trkpt lat="44.56093414125527" lon="10.836683589644652"><ele>89.75</ele><time>2026-04-19T07:38:50.999Z</time></trkpt><trkpt lat="44.56085941089584" lon="10.836820319447307"><ele>89.5</ele><time>2026-04-19T07:38:52.999Z</time></trkpt><trkpt lat="44.5608098412047" lon="10.836979312546003"><ele>89.25</ele><time>2026-04-19T07:38:54.999Z</time></trkpt><trkpt lat="44.560783830325676" lon="10.837149385370827"><ele>89.0</ele><time>2026-04-19T07:38:56.999Z</time></trkpt><trkpt lat="44.56078173864176" lon="10.837324841098575"><ele>89.0</ele><time>2026-04-19T07:38:58.999Z</time></trkpt><trkpt lat="44.560793964735495" lon="10.83749076975145"><ele>89.0</ele><time>2026-04-19T07:39:00.999Z</time></trkpt><trkpt lat="44.56080224856843" lon="10.837662306979917"><ele>89.0</ele><time>2026-04-19T07:39:02.999Z</time></trkpt><trkpt lat="44.56081913100581" lon="10.837825263992231"><ele>89.0</ele><time>2026-04-19T07:39:04.999Z</time></trkpt><trkpt lat="44.56084015905943" lon="10.837987607913997"><ele>89.5</ele><time>2026-04-19T07:39:06.999Z</time></trkpt><trkpt lat="44.56086226966341" lon="10.838142760669552"><ele>90.0</ele><time>2026-04-19T07:39:08.999Z</time></trkpt><trkpt lat="44.56089792743783" lon="10.838288789122137"><ele>90.5</ele><time>2026-04-19T07:39:10.999Z</time></trkpt><trkpt lat="44.560983593238994" lon="10.838394029915682"><ele>91.0</ele><time>2026-04-19T07:39:12.999Z</time></trkpt><trkpt lat="44.561092944335805" lon="10.838445323208122"><ele>90.75</ele><time>2026-04-19T07:39:14.999Z</time></trkpt><trkpt lat="44.56121237103467" lon="10.838475027654118"><ele>90.5</ele><time>2026-04-19T07:39:16.999Z</time></trkpt><trkpt lat="44.561330880891916" lon="10.83850118111892"><ele>90.25</ele><time>2026-04-19T07:39:18.999Z</time></trkpt><trkpt lat="44.561445912119126" lon="10.838528443030857"><ele>90.0</ele><time>2026-04-19T07:39:20.999Z</time></trkpt><trkpt lat="44.56156348852592" lon="10.838557039720401"><ele>90.0</ele><time>2026-04-19T07:39:22.999Z</time></trkpt><trkpt lat="44.561679959035416" lon="10.838586139818199"><ele>90.0</ele><time>2026-04-19T07:39:24.999Z</time></trkpt><trkpt lat="44.56179506182293" lon="10.838614090620219"><ele>90.0</ele><time>2026-04-19T07:39:26.999Z</time></trkpt><trkpt lat="44.56190890023632" lon="10.838644130357455"><ele>90.0</ele><time>2026-04-19T07:39:28.999Z</time></trkpt><trkpt lat="44.56202291189192" lon="10.838671074147229"><ele>90.25</ele><time>2026-04-19T07:39:30.999Z</time></trkpt><trkpt lat="44.56213945496973" lon="10.838703951568135"><ele>90.5</ele><time>2026-04-19T07:39:32.999Z</time></trkpt><trkpt lat="44.5622540151897" lon="10.838739863594437"><ele>90.75</ele><time>2026-04-19T07:39:34.999Z</time></trkpt><trkpt lat="44.56237039745751" lon="10.83876619552359"><ele>91.0</ele><time>2026-04-19T07:39:36.999Z</time></trkpt><trkpt lat="44.56248853674689" lon="10.838790536328894"><ele>91.0</ele><time>2026-04-19T07:39:38.998Z</time></trkpt><trkpt lat="44.56260118822183" lon="10.838825054175363"><ele>91.0</ele><time>2026-04-19T07:39:40.998Z</time></trkpt><trkpt lat="44.56272035497357" lon="10.83885194510385"><ele>91.0</ele><time>2026-04-19T07:39:42.998Z</time></trkpt><trkpt lat="44.56283300222338" lon="10.838884638480595"><ele>91.0</ele><time>2026-04-19T07:39:44.998Z</time></trkpt><trkpt lat="44.56295202403163" lon="10.83891061247837"><ele>90.8</ele><time>2026-04-19T07:39:46.998Z</time></trkpt><trkpt lat="44.56307025749122" lon="10.838942060744788"><ele>90.6</ele><time>2026-04-19T07:39:48.998Z</time></trkpt><trkpt lat="44.563190664379526" lon="10.838970788542184"><ele>90.4</ele><time>2026-04-19T07:39:50.998Z</time></trkpt><trkpt lat="44.56330529802066" lon="10.839002234909374"><ele>90.2</ele><time>2026-04-19T07:39:52.998Z</time></trkpt><trkpt lat="44.56336773289556" lon="10.83901542833965"><ele>90.0</ele><time>2026-04-19T07:39:53.998Z</time></trkpt><trkpt lat="44.56342872636085" lon="10.839038535714774"><ele>90.0</ele><time>2026-04-19T07:39:54.998Z</time></trkpt><trkpt lat="44.56354761263654" lon="10.839071477407416"><ele>90.0</ele><time>2026-04-19T07:39:56.998Z</time></trkpt><trkpt lat="44.563672412283815" lon="10.839103507846517"><ele>90.0</ele><time>2026-04-19T07:39:59Z</time></trkpt><trkpt lat="44.56373473387374" lon="10.8391186564108"><ele>90.0</ele><time>2026-04-19T07:40:00Z</time></trkpt><trkpt lat="44.563858190715784" lon="10.839149931644092"><ele>90.0</ele><time>2026-04-19T07:40:02Z</time></trkpt><trkpt lat="44.56392167443155" lon="10.83916682022815"><ele>89.5</ele><time>2026-04-19T07:40:03Z</time></trkpt><trkpt lat="44.56398425039611" lon="10.839180742398659"><ele>89.0</ele><time>2026-04-19T07:40:04Z</time></trkpt><trkpt lat="44.564048095434174" lon="10.839195602445681"><ele>88.5</ele><time>2026-04-19T07:40:05Z</time></trkpt><trkpt lat="44.56411062445279" lon="10.839205962706613"><ele>88.0</ele><time>2026-04-19T07:40:06Z</time></trkpt><trkpt lat="44.564236799628496" lon="10.839211361716732"><ele>87.5</ele><time>2026-04-19T07:40:08Z</time></trkpt><trkpt lat="44.56436190167612" lon="10.83921297671421"><ele>87.0</ele><time>2026-04-19T07:40:10Z</time></trkpt><trkpt lat="44.564485346783364" lon="10.839242013183558"><ele>87.28571428571428</ele><time>2026-04-19T07:40:12Z</time></trkpt><trkpt lat="44.5645713405926" lon="10.839369494113903"><ele>87.57142857142857</ele><time>2026-04-19T07:40:14Z</time></trkpt><trkpt lat="44.564619112184964" lon="10.839430083246508"><ele>87.85714285714286</ele><time>2026-04-19T07:40:15Z</time></trkpt><trkpt lat="44.564679951671074" lon="10.839459203971407"><ele>88.14285714285714</ele><time>2026-04-19T07:40:16Z</time></trkpt><trkpt lat="44.56474504376275" lon="10.839465699850285"><ele>88.42857142857143</ele><time>2026-04-19T07:40:17Z</time></trkpt><trkpt lat="44.56480888818431" lon="10.839447364376523"><ele>88.71428571428571</ele><time>2026-04-19T07:40:18Z</time></trkpt><trkpt lat="44.564870219444664" lon="10.839418658200058"><ele>89.0</ele><time>2026-04-19T07:40:19Z</time></trkpt><trkpt lat="44.564898250334274" lon="10.839338602096065"><ele>88.99999999999999</ele><time>2026-04-19T07:40:20Z</time></trkpt><trkpt lat="44.56500114668344" lon="10.839419387951766"><ele>89.0</ele><time>2026-04-19T07:40:21Z</time></trkpt><trkpt lat="44.565063632211576" lon="10.839442241186354"><ele>89.0</ele><time>2026-04-19T07:40:22Z</time></trkpt><trkpt lat="44.56512542509294" lon="10.839465580381681"><ele>89.0</ele><time>2026-04-19T07:40:23Z</time></trkpt><trkpt lat="44.56518723784592" lon="10.839484832103494"><ele>89.0</ele><time>2026-04-19T07:40:24Z</time></trkpt><trkpt lat="44.56524921984996" lon="10.839504984422403"><ele>88.99999999999999</ele><time>2026-04-19T07:40:25Z</time></trkpt><trkpt lat="44.56531106049601" lon="10.839522623971694"><ele>89.0</ele><time>2026-04-19T07:40:26Z</time></trkpt><trkpt lat="44.56537376216056" lon="10.839539864639228"><ele>88.75</ele><time>2026-04-19T07:40:27Z</time></trkpt><trkpt lat="44.5654944377545" lon="10.839580221305816"><ele>88.5</ele><time>2026-04-19T07:40:29Z</time></trkpt><trkpt lat="44.56561287244467" lon="10.839625393001096"><ele>88.25</ele><time>2026-04-19T07:40:31Z</time></trkpt><trkpt lat="44.565730908069234" lon="10.839683932431388"><ele>88.0</ele><time>2026-04-19T07:40:33Z</time></trkpt><trkpt lat="44.56584583991855" lon="10.839746311864294"><ele>88.0</ele><time>2026-04-19T07:40:35Z</time></trkpt><trkpt lat="44.56590313718399" lon="10.839785273411106"><ele>88.0</ele><time>2026-04-19T07:40:36Z</time></trkpt><trkpt lat="44.56596017282309" lon="10.839824920170106"><ele>88.0</ele><time>2026-04-19T07:40:37Z</time></trkpt><trkpt lat="44.56606772385255" lon="10.839913825784208"><ele>88.0</ele><time>2026-04-19T07:40:39Z</time></trkpt><trkpt lat="44.56617551833428" lon="10.839999025781303"><ele>88.0</ele><time>2026-04-19T07:40:41Z</time></trkpt><trkpt lat="44.566277478442686" lon="10.840096959707518"><ele>88.2</ele><time>2026-04-19T07:40:42.999Z</time></trkpt><trkpt lat="44.566328638070104" lon="10.840149696092698"><ele>88.4</ele><time>2026-04-19T07:40:43.999Z</time></trkpt><trkpt lat="44.566424643831105" lon="10.840263353008908"><ele>88.60000000000001</ele><time>2026-04-19T07:40:45.999Z</time></trkpt><trkpt lat="44.56652212224977" lon="10.840369986911268"><ele>88.80000000000001</ele><time>2026-04-19T07:40:47.999Z</time></trkpt><trkpt lat="44.566617779945325" lon="10.8404923098183"><ele>89.0</ele><time>2026-04-19T07:40:49.999Z</time></trkpt><trkpt lat="44.56666383774227" lon="10.84055415373453"><ele>88.99999999999999</ele><time>2026-04-19T07:40:50.999Z</time></trkpt><trkpt lat="44.566713892200106" lon="10.840614725027077"><ele>89.0</ele><time>2026-04-19T07:40:51.999Z</time></trkpt><trkpt lat="44.566765123047695" lon="10.840675349543462"><ele>89.0</ele><time>2026-04-19T07:40:52.999Z</time></trkpt><trkpt lat="44.5668156755882" lon="10.840736623341733"><ele>89.0</ele><time>2026-04-19T07:40:53.999Z</time></trkpt><trkpt lat="44.56686554968845" lon="10.840796409747915"><ele>89.0</ele><time>2026-04-19T07:40:54.999Z</time></trkpt><trkpt lat="44.5669159088329" lon="10.840856620615334"><ele>88.99999999999999</ele><time>2026-04-19T07:40:55.999Z</time></trkpt><trkpt lat="44.56696695567705" lon="10.84091747830659"><ele>89.0</ele><time>2026-04-19T07:40:56.999Z</time></trkpt><trkpt lat="44.567018172804126" lon="10.84097755625916"><ele>88.71428571428571</ele><time>2026-04-19T07:40:57.999Z</time></trkpt><trkpt lat="44.56706801348714" lon="10.84103904788376"><ele>88.42857142857143</ele><time>2026-04-19T07:40:58.999Z</time></trkpt><trkpt lat="44.567116391998724" lon="10.84110109750582"><ele>88.14285714285714</ele><time>2026-04-19T07:40:59.999Z</time></trkpt><trkpt lat="44.56716440885964" lon="10.841160835647095"><ele>87.85714285714286</ele><time>2026-04-19T07:41:00.999Z</time></trkpt><trkpt lat="44.5672132711618" lon="10.841220426876268"><ele>87.57142857142857</ele><time>2026-04-19T07:41:01.999Z</time></trkpt><trkpt lat="44.56726083326495" lon="10.841280616635231"><ele>87.28571428571428</ele><time>2026-04-19T07:41:02.999Z</time></trkpt><trkpt lat="44.567311819164274" lon="10.84133485637122"><ele>87.0</ele><time>2026-04-19T07:41:03.999Z</time></trkpt><trkpt lat="44.56740163777547" lon="10.84144859234375"><ele>87.0</ele><time>2026-04-19T07:41:05.999Z</time></trkpt><trkpt lat="44.56744954930557" lon="10.841507094569817"><ele>87.0</ele><time>2026-04-19T07:41:06.999Z</time></trkpt><trkpt lat="44.56750028822228" lon="10.841564128829242"><ele>87.0</ele><time>2026-04-19T07:41:07.999Z</time></trkpt><trkpt lat="44.5675896784979" lon="10.841684853639677"><ele>87.0</ele><time>2026-04-19T07:41:09.999Z</time></trkpt><trkpt lat="44.56768271521215" lon="10.841797279995658"><ele>87.0</ele><time>2026-04-19T07:41:11.999Z</time></trkpt><trkpt lat="44.56777598978186" lon="10.841908302190596"><ele>86.75</ele><time>2026-04-19T07:41:13.999Z</time></trkpt><trkpt lat="44.56787191580159" lon="10.842020837798154"><ele>86.5</ele><time>2026-04-19T07:41:15.999Z</time></trkpt><trkpt lat="44.56796429447232" lon="10.84213624621753"><ele>86.25</ele><time>2026-04-19T07:41:17.999Z</time></trkpt><trkpt lat="44.56805949608127" lon="10.842246054826106"><ele>86.0</ele><time>2026-04-19T07:41:19.999Z</time></trkpt><trkpt lat="44.56814487036019" lon="10.842360104169966"><ele>86.0</ele><time>2026-04-19T07:41:21.999Z</time></trkpt><trkpt lat="44.56823739680713" lon="10.84246374135033"><ele>86.0</ele><time>2026-04-19T07:41:23.999Z</time></trkpt><trkpt lat="44.56833811805051" lon="10.842557400123885"><ele>86.0</ele><time>2026-04-19T07:41:25.999Z</time></trkpt><trkpt lat="44.56844494328681" lon="10.842637549662701"><ele>86.0</ele><time>2026-04-19T07:41:27.999Z</time></trkpt><trkpt lat="44.568551725525765" lon="10.842712496181782"><ele>86.0</ele><time>2026-04-19T07:41:29.999Z</time></trkpt><trkpt lat="44.568662620772166" lon="10.842780505617993"><ele>86.0</ele><time>2026-04-19T07:41:31.999Z</time></trkpt><trkpt lat="44.56876846235938" lon="10.842844820275737"><ele>86.0</ele><time>2026-04-19T07:41:33.999Z</time></trkpt><trkpt lat="44.568865189899746" lon="10.842909697638214"><ele>86.0</ele><time>2026-04-19T07:41:35.999Z</time></trkpt><trkpt lat="44.56894036060053" lon="10.843024014353658"><ele>86.0</ele><time>2026-04-19T07:41:37.999Z</time></trkpt><trkpt lat="44.56905389268038" lon="10.843072084262555"><ele>86.0</ele><time>2026-04-19T07:41:39.999Z</time></trkpt><trkpt lat="44.5691717633104" lon="10.843096017181306"><ele>86.0</ele><time>2026-04-19T07:41:41.999Z</time></trkpt><trkpt lat="44.56927711363041" lon="10.843187842572416"><ele>86.0</ele><time>2026-04-19T07:41:43.999Z</time></trkpt><trkpt lat="44.569387510676016" lon="10.843263682616982"><ele>86.0</ele><time>2026-04-19T07:41:45.998Z</time></trkpt><trkpt lat="44.56949542738985" lon="10.843332697149087"><ele>86.0</ele><time>2026-04-19T07:41:47.998Z</time></trkpt><trkpt lat="44.56960540046025" lon="10.843407321676441"><ele>86.0</ele><time>2026-04-19T07:41:49.998Z</time></trkpt><trkpt lat="44.56971713099934" lon="10.843485205066917"><ele>86.0</ele><time>2026-04-19T07:41:51.998Z</time></trkpt><trkpt lat="44.56983037337407" lon="10.843552801082561"><ele>85.8</ele><time>2026-04-19T07:41:53.998Z</time></trkpt><trkpt lat="44.569936681578696" lon="10.843629360761202"><ele>85.6</ele><time>2026-04-19T07:41:55.998Z</time></trkpt><trkpt lat="44.57004806845388" lon="10.84370617325549"><ele>85.4</ele><time>2026-04-19T07:41:57.998Z</time></trkpt><trkpt lat="44.570106189524715" lon="10.843740918177739"><ele>85.2</ele><time>2026-04-19T07:41:58.998Z</time></trkpt><trkpt lat="44.570218785753326" lon="10.843814020699725"><ele>85.0</ele><time>2026-04-19T07:42:00.998Z</time></trkpt><trkpt lat="44.57027546618252" lon="10.84385628643799"><ele>85.0</ele><time>2026-04-19T07:42:01.998Z</time></trkpt><trkpt lat="44.57033349216843" lon="10.843893700262422"><ele>85.0</ele><time>2026-04-19T07:42:02.998Z</time></trkpt><trkpt lat="44.57039168695358" lon="10.84392966288624"><ele>85.0</ele><time>2026-04-19T07:42:04Z</time></trkpt><trkpt lat="44.5705039563367" lon="10.843997748077614"><ele>85.0</ele><time>2026-04-19T07:42:06Z</time></trkpt><trkpt lat="44.570617750587814" lon="10.844067399277666"><ele>85.0</ele><time>2026-04-19T07:42:08Z</time></trkpt><trkpt lat="44.57072966292476" lon="10.84414016573944"><ele>85.0</ele><time>2026-04-19T07:42:10Z</time></trkpt><trkpt lat="44.570841771316026" lon="10.844210939042627"><ele>85.0</ele><time>2026-04-19T07:42:12Z</time></trkpt><trkpt lat="44.57095288097528" lon="10.84428112137357"><ele>85.0</ele><time>2026-04-19T07:42:14Z</time></trkpt><trkpt lat="44.57106226933783" lon="10.844351489728407"><ele>85.0</ele><time>2026-04-19T07:42:16Z</time></trkpt><trkpt lat="44.571176894562136" lon="10.844417598185878"><ele>84.66666666666666</ele><time>2026-04-19T07:42:18Z</time></trkpt><trkpt lat="44.571298460637124" lon="10.844431120298829"><ele>84.33333333333333</ele><time>2026-04-19T07:42:20Z</time></trkpt><trkpt lat="44.571362722932285" lon="10.844418190869222"><ele>84.0</ele><time>2026-04-19T07:42:21Z</time></trkpt><trkpt lat="44.57142610808622" lon="10.844396602334745"><ele>83.66666666666667</ele><time>2026-04-19T07:42:22Z</time></trkpt><trkpt lat="44.571488614545025" lon="10.844369793522672"><ele>83.33333333333334</ele><time>2026-04-19T07:42:23Z</time></trkpt><trkpt lat="44.571560285052456" lon="10.844378800880468"><ele>83.0</ele><time>2026-04-19T07:42:24Z</time></trkpt><trkpt lat="44.571620765467074" lon="10.844420239835815"><ele>83.0</ele><time>2026-04-19T07:42:25Z</time></trkpt><trkpt lat="44.57165847665242" lon="10.844491956875387"><ele>83.0</ele><time>2026-04-19T07:42:26Z</time></trkpt><trkpt lat="44.57170080334633" lon="10.844557557621517"><ele>83.0</ele><time>2026-04-19T07:42:27Z</time></trkpt><trkpt lat="44.571761574786734" lon="10.844596192965804"><ele>83.0</ele><time>2026-04-19T07:42:28Z</time></trkpt><trkpt lat="44.571829688621435" lon="10.844601493384229"><ele>83.0</ele><time>2026-04-19T07:42:29Z</time></trkpt><trkpt lat="44.57189744541393" lon="10.844588565426507"><ele>83.0</ele><time>2026-04-19T07:42:30Z</time></trkpt><trkpt lat="44.57194151542774" lon="10.844515695141567"><ele>83.0</ele><time>2026-04-19T07:42:31Z</time></trkpt><trkpt lat="44.5720324183123" lon="10.84455434568384"><ele>82.85714285714285</ele><time>2026-04-19T07:42:32Z</time></trkpt><trkpt lat="44.57210385494225" lon="10.844564549428064"><ele>82.71428571428572</ele><time>2026-04-19T07:42:33Z</time></trkpt><trkpt lat="44.57217431972342" lon="10.844586303444817"><ele>82.57142857142857</ele><time>2026-04-19T07:42:34Z</time></trkpt><trkpt lat="44.57222203269957" lon="10.844681562083322"><ele>82.42857142857142</ele><time>2026-04-19T07:42:35Z</time></trkpt><trkpt lat="44.57228477856907" lon="10.84472310400997"><ele>82.28571428571428</ele><time>2026-04-19T07:42:36Z</time></trkpt><trkpt lat="44.572353458767104" lon="10.844706057341122"><ele>82.14285714285714</ele><time>2026-04-19T07:42:37Z</time></trkpt><trkpt lat="44.57241298629527" lon="10.844646082363496"><ele>82.0</ele><time>2026-04-19T07:42:38Z</time></trkpt><trkpt lat="44.572464746274264" lon="10.844594694364167"><ele>82.0</ele><time>2026-04-19T07:42:39Z</time></trkpt><trkpt lat="44.5725786633748" lon="10.8445538494992"><ele>82.0</ele><time>2026-04-19T07:42:41Z</time></trkpt><trkpt lat="44.57269696461209" lon="10.84458861131985"><ele>82.0</ele><time>2026-04-19T07:42:43Z</time></trkpt><trkpt lat="44.57281122874661" lon="10.844634873665061"><ele>82.0</ele><time>2026-04-19T07:42:45Z</time></trkpt><trkpt lat="44.572922774929324" lon="10.844658240804883"><ele>82.39999999999999</ele><time>2026-04-19T07:42:47Z</time></trkpt><trkpt lat="44.573034385118206" lon="10.844691530552502"><ele>82.8</ele><time>2026-04-19T07:42:48.999Z</time></trkpt><trkpt lat="44.57313592993933" lon="10.844728370169772"><ele>83.2</ele><time>2026-04-19T07:42:50.999Z</time></trkpt><trkpt lat="44.57323642142223" lon="10.844770548131061"><ele>83.6</ele><time>2026-04-19T07:42:52.999Z</time></trkpt><trkpt lat="44.57333910324761" lon="10.844786035184674"><ele>84.0</ele><time>2026-04-19T07:42:54.999Z</time></trkpt><trkpt lat="44.57345590641986" lon="10.844801321081228"><ele>84.0</ele><time>2026-04-19T07:42:56.999Z</time></trkpt><trkpt lat="44.57357609935282" lon="10.844823356293922"><ele>84.0</ele><time>2026-04-19T07:42:58.999Z</time></trkpt><trkpt lat="44.57363937303158" lon="10.84483621690785"><ele>84.0</ele><time>2026-04-19T07:42:59.999Z</time></trkpt><trkpt lat="44.57370364055832" lon="10.844851270553894"><ele>84.0</ele><time>2026-04-19T07:43:00.999Z</time></trkpt><trkpt lat="44.573768018840305" lon="10.844861925761718"><ele>84.0</ele><time>2026-04-19T07:43:01.999Z</time></trkpt><trkpt lat="44.57383290997964" lon="10.844878981351622"><ele>84.0</ele><time>2026-04-19T07:43:02.999Z</time></trkpt><trkpt lat="44.57389827311563" lon="10.844890898441667"><ele>84.0</ele><time>2026-04-19T07:43:03.999Z</time></trkpt><trkpt lat="44.57396150810811" lon="10.84490548837235"><ele>83.6</ele><time>2026-04-19T07:43:04.999Z</time></trkpt><trkpt lat="44.5740886189091" lon="10.844955081858249"><ele>83.2</ele><time>2026-04-19T07:43:06.999Z</time></trkpt><trkpt lat="44.57419868703011" lon="10.844989412057501"><ele>82.8</ele><time>2026-04-19T07:43:08.999Z</time></trkpt><trkpt lat="44.574260767522986" lon="10.845007223472553"><ele>82.39999999999999</ele><time>2026-04-19T07:43:09.999Z</time></trkpt><trkpt lat="44.57432667621639" lon="10.845027934607074"><ele>82.0</ele><time>2026-04-19T07:43:10.999Z</time></trkpt><trkpt lat="44.57444423415396" lon="10.845062802933867"><ele>81.83333333333333</ele><time>2026-04-19T07:43:12.999Z</time></trkpt><trkpt lat="44.57455949984755" lon="10.845089287150545"><ele>81.66666666666666</ele><time>2026-04-19T07:43:14.999Z</time></trkpt><trkpt lat="44.5746220084633" lon="10.845124107555657"><ele>81.5</ele><time>2026-04-19T07:43:15.999Z</time></trkpt><trkpt lat="44.57468694690234" lon="10.845211960071444"><ele>81.33333333333333</ele><time>2026-04-19T07:43:17.999Z</time></trkpt><trkpt lat="44.574779727720056" lon="10.845270102341035"><ele>81.16666666666667</ele><time>2026-04-19T07:43:19.999Z</time></trkpt><trkpt lat="44.57484712985225" lon="10.845289696456557"><ele>81.0</ele><time>2026-04-19T07:43:20.999Z</time></trkpt><trkpt lat="44.57495886625402" lon="10.845291389635758"><ele>81.6</ele><time>2026-04-19T07:43:22.999Z</time></trkpt><trkpt lat="44.575070887360866" lon="10.84530986487468"><ele>82.19999999999999</ele><time>2026-04-19T07:43:24.999Z</time></trkpt><trkpt lat="44.57518764169145" lon="10.845294655183778"><ele>82.80000000000001</ele><time>2026-04-19T07:43:26.999Z</time></trkpt><trkpt lat="44.575287368245256" lon="10.845289267304713"><ele>83.4</ele><time>2026-04-19T07:43:28.999Z</time></trkpt><trkpt lat="44.575360071798926" lon="10.845281765889629"><ele>84.0</ele><time>2026-04-19T07:43:32.999Z</time></trkpt><trkpt lat="44.57542339238649" lon="10.845300917710318"><ele>84.0</ele><time>2026-04-19T07:43:34.999Z</time></trkpt><trkpt lat="44.5755126247964" lon="10.845311714178248"><ele>84.0</ele><time>2026-04-19T07:43:36.999Z</time></trkpt><trkpt lat="44.575597849311464" lon="10.845317060464314"><ele>84.0</ele><time>2026-04-19T07:43:38.999Z</time></trkpt><trkpt lat="44.57570157627173" lon="10.845330550302158"><ele>84.0</ele><time>2026-04-19T07:43:40.999Z</time></trkpt><trkpt lat="44.57579834171108" lon="10.845345731497144"><ele>84.0</ele><time>2026-04-19T07:43:42.999Z</time></trkpt><trkpt lat="44.57589895546009" lon="10.845425227246796"><ele>84.0</ele><time>2026-04-19T07:43:44.999Z</time></trkpt><trkpt lat="44.575923183872206" lon="10.845560098863295"><ele>84.0</ele><time>2026-04-19T07:43:46.999Z</time></trkpt><trkpt lat="44.575928654503485" lon="10.84572467192651"><ele>84.0</ele><time>2026-04-19T07:43:48.999Z</time></trkpt><trkpt lat="44.57596361984953" lon="10.845879092385202"><ele>84.0</ele><time>2026-04-19T07:43:50.999Z</time></trkpt><trkpt lat="44.57593589699816" lon="10.846024156102454"><ele>84.0</ele><time>2026-04-19T07:43:52.998Z</time></trkpt><trkpt lat="44.57593339511347" lon="10.846183947475263"><ele>84.0</ele><time>2026-04-19T07:43:54.998Z</time></trkpt><trkpt lat="44.5759292616698" lon="10.846325945493644"><ele>84.0</ele><time>2026-04-19T07:43:56.998Z</time></trkpt><trkpt lat="44.57592436407865" lon="10.846476320438827"><ele>84.0</ele><time>2026-04-19T07:43:58.998Z</time></trkpt><trkpt lat="44.5759346852665" lon="10.846608246261043"><ele>84.0</ele><time>2026-04-19T07:44:00.998Z</time></trkpt><trkpt lat="44.575928514390036" lon="10.846741748045734"><ele>84.0</ele><time>2026-04-19T07:44:02.998Z</time></trkpt><trkpt lat="44.57594173086825" lon="10.846866023119674"><ele>83.83333333333333</ele><time>2026-04-19T07:44:05.998Z</time></trkpt><trkpt lat="44.57596358814908" lon="10.846967252018764"><ele>83.66666666666667</ele><time>2026-04-19T07:44:07.998Z</time></trkpt><trkpt lat="44.575979635940215" lon="10.8470981954706"><ele>83.5</ele><time>2026-04-19T07:44:10Z</time></trkpt><trkpt lat="44.57600392209759" lon="10.847228699411788"><ele>83.33333333333334</ele><time>2026-04-19T07:44:12Z</time></trkpt><trkpt lat="44.57601263428704" lon="10.847346640623886"><ele>83.16666666666667</ele><time>2026-04-19T07:44:14Z</time></trkpt><trkpt lat="44.57602734035952" lon="10.847457856201475"><ele>83.0</ele><time>2026-04-19T07:44:16Z</time></trkpt><trkpt lat="44.5760271247251" lon="10.847558791390332"><ele>82.66666666666667</ele><time>2026-04-19T07:44:18Z</time></trkpt><trkpt lat="44.576023413158595" lon="10.847666815369184"><ele>82.33333333333334</ele><time>2026-04-19T07:44:20Z</time></trkpt><trkpt lat="44.57602453888453" lon="10.847782884513162"><ele>82.0</ele><time>2026-04-19T07:44:22Z</time></trkpt><trkpt lat="44.57600895928816" lon="10.847871533304275"><ele>81.66666666666667</ele><time>2026-04-19T07:44:24Z</time></trkpt><trkpt lat="44.575897963575834" lon="10.847879164345072"><ele>81.33333333333333</ele><time>2026-04-19T07:44:26Z</time></trkpt><trkpt lat="44.575803287232254" lon="10.847893901098546"><ele>81.0</ele><time>2026-04-19T07:44:28Z</time></trkpt><trkpt lat="44.57578220990605" lon="10.848053215007265"><ele>81.0</ele><time>2026-04-19T07:44:31Z</time></trkpt><trkpt lat="44.575798612388404" lon="10.848150818348374"><ele>81.0</ele><time>2026-04-19T07:44:33Z</time></trkpt><trkpt lat="44.575787979094535" lon="10.848247247268421"><ele>81.0</ele><time>2026-04-19T07:44:35Z</time></trkpt><trkpt lat="44.57570842259647" lon="10.848276074325227"><ele>81.0</ele><time>2026-04-19T07:44:38Z</time></trkpt><trkpt lat="44.57563303185957" lon="10.84824550285559"><ele>81.0</ele><time>2026-04-19T07:44:40Z</time></trkpt><trkpt lat="44.57554144904177" lon="10.848230051734573"><ele>81.0</ele><time>2026-04-19T07:44:42Z</time></trkpt><trkpt lat="44.575432966567384" lon="10.848224628054409"><ele>81.4</ele><time>2026-04-19T07:44:44Z</time></trkpt><trkpt lat="44.57532843956983" lon="10.848209824326691"><ele>81.8</ele><time>2026-04-19T07:44:46Z</time></trkpt><trkpt lat="44.57523236466366" lon="10.848191407428008"><ele>82.2</ele><time>2026-04-19T07:44:48Z</time></trkpt><trkpt lat="44.57512050264193" lon="10.848169244200706"><ele>82.60000000000001</ele><time>2026-04-19T07:44:50Z</time></trkpt><trkpt lat="44.57501352816837" lon="10.848156923027672"><ele>83.0</ele><time>2026-04-19T07:44:52Z</time></trkpt><trkpt lat="44.574907256202565" lon="10.84813671543188"><ele>83.0</ele><time>2026-04-19T07:44:54Z</time></trkpt><trkpt lat="44.57480090950299" lon="10.848154895731838"><ele>83.0</ele><time>2026-04-19T07:44:55.999Z</time></trkpt><trkpt lat="44.57469744234253" lon="10.848203102462355"><ele>83.0</ele><time>2026-04-19T07:44:57.999Z</time></trkpt><trkpt lat="44.574579922464714" lon="10.848214977269766"><ele>83.0</ele><time>2026-04-19T07:44:59.999Z</time></trkpt><trkpt lat="44.574463517148935" lon="10.848195409152202"><ele>82.5</ele><time>2026-04-19T07:45:01.999Z</time></trkpt><trkpt lat="44.57434564581922" lon="10.848182960006927"><ele>82.0</ele><time>2026-04-19T07:45:03.999Z</time></trkpt><trkpt lat="44.57422475112614" lon="10.848177280233493"><ele>81.5</ele><time>2026-04-19T07:45:05.999Z</time></trkpt><trkpt lat="44.57411544462661" lon="10.848146257071905"><ele>81.0</ele><time>2026-04-19T07:45:07.999Z</time></trkpt><trkpt lat="44.574002888888415" lon="10.84811511141477"><ele>81.0</ele><time>2026-04-19T07:45:09.999Z</time></trkpt><trkpt lat="44.573888767085506" lon="10.848081901152467"><ele>81.0</ele><time>2026-04-19T07:45:11.999Z</time></trkpt><trkpt lat="44.57377246312505" lon="10.848017565819971"><ele>81.0</ele><time>2026-04-19T07:45:13.999Z</time></trkpt><trkpt lat="44.573657228011356" lon="10.847947580282897"><ele>81.0</ele><time>2026-04-19T07:45:15.999Z</time></trkpt><trkpt lat="44.57359603326396" lon="10.84791468979838"><ele>81.0</ele><time>2026-04-19T07:45:16.999Z</time></trkpt><trkpt lat="44.573526178038456" lon="10.847882305306033"><ele>80.85714285714286</ele><time>2026-04-19T07:45:17.999Z</time></trkpt><trkpt lat="44.57345810880217" lon="10.847847154764793"><ele>80.71428571428571</ele><time>2026-04-19T07:45:18.999Z</time></trkpt><trkpt lat="44.57339101622944" lon="10.847808626925056"><ele>80.57142857142857</ele><time>2026-04-19T07:45:19.999Z</time></trkpt><trkpt lat="44.57331812866734" lon="10.847777861283594"><ele>80.42857142857143</ele><time>2026-04-19T07:45:20.999Z</time></trkpt><trkpt lat="44.57324770316478" lon="10.847744328024222"><ele>80.28571428571429</ele><time>2026-04-19T07:45:21.999Z</time></trkpt><trkpt lat="44.573174761280285" lon="10.847720437288416"><ele>80.14285714285714</ele><time>2026-04-19T07:45:22.999Z</time></trkpt><trkpt lat="44.57310317697107" lon="10.84769671499308"><ele>80.0</ele><time>2026-04-19T07:45:23.999Z</time></trkpt><trkpt lat="44.57303074403408" lon="10.847688264574913"><ele>80.0</ele><time>2026-04-19T07:45:24.999Z</time></trkpt><trkpt lat="44.57296299466534" lon="10.84768989487046"><ele>80.0</ele><time>2026-04-19T07:45:25.999Z</time></trkpt><trkpt lat="44.57289552796637" lon="10.84769466866055"><ele>80.0</ele><time>2026-04-19T07:45:26.999Z</time></trkpt><trkpt lat="44.57282888709695" lon="10.847708958227935"><ele>80.0</ele><time>2026-04-19T07:45:27.999Z</time></trkpt><trkpt lat="44.57276250560835" lon="10.847710048241252"><ele>80.0</ele><time>2026-04-19T07:45:28.999Z</time></trkpt><trkpt lat="44.57269459785109" lon="10.847710894612902"><ele>80.0</ele><time>2026-04-19T07:45:29.999Z</time></trkpt><trkpt lat="44.572638678744525" lon="10.847765245706363"><ele>80.0</ele><time>2026-04-19T07:45:30.999Z</time></trkpt><trkpt lat="44.57262584336738" lon="10.847873095374052"><ele>80.14285714285714</ele><time>2026-04-19T07:45:31.999Z</time></trkpt><trkpt lat="44.57265469377171" lon="10.847972373949299"><ele>80.28571428571429</ele><time>2026-04-19T07:45:32.999Z</time></trkpt><trkpt lat="44.57269737801936" lon="10.84806212458996"><ele>80.42857142857143</ele><time>2026-04-19T07:45:33.999Z</time></trkpt><trkpt lat="44.57272136769813" lon="10.848144043842769"><ele>80.57142857142857</ele><time>2026-04-19T07:45:34.999Z</time></trkpt><trkpt lat="44.57275081541657" lon="10.848230134749928"><ele>80.71428571428571</ele><time>2026-04-19T07:45:35.999Z</time></trkpt><trkpt lat="44.57278847114335" lon="10.84831560987571"><ele>80.85714285714286</ele><time>2026-04-19T07:45:36.999Z</time></trkpt><trkpt lat="44.5728218467075" lon="10.84840327563203"><ele>81.0</ele><time>2026-04-19T07:45:37.999Z</time></trkpt><trkpt lat="44.57284260757851" lon="10.848489445518341"><ele>81.16666666666667</ele><time>2026-04-19T07:45:38.999Z</time></trkpt><trkpt lat="44.57286981177769" lon="10.848575215853923"><ele>81.33333333333333</ele><time>2026-04-19T07:45:39.999Z</time></trkpt><trkpt lat="44.572903568373526" lon="10.848655145539073"><ele>81.5</ele><time>2026-04-19T07:45:40.999Z</time></trkpt><trkpt lat="44.572950355858424" lon="10.84872986487003"><ele>81.66666666666666</ele><time>2026-04-19T07:45:41.999Z</time></trkpt><trkpt lat="44.57299874913891" lon="10.848802779961481"><ele>81.83333333333333</ele><time>2026-04-19T07:45:42.999Z</time></trkpt><trkpt lat="44.573041556799765" lon="10.848869004597018"><ele>82.0</ele><time>2026-04-19T07:45:43.999Z</time></trkpt><trkpt lat="44.57311791803547" lon="10.849012746451068"><ele>81.99999999999999</ele><time>2026-04-19T07:45:45.999Z</time></trkpt><trkpt lat="44.57315557706817" lon="10.849090685176694"><ele>82.0</ele><time>2026-04-19T07:45:46.999Z</time></trkpt><trkpt lat="44.57320382500677" lon="10.849151195056722"><ele>82.0</ele><time>2026-04-19T07:45:47.999Z</time></trkpt><trkpt lat="44.57320889651156" lon="10.849254240149133"><ele>82.0</ele><time>2026-04-19T07:45:48.999Z</time></trkpt><trkpt lat="44.57322786753001" lon="10.8493392648396"><ele>82.0</ele><time>2026-04-19T07:45:49.999Z</time></trkpt><trkpt lat="44.573228920914104" lon="10.849432980649613"><ele>81.99999999999999</ele><time>2026-04-19T07:45:50.999Z</time></trkpt><trkpt lat="44.57322633294821" lon="10.84952325075109"><ele>82.0</ele><time>2026-04-19T07:45:51.999Z</time></trkpt><trkpt lat="44.57322496569393" lon="10.849699564533203"><ele>82.16666666666666</ele><time>2026-04-19T07:45:53.999Z</time></trkpt><trkpt lat="44.573232658974966" lon="10.849789762618622"><ele>82.33333333333333</ele><time>2026-04-19T07:45:54.999Z</time></trkpt><trkpt lat="44.57323618459904" lon="10.849886953913552"><ele>82.5</ele><time>2026-04-19T07:45:55.999Z</time></trkpt><trkpt lat="44.57324388370071" lon="10.849976555944806"><ele>82.66666666666667</ele><time>2026-04-19T07:45:56.999Z</time></trkpt><trkpt lat="44.57324719830164" lon="10.850070628781248"><ele>82.83333333333334</ele><time>2026-04-19T07:45:57.999Z</time></trkpt><trkpt lat="44.57324799187639" lon="10.850162987656004"><ele>83.0</ele><time>2026-04-19T07:45:58.998Z</time></trkpt><trkpt lat="44.573261209097986" lon="10.850339304062231"><ele>82.66666666666667</ele><time>2026-04-19T07:46:00.998Z</time></trkpt><trkpt lat="44.57326413227378" lon="10.850429010210776"><ele>82.33333333333334</ele><time>2026-04-19T07:46:01.998Z</time></trkpt><trkpt lat="44.57327170256648" lon="10.850520779697494"><ele>82.0</ele><time>2026-04-19T07:46:02.998Z</time></trkpt><trkpt lat="44.57327507366013" lon="10.850613664823575"><ele>81.66666666666667</ele><time>2026-04-19T07:46:03.998Z</time></trkpt><trkpt lat="44.57327608042956" lon="10.850708746804823"><ele>81.33333333333333</ele><time>2026-04-19T07:46:04.998Z</time></trkpt><trkpt lat="44.57327918717713" lon="10.85080169084709"><ele>81.0</ele><time>2026-04-19T07:46:05.998Z</time></trkpt><trkpt lat="44.573288819893015" lon="10.85097387665836"><ele>80.85714285714286</ele><time>2026-04-19T07:46:07.998Z</time></trkpt><trkpt lat="44.5732895340671" lon="10.851079087966761"><ele>80.71428571428571</ele><time>2026-04-19T07:46:08.998Z</time></trkpt><trkpt lat="44.573292306595" lon="10.851173601536217"><ele>80.57142857142857</ele><time>2026-04-19T07:46:09.998Z</time></trkpt><trkpt lat="44.57329353432015" lon="10.851268848291445"><ele>80.42857142857143</ele><time>2026-04-19T07:46:10.998Z</time></trkpt><trkpt lat="44.573297665140416" lon="10.851360601158166"><ele>80.28571428571429</ele><time>2026-04-19T07:46:11.998Z</time></trkpt><trkpt lat="44.573299245685554" lon="10.851452679536452"><ele>80.14285714285714</ele><time>2026-04-19T07:46:12.998Z</time></trkpt><trkpt lat="44.57330407459997" lon="10.851553433592194"><ele>80.0</ele><time>2026-04-19T07:46:13.998Z</time></trkpt><trkpt lat="44.57330589206982" lon="10.851650144469838"><ele>80.33333333333334</ele><time>2026-04-19T07:46:14.998Z</time></trkpt><trkpt lat="44.57331784410313" lon="10.85182802850935"><ele>80.66666666666667</ele><time>2026-04-19T07:46:17Z</time></trkpt><trkpt lat="44.573302778521814" lon="10.851925599614074"><ele>81.0</ele><time>2026-04-19T07:46:18Z</time></trkpt><trkpt lat="44.57329189181895" lon="10.852017526093384"><ele>81.33333333333333</ele><time>2026-04-19T07:46:19Z</time></trkpt><trkpt lat="44.573279640359736" lon="10.852106717073005"><ele>81.66666666666666</ele><time>2026-04-19T07:46:20Z</time></trkpt><trkpt lat="44.57326204970534" lon="10.852204502215477"><ele>82.0</ele><time>2026-04-19T07:46:21Z</time></trkpt><trkpt lat="44.573240598198296" lon="10.852301608542456"><ele>81.99999999999999</ele><time>2026-04-19T07:46:22Z</time></trkpt><trkpt lat="44.57321871301273" lon="10.852389175087811"><ele>82.0</ele><time>2026-04-19T07:46:23Z</time></trkpt><trkpt lat="44.573199830373675" lon="10.852480350186411"><ele>82.0</ele><time>2026-04-19T07:46:24Z</time></trkpt><trkpt lat="44.57317649239238" lon="10.852570622751127"><ele>82.0</ele><time>2026-04-19T07:46:25Z</time></trkpt><trkpt lat="44.57315455000551" lon="10.852656386640597"><ele>82.0</ele><time>2026-04-19T07:46:26Z</time></trkpt><trkpt lat="44.57313666346625" lon="10.852745333164325"><ele>81.99999999999999</ele><time>2026-04-19T07:46:27Z</time></trkpt><trkpt lat="44.57311489804122" lon="10.85283447478078"><ele>82.0</ele><time>2026-04-19T07:46:28Z</time></trkpt><trkpt lat="44.57309241030601" lon="10.852918785191154"><ele>82.0</ele><time>2026-04-19T07:46:29Z</time></trkpt><trkpt lat="44.57305509922442" lon="10.853077488591765"><ele>82.0</ele><time>2026-04-19T07:46:31Z</time></trkpt><trkpt lat="44.57301621556305" lon="10.853235561531163"><ele>82.0</ele><time>2026-04-19T07:46:33Z</time></trkpt><trkpt lat="44.57298340936667" lon="10.853374840063161"><ele>82.0</ele><time>2026-04-19T07:46:35Z</time></trkpt><trkpt lat="44.57296670659023" lon="10.853461377002247"><ele>82.0</ele><time>2026-04-19T07:46:36Z</time></trkpt><trkpt lat="44.57293971214761" lon="10.853609567879626"><ele>81.5</ele><time>2026-04-19T07:46:38Z</time></trkpt><trkpt lat="44.57290547160605" lon="10.853757558645292"><ele>81.0</ele><time>2026-04-19T07:46:40Z</time></trkpt><trkpt lat="44.572872363337126" lon="10.853916300220666"><ele>80.5</ele><time>2026-04-19T07:46:42Z</time></trkpt><trkpt lat="44.57283513414879" lon="10.854068168761545"><ele>80.0</ele><time>2026-04-19T07:46:44Z</time></trkpt><trkpt lat="44.57279278799042" lon="10.85421286071869"><ele>80.4</ele><time>2026-04-19T07:46:46Z</time></trkpt><trkpt lat="44.57276284749564" lon="10.85436246976426"><ele>80.8</ele><time>2026-04-19T07:46:48Z</time></trkpt><trkpt lat="44.57271973455616" lon="10.854504667555906"><ele>81.19999999999999</ele><time>2026-04-19T07:46:50Z</time></trkpt><trkpt lat="44.572650332911664" lon="10.854619208779058"><ele>81.6</ele><time>2026-04-19T07:46:52Z</time></trkpt><trkpt lat="44.57263527277228" lon="10.854757692869235"><ele>82.0</ele><time>2026-04-19T07:46:54Z</time></trkpt><trkpt lat="44.572640488202225" lon="10.854911045178772"><ele>82.0</ele><time>2026-04-19T07:46:56Z</time></trkpt><trkpt lat="44.57258794828874" lon="10.855046331627968"><ele>82.0</ele><time>2026-04-19T07:46:58Z</time></trkpt><trkpt lat="44.57256594071916" lon="10.855200397103214"><ele>82.0</ele><time>2026-04-19T07:47:00Z</time></trkpt><trkpt lat="44.57252812378081" lon="10.85534573450911"><ele>82.0</ele><time>2026-04-19T07:47:02Z</time></trkpt><trkpt lat="44.57248305702498" lon="10.855502094954225"><ele>82.0</ele><time>2026-04-19T07:47:03.999Z</time></trkpt><trkpt lat="44.572459037010745" lon="10.855664516667307"><ele>82.0</ele><time>2026-04-19T07:47:05.999Z</time></trkpt><trkpt lat="44.57241407334716" lon="10.85581776965145"><ele>82.0</ele><time>2026-04-19T07:47:07.999Z</time></trkpt><trkpt lat="44.57238009860106" lon="10.855979084144677"><ele>82.0</ele><time>2026-04-19T07:47:09.999Z</time></trkpt><trkpt lat="44.57234158165336" lon="10.856131136805503"><ele>81.6</ele><time>2026-04-19T07:47:11.999Z</time></trkpt><trkpt lat="44.57230523126527" lon="10.856294261777892"><ele>81.19999999999999</ele><time>2026-04-19T07:47:13.999Z</time></trkpt><trkpt lat="44.5722681052821" lon="10.856457627691537"><ele>80.8</ele><time>2026-04-19T07:47:15.999Z</time></trkpt><trkpt lat="44.57222495326311" lon="10.85662343809951"><ele>80.4</ele><time>2026-04-19T07:47:17.999Z</time></trkpt><trkpt lat="44.57220570347635" lon="10.856711050479854"><ele>80.0</ele><time>2026-04-19T07:47:18.999Z</time></trkpt><trkpt lat="44.57217906978851" lon="10.856793480367442"><ele>79.66666666666667</ele><time>2026-04-19T07:47:19.999Z</time></trkpt><trkpt lat="44.572122963530326" lon="10.856953694657031"><ele>79.33333333333334</ele><time>2026-04-19T07:47:21.999Z</time></trkpt><trkpt lat="44.572094804514656" lon="10.857040199316181"><ele>79.0</ele><time>2026-04-19T07:47:22.999Z</time></trkpt><trkpt lat="44.57206478918273" lon="10.857122612581879"><ele>78.66666666666667</ele><time>2026-04-19T07:47:23.999Z</time></trkpt><trkpt lat="44.57203475832893" lon="10.857202151949457"><ele>78.33333333333333</ele><time>2026-04-19T07:47:24.999Z</time></trkpt><trkpt lat="44.57200760122262" lon="10.857284598131983"><ele>78.0</ele><time>2026-04-19T07:47:25.999Z</time></trkpt><trkpt lat="44.57197788549213" lon="10.857366460732882"><ele>78.0</ele><time>2026-04-19T07:47:26.999Z</time></trkpt><trkpt lat="44.571948053199975" lon="10.85744710709891"><ele>78.0</ele><time>2026-04-19T07:47:27.999Z</time></trkpt><trkpt lat="44.57192106190839" lon="10.857528819642832"><ele>78.0</ele><time>2026-04-19T07:47:28.999Z</time></trkpt><trkpt lat="44.57189352595695" lon="10.857609905103882"><ele>78.0</ele><time>2026-04-19T07:47:29.999Z</time></trkpt><trkpt lat="44.57186561157416" lon="10.857691467826116"><ele>78.0</ele><time>2026-04-19T07:47:30.999Z</time></trkpt><trkpt lat="44.57183652790963" lon="10.857772590795394"><ele>78.0</ele><time>2026-04-19T07:47:31.999Z</time></trkpt><trkpt lat="44.57180809266933" lon="10.857852177308574"><ele>78.0</ele><time>2026-04-19T07:47:32.999Z</time></trkpt><trkpt lat="44.57178008492" lon="10.85793241552278"><ele>78.0</ele><time>2026-04-19T07:47:33.999Z</time></trkpt><trkpt lat="44.5717515708679" lon="10.858013570425783"><ele>78.14285714285715</ele><time>2026-04-19T07:47:34.999Z</time></trkpt><trkpt lat="44.57172386518046" lon="10.858093502767096"><ele>78.28571428571428</ele><time>2026-04-19T07:47:35.999Z</time></trkpt><trkpt lat="44.57169543390437" lon="10.85817290755192"><ele>78.42857142857143</ele><time>2026-04-19T07:47:36.999Z</time></trkpt><trkpt lat="44.57166714684099" lon="10.858252738649352"><ele>78.57142857142858</ele><time>2026-04-19T07:47:37.999Z</time></trkpt><trkpt lat="44.571639205436696" lon="10.858334669020568"><ele>78.71428571428572</ele><time>2026-04-19T07:47:38.999Z</time></trkpt><trkpt lat="44.57161126123571" lon="10.858416033528234"><ele>78.85714285714286</ele><time>2026-04-19T07:47:39.999Z</time></trkpt><trkpt lat="44.57155448711734" lon="10.858575291479518"><ele>79.0</ele><time>2026-04-19T07:47:41.999Z</time></trkpt><trkpt lat="44.571525726679894" lon="10.858654862170466"><ele>79.14285714285715</ele><time>2026-04-19T07:47:42.999Z</time></trkpt><trkpt lat="44.571499162288134" lon="10.858738390418276"><ele>79.28571428571429</ele><time>2026-04-19T07:47:43.999Z</time></trkpt><trkpt lat="44.57147190663397" lon="10.858819942069399"><ele>79.42857142857143</ele><time>2026-04-19T07:47:44.999Z</time></trkpt><trkpt lat="44.57144212777194" lon="10.858901083426908"><ele>79.57142857142858</ele><time>2026-04-19T07:47:45.999Z</time></trkpt><trkpt lat="44.5714119736732" lon="10.858984756352159"><ele>79.71428571428572</ele><time>2026-04-19T07:47:46.999Z</time></trkpt><trkpt lat="44.57138384839684" lon="10.859066708153359"><ele>79.85714285714286</ele><time>2026-04-19T07:47:47.999Z</time></trkpt><trkpt lat="44.57135631664108" lon="10.859147033482932"><ele>80.0</ele><time>2026-04-19T07:47:48.999Z</time></trkpt><trkpt lat="44.57130037670892" lon="10.859310145557762"><ele>80.0</ele><time>2026-04-19T07:47:50.999Z</time></trkpt><trkpt lat="44.57127339031569" lon="10.859394247575729"><ele>80.0</ele><time>2026-04-19T07:47:51.999Z</time></trkpt><trkpt lat="44.57124952922091" lon="10.85947977129071"><ele>80.0</ele><time>2026-04-19T07:47:52.999Z</time></trkpt><trkpt lat="44.57122618963348" lon="10.859564404696917"><ele>80.0</ele><time>2026-04-19T07:47:53.999Z</time></trkpt><trkpt lat="44.57120497024617" lon="10.85965189523924"><ele>80.0</ele><time>2026-04-19T07:47:54.999Z</time></trkpt><trkpt lat="44.571183591412805" lon="10.859737305408517"><ele>80.0</ele><time>2026-04-19T07:47:55.999Z</time></trkpt><trkpt lat="44.57116193637126" lon="10.859823496024823"><ele>80.0</ele><time>2026-04-19T07:47:56.999Z</time></trkpt><trkpt lat="44.57113950329729" lon="10.859909120752832"><ele>80.0</ele><time>2026-04-19T07:47:57.999Z</time></trkpt><trkpt lat="44.57111852788801" lon="10.859995863739051"><ele>80.0</ele><time>2026-04-19T07:47:58.999Z</time></trkpt><trkpt lat="44.57109778082131" lon="10.860083548408584"><ele>80.0</ele><time>2026-04-19T07:47:59.999Z</time></trkpt><trkpt lat="44.5710763215413" lon="10.860172344581976"><ele>80.0</ele><time>2026-04-19T07:48:00.999Z</time></trkpt><trkpt lat="44.57105751812782" lon="10.860264403314563"><ele>80.0</ele><time>2026-04-19T07:48:01.999Z</time></trkpt><trkpt lat="44.571035390203534" lon="10.860353424561405"><ele>80.0</ele><time>2026-04-19T07:48:02.999Z</time></trkpt><trkpt lat="44.571013936361254" lon="10.860444504823482"><ele>80.0</ele><time>2026-04-19T07:48:03.999Z</time></trkpt><trkpt lat="44.57099213352296" lon="10.860531986737497"><ele>79.83333333333334</ele><time>2026-04-19T07:48:04.999Z</time></trkpt><trkpt lat="44.57097081487089" lon="10.86061995421114"><ele>79.66666666666667</ele><time>2026-04-19T07:48:05.999Z</time></trkpt><trkpt lat="44.570949154084765" lon="10.860708006439511"><ele>79.5</ele><time>2026-04-19T07:48:06.998Z</time></trkpt><trkpt lat="44.57092597027651" lon="10.86079365470315"><ele>79.33333333333333</ele><time>2026-04-19T07:48:07.998Z</time></trkpt><trkpt lat="44.57088273309428" lon="10.860963418010542"><ele>79.16666666666666</ele><time>2026-04-19T07:48:09.998Z</time></trkpt><trkpt lat="44.570863312895476" lon="10.861050023295244"><ele>79.0</ele><time>2026-04-19T07:48:10.998Z</time></trkpt><trkpt lat="44.57082351127616" lon="10.861216049392374"><ele>79.0</ele><time>2026-04-19T07:48:12.998Z</time></trkpt><trkpt lat="44.57078049422023" lon="10.861380821837965"><ele>79.0</ele><time>2026-04-19T07:48:14.998Z</time></trkpt><trkpt lat="44.570761295015544" lon="10.86146640383527"><ele>79.0</ele><time>2026-04-19T07:48:15.998Z</time></trkpt><trkpt lat="44.57074272399881" lon="10.861552511999978"><ele>79.0</ele><time>2026-04-19T07:48:16.998Z</time></trkpt><trkpt lat="44.5707217458199" lon="10.861638333436202"><ele>79.0</ele><time>2026-04-19T07:48:17.998Z</time></trkpt><trkpt lat="44.570699641523866" lon="10.861727851848839"><ele>79.0</ele><time>2026-04-19T07:48:18.998Z</time></trkpt><trkpt lat="44.57068207048329" lon="10.861817060899982"><ele>78.8</ele><time>2026-04-19T07:48:19.998Z</time></trkpt><trkpt lat="44.57064085171694" lon="10.86198350360538"><ele>78.60000000000001</ele><time>2026-04-19T07:48:22Z</time></trkpt><trkpt lat="44.57060103531491" lon="10.86214698375978"><ele>78.4</ele><time>2026-04-19T07:48:24Z</time></trkpt><trkpt lat="44.57058066335228" lon="10.862230817826966"><ele>78.2</ele><time>2026-04-19T07:48:25Z</time></trkpt><trkpt lat="44.57056109579437" lon="10.86231637675855"><ele>78.0</ele><time>2026-04-19T07:48:26Z</time></trkpt><trkpt lat="44.57052072003983" lon="10.862485336257278"><ele>78.33333333333333</ele><time>2026-04-19T07:48:28Z</time></trkpt><trkpt lat="44.5704806712928" lon="10.862651537523691"><ele>78.66666666666667</ele><time>2026-04-19T07:48:30Z</time></trkpt><trkpt lat="44.57045724132392" lon="10.862737924602067"><ele>79.0</ele><time>2026-04-19T07:48:31Z</time></trkpt><trkpt lat="44.570416413448854" lon="10.86290406513574"><ele>79.33333333333334</ele><time>2026-04-19T07:48:33Z</time></trkpt><trkpt lat="44.57039753552839" lon="10.86298950132266"><ele>79.66666666666667</ele><time>2026-04-19T07:48:34Z</time></trkpt><trkpt lat="44.57037782089365" lon="10.86307621203681"><ele>80.0</ele><time>2026-04-19T07:48:35Z</time></trkpt><trkpt lat="44.570338525550724" lon="10.863237101075947"><ele>80.25</ele><time>2026-04-19T07:48:37Z</time></trkpt><trkpt lat="44.570300729705544" lon="10.863395166435089"><ele>80.5</ele><time>2026-04-19T07:48:39Z</time></trkpt><trkpt lat="44.570267076526825" lon="10.863550174977286"><ele>80.75</ele><time>2026-04-19T07:48:41Z</time></trkpt><trkpt lat="44.57022421073934" lon="10.86370517852097"><ele>81.0</ele><time>2026-04-19T07:48:43Z</time></trkpt><trkpt lat="44.57018367818194" lon="10.863860098662956"><ele>81.0</ele><time>2026-04-19T07:48:45Z</time></trkpt><trkpt lat="44.57014563369405" lon="10.864016073068761"><ele>81.0</ele><time>2026-04-19T07:48:47Z</time></trkpt><trkpt lat="44.5701111024668" lon="10.86416449239508"><ele>81.0</ele><time>2026-04-19T07:48:49Z</time></trkpt><trkpt lat="44.57007587036694" lon="10.864320825930845"><ele>81.0</ele><time>2026-04-19T07:48:51Z</time></trkpt><trkpt lat="44.57003450014889" lon="10.864475826168947"><ele>80.8</ele><time>2026-04-19T07:48:53Z</time></trkpt><trkpt lat="44.56999897320617" lon="10.864616922969844"><ele>80.6</ele><time>2026-04-19T07:48:55Z</time></trkpt><trkpt lat="44.56996497600161" lon="10.86476600966293"><ele>80.4</ele><time>2026-04-19T07:48:57Z</time></trkpt><trkpt lat="44.56993038227886" lon="10.864914314762228"><ele>80.2</ele><time>2026-04-19T07:48:59Z</time></trkpt><trkpt lat="44.56989393985185" lon="10.86506290851187"><ele>80.0</ele><time>2026-04-19T07:49:01Z</time></trkpt><trkpt lat="44.56986193464692" lon="10.86520064673933"><ele>80.4</ele><time>2026-04-19T07:49:03Z</time></trkpt><trkpt lat="44.56982550987391" lon="10.865347922467755"><ele>80.8</ele><time>2026-04-19T07:49:05Z</time></trkpt><trkpt lat="44.56979438952339" lon="10.865483288890236"><ele>81.19999999999999</ele><time>2026-04-19T07:49:06.999Z</time></trkpt><trkpt lat="44.569755536747266" lon="10.865631483473337"><ele>81.6</ele><time>2026-04-19T07:49:08.999Z</time></trkpt><trkpt lat="44.56972296108543" lon="10.865775257120454"><ele>82.0</ele><time>2026-04-19T07:49:10.999Z</time></trkpt><trkpt lat="44.56968562907176" lon="10.865921767839195"><ele>81.75</ele><time>2026-04-19T07:49:12.999Z</time></trkpt><trkpt lat="44.56965236137384" lon="10.866069506172602"><ele>81.5</ele><time>2026-04-19T07:49:14.999Z</time></trkpt><trkpt lat="44.569624578733084" lon="10.86623311149598"><ele>81.25</ele><time>2026-04-19T07:49:16.999Z</time></trkpt><trkpt lat="44.569583683876054" lon="10.866391592329212"><ele>81.0</ele><time>2026-04-19T07:49:18.999Z</time></trkpt><trkpt lat="44.569543247319565" lon="10.866550738210158"><ele>81.0</ele><time>2026-04-19T07:49:20.999Z</time></trkpt><trkpt lat="44.56950378941423" lon="10.866712344152312"><ele>81.0</ele><time>2026-04-19T07:49:22.999Z</time></trkpt><trkpt lat="44.56946590075154" lon="10.866874186978224"><ele>81.0</ele><time>2026-04-19T07:49:24.999Z</time></trkpt><trkpt lat="44.56942515931598" lon="10.867037775382062"><ele>81.0</ele><time>2026-04-19T07:49:26.999Z</time></trkpt><trkpt lat="44.56938510854858" lon="10.86719997256044"><ele>81.0</ele><time>2026-04-19T07:49:28.999Z</time></trkpt><trkpt lat="44.56934736823054" lon="10.867362823884491"><ele>81.0</ele><time>2026-04-19T07:49:30.999Z</time></trkpt><trkpt lat="44.569307400438895" lon="10.867518148754368"><ele>81.0</ele><time>2026-04-19T07:49:32.999Z</time></trkpt><trkpt lat="44.56927454372373" lon="10.867678896849112"><ele>81.0</ele><time>2026-04-19T07:49:34.999Z</time></trkpt><trkpt lat="44.56924408656493" lon="10.86783865657882"><ele>81.0</ele><time>2026-04-19T07:49:36.999Z</time></trkpt><trkpt lat="44.56919639564323" lon="10.867978674038811"><ele>81.0</ele><time>2026-04-19T07:49:38.999Z</time></trkpt><trkpt lat="44.56911654247415" lon="10.868097932714827"><ele>81.0</ele><time>2026-04-19T07:49:40.999Z</time></trkpt><trkpt lat="44.569074515407586" lon="10.86822520144406"><ele>81.0</ele><time>2026-04-19T07:49:42.999Z</time></trkpt><trkpt lat="44.56910258078775" lon="10.868324556237422"><ele>81.0</ele><time>2026-04-19T07:49:43.999Z</time></trkpt><trkpt lat="44.56908691821175" lon="10.868474404926056"><ele>81.0</ele><time>2026-04-19T07:49:45.999Z</time></trkpt><trkpt lat="44.56905322196967" lon="10.8686213631784"><ele>81.0</ele><time>2026-04-19T07:49:47.999Z</time></trkpt><trkpt lat="44.56902124155412" lon="10.868776515912622"><ele>81.0</ele><time>2026-04-19T07:49:49.999Z</time></trkpt><trkpt lat="44.56898173018524" lon="10.868924848321651"><ele>81.0</ele><time>2026-04-19T07:49:51.999Z</time></trkpt><trkpt lat="44.56894647602095" lon="10.869072583241984"><ele>81.0</ele><time>2026-04-19T07:49:53.999Z</time></trkpt><trkpt lat="44.56892942844829" lon="10.869240494198813"><ele>81.0</ele><time>2026-04-19T07:49:55.999Z</time></trkpt><trkpt lat="44.56890269541379" lon="10.869408928963725"><ele>81.0</ele><time>2026-04-19T07:49:57.999Z</time></trkpt><trkpt lat="44.568856034235054" lon="10.869561843828143"><ele>81.0</ele><time>2026-04-19T07:49:59.999Z</time></trkpt><trkpt lat="44.5688314208165" lon="10.869645921688106"><ele>81.0</ele><time>2026-04-19T07:50:00.999Z</time></trkpt><trkpt lat="44.56880969313801" lon="10.869729966416434"><ele>81.0</ele><time>2026-04-19T07:50:01.999Z</time></trkpt><trkpt lat="44.56878512700584" lon="10.869812761382205"><ele>81.0</ele><time>2026-04-19T07:50:02.999Z</time></trkpt><trkpt lat="44.568760485869504" lon="10.86989639777146"><ele>81.0</ele><time>2026-04-19T07:50:03.999Z</time></trkpt><trkpt lat="44.56873367939563" lon="10.869979400440439"><ele>81.0</ele><time>2026-04-19T07:50:04.999Z</time></trkpt><trkpt lat="44.5686759380752" lon="10.87013640920237"><ele>81.0</ele><time>2026-04-19T07:50:06.999Z</time></trkpt><trkpt lat="44.56864810226013" lon="10.870216157178433"><ele>81.0</ele><time>2026-04-19T07:50:07.999Z</time></trkpt><trkpt lat="44.56861960376282" lon="10.870297577439338"><ele>81.0</ele><time>2026-04-19T07:50:08.999Z</time></trkpt><trkpt lat="44.568587301738894" lon="10.870378496745499"><ele>81.0</ele><time>2026-04-19T07:50:09.998Z</time></trkpt><trkpt lat="44.56855793853113" lon="10.87045886265834"><ele>81.0</ele><time>2026-04-19T07:50:10.998Z</time></trkpt><trkpt lat="44.56852942328015" lon="10.87054116832338"><ele>81.0</ele><time>2026-04-19T07:50:11.998Z</time></trkpt><trkpt lat="44.56849750982403" lon="10.870625093964554"><ele>81.0</ele><time>2026-04-19T07:50:12.998Z</time></trkpt><trkpt lat="44.56846647342112" lon="10.870705847014491"><ele>81.0</ele><time>2026-04-19T07:50:13.998Z</time></trkpt><trkpt lat="44.56843720748319" lon="10.870786572804372"><ele>81.0</ele><time>2026-04-19T07:50:14.998Z</time></trkpt><trkpt lat="44.56840766648675" lon="10.870872864148392"><ele>81.0</ele><time>2026-04-19T07:50:15.998Z</time></trkpt><trkpt lat="44.56838020736966" lon="10.870954274312238"><ele>81.0</ele><time>2026-04-19T07:50:16.998Z</time></trkpt><trkpt lat="44.56835041105474" lon="10.87103531590631"><ele>81.0</ele><time>2026-04-19T07:50:17.998Z</time></trkpt><trkpt lat="44.56829922478729" lon="10.871194725278542"><ele>80.6</ele><time>2026-04-19T07:50:19.998Z</time></trkpt><trkpt lat="44.56823903838849" lon="10.871357746353835"><ele>80.19999999999999</ele><time>2026-04-19T07:50:21.998Z</time></trkpt><trkpt lat="44.568213642784315" lon="10.871441946404273"><ele>79.80000000000001</ele><time>2026-04-19T07:50:22.998Z</time></trkpt><trkpt lat="44.56816550903997" lon="10.871609597169384"><ele>79.4</ele><time>2026-04-19T07:50:24.998Z</time></trkpt><trkpt lat="44.56814033479448" lon="10.871696293843666"><ele>79.0</ele><time>2026-04-19T07:50:25.998Z</time></trkpt><trkpt lat="44.568090769478246" lon="10.871853281661263"><ele>79.0</ele><time>2026-04-19T07:50:28Z</time></trkpt><trkpt lat="44.56803032936655" lon="10.872010802240863"><ele>79.0</ele><time>2026-04-19T07:50:30Z</time></trkpt><trkpt lat="44.56797428984197" lon="10.872164643204922"><ele>79.0</ele><time>2026-04-19T07:50:32Z</time></trkpt><trkpt lat="44.56790295730223" lon="10.872302139730046"><ele>79.0</ele><time>2026-04-19T07:50:34Z</time></trkpt><trkpt lat="44.56783248938835" lon="10.872438840390247"><ele>79.0</ele><time>2026-04-19T07:50:36Z</time></trkpt><trkpt lat="44.567760872646254" lon="10.872580388961053"><ele>79.0</ele><time>2026-04-19T07:50:38Z</time></trkpt><trkpt lat="44.567697316879766" lon="10.87272689618147"><ele>79.0</ele><time>2026-04-19T07:50:40Z</time></trkpt><trkpt lat="44.567633009559366" lon="10.872871908583702"><ele>79.0</ele><time>2026-04-19T07:50:42Z</time></trkpt><trkpt lat="44.56756908064458" lon="10.873013042807704"><ele>79.00000000000001</ele><time>2026-04-19T07:50:44Z</time></trkpt><trkpt lat="44.567503839894336" lon="10.873161784509769"><ele>79.0</ele><time>2026-04-19T07:50:46Z</time></trkpt><trkpt lat="44.567471687099555" lon="10.873238759515914"><ele>79.0</ele><time>2026-04-19T07:50:47Z</time></trkpt><trkpt lat="44.56743409917019" lon="10.873315998938104"><ele>79.0</ele><time>2026-04-19T07:50:48Z</time></trkpt><trkpt lat="44.56739972000568" lon="10.873392625017988"><ele>79.0</ele><time>2026-04-19T07:50:49Z</time></trkpt><trkpt lat="44.567368433507184" lon="10.873471026958107"><ele>79.00000000000001</ele><time>2026-04-19T07:50:50Z</time></trkpt><trkpt lat="44.567333923765425" lon="10.873546490131089"><ele>79.0</ele><time>2026-04-19T07:50:51Z</time></trkpt><trkpt lat="44.56726443517738" lon="10.873694016869612"><ele>78.85714285714286</ele><time>2026-04-19T07:50:53Z</time></trkpt><trkpt lat="44.56722880405001" lon="10.873770860260004"><ele>78.71428571428572</ele><time>2026-04-19T07:50:54Z</time></trkpt><trkpt lat="44.56719234195877" lon="10.873848234200953"><ele>78.57142857142858</ele><time>2026-04-19T07:50:55Z</time></trkpt><trkpt lat="44.56715501329192" lon="10.873923931285352"><ele>78.42857142857143</ele><time>2026-04-19T07:50:56Z</time></trkpt><trkpt lat="44.56712029504879" lon="10.873999303278485"><ele>78.28571428571428</ele><time>2026-04-19T07:50:57Z</time></trkpt><trkpt lat="44.56708430619594" lon="10.874073669215234"><ele>78.14285714285715</ele><time>2026-04-19T07:50:58Z</time></trkpt><trkpt lat="44.56705108411925" lon="10.874150855896051"><ele>78.0</ele><time>2026-04-19T07:50:59Z</time></trkpt><trkpt lat="44.56701504414962" lon="10.874228629206412"><ele>78.4</ele><time>2026-04-19T07:51:00Z</time></trkpt><trkpt lat="44.566980884463824" lon="10.874304431371975"><ele>78.8</ele><time>2026-04-19T07:51:01Z</time></trkpt><trkpt lat="44.5669138474744" lon="10.87445209753651"><ele>79.2</ele><time>2026-04-19T07:51:03Z</time></trkpt><trkpt lat="44.56684094685622" lon="10.874604601687377"><ele>79.6</ele><time>2026-04-19T07:51:05Z</time></trkpt><trkpt lat="44.56677572680408" lon="10.874751245480876"><ele>80.0</ele><time>2026-04-19T07:51:07Z</time></trkpt><trkpt lat="44.56673708604185" lon="10.874821641007914"><ele>80.0</ele><time>2026-04-19T07:51:08Z</time></trkpt><trkpt lat="44.566701828856964" lon="10.87489742796805"><ele>80.0</ele><time>2026-04-19T07:51:09Z</time></trkpt><trkpt lat="44.5666645494764" lon="10.874974282554563"><ele>80.0</ele><time>2026-04-19T07:51:10Z</time></trkpt><trkpt lat="44.56662191318302" lon="10.87504303155441"><ele>80.0</ele><time>2026-04-19T07:51:11Z</time></trkpt><trkpt lat="44.56657720877595" lon="10.87510657019113"><ele>80.0</ele><time>2026-04-19T07:51:12Z</time></trkpt><trkpt lat="44.566532045350435" lon="10.875176336254441"><ele>80.0</ele><time>2026-04-19T07:51:12.999Z</time></trkpt><trkpt lat="44.56648741568248" lon="10.875248705347214"><ele>80.0</ele><time>2026-04-19T07:51:13.999Z</time></trkpt><trkpt lat="44.56644795512714" lon="10.875320727488551"><ele>79.85714285714286</ele><time>2026-04-19T07:51:14.999Z</time></trkpt><trkpt lat="44.566408456635855" lon="10.875391280949232"><ele>79.71428571428572</ele><time>2026-04-19T07:51:15.999Z</time></trkpt><trkpt lat="44.56636604640007" lon="10.875466411132257"><ele>79.57142857142858</ele><time>2026-04-19T07:51:16.999Z</time></trkpt><trkpt lat="44.56632517959008" lon="10.875536495235464"><ele>79.42857142857143</ele><time>2026-04-19T07:51:17.999Z</time></trkpt><trkpt lat="44.56628394709159" lon="10.875609918676025"><ele>79.28571428571429</ele><time>2026-04-19T07:51:18.999Z</time></trkpt><trkpt lat="44.56624408257713" lon="10.87568141981232"><ele>79.14285714285715</ele><time>2026-04-19T07:51:19.999Z</time></trkpt><trkpt lat="44.56620501282985" lon="10.87575587154187"><ele>79.0</ele><time>2026-04-19T07:51:20.999Z</time></trkpt><trkpt lat="44.566161860243376" lon="10.875829296812247"><ele>79.28571428571429</ele><time>2026-04-19T07:51:21.999Z</time></trkpt><trkpt lat="44.56612097041414" lon="10.87590012162795"><ele>79.57142857142857</ele><time>2026-04-19T07:51:22.999Z</time></trkpt><trkpt lat="44.566083004711395" lon="10.875971161168959"><ele>79.85714285714286</ele><time>2026-04-19T07:51:23.999Z</time></trkpt><trkpt lat="44.56604614739163" lon="10.876043348940152"><ele>80.14285714285714</ele><time>2026-04-19T07:51:24.999Z</time></trkpt><trkpt lat="44.56596662666829" lon="10.876176521097081"><ele>80.42857142857143</ele><time>2026-04-19T07:51:26.999Z</time></trkpt><trkpt lat="44.56592723031155" lon="10.876246116821761"><ele>80.71428571428572</ele><time>2026-04-19T07:51:27.999Z</time></trkpt><trkpt lat="44.56588469033422" lon="10.876313719194819"><ele>81.0</ele><time>2026-04-19T07:51:28.999Z</time></trkpt><trkpt lat="44.56580449914529" lon="10.876443779285468"><ele>81.0</ele><time>2026-04-19T07:51:30.999Z</time></trkpt><trkpt lat="44.56572310643905" lon="10.876578273585542"><ele>81.0</ele><time>2026-04-19T07:51:32.999Z</time></trkpt><trkpt lat="44.565690661515035" lon="10.876657251285192"><ele>81.0</ele><time>2026-04-19T07:51:33.999Z</time></trkpt><trkpt lat="44.56565352663603" lon="10.876729329023888"><ele>81.0</ele><time>2026-04-19T07:51:34.999Z</time></trkpt><trkpt lat="44.56557672867121" lon="10.876860916771346"><ele>81.0</ele><time>2026-04-19T07:51:36.999Z</time></trkpt><trkpt lat="44.56551022220243" lon="10.876992116338766"><ele>81.0</ele><time>2026-04-19T07:51:38.999Z</time></trkpt><trkpt lat="44.56546812361598" lon="10.877062497230746"><ele>81.0</ele><time>2026-04-19T07:51:39.999Z</time></trkpt><trkpt lat="44.565388466066274" lon="10.877199589792799"><ele>81.0</ele><time>2026-04-19T07:51:41.999Z</time></trkpt><trkpt lat="44.56534931948284" lon="10.877269124807421"><ele>81.0</ele><time>2026-04-19T07:51:42.999Z</time></trkpt><trkpt lat="44.565279483757664" lon="10.877407046525922"><ele>81.0</ele><time>2026-04-19T07:51:44.999Z</time></trkpt><trkpt lat="44.56520911845437" lon="10.877537565852402"><ele>81.75</ele><time>2026-04-19T07:51:46.999Z</time></trkpt><trkpt lat="44.565135215095566" lon="10.877669993825142"><ele>82.5</ele><time>2026-04-19T07:51:48.999Z</time></trkpt><trkpt lat="44.565065542188314" lon="10.877789873270059"><ele>83.25</ele><time>2026-04-19T07:51:50.999Z</time></trkpt><trkpt lat="44.56500017944654" lon="10.877921171043631"><ele>84.0</ele><time>2026-04-19T07:51:52.999Z</time></trkpt><trkpt lat="44.56491827452805" lon="10.878023208954694"><ele>84.0</ele><time>2026-04-19T07:51:54.999Z</time></trkpt><trkpt lat="44.564850728928874" lon="10.878135620130822"><ele>84.0</ele><time>2026-04-19T07:51:56.999Z</time></trkpt><trkpt lat="44.56479162377611" lon="10.878254966901537"><ele>84.0</ele><time>2026-04-19T07:51:58.999Z</time></trkpt><trkpt lat="44.564794639820775" lon="10.878385435594055"><ele>84.0</ele><time>2026-04-19T07:52:00.999Z</time></trkpt><trkpt lat="44.564880381701286" lon="10.878493554788612"><ele>84.0</ele><time>2026-04-19T07:52:02.999Z</time></trkpt><trkpt lat="44.56497274438122" lon="10.87858539781221"><ele>83.80000000000001</ele><time>2026-04-19T07:52:04.999Z</time></trkpt><trkpt lat="44.565076072156735" lon="10.878668600818976"><ele>83.60000000000001</ele><time>2026-04-19T07:52:06.999Z</time></trkpt><trkpt lat="44.565161145160864" lon="10.878764489085695"><ele>83.4</ele><time>2026-04-19T07:52:08.999Z</time></trkpt><trkpt lat="44.56524980490777" lon="10.878857931803646"><ele>83.2</ele><time>2026-04-19T07:52:10.999Z</time></trkpt><trkpt lat="44.56530899105281" lon="10.878910629697193"><ele>83.0</ele><time>2026-04-19T07:52:11.999Z</time></trkpt><trkpt lat="44.56536361644555" lon="10.878963378817845"><ele>82.80000000000001</ele><time>2026-04-19T07:52:12.999Z</time></trkpt><trkpt lat="44.565458829448275" lon="10.879058006469801"><ele>82.6</ele><time>2026-04-19T07:52:14.999Z</time></trkpt><trkpt lat="44.56555948328874" lon="10.879174424635096"><ele>82.4</ele><time>2026-04-19T07:52:16.998Z</time></trkpt><trkpt lat="44.56561271126283" lon="10.879226968858928"><ele>82.19999999999999</ele><time>2026-04-19T07:52:17.998Z</time></trkpt><trkpt lat="44.565669534303886" lon="10.879276354752436"><ele>82.0</ele><time>2026-04-19T07:52:18.998Z</time></trkpt><trkpt lat="44.56576602250735" lon="10.879376501293187"><ele>82.0</ele><time>2026-04-19T07:52:20.998Z</time></trkpt><trkpt lat="44.56586781024993" lon="10.879482168718312"><ele>82.0</ele><time>2026-04-19T07:52:22.998Z</time></trkpt><trkpt lat="44.56596050876477" lon="10.879578360543748"><ele>82.0</ele><time>2026-04-19T07:52:24.998Z</time></trkpt><trkpt lat="44.56601783038208" lon="10.87963334862725"><ele>82.0</ele><time>2026-04-19T07:52:25.998Z</time></trkpt><trkpt lat="44.56607635424719" lon="10.879700714887985"><ele>82.0</ele><time>2026-04-19T07:52:26.998Z</time></trkpt><trkpt lat="44.56617168193301" lon="10.879795647553918"><ele>81.39999999999999</ele><time>2026-04-19T07:52:28.998Z</time></trkpt><trkpt lat="44.566224717933785" lon="10.879848321526515"><ele>80.8</ele><time>2026-04-19T07:52:29.998Z</time></trkpt><trkpt lat="44.56627531122253" lon="10.879905278912597"><ele>80.2</ele><time>2026-04-19T07:52:30.998Z</time></trkpt><trkpt lat="44.56638498743421" lon="10.88000775970759"><ele>79.6</ele><time>2026-04-19T07:52:32.998Z</time></trkpt><trkpt lat="44.56643338551213" lon="10.880064611590084"><ele>79.0</ele><time>2026-04-19T07:52:34Z</time></trkpt><trkpt lat="44.56653563741576" lon="10.880167751799771"><ele>79.00000000000001</ele><time>2026-04-19T07:52:36Z</time></trkpt><trkpt lat="44.566587633988526" lon="10.880224352976352"><ele>79.0</ele><time>2026-04-19T07:52:37Z</time></trkpt><trkpt lat="44.566644733934424" lon="10.880272371660107"><ele>79.0</ele><time>2026-04-19T07:52:38Z</time></trkpt><trkpt lat="44.566696602058045" lon="10.880325535086541"><ele>79.0</ele><time>2026-04-19T07:52:39Z</time></trkpt><trkpt lat="44.56675661078201" lon="10.880387543609706"><ele>79.0</ele><time>2026-04-19T07:52:40Z</time></trkpt><trkpt lat="44.566811349338465" lon="10.880434482319009"><ele>79.00000000000001</ele><time>2026-04-19T07:52:41Z</time></trkpt><trkpt lat="44.5668984792329" lon="10.88052999396338"><ele>79.0</ele><time>2026-04-19T07:52:43Z</time></trkpt><trkpt lat="44.56700626134469" lon="10.880642109748187"><ele>79.16666666666666</ele><time>2026-04-19T07:52:45Z</time></trkpt><trkpt lat="44.56710082850577" lon="10.880749941227462"><ele>79.33333333333333</ele><time>2026-04-19T07:52:47Z</time></trkpt><trkpt lat="44.5671599609178" lon="10.880800778756793"><ele>79.5</ele><time>2026-04-19T07:52:48Z</time></trkpt><trkpt lat="44.56721268564131" lon="10.880859602496509"><ele>79.66666666666667</ele><time>2026-04-19T07:52:49Z</time></trkpt><trkpt lat="44.567275239739594" lon="10.880909420617723"><ele>79.83333333333334</ele><time>2026-04-19T07:52:50Z</time></trkpt><trkpt lat="44.56732586013404" lon="10.88096597889709"><ele>80.0</ele><time>2026-04-19T07:52:51Z</time></trkpt><trkpt lat="44.5673842153725" lon="10.881026646927976"><ele>80.0</ele><time>2026-04-19T07:52:52Z</time></trkpt><trkpt lat="44.567437397460616" lon="10.881077013532662"><ele>80.0</ele><time>2026-04-19T07:52:53Z</time></trkpt><trkpt lat="44.56749142238339" lon="10.881130466051806"><ele>80.0</ele><time>2026-04-19T07:52:54Z</time></trkpt><trkpt lat="44.56758843950082" lon="10.881244279915503"><ele>80.0</ele><time>2026-04-19T07:52:56Z</time></trkpt><trkpt lat="44.56764757013624" lon="10.88129840145541"><ele>80.0</ele><time>2026-04-19T07:52:57Z</time></trkpt><trkpt lat="44.56770132612567" lon="10.881350918321315"><ele>80.0</ele><time>2026-04-19T07:52:58Z</time></trkpt><trkpt lat="44.567752291692194" lon="10.881405473607787"><ele>79.5</ele><time>2026-04-19T07:52:59Z</time></trkpt><trkpt lat="44.567861177947215" lon="10.881498004759052"><ele>79.0</ele><time>2026-04-19T07:53:01Z</time></trkpt><trkpt lat="44.56795195299037" lon="10.88159216270782"><ele>78.5</ele><time>2026-04-19T07:53:03Z</time></trkpt><trkpt lat="44.56805356733878" lon="10.881698677645048"><ele>78.0</ele><time>2026-04-19T07:53:05Z</time></trkpt><trkpt lat="44.568099579982096" lon="10.881807482118772"><ele>77.8</ele><time>2026-04-19T07:53:07Z</time></trkpt><trkpt lat="44.56800781344268" lon="10.881925290220316"><ele>77.6</ele><time>2026-04-19T07:53:08Z</time></trkpt><trkpt lat="44.56796771165985" lon="10.882000444930378"><ele>77.4</ele><time>2026-04-19T07:53:09Z</time></trkpt><trkpt lat="44.567868180853175" lon="10.882098539161538"><ele>77.2</ele><time>2026-04-19T07:53:11Z</time></trkpt><trkpt lat="44.56777837036906" lon="10.882213770463926"><ele>77.0</ele><time>2026-04-19T07:53:13Z</time></trkpt><trkpt lat="44.56769278248354" lon="10.882330886352936"><ele>77.0</ele><time>2026-04-19T07:53:15Z</time></trkpt><trkpt lat="44.567607576835776" lon="10.882450003039443"><ele>77.0</ele><time>2026-04-19T07:53:17Z</time></trkpt><trkpt lat="44.56751837187914" lon="10.882567959714745"><ele>77.0</ele><time>2026-04-19T07:53:19Z</time></trkpt><trkpt lat="44.56742776834429" lon="10.882691254245362"><ele>77.0</ele><time>2026-04-19T07:53:20.999Z</time></trkpt><trkpt lat="44.567345066601725" lon="10.882824442598022"><ele>77.0</ele><time>2026-04-19T07:53:22.999Z</time></trkpt><trkpt lat="44.5673091822151" lon="10.882901182580614"><ele>77.0</ele><time>2026-04-19T07:53:23.999Z</time></trkpt><trkpt lat="44.567293222119176" lon="10.882993327519173"><ele>77.0</ele><time>2026-04-19T07:53:24.999Z</time></trkpt><trkpt lat="44.56729661143048" lon="10.883088603157937"><ele>77.0</ele><time>2026-04-19T07:53:25.999Z</time></trkpt><trkpt lat="44.5673223762184" lon="10.883178864566105"><ele>77.0</ele><time>2026-04-19T07:53:26.999Z</time></trkpt><trkpt lat="44.567358089620996" lon="10.883259980940508"><ele>77.0</ele><time>2026-04-19T07:53:27.999Z</time></trkpt><trkpt lat="44.56736630065102" lon="10.883352121237287"><ele>77.0</ele><time>2026-04-19T07:53:28.999Z</time></trkpt><trkpt lat="44.5673883867243" lon="10.883441795509619"><ele>77.0</ele><time>2026-04-19T07:53:29.999Z</time></trkpt><trkpt lat="44.56737559559112" lon="10.883539829985764"><ele>77.0</ele><time>2026-04-19T07:53:30.999Z</time></trkpt><trkpt lat="44.56735310620803" lon="10.883634318329836"><ele>77.0</ele><time>2026-04-19T07:53:31.999Z</time></trkpt><trkpt lat="44.567329625956546" lon="10.883726435861623"><ele>77.0</ele><time>2026-04-19T07:53:32.999Z</time></trkpt><trkpt lat="44.567308207465906" lon="10.883819976241918"><ele>77.0</ele><time>2026-04-19T07:53:33.999Z</time></trkpt><trkpt lat="44.56728601641213" lon="10.883915504568835"><ele>77.0</ele><time>2026-04-19T07:53:34.999Z</time></trkpt><trkpt lat="44.56726017305358" lon="10.8840067475804"><ele>77.0</ele><time>2026-04-19T07:53:35.999Z</time></trkpt><trkpt lat="44.567217064892276" lon="10.884088218521725"><ele>77.0</ele><time>2026-04-19T07:53:36.999Z</time></trkpt><trkpt lat="44.56718361890854" lon="10.884167878675893"><ele>77.0</ele><time>2026-04-19T07:53:37.999Z</time></trkpt><trkpt lat="44.56715865865547" lon="10.884257250160118"><ele>77.0</ele><time>2026-04-19T07:53:38.999Z</time></trkpt><trkpt lat="44.567116464354875" lon="10.884329330978005"><ele>77.0</ele><time>2026-04-19T07:53:39.999Z</time></trkpt><trkpt lat="44.56707207591063" lon="10.884399443648865"><ele>77.0</ele><time>2026-04-19T07:53:40.999Z</time></trkpt><trkpt lat="44.567029008479295" lon="10.884475893389954"><ele>77.0</ele><time>2026-04-19T07:53:41.999Z</time></trkpt><trkpt lat="44.566986082760046" lon="10.884551454365322"><ele>77.0</ele><time>2026-04-19T07:53:42.999Z</time></trkpt><trkpt lat="44.566940848404094" lon="10.884626535983276"><ele>76.71428571428571</ele><time>2026-04-19T07:53:43.999Z</time></trkpt><trkpt lat="44.56689975565078" lon="10.88470111824111"><ele>76.42857142857143</ele><time>2026-04-19T07:53:44.999Z</time></trkpt><trkpt lat="44.566856018175315" lon="10.884779739926879"><ele>76.14285714285714</ele><time>2026-04-19T07:53:45.999Z</time></trkpt><trkpt lat="44.56681464126203" lon="10.884855717523351"><ele>75.85714285714286</ele><time>2026-04-19T07:53:46.999Z</time></trkpt><trkpt lat="44.56676718751659" lon="10.884925104847794"><ele>75.57142857142857</ele><time>2026-04-19T07:53:47.999Z</time></trkpt><trkpt lat="44.56671449709715" lon="10.88499339673762"><ele>75.28571428571428</ele><time>2026-04-19T07:53:48.999Z</time></trkpt><trkpt lat="44.56666052801544" lon="10.885056811471769"><ele>75.0</ele><time>2026-04-19T07:53:49.999Z</time></trkpt><trkpt lat="44.56660529497689" lon="10.885122914321087"><ele>74.71428571428571</ele><time>2026-04-19T07:53:50.999Z</time></trkpt><trkpt lat="44.56654888004951" lon="10.88518662594032"><ele>74.42857142857143</ele><time>2026-04-19T07:53:51.999Z</time></trkpt><trkpt lat="44.56649047474842" lon="10.885245972643244"><ele>74.14285714285714</ele><time>2026-04-19T07:53:52.999Z</time></trkpt><trkpt lat="44.56643118505459" lon="10.885303586034917"><ele>73.85714285714286</ele><time>2026-04-19T07:53:53.999Z</time></trkpt><trkpt lat="44.566367398087486" lon="10.885357834556551"><ele>73.57142857142857</ele><time>2026-04-19T07:53:54.999Z</time></trkpt><trkpt lat="44.56630308273926" lon="10.885406020848986"><ele>73.28571428571428</ele><time>2026-04-19T07:53:55.999Z</time></trkpt><trkpt lat="44.566236482662745" lon="10.885445471618146"><ele>73.0</ele><time>2026-04-19T07:53:56.999Z</time></trkpt><trkpt lat="44.56616974346972" lon="10.885482248974547"><ele>73.66666666666666</ele><time>2026-04-19T07:53:57.999Z</time></trkpt><trkpt lat="44.566101954379185" lon="10.885523156026766"><ele>74.33333333333333</ele><time>2026-04-19T07:53:58.999Z</time></trkpt><trkpt lat="44.56603966577411" lon="10.885567669221482"><ele>75.0</ele><time>2026-04-19T07:53:59.999Z</time></trkpt><trkpt lat="44.565978064152105" lon="10.88560491359258"><ele>75.66666666666667</ele><time>2026-04-19T07:54:00.999Z</time></trkpt><trkpt lat="44.56591652369069" lon="10.885650897726265"><ele>76.33333333333334</ele><time>2026-04-19T07:54:01.999Z</time></trkpt><trkpt lat="44.56586279739294" lon="10.885712325418766"><ele>77.0</ele><time>2026-04-19T07:54:02.999Z</time></trkpt><trkpt lat="44.565769358229694" lon="10.885839695160275"><ele>77.0</ele><time>2026-04-19T07:54:04.999Z</time></trkpt><trkpt lat="44.565722761203574" lon="10.885905075374714"><ele>77.0</ele><time>2026-04-19T07:54:05.999Z</time></trkpt><trkpt lat="44.56567549068514" lon="10.885964728344979"><ele>77.0</ele><time>2026-04-19T07:54:06.999Z</time></trkpt><trkpt lat="44.56558541037291" lon="10.886079373493219"><ele>77.0</ele><time>2026-04-19T07:54:08.999Z</time></trkpt><trkpt lat="44.565500930864985" lon="10.886187820248733"><ele>77.0</ele><time>2026-04-19T07:54:10.999Z</time></trkpt><trkpt lat="44.56543140038061" lon="10.886310467446783"><ele>77.2</ele><time>2026-04-19T07:54:12.999Z</time></trkpt><trkpt lat="44.56537065784291" lon="10.886424748979742"><ele>77.4</ele><time>2026-04-19T07:54:14.999Z</time></trkpt><trkpt lat="44.56529143330703" lon="10.886521897059596"><ele>77.6</ele><time>2026-04-19T07:54:16.999Z</time></trkpt><trkpt lat="44.565217504392486" lon="10.886628171764364"><ele>77.8</ele><time>2026-04-19T07:54:18.999Z</time></trkpt><trkpt lat="44.56515191070871" lon="10.88674594344221"><ele>78.0</ele><time>2026-04-19T07:54:20.999Z</time></trkpt><trkpt lat="44.56509379069857" lon="10.886866624802696"><ele>78.0</ele><time>2026-04-19T07:54:22.998Z</time></trkpt><trkpt lat="44.56504807598899" lon="10.88699589225027"><ele>78.0</ele><time>2026-04-19T07:54:24.998Z</time></trkpt><trkpt lat="44.56500552284799" lon="10.887120338148286"><ele>78.0</ele><time>2026-04-19T07:54:26.998Z</time></trkpt><trkpt lat="44.56495654775634" lon="10.887245810042549"><ele>78.0</ele><time>2026-04-19T07:54:28.998Z</time></trkpt><trkpt lat="44.564904959143625" lon="10.88737203414418"><ele>78.0</ele><time>2026-04-19T07:54:30.998Z</time></trkpt><trkpt lat="44.56485689517367" lon="10.887500054248628"><ele>77.6</ele><time>2026-04-19T07:54:32.998Z</time></trkpt><trkpt lat="44.56480688704931" lon="10.887628030691097"><ele>77.19999999999999</ele><time>2026-04-19T07:54:34.998Z</time></trkpt><trkpt lat="44.56475128214971" lon="10.887752432091567"><ele>76.8</ele><time>2026-04-19T07:54:36.998Z</time></trkpt><trkpt lat="44.56469590289417" lon="10.88788454430704"><ele>76.39999999999999</ele><time>2026-04-19T07:54:38.998Z</time></trkpt><trkpt lat="44.564635409093086" lon="10.888012784864555"><ele>76.0</ele><time>2026-04-19T07:54:41Z</time></trkpt><trkpt lat="44.56457957620504" lon="10.888145334984621"><ele>76.39999999999999</ele><time>2026-04-19T07:54:43Z</time></trkpt><trkpt lat="44.56451181625476" lon="10.88826936985238"><ele>76.8</ele><time>2026-04-19T07:54:45Z</time></trkpt><trkpt lat="44.56443745790367" lon="10.888389796358952"><ele>77.19999999999999</ele><time>2026-04-19T07:54:47Z</time></trkpt><trkpt lat="44.564366615268135" lon="10.888505743328292"><ele>77.6</ele><time>2026-04-19T07:54:49Z</time></trkpt><trkpt lat="44.56430259816252" lon="10.888628571720885"><ele>78.0</ele><time>2026-04-19T07:54:51Z</time></trkpt><trkpt lat="44.56423573512369" lon="10.888744131550029"><ele>78.0</ele><time>2026-04-19T07:54:53Z</time></trkpt><trkpt lat="44.564166175012936" lon="10.88886074869575"><ele>78.0</ele><time>2026-04-19T07:54:55Z</time></trkpt><trkpt lat="44.564106765296195" lon="10.888973826320706"><ele>78.0</ele><time>2026-04-19T07:54:57Z</time></trkpt><trkpt lat="44.564037303273565" lon="10.88908748344903"><ele>78.0</ele><time>2026-04-19T07:54:59Z</time></trkpt><trkpt lat="44.56397167561386" lon="10.889213210412214"><ele>78.0</ele><time>2026-04-19T07:55:01Z</time></trkpt><trkpt lat="44.56390228532862" lon="10.889331040855591"><ele>77.8</ele><time>2026-04-19T07:55:03Z</time></trkpt><trkpt lat="44.563836677643586" lon="10.88945181632965"><ele>77.6</ele><time>2026-04-19T07:55:05Z</time></trkpt><trkpt lat="44.56377611224982" lon="10.889567671401869"><ele>77.4</ele><time>2026-04-19T07:55:07Z</time></trkpt><trkpt lat="44.56371215085539" lon="10.889689107465053"><ele>77.2</ele><time>2026-04-19T07:55:09Z</time></trkpt><trkpt lat="44.563648283869654" lon="10.8898104083904"><ele>77.0</ele><time>2026-04-19T07:55:11Z</time></trkpt><trkpt lat="44.56359983726732" lon="10.889934009089014"><ele>77.4</ele><time>2026-04-19T07:55:13Z</time></trkpt><trkpt lat="44.563541563571974" lon="10.890058760204235"><ele>77.80000000000001</ele><time>2026-04-19T07:55:15Z</time></trkpt><trkpt lat="44.56347168970922" lon="10.890186234885409"><ele>78.2</ele><time>2026-04-19T07:55:17Z</time></trkpt><trkpt lat="44.563402233651836" lon="10.890308295121622"><ele>78.60000000000001</ele><time>2026-04-19T07:55:19Z</time></trkpt><trkpt lat="44.56333492796518" lon="10.890440939730654"><ele>79.0</ele><time>2026-04-19T07:55:21Z</time></trkpt><trkpt lat="44.563273628401525" lon="10.890573815711116"><ele>79.16666666666666</ele><time>2026-04-19T07:55:23Z</time></trkpt><trkpt lat="44.56320375313208" lon="10.890711829619487"><ele>79.33333333333333</ele><time>2026-04-19T07:55:24.999Z</time></trkpt><trkpt lat="44.56313515341608" lon="10.890851790722433"><ele>79.5</ele><time>2026-04-19T07:55:26.999Z</time></trkpt><trkpt lat="44.56309747649364" lon="10.890925219631239"><ele>79.66666666666667</ele><time>2026-04-19T07:55:27.999Z</time></trkpt><trkpt lat="44.56305366408407" lon="10.89099961581712"><ele>79.83333333333334</ele><time>2026-04-19T07:55:28.999Z</time></trkpt><trkpt lat="44.56301293795221" lon="10.891077624650345"><ele>80.0</ele><time>2026-04-19T07:55:29.999Z</time></trkpt><trkpt lat="44.5629704063434" lon="10.891151879559283"><ele>79.71428571428571</ele><time>2026-04-19T07:55:30.999Z</time></trkpt><trkpt lat="44.56293159583054" lon="10.891229716042162"><ele>79.42857142857143</ele><time>2026-04-19T07:55:31.999Z</time></trkpt><trkpt lat="44.56289322755163" lon="10.891307889798432"><ele>79.14285714285714</ele><time>2026-04-19T07:55:32.999Z</time></trkpt><trkpt lat="44.56285343724171" lon="10.89138584534475"><ele>78.85714285714286</ele><time>2026-04-19T07:55:33.999Z</time></trkpt><trkpt lat="44.562809275594546" lon="10.891465021884626"><ele>78.57142857142857</ele><time>2026-04-19T07:55:34.999Z</time></trkpt><trkpt lat="44.56277013203773" lon="10.891540476685767"><ele>78.28571428571429</ele><time>2026-04-19T07:55:35.999Z</time></trkpt><trkpt lat="44.562730552766965" lon="10.891620799192184"><ele>78.0</ele><time>2026-04-19T07:55:36.999Z</time></trkpt><trkpt lat="44.56268973922901" lon="10.891697777585058"><ele>77.66666666666667</ele><time>2026-04-19T07:55:37.999Z</time></trkpt><trkpt lat="44.562650770044606" lon="10.891772803229943"><ele>77.33333333333333</ele><time>2026-04-19T07:55:38.999Z</time></trkpt><trkpt lat="44.56261029165011" lon="10.8918466288134"><ele>77.0</ele><time>2026-04-19T07:55:39.999Z</time></trkpt><trkpt lat="44.562572994057476" lon="10.891920295041338"><ele>76.66666666666666</ele><time>2026-04-19T07:55:40.999Z</time></trkpt><trkpt lat="44.562504284047385" lon="10.892066595650176"><ele>76.33333333333333</ele><time>2026-04-19T07:55:42.999Z</time></trkpt><trkpt lat="44.56243750897653" lon="10.892200719021965"><ele>76.0</ele><time>2026-04-19T07:55:44.999Z</time></trkpt><trkpt lat="44.5623719941538" lon="10.892334576616648"><ele>76.0</ele><time>2026-04-19T07:55:46.999Z</time></trkpt><trkpt lat="44.56231244437243" lon="10.892466836727147"><ele>76.0</ele><time>2026-04-19T07:55:48.999Z</time></trkpt><trkpt lat="44.562252211640775" lon="10.892599318573907"><ele>76.0</ele><time>2026-04-19T07:55:50.999Z</time></trkpt><trkpt lat="44.562188213598056" lon="10.892732378882341"><ele>76.0</ele><time>2026-04-19T07:55:52.999Z</time></trkpt><trkpt lat="44.562123859479414" lon="10.892866864305871"><ele>76.25</ele><time>2026-04-19T07:55:54.999Z</time></trkpt><trkpt lat="44.56205990219134" lon="10.893006051396405"><ele>76.5</ele><time>2026-04-19T07:55:56.999Z</time></trkpt><trkpt lat="44.561989173417516" lon="10.893143693556874"><ele>76.75</ele><time>2026-04-19T07:55:58.999Z</time></trkpt><trkpt lat="44.5619365724089" lon="10.893288616588416"><ele>77.0</ele><time>2026-04-19T07:56:00.999Z</time></trkpt><trkpt lat="44.561867056455455" lon="10.89341720049081"><ele>77.2</ele><time>2026-04-19T07:56:02.999Z</time></trkpt><trkpt lat="44.56180199355352" lon="10.893434922438855"><ele>77.4</ele><time>2026-04-19T07:56:03.999Z</time></trkpt><trkpt lat="44.56170570700815" lon="10.893428251235367"><ele>77.6</ele><time>2026-04-19T07:56:05.999Z</time></trkpt><trkpt lat="44.56165164774498" lon="10.893270591103107"><ele>77.8</ele><time>2026-04-19T07:56:06.999Z</time></trkpt><trkpt lat="44.56154949991152" lon="10.893219455615455"><ele>78.0</ele><time>2026-04-19T07:56:08.999Z</time></trkpt><trkpt lat="44.56145308763342" lon="10.893149373762418"><ele>78.0</ele><time>2026-04-19T07:56:10.999Z</time></trkpt><trkpt lat="44.5613594563869" lon="10.89308628925203"><ele>78.0</ele><time>2026-04-19T07:56:12.999Z</time></trkpt><trkpt lat="44.56126382516609" lon="10.893020680499399"><ele>78.0</ele><time>2026-04-19T07:56:14.999Z</time></trkpt><trkpt lat="44.561170642223054" lon="10.892955393948593"><ele>78.0</ele><time>2026-04-19T07:56:16.999Z</time></trkpt><trkpt lat="44.56107755500126" lon="10.892893798350077"><ele>78.0</ele><time>2026-04-19T07:56:18.999Z</time></trkpt><trkpt lat="44.56098524325526" lon="10.892834880938244"><ele>77.8</ele><time>2026-04-19T07:56:20.999Z</time></trkpt><trkpt lat="44.560891264990744" lon="10.892772939675783"><ele>77.6</ele><time>2026-04-19T07:56:22.999Z</time></trkpt><trkpt lat="44.56079719513641" lon="10.89270890044352"><ele>77.4</ele><time>2026-04-19T07:56:24.999Z</time></trkpt><trkpt lat="44.560705124754605" lon="10.892633659885753"><ele>77.2</ele><time>2026-04-19T07:56:26.999Z</time></trkpt><trkpt lat="44.56061026625458" lon="10.892572678704196"><ele>77.0</ele><time>2026-04-19T07:56:28.998Z</time></trkpt><trkpt lat="44.5605168052338" lon="10.892510558551779"><ele>77.4</ele><time>2026-04-19T07:56:30.998Z</time></trkpt><trkpt lat="44.56042290603065" lon="10.892444328981604"><ele>77.80000000000001</ele><time>2026-04-19T07:56:32.998Z</time></trkpt><trkpt lat="44.56033206746423" lon="10.89237911215669"><ele>78.2</ele><time>2026-04-19T07:56:34.998Z</time></trkpt><trkpt lat="44.560241872389355" lon="10.892315780129188"><ele>78.60000000000001</ele><time>2026-04-19T07:56:36.998Z</time></trkpt><trkpt lat="44.560150456048916" lon="10.892262588852171"><ele>79.0</ele><time>2026-04-19T07:56:38.998Z</time></trkpt><trkpt lat="44.56006133329673" lon="10.892209083281235"><ele>79.4</ele><time>2026-04-19T07:56:40.998Z</time></trkpt><trkpt lat="44.55997121112287" lon="10.892156477755188"><ele>79.80000000000001</ele><time>2026-04-19T07:56:42.998Z</time></trkpt><trkpt lat="44.55988010779597" lon="10.892102444125058"><ele>80.19999999999999</ele><time>2026-04-19T07:56:44.998Z</time></trkpt><trkpt lat="44.55979242214198" lon="10.892031151929798"><ele>80.6</ele><time>2026-04-19T07:56:47Z</time></trkpt><trkpt lat="44.55969944635553" lon="10.891990826114544"><ele>81.0</ele><time>2026-04-19T07:56:49Z</time></trkpt><trkpt lat="44.55960390125324" lon="10.891942041084018"><ele>81.0</ele><time>2026-04-19T07:56:51Z</time></trkpt><trkpt lat="44.55950712545758" lon="10.891894879871144"><ele>81.0</ele><time>2026-04-19T07:56:53Z</time></trkpt><trkpt lat="44.5594161972337" lon="10.891837901063539"><ele>81.0</ele><time>2026-04-19T07:56:55Z</time></trkpt><trkpt lat="44.55932319976039" lon="10.891786511753915"><ele>81.0</ele><time>2026-04-19T07:56:57Z</time></trkpt><trkpt lat="44.5592324087075" lon="10.89173843541441"><ele>81.0</ele><time>2026-04-19T07:56:59Z</time></trkpt><trkpt lat="44.55914725343967" lon="10.891691367783132"><ele>81.0</ele><time>2026-04-19T07:57:01Z</time></trkpt><trkpt lat="44.559061686631054" lon="10.891650374945591"><ele>81.0</ele><time>2026-04-19T07:57:03Z</time></trkpt><trkpt lat="44.5589764674066" lon="10.89160738595068"><ele>81.0</ele><time>2026-04-19T07:57:05Z</time></trkpt><trkpt lat="44.55889167959293" lon="10.89157044691854"><ele>81.0</ele><time>2026-04-19T07:57:07Z</time></trkpt><trkpt lat="44.55880529339265" lon="10.891529499392663"><ele>81.0</ele><time>2026-04-19T07:57:09Z</time></trkpt><trkpt lat="44.55872628973835" lon="10.891467015464634"><ele>81.33333333333333</ele><time>2026-04-19T07:57:11Z</time></trkpt><trkpt lat="44.55863905025802" lon="10.891432312503719"><ele>81.66666666666667</ele><time>2026-04-19T07:57:13Z</time></trkpt><trkpt lat="44.55856643906395" lon="10.89136009166573"><ele>82.0</ele><time>2026-04-19T07:57:15Z</time></trkpt><trkpt lat="44.55848949325024" lon="10.89130631457217"><ele>82.33333333333334</ele><time>2026-04-19T07:57:17Z</time></trkpt><trkpt lat="44.558405925369556" lon="10.89126206769172"><ele>82.66666666666667</ele><time>2026-04-19T07:57:19Z</time></trkpt><trkpt lat="44.55832932250085" lon="10.891203414501291"><ele>83.0</ele><time>2026-04-19T07:57:21Z</time></trkpt><trkpt lat="44.558256869598246" lon="10.891140833827075"><ele>83.0</ele><time>2026-04-19T07:57:23Z</time></trkpt><trkpt lat="44.55817659520603" lon="10.89108281795022"><ele>83.0</ele><time>2026-04-19T07:57:25Z</time></trkpt><trkpt lat="44.55810047124349" lon="10.891027801714499"><ele>83.0</ele><time>2026-04-19T07:57:27Z</time></trkpt><trkpt lat="44.55801909932076" lon="10.890968992649686"><ele>83.0</ele><time>2026-04-19T07:57:29Z</time></trkpt><trkpt lat="44.55793961051225" lon="10.89091154456444"><ele>83.0</ele><time>2026-04-19T07:57:31Z</time></trkpt><trkpt lat="44.55785814673628" lon="10.890853275130196"><ele>83.0</ele><time>2026-04-19T07:57:32.999Z</time></trkpt><trkpt lat="44.557769471165315" lon="10.89081563697505"><ele>83.2</ele><time>2026-04-19T07:57:34.999Z</time></trkpt><trkpt lat="44.55769722491236" lon="10.890738303148208"><ele>83.4</ele><time>2026-04-19T07:57:36.999Z</time></trkpt><trkpt lat="44.557616159423" lon="10.890680385195974"><ele>83.60000000000001</ele><time>2026-04-19T07:57:38.999Z</time></trkpt><trkpt lat="44.55752795289187" lon="10.890641823621719"><ele>83.80000000000001</ele><time>2026-04-19T07:57:40.999Z</time></trkpt><trkpt lat="44.55744558074109" lon="10.890581463052934"><ele>84.0</ele><time>2026-04-19T07:57:42.999Z</time></trkpt><trkpt lat="44.55736244749473" lon="10.890523340478566"><ele>84.0</ele><time>2026-04-19T07:57:44.999Z</time></trkpt><trkpt lat="44.55728011428121" lon="10.890463977758294"><ele>84.0</ele><time>2026-04-19T07:57:46.999Z</time></trkpt><trkpt lat="44.55719743704201" lon="10.89040827098585"><ele>84.0</ele><time>2026-04-19T07:57:48.999Z</time></trkpt><trkpt lat="44.557120803399336" lon="10.890346965559248"><ele>84.0</ele><time>2026-04-19T07:57:50.999Z</time></trkpt><trkpt lat="44.55704134824403" lon="10.890293987761583"><ele>84.0</ele><time>2026-04-19T07:57:52.999Z</time></trkpt><trkpt lat="44.55696063653906" lon="10.890238815822604"><ele>84.4</ele><time>2026-04-19T07:57:54.999Z</time></trkpt><trkpt lat="44.55687601799469" lon="10.89018652543526"><ele>84.80000000000001</ele><time>2026-04-19T07:57:56.999Z</time></trkpt><trkpt lat="44.55679206992448" lon="10.890124244680086"><ele>85.19999999999999</ele><time>2026-04-19T07:57:58.999Z</time></trkpt><trkpt lat="44.556708142055236" lon="10.890065303578025"><ele>85.6</ele><time>2026-04-19T07:58:00.999Z</time></trkpt><trkpt lat="44.55662635009624" lon="10.890005699009775"><ele>86.0</ele><time>2026-04-19T07:58:02.999Z</time></trkpt><trkpt lat="44.55654218890323" lon="10.889950811311031"><ele>86.0</ele><time>2026-04-19T07:58:04.999Z</time></trkpt><trkpt lat="44.55645793994714" lon="10.889896124768507"><ele>86.0</ele><time>2026-04-19T07:58:06.999Z</time></trkpt><trkpt lat="44.55637218769825" lon="10.889840002497339"><ele>86.0</ele><time>2026-04-19T07:58:08.999Z</time></trkpt><trkpt lat="44.556282984058" lon="10.889789873739879"><ele>86.0</ele><time>2026-04-19T07:58:10.999Z</time></trkpt><trkpt lat="44.556191946510765" lon="10.889739712743147"><ele>86.0</ele><time>2026-04-19T07:58:12.999Z</time></trkpt><trkpt lat="44.55610133929328" lon="10.889690172133866"><ele>85.8</ele><time>2026-04-19T07:58:14.999Z</time></trkpt><trkpt lat="44.556012216824506" lon="10.8896391884741"><ele>85.6</ele><time>2026-04-19T07:58:16.999Z</time></trkpt><trkpt lat="44.55592732380083" lon="10.889588461416867"><ele>85.4</ele><time>2026-04-19T07:58:18.999Z</time></trkpt><trkpt lat="44.555845612284976" lon="10.889538203881862"><ele>85.2</ele><time>2026-04-19T07:58:20.999Z</time></trkpt><trkpt lat="44.555765225760716" lon="10.88948965614905"><ele>85.0</ele><time>2026-04-19T07:58:22.999Z</time></trkpt><trkpt lat="44.55568400578287" lon="10.889439579449801"><ele>85.0</ele><time>2026-04-19T07:58:24.999Z</time></trkpt><trkpt lat="44.555605757736075" lon="10.889390702339815"><ele>85.0</ele><time>2026-04-19T07:58:26.999Z</time></trkpt><trkpt lat="44.55552675446118" lon="10.889345077312719"><ele>85.0</ele><time>2026-04-19T07:58:28.999Z</time></trkpt><trkpt lat="44.55545265357272" lon="10.889301243578426"><ele>85.0</ele><time>2026-04-19T07:58:30.999Z</time></trkpt><trkpt lat="44.55538539820492" lon="10.889254749350508"><ele>85.0</ele><time>2026-04-19T07:58:32.999Z</time></trkpt><trkpt lat="44.55531776665187" lon="10.889209062539695"><ele>85.0</ele><time>2026-04-19T07:58:34.999Z</time></trkpt><trkpt lat="44.55524903217845" lon="10.889162507556446"><ele>85.0</ele><time>2026-04-19T07:58:36.998Z</time></trkpt><trkpt lat="44.55519240790775" lon="10.889095090475532"><ele>85.0</ele><time>2026-04-19T07:58:38.998Z</time></trkpt><trkpt lat="44.55512649925029" lon="10.889047384232242"><ele>85.0</ele><time>2026-04-19T07:58:40.998Z</time></trkpt><trkpt lat="44.5550552900813" lon="10.889022632335749"><ele>85.0</ele><time>2026-04-19T07:58:42.998Z</time></trkpt><trkpt lat="44.5550012551578" lon="10.88895952066187"><ele>85.0</ele><time>2026-04-19T07:58:44.998Z</time></trkpt><trkpt lat="44.554929126733484" lon="10.888934814727978"><ele>85.0</ele><time>2026-04-19T07:58:46.998Z</time></trkpt><trkpt lat="44.55486327839338" lon="10.888888577053251"><ele>85.0</ele><time>2026-04-19T07:58:48.998Z</time></trkpt><trkpt lat="44.554791610767005" lon="10.888832983743056"><ele>85.0</ele><time>2026-04-19T07:58:50.998Z</time></trkpt><trkpt lat="44.55471279238117" lon="10.888778081430429"><ele>85.0</ele><time>2026-04-19T07:58:53Z</time></trkpt><trkpt lat="44.55463264068911" lon="10.888722773832212"><ele>85.0</ele><time>2026-04-19T07:58:55Z</time></trkpt><trkpt lat="44.554537402584245" lon="10.88866237454497"><ele>85.0</ele><time>2026-04-19T07:58:57Z</time></trkpt><trkpt lat="44.55444823362816" lon="10.888599792814947"><ele>85.0</ele><time>2026-04-19T07:58:59Z</time></trkpt><trkpt lat="44.55436733040825" lon="10.888537640106017"><ele>85.5</ele><time>2026-04-19T07:59:01Z</time></trkpt><trkpt lat="44.55428494764285" lon="10.888496361983947"><ele>86.0</ele><time>2026-04-19T07:59:03Z</time></trkpt><trkpt lat="44.55421021395307" lon="10.88845674930612"><ele>86.5</ele><time>2026-04-19T07:59:05Z</time></trkpt><trkpt lat="44.55413489525722" lon="10.888406553996065"><ele>87.0</ele><time>2026-04-19T07:59:07Z</time></trkpt><trkpt lat="44.5540546727522" lon="10.888358325949993"><ele>87.5</ele><time>2026-04-19T07:59:09Z</time></trkpt><trkpt lat="44.5539795199458" lon="10.888303794359429"><ele>88.0</ele><time>2026-04-19T07:59:11Z</time></trkpt><trkpt lat="44.55390379302966" lon="10.888258189095469"><ele>88.4</ele><time>2026-04-19T07:59:13Z</time></trkpt><trkpt lat="44.553822283483925" lon="10.888211128095497"><ele>88.80000000000001</ele><time>2026-04-19T07:59:15Z</time></trkpt><trkpt lat="44.553739095962634" lon="10.888167552116807"><ele>89.2</ele><time>2026-04-19T07:59:17Z</time></trkpt><trkpt lat="44.55365704821179" lon="10.888115906434713"><ele>89.6</ele><time>2026-04-19T07:59:19Z</time></trkpt><trkpt lat="44.553568173221194" lon="10.8880736577474"><ele>90.0</ele><time>2026-04-19T07:59:21Z</time></trkpt><trkpt lat="44.553481507829524" lon="10.88803846006974"><ele>90.0</ele><time>2026-04-19T07:59:23Z</time></trkpt><trkpt lat="44.55338942648036" lon="10.888008437088242"><ele>90.0</ele><time>2026-04-19T07:59:25Z</time></trkpt><trkpt lat="44.55329500065378" lon="10.887983275880845"><ele>90.0</ele><time>2026-04-19T07:59:27Z</time></trkpt><trkpt lat="44.553199490876025" lon="10.887964371432748"><ele>90.0</ele><time>2026-04-19T07:59:29Z</time></trkpt><trkpt lat="44.55310606846035" lon="10.887923787780702"><ele>90.0</ele><time>2026-04-19T07:59:31Z</time></trkpt><trkpt lat="44.55301108317194" lon="10.887877562001776"><ele>90.0</ele><time>2026-04-19T07:59:33Z</time></trkpt><trkpt lat="44.552917016349625" lon="10.887831249922584"><ele>90.0</ele><time>2026-04-19T07:59:35Z</time></trkpt><trkpt lat="44.55282835710597" lon="10.887785731749986"><ele>90.0</ele><time>2026-04-19T07:59:36.999Z</time></trkpt><trkpt lat="44.55274593989616" lon="10.887741997582795"><ele>90.0</ele><time>2026-04-19T07:59:38.999Z</time></trkpt><trkpt lat="44.552673883438615" lon="10.887695351858632"><ele>90.0</ele><time>2026-04-19T07:59:41.999Z</time></trkpt><trkpt lat="44.55262480321171" lon="10.88785922117759"><ele>90.0</ele><time>2026-04-19T07:59:44.999Z</time></trkpt><trkpt lat="44.55261287957471" lon="10.887965557112341"><ele>90.0</ele><time>2026-04-19T07:59:46.999Z</time></trkpt><trkpt lat="44.552594154294965" lon="10.888072321969972"><ele>90.0</ele><time>2026-04-19T07:59:48.999Z</time></trkpt><trkpt lat="44.55257782479388" lon="10.888185215577304"><ele>90.0</ele><time>2026-04-19T07:59:50.999Z</time></trkpt><trkpt lat="44.552564241894366" lon="10.888303664229419"><ele>90.0</ele><time>2026-04-19T07:59:52.999Z</time></trkpt><trkpt lat="44.552547217172986" lon="10.888424003157596"><ele>90.0</ele><time>2026-04-19T07:59:54.999Z</time></trkpt><trkpt lat="44.55252548799716" lon="10.888547596891529"><ele>90.0</ele><time>2026-04-19T07:59:56.999Z</time></trkpt><trkpt lat="44.552477792080566" lon="10.888654594127718"><ele>90.0</ele><time>2026-04-19T07:59:58.999Z</time></trkpt><trkpt lat="44.552421181467736" lon="10.888745653383124"><ele>90.0</ele><time>2026-04-19T08:00:00.999Z</time></trkpt><trkpt lat="44.552344976445916" lon="10.888810890304304"><ele>90.0</ele><time>2026-04-19T08:00:02.999Z</time></trkpt><trkpt lat="44.55229655510412" lon="10.888911543021264"><ele>90.0</ele><time>2026-04-19T08:00:04.999Z</time></trkpt><trkpt lat="44.55227384325575" lon="10.889020842547922"><ele>90.0</ele><time>2026-04-19T08:00:06.999Z</time></trkpt><trkpt lat="44.55226774075756" lon="10.88913538686965"><ele>90.0</ele><time>2026-04-19T08:00:08.999Z</time></trkpt><trkpt lat="44.552290198257474" lon="10.889253413990334"><ele>90.0</ele><time>2026-04-19T08:00:10.999Z</time></trkpt><trkpt lat="44.552350775493636" lon="10.889338888206586"><ele>90.0</ele><time>2026-04-19T08:00:12.999Z</time></trkpt><trkpt lat="44.552408288754194" lon="10.889435844260637"><ele>90.0</ele><time>2026-04-19T08:00:14.999Z</time></trkpt><trkpt lat="44.55237729213846" lon="10.889566813168534"><ele>90.0</ele><time>2026-04-19T08:00:15.999Z</time></trkpt><trkpt lat="44.55233780240611" lon="10.889722821159566"><ele>90.0</ele><time>2026-04-19T08:00:17.999Z</time></trkpt><trkpt lat="44.55232430186956" lon="10.889865799891634"><ele>90.0</ele><time>2026-04-19T08:00:19.999Z</time></trkpt><trkpt lat="44.552301211321485" lon="10.890001054795762"><ele>90.0</ele><time>2026-04-19T08:00:21.999Z</time></trkpt><trkpt lat="44.552278700314695" lon="10.89014015398976"><ele>90.0</ele><time>2026-04-19T08:00:23.999Z</time></trkpt><trkpt lat="44.55225848145907" lon="10.89027027975278"><ele>90.0</ele><time>2026-04-19T08:00:25.999Z</time></trkpt><trkpt lat="44.55223633656666" lon="10.890416927935846"><ele>90.2</ele><time>2026-04-19T08:00:27.999Z</time></trkpt><trkpt lat="44.55221222359485" lon="10.890547615713215"><ele>90.4</ele><time>2026-04-19T08:00:29.999Z</time></trkpt><trkpt lat="44.552184291949686" lon="10.890682384911397"><ele>90.6</ele><time>2026-04-19T08:00:31.999Z</time></trkpt><trkpt lat="44.552159746315766" lon="10.890815612673387"><ele>90.8</ele><time>2026-04-19T08:00:33.999Z</time></trkpt><trkpt lat="44.55212979791223" lon="10.890943895323504"><ele>91.0</ele><time>2026-04-19T08:00:35.999Z</time></trkpt><trkpt lat="44.55209830985028" lon="10.891075308344341"><ele>91.0</ele><time>2026-04-19T08:00:37.999Z</time></trkpt><trkpt lat="44.55206867044111" lon="10.891212783845688"><ele>91.0</ele><time>2026-04-19T08:00:39.999Z</time></trkpt><trkpt lat="44.552045856763755" lon="10.89134940474393"><ele>91.0</ele><time>2026-04-19T08:00:41.998Z</time></trkpt><trkpt lat="44.55201613531782" lon="10.891486588589787"><ele>91.0</ele><time>2026-04-19T08:00:43.998Z</time></trkpt><trkpt lat="44.55198691152236" lon="10.891626178841598"><ele>91.0</ele><time>2026-04-19T08:00:45.998Z</time></trkpt><trkpt lat="44.55196286937741" lon="10.891764088978688"><ele>91.4</ele><time>2026-04-19T08:00:47.998Z</time></trkpt><trkpt lat="44.55193622530493" lon="10.891898087630047"><ele>91.8</ele><time>2026-04-19T08:00:49.998Z</time></trkpt><trkpt lat="44.55190935099964" lon="10.892033619538688"><ele>92.2</ele><time>2026-04-19T08:00:51.998Z</time></trkpt><trkpt lat="44.551884124233055" lon="10.892173700055546"><ele>92.60000000000001</ele><time>2026-04-19T08:00:53.998Z</time></trkpt><trkpt lat="44.55186668858126" lon="10.892312748775918"><ele>93.0</ele><time>2026-04-19T08:00:55.998Z</time></trkpt><trkpt lat="44.55183866596572" lon="10.892454569499366"><ele>93.2</ele><time>2026-04-19T08:00:58Z</time></trkpt><trkpt lat="44.55181469969527" lon="10.892596970927475"><ele>93.4</ele><time>2026-04-19T08:01:00Z</time></trkpt><trkpt lat="44.5517951135088" lon="10.89273400392754"><ele>93.60000000000001</ele><time>2026-04-19T08:01:02Z</time></trkpt><trkpt lat="44.55177421791402" lon="10.892871191061586"><ele>93.80000000000001</ele><time>2026-04-19T08:01:04Z</time></trkpt><trkpt lat="44.55174780098737" lon="10.893010763383693"><ele>94.0</ele><time>2026-04-19T08:01:06Z</time></trkpt><trkpt lat="44.55172850651598" lon="10.893171849481403"><ele>94.0</ele><time>2026-04-19T08:01:08Z</time></trkpt><trkpt lat="44.551695117896394" lon="10.893342129451874"><ele>94.0</ele><time>2026-04-19T08:01:10Z</time></trkpt><trkpt lat="44.55167164995481" lon="10.893429818469833"><ele>94.0</ele><time>2026-04-19T08:01:11Z</time></trkpt><trkpt lat="44.55165649764491" lon="10.893530724013948"><ele>94.0</ele><time>2026-04-19T08:01:12Z</time></trkpt><trkpt lat="44.55164922994512" lon="10.893623190292939"><ele>94.0</ele><time>2026-04-19T08:01:13Z</time></trkpt><trkpt lat="44.55163748318483" lon="10.893711058313816"><ele>94.0</ele><time>2026-04-19T08:01:14Z</time></trkpt><trkpt lat="44.5516220464226" lon="10.893797083897997"><ele>93.83333333333333</ele><time>2026-04-19T08:01:15Z</time></trkpt><trkpt lat="44.551609437492075" lon="10.893886451309635"><ele>93.66666666666666</ele><time>2026-04-19T08:01:16Z</time></trkpt><trkpt lat="44.55159552248701" lon="10.893973722955572"><ele>93.5</ele><time>2026-04-19T08:01:17Z</time></trkpt><trkpt lat="44.5515765027974" lon="10.894063062161775"><ele>93.33333333333333</ele><time>2026-04-19T08:01:18Z</time></trkpt><trkpt lat="44.551556086784146" lon="10.89416221710253"><ele>93.16666666666667</ele><time>2026-04-19T08:01:19Z</time></trkpt><trkpt lat="44.55152757023641" lon="10.894328732988287"><ele>93.0</ele><time>2026-04-19T08:01:21Z</time></trkpt><trkpt lat="44.55151710614539" lon="10.8944169132296"><ele>93.0</ele><time>2026-04-19T08:01:22Z</time></trkpt><trkpt lat="44.55149232407197" lon="10.894597599169224"><ele>93.0</ele><time>2026-04-19T08:01:24Z</time></trkpt><trkpt lat="44.55145561538474" lon="10.89476246546265"><ele>93.0</ele><time>2026-04-19T08:01:26Z</time></trkpt><trkpt lat="44.55143743375147" lon="10.894849149726841"><ele>93.0</ele><time>2026-04-19T08:01:27Z</time></trkpt><trkpt lat="44.55142353219339" lon="10.8949357300046"><ele>93.0</ele><time>2026-04-19T08:01:28Z</time></trkpt><trkpt lat="44.55140713045953" lon="10.895023076469352"><ele>93.0</ele><time>2026-04-19T08:01:29Z</time></trkpt><trkpt lat="44.551384726849975" lon="10.895106799419825"><ele>92.80000000000001</ele><time>2026-04-19T08:01:30Z</time></trkpt><trkpt lat="44.551348663112584" lon="10.895276542029324"><ele>92.6</ele><time>2026-04-19T08:01:32Z</time></trkpt><trkpt lat="44.551329849875856" lon="10.895364265021565"><ele>92.4</ele><time>2026-04-19T08:01:33Z</time></trkpt><trkpt lat="44.55129997452212" lon="10.895528762755756"><ele>92.19999999999999</ele><time>2026-04-19T08:01:35Z</time></trkpt><trkpt lat="44.55127883090637" lon="10.895612491910088"><ele>92.0</ele><time>2026-04-19T08:01:36Z</time></trkpt><trkpt lat="44.55123223402719" lon="10.89575411045278"><ele>92.0</ele><time>2026-04-19T08:01:38Z</time></trkpt><trkpt lat="44.55117625621016" lon="10.895909152259435"><ele>92.0</ele><time>2026-04-19T08:01:40Z</time></trkpt><trkpt lat="44.55112614394213" lon="10.896066836662012"><ele>92.0</ele><time>2026-04-19T08:01:42Z</time></trkpt><trkpt lat="44.551078286036976" lon="10.896218098613641"><ele>92.0</ele><time>2026-04-19T08:01:43.999Z</time></trkpt><trkpt lat="44.551036657744476" lon="10.896358801768443"><ele>92.0</ele><time>2026-04-19T08:01:45.999Z</time></trkpt><trkpt lat="44.55097530791372" lon="10.896512731098394"><ele>92.0</ele><time>2026-04-19T08:01:47.999Z</time></trkpt><trkpt lat="44.55093673120927" lon="10.896646929654326"><ele>92.0</ele><time>2026-04-19T08:01:49.999Z</time></trkpt><trkpt lat="44.55089035471238" lon="10.896796428640489"><ele>92.0</ele><time>2026-04-19T08:01:51.999Z</time></trkpt><trkpt lat="44.55084631039192" lon="10.896944812157685"><ele>92.0</ele><time>2026-04-19T08:01:53.999Z</time></trkpt><trkpt lat="44.55079593100363" lon="10.897079702730455"><ele>92.0</ele><time>2026-04-19T08:01:55.999Z</time></trkpt><trkpt lat="44.55075325265" lon="10.897208787276737"><ele>92.0</ele><time>2026-04-19T08:01:57.999Z</time></trkpt><trkpt lat="44.55070874382446" lon="10.897344895840117"><ele>92.0</ele><time>2026-04-19T08:01:59.999Z</time></trkpt><trkpt lat="44.55066093795737" lon="10.897481037342446"><ele>92.0</ele><time>2026-04-19T08:02:01.999Z</time></trkpt><trkpt lat="44.55062102834821" lon="10.897610690442047"><ele>91.8</ele><time>2026-04-19T08:02:03.999Z</time></trkpt><trkpt lat="44.5505721634475" lon="10.897747274764408"><ele>91.6</ele><time>2026-04-19T08:02:05.999Z</time></trkpt><trkpt lat="44.55051937278433" lon="10.897870573756496"><ele>91.39999999999999</ele><time>2026-04-19T08:02:07.999Z</time></trkpt><trkpt lat="44.55047938793647" lon="10.898001508442903"><ele>91.19999999999999</ele><time>2026-04-19T08:02:09.999Z</time></trkpt><trkpt lat="44.55043321185098" lon="10.898134371055646"><ele>91.0</ele><time>2026-04-19T08:02:11.999Z</time></trkpt><trkpt lat="44.55039375775789" lon="10.89826828731165"><ele>91.8</ele><time>2026-04-19T08:02:13.999Z</time></trkpt><trkpt lat="44.550369056238246" lon="10.898407394291546"><ele>92.6</ele><time>2026-04-19T08:02:15.999Z</time></trkpt><trkpt lat="44.550331986552585" lon="10.89854561939835"><ele>93.4</ele><time>2026-04-19T08:02:17.999Z</time></trkpt><trkpt lat="44.55028464146752" lon="10.898661978319755"><ele>94.2</ele><time>2026-04-19T08:02:19.999Z</time></trkpt><trkpt lat="44.55020984781556" lon="10.898758758862176"><ele>95.0</ele><time>2026-04-19T08:02:21.999Z</time></trkpt><trkpt lat="44.55017207723744" lon="10.89889278960288"><ele>95.0</ele><time>2026-04-19T08:02:23.999Z</time></trkpt><trkpt lat="44.550207161277214" lon="10.89903152926518"><ele>95.0</ele><time>2026-04-19T08:02:25.999Z</time></trkpt><trkpt lat="44.55013220451014" lon="10.899176425385551"><ele>95.0</ele><time>2026-04-19T08:02:27.999Z</time></trkpt><trkpt lat="44.550073485579816" lon="10.89930250823514"><ele>95.0</ele><time>2026-04-19T08:02:29.999Z</time></trkpt><trkpt lat="44.55001247732809" lon="10.89942456152368"><ele>95.0</ele><time>2026-04-19T08:02:31.999Z</time></trkpt><trkpt lat="44.54995463198104" lon="10.89955237438244"><ele>94.8</ele><time>2026-04-19T08:02:33.999Z</time></trkpt><trkpt lat="44.549914616722674" lon="10.899691694500113"><ele>94.6</ele><time>2026-04-19T08:02:35.999Z</time></trkpt><trkpt lat="44.549871420331556" lon="10.899833940098574"><ele>94.4</ele><time>2026-04-19T08:02:37.999Z</time></trkpt><trkpt lat="44.54982576374495" lon="10.899966231117856"><ele>94.2</ele><time>2026-04-19T08:02:39.999Z</time></trkpt><trkpt lat="44.54977972158293" lon="10.900103345592001"><ele>94.0</ele><time>2026-04-19T08:02:41.999Z</time></trkpt><trkpt lat="44.54973407294617" lon="10.900236675592863"><ele>94.0</ele><time>2026-04-19T08:02:43.999Z</time></trkpt><trkpt lat="44.54969131482272" lon="10.90036451637983"><ele>94.0</ele><time>2026-04-19T08:02:45.999Z</time></trkpt><trkpt lat="44.54965002690021" lon="10.900500551230918"><ele>94.0</ele><time>2026-04-19T08:02:47.998Z</time></trkpt><trkpt lat="44.5496072159767" lon="10.900638163458847"><ele>94.0</ele><time>2026-04-19T08:02:49.998Z</time></trkpt><trkpt lat="44.54956125755539" lon="10.9007724670395"><ele>94.0</ele><time>2026-04-19T08:02:51.998Z</time></trkpt><trkpt lat="44.54951354680704" lon="10.900911079787614"><ele>94.2</ele><time>2026-04-19T08:02:53.998Z</time></trkpt><trkpt lat="44.54946907253179" lon="10.901038376309268"><ele>94.4</ele><time>2026-04-19T08:02:55.998Z</time></trkpt><trkpt lat="44.54942297805305" lon="10.901177442639398"><ele>94.6</ele><time>2026-04-19T08:02:57.998Z</time></trkpt><trkpt lat="44.54938446034099" lon="10.901316224926264"><ele>94.8</ele><time>2026-04-19T08:02:59.998Z</time></trkpt><trkpt lat="44.54932566537396" lon="10.901395578524996"><ele>95.0</ele><time>2026-04-19T08:03:01.998Z</time></trkpt><trkpt lat="44.5492245590578" lon="10.901435787952899"><ele>95.0</ele><time>2026-04-19T08:03:04Z</time></trkpt><trkpt lat="44.549079764496184" lon="10.901404706028334"><ele>95.0</ele><time>2026-04-19T08:03:07Z</time></trkpt><trkpt lat="44.548967938771725" lon="10.901383418896158"><ele>95.0</ele><time>2026-04-19T08:03:09Z</time></trkpt><trkpt lat="44.54890466902779" lon="10.901370989644677"><ele>95.0</ele><time>2026-04-19T08:03:10Z</time></trkpt><trkpt lat="44.5488413084351" lon="10.901361554686096"><ele>95.0</ele><time>2026-04-19T08:03:11Z</time></trkpt><trkpt lat="44.548723407841265" lon="10.901328982236068"><ele>95.5</ele><time>2026-04-19T08:03:13Z</time></trkpt><trkpt lat="44.548606541450184" lon="10.901301337768018"><ele>96.0</ele><time>2026-04-19T08:03:15Z</time></trkpt><trkpt lat="44.548494395333115" lon="10.901272755338551"><ele>96.5</ele><time>2026-04-19T08:03:17Z</time></trkpt><trkpt lat="44.548380252134216" lon="10.901251954847092"><ele>97.0</ele><time>2026-04-19T08:03:19Z</time></trkpt><trkpt lat="44.54826231192877" lon="10.901229736041705"><ele>97.0</ele><time>2026-04-19T08:03:21Z</time></trkpt><trkpt lat="44.548155388488176" lon="10.901207526821754"><ele>97.0</ele><time>2026-04-19T08:03:23Z</time></trkpt><trkpt lat="44.54804491237173" lon="10.901185197671705"><ele>97.0</ele><time>2026-04-19T08:03:25Z</time></trkpt><trkpt lat="44.54793381146254" lon="10.901163254369125"><ele>97.0</ele><time>2026-04-19T08:03:27Z</time></trkpt><trkpt lat="44.54781997845476" lon="10.901139601311435"><ele>97.0</ele><time>2026-04-19T08:03:29Z</time></trkpt><trkpt lat="44.54770967348563" lon="10.901114343990676"><ele>97.19999999999999</ele><time>2026-04-19T08:03:31Z</time></trkpt><trkpt lat="44.54759652674159" lon="10.901088862524574"><ele>97.4</ele><time>2026-04-19T08:03:33Z</time></trkpt><trkpt lat="44.54748525414054" lon="10.90106519443262"><ele>97.6</ele><time>2026-04-19T08:03:35Z</time></trkpt><trkpt lat="44.547375204955124" lon="10.901042499880012"><ele>97.80000000000001</ele><time>2026-04-19T08:03:37Z</time></trkpt><trkpt lat="44.54726777321969" lon="10.90102143201521"><ele>98.0</ele><time>2026-04-19T08:03:39Z</time></trkpt><trkpt lat="44.54716254257842" lon="10.900998631727665"><ele>98.0</ele><time>2026-04-19T08:03:41Z</time></trkpt><trkpt lat="44.547055587645985" lon="10.900977204346818"><ele>98.0</ele><time>2026-04-19T08:03:43Z</time></trkpt><trkpt lat="44.54694738964654" lon="10.900955737932094"><ele>98.0</ele><time>2026-04-19T08:03:45Z</time></trkpt><trkpt lat="44.546842856892795" lon="10.90093351643301"><ele>98.0</ele><time>2026-04-19T08:03:47Z</time></trkpt><trkpt lat="44.54673999763645" lon="10.900915926735061"><ele>98.0</ele><time>2026-04-19T08:03:49Z</time></trkpt><trkpt lat="44.546630794786694" lon="10.900890386651259"><ele>98.2</ele><time>2026-04-19T08:03:50.999Z</time></trkpt><trkpt lat="44.54652489430479" lon="10.900866687024852"><ele>98.4</ele><time>2026-04-19T08:03:52.999Z</time></trkpt><trkpt lat="44.54641517078445" lon="10.900845006514304"><ele>98.60000000000001</ele><time>2026-04-19T08:03:54.999Z</time></trkpt><trkpt lat="44.546304601214075" lon="10.900820135940334"><ele>98.80000000000001</ele><time>2026-04-19T08:03:56.999Z</time></trkpt><trkpt lat="44.54619706168409" lon="10.900798070828573"><ele>99.0</ele><time>2026-04-19T08:03:58.999Z</time></trkpt><trkpt lat="44.546091990257295" lon="10.900775924058813"><ele>99.0</ele><time>2026-04-19T08:04:00.999Z</time></trkpt><trkpt lat="44.54598469871734" lon="10.900751793464616"><ele>99.0</ele><time>2026-04-19T08:04:02.999Z</time></trkpt><trkpt lat="44.54587155328781" lon="10.900730268581436"><ele>99.0</ele><time>2026-04-19T08:04:04.999Z</time></trkpt><trkpt lat="44.54576153144428" lon="10.900705228011754"><ele>99.0</ele><time>2026-04-19T08:04:06.999Z</time></trkpt><trkpt lat="44.54564545741365" lon="10.900682147947446"><ele>99.0</ele><time>2026-04-19T08:04:08.999Z</time></trkpt><trkpt lat="44.545527739062514" lon="10.900655556521544"><ele>99.0</ele><time>2026-04-19T08:04:10.999Z</time></trkpt><trkpt lat="44.54540919100334" lon="10.900630285785901"><ele>99.0</ele><time>2026-04-19T08:04:12.999Z</time></trkpt><trkpt lat="44.545291549043654" lon="10.900604610877764"><ele>99.0</ele><time>2026-04-19T08:04:14.999Z</time></trkpt><trkpt lat="44.54522662084171" lon="10.900589417071739"><ele>99.0</ele><time>2026-04-19T08:04:15.999Z</time></trkpt><trkpt lat="44.54511108849965" lon="10.90055821142105"><ele>98.4</ele><time>2026-04-19T08:04:17.999Z</time></trkpt><trkpt lat="44.54504578237139" lon="10.900546307329218"><ele>97.80000000000001</ele><time>2026-04-19T08:04:18.999Z</time></trkpt><trkpt lat="44.54492139039056" lon="10.900517249626008"><ele>97.19999999999999</ele><time>2026-04-19T08:04:20.999Z</time></trkpt><trkpt lat="44.5448539088791" lon="10.900504638928924"><ele>96.6</ele><time>2026-04-19T08:04:21.999Z</time></trkpt><trkpt lat="44.544787360343754" lon="10.900496835791479"><ele>96.0</ele><time>2026-04-19T08:04:22.999Z</time></trkpt><trkpt lat="44.54466307718177" lon="10.900465166396888"><ele>96.0</ele><time>2026-04-19T08:04:24.999Z</time></trkpt><trkpt lat="44.544598796041704" lon="10.900445471658903"><ele>96.0</ele><time>2026-04-19T08:04:25.999Z</time></trkpt><trkpt lat="44.544532920414674" lon="10.900424981615508"><ele>96.0</ele><time>2026-04-19T08:04:26.999Z</time></trkpt><trkpt lat="44.54446839351934" lon="10.90040443224673"><ele>96.0</ele><time>2026-04-19T08:04:27.999Z</time></trkpt><trkpt lat="44.54440419938933" lon="10.900384446884882"><ele>96.0</ele><time>2026-04-19T08:04:28.999Z</time></trkpt><trkpt lat="44.54428371099316" lon="10.900331315636882"><ele>96.0</ele><time>2026-04-19T08:04:30.999Z</time></trkpt><trkpt lat="44.54416485120138" lon="10.900276450264444"><ele>96.4</ele><time>2026-04-19T08:04:32.999Z</time></trkpt><trkpt lat="44.544106655442114" lon="10.900242232109976"><ele>96.8</ele><time>2026-04-19T08:04:33.999Z</time></trkpt><trkpt lat="44.54399477225611" lon="10.900181684474527"><ele>97.2</ele><time>2026-04-19T08:04:35.999Z</time></trkpt><trkpt lat="44.54388641866052" lon="10.900117250158583"><ele>97.60000000000001</ele><time>2026-04-19T08:04:37.999Z</time></trkpt><trkpt lat="44.543780625174115" lon="10.900054178276813"><ele>98.0</ele><time>2026-04-19T08:04:39.999Z</time></trkpt><trkpt lat="44.54368063959014" lon="10.899996068030838"><ele>98.0</ele><time>2026-04-19T08:04:41.999Z</time></trkpt><trkpt lat="44.543585789568375" lon="10.89993558192457"><ele>98.0</ele><time>2026-04-19T08:04:43.999Z</time></trkpt><trkpt lat="44.543488213243" lon="10.899881340059347"><ele>98.0</ele><time>2026-04-19T08:04:45.999Z</time></trkpt><trkpt lat="44.54339483785852" lon="10.899826959276094"><ele>98.0</ele><time>2026-04-19T08:04:47.999Z</time></trkpt><trkpt lat="44.543304313709825" lon="10.899772961436842"><ele>98.0</ele><time>2026-04-19T08:04:49.999Z</time></trkpt><trkpt lat="44.54321529267156" lon="10.899717967455237"><ele>98.0</ele><time>2026-04-19T08:04:51.999Z</time></trkpt><trkpt lat="44.54312690712841" lon="10.89966516173326"><ele>98.0</ele><time>2026-04-19T08:04:53.998Z</time></trkpt><trkpt lat="44.543040399223464" lon="10.899615144976922"><ele>98.0</ele><time>2026-04-19T08:04:55.998Z</time></trkpt><trkpt lat="44.54295518164268" lon="10.899560830477032"><ele>98.0</ele><time>2026-04-19T08:04:57.998Z</time></trkpt><trkpt lat="44.54286720470087" lon="10.8995113224072"><ele>98.0</ele><time>2026-04-19T08:04:59.998Z</time></trkpt><trkpt lat="44.54277763125439" lon="10.899464436017038"><ele>98.4</ele><time>2026-04-19T08:05:01.998Z</time></trkpt><trkpt lat="44.542691986065215" lon="10.899410235595855"><ele>98.80000000000001</ele><time>2026-04-19T08:05:03.998Z</time></trkpt><trkpt lat="44.542607583163914" lon="10.899358392072116"><ele>99.2</ele><time>2026-04-19T08:05:05.998Z</time></trkpt><trkpt lat="44.54252387684066" lon="10.899308979972385"><ele>99.6</ele><time>2026-04-19T08:05:07.998Z</time></trkpt><trkpt lat="44.54244046518789" lon="10.899254707207117"><ele>100.0</ele><time>2026-04-19T08:05:10Z</time></trkpt><trkpt lat="44.542360862387966" lon="10.899207595337394"><ele>100.00000000000001</ele><time>2026-04-19T08:05:12Z</time></trkpt><trkpt lat="44.54228664653305" lon="10.899158214162167"><ele>100.0</ele><time>2026-04-19T08:05:14Z</time></trkpt><trkpt lat="44.5422142353689" lon="10.899111440360503"><ele>100.0</ele><time>2026-04-19T08:05:16Z</time></trkpt><trkpt lat="44.54213803406683" lon="10.899071957271541"><ele>100.0</ele><time>2026-04-19T08:05:18Z</time></trkpt><trkpt lat="44.542060160500554" lon="10.899027850342748"><ele>100.00000000000001</ele><time>2026-04-19T08:05:20Z</time></trkpt><trkpt lat="44.541986003371264" lon="10.898998391154082"><ele>100.0</ele><time>2026-04-19T08:05:22Z</time></trkpt><trkpt lat="44.54191104859428" lon="10.898963892699644"><ele>100.57142857142858</ele><time>2026-04-19T08:05:24Z</time></trkpt><trkpt lat="44.54183784864125" lon="10.898931383882282"><ele>101.14285714285714</ele><time>2026-04-19T08:05:26Z</time></trkpt><trkpt lat="44.54176507979349" lon="10.898899503919534"><ele>101.71428571428572</ele><time>2026-04-19T08:05:28Z</time></trkpt><trkpt lat="44.541689476557686" lon="10.898877295059284"><ele>102.28571428571429</ele><time>2026-04-19T08:05:30Z</time></trkpt><trkpt lat="44.54161606827213" lon="10.898844670402577"><ele>102.85714285714286</ele><time>2026-04-19T08:05:32Z</time></trkpt><trkpt lat="44.5415520939134" lon="10.898803917413973"><ele>103.42857142857143</ele><time>2026-04-19T08:05:34Z</time></trkpt><trkpt lat="44.541493361755556" lon="10.898769837481964"><ele>104.0</ele><time>2026-04-19T08:05:36Z</time></trkpt><trkpt lat="44.541414595538576" lon="10.898760093015511"><ele>103.99999999999999</ele><time>2026-04-19T08:05:38Z</time></trkpt><trkpt lat="44.54135159587418" lon="10.898725833383516"><ele>104.0</ele><time>2026-04-19T08:05:40Z</time></trkpt><trkpt lat="44.54125583889229" lon="10.898701042778054"><ele>104.0</ele><time>2026-04-19T08:05:43Z</time></trkpt><trkpt lat="44.54117081970211" lon="10.898665255909222"><ele>104.0</ele><time>2026-04-19T08:05:46Z</time></trkpt><trkpt lat="44.541098712461185" lon="10.898629424060463"><ele>103.99999999999999</ele><time>2026-04-19T08:05:49Z</time></trkpt><trkpt lat="44.541033974263186" lon="10.898612399295759"><ele>104.0</ele><time>2026-04-19T08:05:52Z</time></trkpt><trkpt lat="44.540961344804515" lon="10.898577814857475"><ele>104.16666666666666</ele><time>2026-04-19T08:05:55.999Z</time></trkpt><trkpt lat="44.54088474409619" lon="10.898557094796024"><ele>104.33333333333333</ele><time>2026-04-19T08:05:58.999Z</time></trkpt><trkpt lat="44.5408079797907" lon="10.898532800853843"><ele>104.5</ele><time>2026-04-19T08:06:01.999Z</time></trkpt><trkpt lat="44.54071612227441" lon="10.898511627953933"><ele>104.66666666666666</ele><time>2026-04-19T08:06:04.999Z</time></trkpt><trkpt lat="44.540624040582045" lon="10.898474611466554"><ele>104.83333333333333</ele><time>2026-04-19T08:06:07.999Z</time></trkpt><trkpt lat="44.540559054480774" lon="10.898451703083111"><ele>105.0</ele><time>2026-04-19T08:06:09.999Z</time></trkpt><trkpt lat="44.54049604143131" lon="10.898417236724741"><ele>105.0</ele><time>2026-04-19T08:06:11.999Z</time></trkpt><trkpt lat="44.540428387912556" lon="10.898396955156182"><ele>105.0</ele><time>2026-04-19T08:06:13.999Z</time></trkpt><trkpt lat="44.54034320377197" lon="10.898338750341063"><ele>105.0</ele><time>2026-04-19T08:06:16.999Z</time></trkpt><trkpt lat="44.54027055509327" lon="10.898308459435018"><ele>105.0</ele><time>2026-04-19T08:06:18.999Z</time></trkpt><trkpt lat="44.54020216354956" lon="10.898269987794269"><ele>105.0</ele><time>2026-04-19T08:06:20.999Z</time></trkpt><trkpt lat="44.540145840400406" lon="10.898211565250735"><ele>105.0</ele><time>2026-04-19T08:06:22.999Z</time></trkpt><trkpt lat="44.54007266789103" lon="10.898169930443473"><ele>105.33333333333333</ele><time>2026-04-19T08:06:24.999Z</time></trkpt><trkpt lat="44.54000454532821" lon="10.898127593482322"><ele>105.66666666666666</ele><time>2026-04-19T08:06:26.999Z</time></trkpt><trkpt lat="44.53993340203548" lon="10.898085979248801"><ele>106.0</ele><time>2026-04-19T08:06:28.999Z</time></trkpt><trkpt lat="44.53986020022698" lon="10.898032466311923"><ele>106.33333333333333</ele><time>2026-04-19T08:06:30.999Z</time></trkpt><trkpt lat="44.53979135624545" lon="10.897984000787227"><ele>106.66666666666666</ele><time>2026-04-19T08:06:32.999Z</time></trkpt><trkpt lat="44.53972426131649" lon="10.897933511348924"><ele>107.0</ele><time>2026-04-19T08:06:34.999Z</time></trkpt><trkpt lat="44.53965894970148" lon="10.897880402243137"><ele>106.99999999999999</ele><time>2026-04-19T08:06:36.999Z</time></trkpt><trkpt lat="44.53958540296076" lon="10.897837330194307"><ele>107.0</ele><time>2026-04-19T08:06:38.999Z</time></trkpt><trkpt lat="44.53951328429389" lon="10.897802189308313"><ele>107.0</ele><time>2026-04-19T08:06:40.999Z</time></trkpt><trkpt lat="44.53943758981455" lon="10.897751324567404"><ele>107.0</ele><time>2026-04-19T08:06:42.999Z</time></trkpt><trkpt lat="44.53936148863457" lon="10.897700108484818"><ele>106.99999999999999</ele><time>2026-04-19T08:06:44.999Z</time></trkpt><trkpt lat="44.53928518523795" lon="10.897646706116403"><ele>107.0</ele><time>2026-04-19T08:06:46.999Z</time></trkpt><trkpt lat="44.539206450449065" lon="10.89759903411497"><ele>106.99999999999999</ele><time>2026-04-19T08:06:48.999Z</time></trkpt><trkpt lat="44.53912689394062" lon="10.897552715213822"><ele>107.0</ele><time>2026-04-19T08:06:50.999Z</time></trkpt><trkpt lat="44.53905007096802" lon="10.89751097175816"><ele>107.0</ele><time>2026-04-19T08:06:52.999Z</time></trkpt><trkpt lat="44.53897954835451" lon="10.89747734219233"><ele>107.0</ele><time>2026-04-19T08:06:54.999Z</time></trkpt><trkpt lat="44.53890253627844" lon="10.897452572110629"><ele>106.99999999999999</ele><time>2026-04-19T08:06:56.999Z</time></trkpt><trkpt lat="44.538830737642044" lon="10.897435557624332"><ele>107.0</ele><time>2026-04-19T08:06:58.999Z</time></trkpt><trkpt lat="44.53875596266388" lon="10.89742055148791"><ele>107.49999999999999</ele><time>2026-04-19T08:07:00.998Z</time></trkpt><trkpt lat="44.5386850848556" lon="10.897410773313112"><ele>108.0</ele><time>2026-04-19T08:07:02.998Z</time></trkpt><trkpt lat="44.53860918649908" lon="10.897401339426636"><ele>108.5</ele><time>2026-04-19T08:07:04.998Z</time></trkpt><trkpt lat="44.53853640937404" lon="10.897397188445407"><ele>109.0</ele><time>2026-04-19T08:07:06.998Z</time></trkpt><trkpt lat="44.538464540358156" lon="10.897388217543"><ele>109.49999999999999</ele><time>2026-04-19T08:07:08.998Z</time></trkpt><trkpt lat="44.53838820081149" lon="10.89737789390286"><ele>110.0</ele><time>2026-04-19T08:07:10.998Z</time></trkpt><trkpt lat="44.538306427585304" lon="10.897365720608688"><ele>109.99999999999999</ele><time>2026-04-19T08:07:12.998Z</time></trkpt><trkpt lat="44.53822204157971" lon="10.897363224285849"><ele>110.0</ele><time>2026-04-19T08:07:14.998Z</time></trkpt><trkpt lat="44.53813372571928" lon="10.897360511965346"><ele>110.0</ele><time>2026-04-19T08:07:17Z</time></trkpt><trkpt lat="44.53804493978866" lon="10.897361583716886"><ele>110.0</ele><time>2026-04-19T08:07:19Z</time></trkpt><trkpt lat="44.53795656074717" lon="10.897354946830529"><ele>109.99999999999999</ele><time>2026-04-19T08:07:21Z</time></trkpt><trkpt lat="44.53787090836316" lon="10.897350485757071"><ele>110.0</ele><time>2026-04-19T08:07:23Z</time></trkpt><trkpt lat="44.537790136962585" lon="10.897340937894704"><ele>109.6</ele><time>2026-04-19T08:07:25Z</time></trkpt><trkpt lat="44.53770428410716" lon="10.89733598745372"><ele>109.2</ele><time>2026-04-19T08:07:27Z</time></trkpt><trkpt lat="44.537614019123595" lon="10.897330190278343"><ele>108.80000000000001</ele><time>2026-04-19T08:07:29Z</time></trkpt><trkpt lat="44.53751904300419" lon="10.897311474992401"><ele>108.4</ele><time>2026-04-19T08:07:31Z</time></trkpt><trkpt lat="44.537411093356354" lon="10.897308905948016"><ele>108.0</ele><time>2026-04-19T08:07:33Z</time></trkpt><trkpt lat="44.537311361888705" lon="10.89729295675896"><ele>108.0</ele><time>2026-04-19T08:07:35Z</time></trkpt><trkpt lat="44.53720515955549" lon="10.897301139527258"><ele>108.00000000000001</ele><time>2026-04-19T08:07:37Z</time></trkpt><trkpt lat="44.537107230261014" lon="10.89727443071862"><ele>108.00000000000001</ele><time>2026-04-19T08:07:39Z</time></trkpt><trkpt lat="44.53701107497008" lon="10.897273743300724"><ele>108.0</ele><time>2026-04-19T08:07:41Z</time></trkpt><trkpt lat="44.53691720853495" lon="10.897279391601721"><ele>108.0</ele><time>2026-04-19T08:07:43Z</time></trkpt><trkpt lat="44.536827978873085" lon="10.897268946090138"><ele>108.4</ele><time>2026-04-19T08:07:45Z</time></trkpt><trkpt lat="44.536734546140885" lon="10.897261421883261"><ele>108.80000000000001</ele><time>2026-04-19T08:07:47Z</time></trkpt><trkpt lat="44.536641906504116" lon="10.89724875267342"><ele>109.2</ele><time>2026-04-19T08:07:49Z</time></trkpt><trkpt lat="44.53654453390853" lon="10.897230523576148"><ele>109.6</ele><time>2026-04-19T08:07:51Z</time></trkpt><trkpt lat="44.53645239327754" lon="10.897204411396482"><ele>110.0</ele><time>2026-04-19T08:07:53Z</time></trkpt><trkpt lat="44.5363695276009" lon="10.897176588834181"><ele>110.0</ele><time>2026-04-19T08:07:55Z</time></trkpt><trkpt lat="44.536279654810905" lon="10.897141852058553"><ele>110.0</ele><time>2026-04-19T08:07:57Z</time></trkpt><trkpt lat="44.5361963369918" lon="10.89710418375124"><ele>110.0</ele><time>2026-04-19T08:07:59Z</time></trkpt><trkpt lat="44.536113399468825" lon="10.897066008773075"><ele>110.0</ele><time>2026-04-19T08:08:01Z</time></trkpt><trkpt lat="44.5360337707212" lon="10.897023471549883"><ele>110.0</ele><time>2026-04-19T08:08:02.999Z</time></trkpt><trkpt lat="44.53594135773928" lon="10.896980634312941"><ele>110.0</ele><time>2026-04-19T08:08:04.999Z</time></trkpt><trkpt lat="44.535854655234964" lon="10.896940107595059"><ele>110.0</ele><time>2026-04-19T08:08:06.999Z</time></trkpt><trkpt lat="44.53576313200056" lon="10.896894380923598"><ele>110.0</ele><time>2026-04-19T08:08:08.999Z</time></trkpt><trkpt lat="44.535670212950194" lon="10.896850245199898"><ele>110.0</ele><time>2026-04-19T08:08:10.999Z</time></trkpt><trkpt lat="44.53557871078055" lon="10.896799507081573"><ele>110.0</ele><time>2026-04-19T08:08:12.999Z</time></trkpt><trkpt lat="44.53548679221713" lon="10.896745584203783"><ele>110.2</ele><time>2026-04-19T08:08:14.999Z</time></trkpt><trkpt lat="44.535395580132935" lon="10.896693221939227"><ele>110.4</ele><time>2026-04-19T08:08:16.999Z</time></trkpt><trkpt lat="44.53530612260163" lon="10.89664376200224"><ele>110.6</ele><time>2026-04-19T08:08:18.999Z</time></trkpt><trkpt lat="44.535216721081476" lon="10.896598181222387"><ele>110.8</ele><time>2026-04-19T08:08:20.999Z</time></trkpt><trkpt lat="44.535130883864944" lon="10.896552275454104"><ele>111.0</ele><time>2026-04-19T08:08:22.999Z</time></trkpt><trkpt lat="44.535050470902526" lon="10.896510426703985"><ele>111.0</ele><time>2026-04-19T08:08:24.999Z</time></trkpt><trkpt lat="44.534969059219456" lon="10.896446296811982"><ele>111.0</ele><time>2026-04-19T08:08:26.999Z</time></trkpt><trkpt lat="44.53487954304436" lon="10.896411195421182"><ele>111.0</ele><time>2026-04-19T08:08:28.999Z</time></trkpt><trkpt lat="44.534790488381816" lon="10.896362644429207"><ele>111.0</ele><time>2026-04-19T08:08:30.999Z</time></trkpt><trkpt lat="44.534709533774944" lon="10.896322807098926"><ele>111.0</ele><time>2026-04-19T08:08:32.999Z</time></trkpt><trkpt lat="44.534625110628625" lon="10.896268251700354"><ele>111.0</ele><time>2026-04-19T08:08:34.999Z</time></trkpt><trkpt lat="44.53454565282422" lon="10.896228404817224"><ele>111.0</ele><time>2026-04-19T08:08:36.999Z</time></trkpt><trkpt lat="44.5344578404392" lon="10.896171542791567"><ele>111.0</ele><time>2026-04-19T08:08:38.999Z</time></trkpt><trkpt lat="44.53437050267315" lon="10.896121998044304"><ele>111.0</ele><time>2026-04-19T08:08:40.999Z</time></trkpt><trkpt lat="44.53428864813816" lon="10.89606146650961"><ele>111.0</ele><time>2026-04-19T08:08:42.999Z</time></trkpt><trkpt lat="44.53419693399961" lon="10.896013840525796"><ele>111.0</ele><time>2026-04-19T08:08:44.999Z</time></trkpt><trkpt lat="44.53410553647246" lon="10.895966220879124"><ele>111.0</ele><time>2026-04-19T08:08:46.999Z</time></trkpt><trkpt lat="44.53401320663995" lon="10.895916649511136"><ele>111.0</ele><time>2026-04-19T08:08:48.999Z</time></trkpt><trkpt lat="44.53391975846583" lon="10.895859096857354"><ele>111.0</ele><time>2026-04-19T08:08:50.999Z</time></trkpt><trkpt lat="44.53382584662206" lon="10.895809486182923"><ele>111.0</ele><time>2026-04-19T08:08:52.999Z</time></trkpt><trkpt lat="44.53372961104321" lon="10.89575793843409"><ele>111.8</ele><time>2026-04-19T08:08:54.999Z</time></trkpt><trkpt lat="44.533631943783554" lon="10.895701165298043"><ele>112.6</ele><time>2026-04-19T08:08:56.999Z</time></trkpt><trkpt lat="44.53353705582506" lon="10.895642613967508"><ele>113.4</ele><time>2026-04-19T08:08:58.999Z</time></trkpt><trkpt lat="44.53344613818564" lon="10.895592741787219"><ele>114.2</ele><time>2026-04-19T08:09:00.999Z</time></trkpt><trkpt lat="44.533357033506014" lon="10.895529548306758"><ele>115.0</ele><time>2026-04-19T08:09:02.999Z</time></trkpt><trkpt lat="44.53326383376095" lon="10.895481275798275"><ele>115.0</ele><time>2026-04-19T08:09:04.999Z</time></trkpt><trkpt lat="44.53318339339363" lon="10.895420601858719"><ele>115.0</ele><time>2026-04-19T08:09:06.998Z</time></trkpt><trkpt lat="44.53309185669627" lon="10.895372721878372"><ele>115.0</ele><time>2026-04-19T08:09:08.998Z</time></trkpt><trkpt lat="44.5330083098976" lon="10.895324918934955"><ele>115.0</ele><time>2026-04-19T08:09:10.998Z</time></trkpt><trkpt lat="44.53291953571085" lon="10.89527943035354"><ele>115.0</ele><time>2026-04-19T08:09:12.998Z</time></trkpt><trkpt lat="44.53283704439783" lon="10.895242408611605"><ele>115.2</ele><time>2026-04-19T08:09:14.998Z</time></trkpt><trkpt lat="44.53274940558425" lon="10.895213524568236"><ele>115.4</ele><time>2026-04-19T08:09:16.998Z</time></trkpt><trkpt lat="44.53266687556164" lon="10.895165200765652"><ele>115.6</ele><time>2026-04-19T08:09:18.998Z</time></trkpt><trkpt lat="44.53259094024259" lon="10.89509280961964"><ele>115.8</ele><time>2026-04-19T08:09:20.998Z</time></trkpt><trkpt lat="44.532508775633644" lon="10.895047216004224"><ele>116.0</ele><time>2026-04-19T08:09:23Z</time></trkpt><trkpt lat="44.532422683225384" lon="10.895003921131872"><ele>116.33333333333333</ele><time>2026-04-19T08:09:25Z</time></trkpt><trkpt lat="44.532342183833585" lon="10.89495502205453"><ele>116.66666666666666</ele><time>2026-04-19T08:09:27Z</time></trkpt><trkpt lat="44.53225849161559" lon="10.894907563859446"><ele>117.0</ele><time>2026-04-19T08:09:29Z</time></trkpt><trkpt lat="44.532174209977434" lon="10.894864731374916"><ele>117.33333333333334</ele><time>2026-04-19T08:09:31Z</time></trkpt><trkpt lat="44.532090815760014" lon="10.89481959857486"><ele>117.66666666666667</ele><time>2026-04-19T08:09:33Z</time></trkpt><trkpt lat="44.532009568314194" lon="10.894775589529898"><ele>118.0</ele><time>2026-04-19T08:09:35Z</time></trkpt><trkpt lat="44.53193238805688" lon="10.894731805164973"><ele>118.28571428571428</ele><time>2026-04-19T08:09:37Z</time></trkpt><trkpt lat="44.53186061675385" lon="10.894686618656351"><ele>118.57142857142858</ele><time>2026-04-19T08:09:39Z</time></trkpt><trkpt lat="44.531786486181076" lon="10.894638678216609"><ele>118.85714285714286</ele><time>2026-04-19T08:09:41Z</time></trkpt><trkpt lat="44.53171380168554" lon="10.894600615873848"><ele>119.14285714285714</ele><time>2026-04-19T08:09:43Z</time></trkpt><trkpt lat="44.531653603754805" lon="10.894552953851434"><ele>119.42857142857142</ele><time>2026-04-19T08:09:45Z</time></trkpt><trkpt lat="44.531586745457034" lon="10.89451710850522"><ele>119.71428571428572</ele><time>2026-04-19T08:09:47Z</time></trkpt><trkpt lat="44.531522097538016" lon="10.894478016262974"><ele>120.0</ele><time>2026-04-19T08:09:49Z</time></trkpt><trkpt lat="44.531455148877484" lon="10.894440034704987"><ele>120.0</ele><time>2026-04-19T08:09:51Z</time></trkpt><trkpt lat="44.53138639589592" lon="10.89439789805877"><ele>120.0</ele><time>2026-04-19T08:09:53Z</time></trkpt><trkpt lat="44.53131953081193" lon="10.894359643840222"><ele>120.0</ele><time>2026-04-19T08:09:55Z</time></trkpt><trkpt lat="44.53124875408183" lon="10.894318595125121"><ele>120.0</ele><time>2026-04-19T08:09:57Z</time></trkpt><trkpt lat="44.53118377007662" lon="10.894277377248471"><ele>120.0</ele><time>2026-04-19T08:09:59Z</time></trkpt><trkpt lat="44.531117418231005" lon="10.89423427668111"><ele>120.0</ele><time>2026-04-19T08:10:01Z</time></trkpt><trkpt lat="44.5310532335113" lon="10.894189255418809"><ele>120.0</ele><time>2026-04-19T08:10:03Z</time></trkpt><trkpt lat="44.53098734225831" lon="10.894152738040143"><ele>120.0</ele><time>2026-04-19T08:10:05Z</time></trkpt><trkpt lat="44.53092648991283" lon="10.89411881642358"><ele>120.0</ele><time>2026-04-19T08:10:06.999Z</time></trkpt><trkpt lat="44.53086813164355" lon="10.894064455846012"><ele>120.0</ele><time>2026-04-19T08:10:08.999Z</time></trkpt><trkpt lat="44.53080822509002" lon="10.894019242885975"><ele>120.0</ele><time>2026-04-19T08:10:10.999Z</time></trkpt><trkpt lat="44.53074629326439" lon="10.893981058639286"><ele>120.0</ele><time>2026-04-19T08:10:12.999Z</time></trkpt><trkpt lat="44.53067740636201" lon="10.893954561935878"><ele>120.0</ele><time>2026-04-19T08:10:14.999Z</time></trkpt><trkpt lat="44.53061332202494" lon="10.893909184268084"><ele>120.0</ele><time>2026-04-19T08:10:16.999Z</time></trkpt><trkpt lat="44.53054212176809" lon="10.893868988164511"><ele>120.0</ele><time>2026-04-19T08:10:18.999Z</time></trkpt><trkpt lat="44.53045438100738" lon="10.893816773561394"><ele>120.0</ele><time>2026-04-19T08:10:20.999Z</time></trkpt><trkpt lat="44.53035595193197" lon="10.893754682591577"><ele>120.0</ele><time>2026-04-19T08:10:22.999Z</time></trkpt><trkpt lat="44.530266876179404" lon="10.893691002854457"><ele>120.0</ele><time>2026-04-19T08:10:24.999Z</time></trkpt><trkpt lat="44.53019015856607" lon="10.89362530762014"><ele>120.0</ele><time>2026-04-19T08:10:26.999Z</time></trkpt><trkpt lat="44.53010394058054" lon="10.893607878217425"><ele>119.85714285714286</ele><time>2026-04-19T08:10:27.999Z</time></trkpt><trkpt lat="44.53002345822622" lon="10.893565537065106"><ele>119.71428571428571</ele><time>2026-04-19T08:10:29.999Z</time></trkpt><trkpt lat="44.52995084003353" lon="10.893514651433895"><ele>119.57142857142857</ele><time>2026-04-19T08:10:31.999Z</time></trkpt><trkpt lat="44.52988423338498" lon="10.893476844506914"><ele>119.42857142857143</ele><time>2026-04-19T08:10:34.999Z</time></trkpt><trkpt lat="44.529824398523466" lon="10.893441900396816"><ele>119.28571428571428</ele><time>2026-04-19T08:10:37.999Z</time></trkpt><trkpt lat="44.52976184128761" lon="10.89339080013616"><ele>119.14285714285714</ele><time>2026-04-19T08:10:40.999Z</time></trkpt><trkpt lat="44.52969652344254" lon="10.893353003960023"><ele>119.0</ele><time>2026-04-19T08:10:43.999Z</time></trkpt><trkpt lat="44.529617619796035" lon="10.89330117127415"><ele>119.66666666666666</ele><time>2026-04-19T08:10:46.999Z</time></trkpt><trkpt lat="44.52953237809398" lon="10.89324632758826"><ele>120.33333333333333</ele><time>2026-04-19T08:10:49.999Z</time></trkpt><trkpt lat="44.52946544486614" lon="10.893205676323754"><ele>121.0</ele><time>2026-04-19T08:10:51.999Z</time></trkpt><trkpt lat="44.529397073082826" lon="10.893163886592154"><ele>121.66666666666666</ele><time>2026-04-19T08:10:53.999Z</time></trkpt><trkpt lat="44.52933079081673" lon="10.893119504237928"><ele>122.33333333333333</ele><time>2026-04-19T08:10:55.999Z</time></trkpt><trkpt lat="44.52926559370454" lon="10.893075499511708"><ele>123.0</ele><time>2026-04-19T08:10:57.999Z</time></trkpt><trkpt lat="44.529295457887955" lon="10.892917594150477"><ele>123.0</ele><time>2026-04-19T08:11:01.999Z</time></trkpt><trkpt lat="44.52931790874151" lon="10.892824287986727"><ele>123.0</ele><time>2026-04-19T08:11:03.999Z</time></trkpt><trkpt lat="44.529343740070125" lon="10.892726895457399"><ele>123.0</ele><time>2026-04-19T08:11:05.999Z</time></trkpt><trkpt lat="44.529376340547294" lon="10.892621538506733"><ele>123.0</ele><time>2026-04-19T08:11:07.999Z</time></trkpt><trkpt lat="44.529407122941514" lon="10.892516826930109"><ele>123.0</ele><time>2026-04-19T08:11:09.999Z</time></trkpt><trkpt lat="44.52943528763515" lon="10.892413335170225"><ele>123.0</ele><time>2026-04-19T08:11:11.998Z</time></trkpt><trkpt lat="44.52947191165561" lon="10.892309131591226"><ele>123.0</ele><time>2026-04-19T08:11:13.998Z</time></trkpt><trkpt lat="44.52950643630716" lon="10.892193967678315"><ele>123.0</ele><time>2026-04-19T08:11:15.998Z</time></trkpt><trkpt lat="44.529536809620744" lon="10.892086809796849"><ele>123.0</ele><time>2026-04-19T08:11:17.998Z</time></trkpt><trkpt lat="44.529567570985144" lon="10.891980108452646"><ele>123.0</ele><time>2026-04-19T08:11:19.998Z</time></trkpt><trkpt lat="44.52959702102128" lon="10.891864311743007"><ele>123.0</ele><time>2026-04-19T08:11:21.998Z</time></trkpt><trkpt lat="44.52963307036321" lon="10.891766586800792"><ele>123.0</ele><time>2026-04-19T08:11:23.998Z</time></trkpt><trkpt lat="44.52951721927146" lon="10.891655411140343"><ele>122.66666666666667</ele><time>2026-04-19T08:11:25.998Z</time></trkpt><trkpt lat="44.52944354758601" lon="10.891614395324709"><ele>122.33333333333334</ele><time>2026-04-19T08:11:28Z</time></trkpt><trkpt lat="44.52936913969954" lon="10.891565042486947"><ele>122.0</ele><time>2026-04-19T08:11:30Z</time></trkpt><trkpt lat="44.529291765274294" lon="10.89151574956103"><ele>121.66666666666667</ele><time>2026-04-19T08:11:32Z</time></trkpt><trkpt lat="44.52921901189266" lon="10.891461922316068"><ele>121.33333333333334</ele><time>2026-04-19T08:11:34Z</time></trkpt><trkpt lat="44.52914270562884" lon="10.891410942006992"><ele>121.0</ele><time>2026-04-19T08:11:36Z</time></trkpt><trkpt lat="44.52906591862009" lon="10.891367332287565"><ele>121.00000000000001</ele><time>2026-04-19T08:11:38Z</time></trkpt><trkpt lat="44.52898712513346" lon="10.891317970664982"><ele>121.0</ele><time>2026-04-19T08:11:40Z</time></trkpt><trkpt lat="44.52891290300131" lon="10.89126573551439"><ele>121.0</ele><time>2026-04-19T08:11:42Z</time></trkpt><trkpt lat="44.528836526762184" lon="10.891213515163177"><ele>121.0</ele><time>2026-04-19T08:11:44Z</time></trkpt><trkpt lat="44.52875852029733" lon="10.8911621997042"><ele>121.00000000000001</ele><time>2026-04-19T08:11:46Z</time></trkpt><trkpt lat="44.52867857345184" lon="10.891121579963743"><ele>121.0</ele><time>2026-04-19T08:11:48Z</time></trkpt><trkpt lat="44.528601972483614" lon="10.891064821492085"><ele>121.16666666666667</ele><time>2026-04-19T08:11:50Z</time></trkpt><trkpt lat="44.52852044946297" lon="10.89102005266223"><ele>121.33333333333334</ele><time>2026-04-19T08:11:52Z</time></trkpt><trkpt lat="44.52844525081869" lon="10.890963836197336"><ele>121.5</ele><time>2026-04-19T08:11:54Z</time></trkpt><trkpt lat="44.528371229076505" lon="10.89091884820432"><ele>121.66666666666666</ele><time>2026-04-19T08:11:56Z</time></trkpt><trkpt lat="44.52829265942418" lon="10.890868670212924"><ele>121.83333333333333</ele><time>2026-04-19T08:11:58Z</time></trkpt><trkpt lat="44.52821624765327" lon="10.890819261849195"><ele>122.0</ele><time>2026-04-19T08:12:00Z</time></trkpt><trkpt lat="44.52814296395758" lon="10.890767875452145"><ele>121.99999999999999</ele><time>2026-04-19T08:12:02Z</time></trkpt><trkpt lat="44.528071869318154" lon="10.890717485110732"><ele>122.0</ele><time>2026-04-19T08:12:04Z</time></trkpt><trkpt lat="44.5279995517797" lon="10.890676187942384"><ele>122.0</ele><time>2026-04-19T08:12:06Z</time></trkpt><trkpt lat="44.52793198138504" lon="10.89062938361507"><ele>122.0</ele><time>2026-04-19T08:12:08Z</time></trkpt><trkpt lat="44.52786204190362" lon="10.890578139208799"><ele>121.99999999999999</ele><time>2026-04-19T08:12:10Z</time></trkpt><trkpt lat="44.527794144698234" lon="10.89053267948151"><ele>122.0</ele><time>2026-04-19T08:12:12Z</time></trkpt><trkpt lat="44.52772743525041" lon="10.890497885700961"><ele>122.6</ele><time>2026-04-19T08:12:13.999Z</time></trkpt><trkpt lat="44.52767765885588" lon="10.890438082419069"><ele>123.19999999999999</ele><time>2026-04-19T08:12:15.999Z</time></trkpt><trkpt lat="44.527719905658785" lon="10.890273796307378"><ele>123.8</ele><time>2026-04-19T08:12:18.999Z</time></trkpt><trkpt lat="44.52775602061043" lon="10.890161827006594"><ele>124.4</ele><time>2026-04-19T08:12:20.999Z</time></trkpt><trkpt lat="44.52778499529382" lon="10.890037006950584"><ele>125.0</ele><time>2026-04-19T08:12:22.999Z</time></trkpt><trkpt lat="44.52781498004477" lon="10.889908619417616"><ele>125.2</ele><time>2026-04-19T08:12:24.999Z</time></trkpt><trkpt lat="44.5278448184163" lon="10.889784636163343"><ele>125.4</ele><time>2026-04-19T08:12:26.999Z</time></trkpt><trkpt lat="44.527878189126184" lon="10.889661942340041"><ele>125.6</ele><time>2026-04-19T08:12:28.999Z</time></trkpt><trkpt lat="44.52790687591406" lon="10.889534025092994"><ele>125.8</ele><time>2026-04-19T08:12:30.999Z</time></trkpt><trkpt lat="44.52794177241361" lon="10.889405911413622"><ele>126.0</ele><time>2026-04-19T08:12:32.999Z</time></trkpt><trkpt lat="44.527975899173626" lon="10.8892737705485"><ele>125.6</ele><time>2026-04-19T08:12:34.999Z</time></trkpt><trkpt lat="44.528008634049" lon="10.889131991621968"><ele>125.19999999999999</ele><time>2026-04-19T08:12:36.999Z</time></trkpt><trkpt lat="44.52804500071343" lon="10.888990616245028"><ele>124.80000000000001</ele><time>2026-04-19T08:12:38.999Z</time></trkpt><trkpt lat="44.5280837516471" lon="10.888839715010956"><ele>124.4</ele><time>2026-04-19T08:12:40.999Z</time></trkpt><trkpt lat="44.52812597205698" lon="10.888695472322471"><ele>124.0</ele><time>2026-04-19T08:12:42.999Z</time></trkpt><trkpt lat="44.52816530407885" lon="10.88853798290756"><ele>124.0</ele><time>2026-04-19T08:12:44.999Z</time></trkpt><trkpt lat="44.52820477901097" lon="10.888381498694987"><ele>124.0</ele><time>2026-04-19T08:12:46.999Z</time></trkpt><trkpt lat="44.528246250175826" lon="10.88822565335481"><ele>124.0</ele><time>2026-04-19T08:12:48.999Z</time></trkpt><trkpt lat="44.528288230619296" lon="10.888072161120725"><ele>124.0</ele><time>2026-04-19T08:12:50.999Z</time></trkpt><trkpt lat="44.5283262488469" lon="10.887922931852914"><ele>124.0</ele><time>2026-04-19T08:12:52.999Z</time></trkpt><trkpt lat="44.52837003355508" lon="10.887772697017061"><ele>124.0</ele><time>2026-04-19T08:12:54.999Z</time></trkpt><trkpt lat="44.52840850201735" lon="10.887626882523303"><ele>124.0</ele><time>2026-04-19T08:12:56.999Z</time></trkpt><trkpt lat="44.52844566937598" lon="10.887479655930132"><ele>124.0</ele><time>2026-04-19T08:12:58.999Z</time></trkpt><trkpt lat="44.52848350666372" lon="10.887330208431482"><ele>124.5</ele><time>2026-04-19T08:13:00.999Z</time></trkpt><trkpt lat="44.52852171907785" lon="10.887174893068304"><ele>125.0</ele><time>2026-04-19T08:13:02.999Z</time></trkpt><trkpt lat="44.52855958418714" lon="10.88702592407268"><ele>125.5</ele><time>2026-04-19T08:13:04.999Z</time></trkpt><trkpt lat="44.52859929088286" lon="10.886878187086754"><ele>126.0</ele><time>2026-04-19T08:13:06.999Z</time></trkpt><trkpt lat="44.52864067165309" lon="10.88673224512587"><ele>126.0</ele><time>2026-04-19T08:13:08.999Z</time></trkpt><trkpt lat="44.52867908245921" lon="10.886589664340693"><ele>126.0</ele><time>2026-04-19T08:13:10.999Z</time></trkpt><trkpt lat="44.52871451967166" lon="10.886447680278376"><ele>126.0</ele><time>2026-04-19T08:13:12.999Z</time></trkpt><trkpt lat="44.528751930581564" lon="10.88630803653487"><ele>126.0</ele><time>2026-04-19T08:13:14.999Z</time></trkpt><trkpt lat="44.52879169353462" lon="10.886161496468114"><ele>126.0</ele><time>2026-04-19T08:13:16.999Z</time></trkpt><trkpt lat="44.52883257060658" lon="10.886011956845548"><ele>125.6</ele><time>2026-04-19T08:13:18.998Z</time></trkpt><trkpt lat="44.528871376982366" lon="10.88587600309521"><ele>125.19999999999999</ele><time>2026-04-19T08:13:20.998Z</time></trkpt><trkpt lat="44.52891053557632" lon="10.885725528782926"><ele>124.80000000000001</ele><time>2026-04-19T08:13:22.998Z</time></trkpt><trkpt lat="44.52895317350509" lon="10.88557774072528"><ele>124.4</ele><time>2026-04-19T08:13:24.998Z</time></trkpt><trkpt lat="44.528990792983464" lon="10.885424791044231"><ele>124.0</ele><time>2026-04-19T08:13:26.998Z</time></trkpt><trkpt lat="44.529014542481846" lon="10.885342240901615"><ele>124.0</ele><time>2026-04-19T08:13:27.998Z</time></trkpt><trkpt lat="44.529054254092145" lon="10.885200634095973"><ele>124.0</ele><time>2026-04-19T08:13:29.998Z</time></trkpt><trkpt lat="44.52909148098387" lon="10.885054872266691"><ele>124.0</ele><time>2026-04-19T08:13:31.998Z</time></trkpt><trkpt lat="44.52913162410306" lon="10.884899334046379"><ele>124.0</ele><time>2026-04-19T08:13:34Z</time></trkpt><trkpt lat="44.529175103558224" lon="10.88475233600238"><ele>124.75</ele><time>2026-04-19T08:13:36Z</time></trkpt><trkpt lat="44.529212792995104" lon="10.884594176247402"><ele>125.5</ele><time>2026-04-19T08:13:38Z</time></trkpt><trkpt lat="44.52924657183275" lon="10.884434702573463"><ele>126.25</ele><time>2026-04-19T08:13:40Z</time></trkpt><trkpt lat="44.52927612455548" lon="10.884281410525295"><ele>127.0</ele><time>2026-04-19T08:13:42Z</time></trkpt><trkpt lat="44.52928625942528" lon="10.884117587718233"><ele>127.5</ele><time>2026-04-19T08:13:44Z</time></trkpt><trkpt lat="44.52928767210014" lon="10.883964297585704"><ele>128.0</ele><time>2026-04-19T08:13:46Z</time></trkpt><trkpt lat="44.529293827528164" lon="10.883802987982586"><ele>128.5</ele><time>2026-04-19T08:13:48Z</time></trkpt><trkpt lat="44.52930197084691" lon="10.883634617525216"><ele>129.0</ele><time>2026-04-19T08:13:50Z</time></trkpt><trkpt lat="44.529309469022635" lon="10.883485024856798"><ele>128.8</ele><time>2026-04-19T08:13:52Z</time></trkpt><trkpt lat="44.52931631566143" lon="10.883329707177468"><ele>128.60000000000002</ele><time>2026-04-19T08:13:54Z</time></trkpt><trkpt lat="44.52932768602714" lon="10.883178919498498"><ele>128.4</ele><time>2026-04-19T08:13:56Z</time></trkpt><trkpt lat="44.52933167465319" lon="10.883022231917645"><ele>128.20000000000002</ele><time>2026-04-19T08:13:58Z</time></trkpt><trkpt lat="44.52934284643162" lon="10.882878442202799"><ele>128.0</ele><time>2026-04-19T08:14:00Z</time></trkpt><trkpt lat="44.529346067818906" lon="10.882717612687726"><ele>128.0</ele><time>2026-04-19T08:14:02Z</time></trkpt><trkpt lat="44.529348451641944" lon="10.882563890625917"><ele>128.0</ele><time>2026-04-19T08:14:04Z</time></trkpt><trkpt lat="44.529358086176124" lon="10.882410559973826"><ele>128.0</ele><time>2026-04-19T08:14:06Z</time></trkpt><trkpt lat="44.52935976443215" lon="10.882262128191165"><ele>128.0</ele><time>2026-04-19T08:14:08Z</time></trkpt><trkpt lat="44.529362401829765" lon="10.88211427910841"><ele>128.0</ele><time>2026-04-19T08:14:10Z</time></trkpt><trkpt lat="44.529348072584696" lon="10.881960494424515"><ele>128.0</ele><time>2026-04-19T08:14:12Z</time></trkpt><trkpt lat="44.52934444467789" lon="10.881813970419143"><ele>128.0</ele><time>2026-04-19T08:14:14Z</time></trkpt><trkpt lat="44.52934122139169" lon="10.881669186060744"><ele>128.0</ele><time>2026-04-19T08:14:16Z</time></trkpt><trkpt lat="44.52937674693736" lon="10.881523574886543"><ele>128.0</ele><time>2026-04-19T08:14:18Z</time></trkpt><trkpt lat="44.52940211620673" lon="10.881383706476218"><ele>128.0</ele><time>2026-04-19T08:14:19.999Z</time></trkpt><trkpt lat="44.52938109973384" lon="10.881246628118545"><ele>128.0</ele><time>2026-04-19T08:14:21.999Z</time></trkpt><trkpt lat="44.52930416561829" lon="10.881149719937532"><ele>128.0</ele><time>2026-04-19T08:14:23.999Z</time></trkpt><trkpt lat="44.529309452980094" lon="10.881044269272174"><ele>128.0</ele><time>2026-04-19T08:14:24.999Z</time></trkpt><trkpt lat="44.529313517643146" lon="10.880890065025028"><ele>128.0</ele><time>2026-04-19T08:14:26.999Z</time></trkpt><trkpt lat="44.52929883171849" lon="10.880735420458997"><ele>128.0</ele><time>2026-04-19T08:14:28.999Z</time></trkpt><trkpt lat="44.529278829524465" lon="10.880583717348498"><ele>128.20000000000002</ele><time>2026-04-19T08:14:30.999Z</time></trkpt><trkpt lat="44.5292433307891" lon="10.880435370026447"><ele>128.4</ele><time>2026-04-19T08:14:32.999Z</time></trkpt><trkpt lat="44.52920545451237" lon="10.880291976145013"><ele>128.60000000000002</ele><time>2026-04-19T08:14:34.999Z</time></trkpt><trkpt lat="44.52917690341161" lon="10.88014476819449"><ele>128.8</ele><time>2026-04-19T08:14:36.999Z</time></trkpt><trkpt lat="44.529136048303194" lon="10.879999461115583"><ele>129.0</ele><time>2026-04-19T08:14:38.999Z</time></trkpt><trkpt lat="44.529111823969345" lon="10.879852401249197"><ele>128.6</ele><time>2026-04-19T08:14:40.999Z</time></trkpt><trkpt lat="44.52908562395735" lon="10.87971210576162"><ele>128.2</ele><time>2026-04-19T08:14:42.999Z</time></trkpt><trkpt lat="44.529058899811425" lon="10.879566872106384"><ele>127.79999999999998</ele><time>2026-04-19T08:14:44.999Z</time></trkpt><trkpt lat="44.52902678783458" lon="10.879424938700335"><ele>127.39999999999999</ele><time>2026-04-19T08:14:46.999Z</time></trkpt><trkpt lat="44.52899404681034" lon="10.879287699784504"><ele>127.0</ele><time>2026-04-19T08:14:48.999Z</time></trkpt><trkpt lat="44.528957542468035" lon="10.879151275815685"><ele>127.0</ele><time>2026-04-19T08:14:50.999Z</time></trkpt><trkpt lat="44.52892592345217" lon="10.879014785198207"><ele>126.99999999999999</ele><time>2026-04-19T08:14:52.999Z</time></trkpt><trkpt lat="44.5288917530199" lon="10.87887695178654"><ele>126.99999999999999</ele><time>2026-04-19T08:14:54.999Z</time></trkpt><trkpt lat="44.52885881943251" lon="10.878741708422844"><ele>127.0</ele><time>2026-04-19T08:14:56.999Z</time></trkpt><trkpt lat="44.52882460873531" lon="10.878602326745249"><ele>127.0</ele><time>2026-04-19T08:14:58.999Z</time></trkpt><trkpt lat="44.52878843469041" lon="10.878462306755482"><ele>127.0</ele><time>2026-04-19T08:15:00.999Z</time></trkpt><trkpt lat="44.52875574180532" lon="10.878318049191192"><ele>126.99999999999999</ele><time>2026-04-19T08:15:02.999Z</time></trkpt><trkpt lat="44.528721867665794" lon="10.878183723892386"><ele>126.99999999999999</ele><time>2026-04-19T08:15:04.999Z</time></trkpt><trkpt lat="44.528690397405654" lon="10.878038291582"><ele>127.0</ele><time>2026-04-19T08:15:06.999Z</time></trkpt><trkpt lat="44.528656538179284" lon="10.877898863789365"><ele>127.0</ele><time>2026-04-19T08:15:08.999Z</time></trkpt><trkpt lat="44.52861594956873" lon="10.877757698026134"><ele>127.39999999999999</ele><time>2026-04-19T08:15:10.999Z</time></trkpt><trkpt lat="44.52857890618014" lon="10.877618034027783"><ele>127.79999999999998</ele><time>2026-04-19T08:15:12.999Z</time></trkpt><trkpt lat="44.528543079550374" lon="10.877477294437037"><ele>128.2</ele><time>2026-04-19T08:15:14.999Z</time></trkpt><trkpt lat="44.52850639997824" lon="10.87732972267096"><ele>128.6</ele><time>2026-04-19T08:15:16.999Z</time></trkpt><trkpt lat="44.52847271389257" lon="10.877189094324303"><ele>129.0</ele><time>2026-04-19T08:15:18.999Z</time></trkpt><trkpt lat="44.52843624970839" lon="10.877046466463344"><ele>129.0</ele><time>2026-04-19T08:15:20.999Z</time></trkpt><trkpt lat="44.528402621800176" lon="10.876907943107229"><ele>129.0</ele><time>2026-04-19T08:15:22.999Z</time></trkpt><trkpt lat="44.52836944898313" lon="10.876767595310316"><ele>129.0</ele><time>2026-04-19T08:15:24.998Z</time></trkpt><trkpt lat="44.528340146879685" lon="10.876634851621596"><ele>129.0</ele><time>2026-04-19T08:15:26.998Z</time></trkpt><trkpt lat="44.52833262670205" lon="10.876500040786206"><ele>129.0</ele><time>2026-04-19T08:15:28.998Z</time></trkpt><trkpt lat="44.52834066106374" lon="10.876366937269902"><ele>128.6</ele><time>2026-04-19T08:15:30.998Z</time></trkpt><trkpt lat="44.52836668765802" lon="10.876232615240077"><ele>128.2</ele><time>2026-04-19T08:15:32.998Z</time></trkpt><trkpt lat="44.528350900877726" lon="10.876092141223914"><ele>127.79999999999998</ele><time>2026-04-19T08:15:34.998Z</time></trkpt><trkpt lat="44.52825298255006" lon="10.875997714028774"><ele>127.39999999999999</ele><time>2026-04-19T08:15:36.998Z</time></trkpt><trkpt lat="44.52816512729695" lon="10.87609198395642"><ele>127.0</ele><time>2026-04-19T08:15:37.998Z</time></trkpt><trkpt lat="44.52808492379278" lon="10.87621435016957"><ele>127.0</ele><time>2026-04-19T08:15:40Z</time></trkpt><trkpt lat="44.52805708143674" lon="10.876332852573826"><ele>126.99999999999999</ele><time>2026-04-19T08:15:42Z</time></trkpt><trkpt lat="44.52793885209905" lon="10.87629310128153"><ele>126.99999999999999</ele><time>2026-04-19T08:15:43Z</time></trkpt><trkpt lat="44.527830521204514" lon="10.876287200095355"><ele>127.0</ele><time>2026-04-19T08:15:45Z</time></trkpt><trkpt lat="44.527714712728496" lon="10.876266660864628"><ele>127.0</ele><time>2026-04-19T08:15:47Z</time></trkpt><trkpt lat="44.527600761712655" lon="10.876226441597426"><ele>127.5</ele><time>2026-04-19T08:15:49Z</time></trkpt><trkpt lat="44.52748816299753" lon="10.876188745580304"><ele>128.0</ele><time>2026-04-19T08:15:51Z</time></trkpt><trkpt lat="44.527371258715824" lon="10.876173796595841"><ele>128.5</ele><time>2026-04-19T08:15:53Z</time></trkpt><trkpt lat="44.52725707404978" lon="10.876178086653878"><ele>129.0</ele><time>2026-04-19T08:15:55Z</time></trkpt><trkpt lat="44.52714393967211" lon="10.876185166682909"><ele>129.2</ele><time>2026-04-19T08:15:57Z</time></trkpt><trkpt lat="44.52703409709578" lon="10.876185522682913"><ele>129.4</ele><time>2026-04-19T08:15:59Z</time></trkpt><trkpt lat="44.5269304188613" lon="10.87619416991798"><ele>129.6</ele><time>2026-04-19T08:16:01Z</time></trkpt><trkpt lat="44.526828377807895" lon="10.87619739443567"><ele>129.8</ele><time>2026-04-19T08:16:03Z</time></trkpt><trkpt lat="44.526727526504786" lon="10.876196085069322"><ele>130.0</ele><time>2026-04-19T08:16:05Z</time></trkpt><trkpt lat="44.52663240226786" lon="10.876201362009335"><ele>130.0</ele><time>2026-04-19T08:16:07Z</time></trkpt><trkpt lat="44.52654104830841" lon="10.876199733469564"><ele>130.0</ele><time>2026-04-19T08:16:09Z</time></trkpt><trkpt lat="44.5264517481905" lon="10.876205751593005"><ele>130.0</ele><time>2026-04-19T08:16:11Z</time></trkpt><trkpt lat="44.526364320664776" lon="10.876212257956347"><ele>130.0</ele><time>2026-04-19T08:16:13Z</time></trkpt><trkpt lat="44.52628000249726" lon="10.876212250131848"><ele>130.0</ele><time>2026-04-19T08:16:15Z</time></trkpt><trkpt lat="44.526181888908404" lon="10.876220929145727"><ele>130.0</ele><time>2026-04-19T08:16:17Z</time></trkpt><trkpt lat="44.52608406047794" lon="10.876227891718319"><ele>130.0</ele><time>2026-04-19T08:16:19Z</time></trkpt><trkpt lat="44.525982600665785" lon="10.876222438549858"><ele>130.0</ele><time>2026-04-19T08:16:21Z</time></trkpt><trkpt lat="44.52588390714907" lon="10.876229140829363"><ele>130.0</ele><time>2026-04-19T08:16:23Z</time></trkpt><trkpt lat="44.52578983179919" lon="10.876232486286984"><ele>130.0</ele><time>2026-04-19T08:16:25Z</time></trkpt><trkpt lat="44.52569644826601" lon="10.876232001260837"><ele>130.0</ele><time>2026-04-19T08:16:26.999Z</time></trkpt><trkpt lat="44.52560650517713" lon="10.876237301721664"><ele>130.0</ele><time>2026-04-19T08:16:28.999Z</time></trkpt><trkpt lat="44.52551766902171" lon="10.876237287508161"><ele>130.0</ele><time>2026-04-19T08:16:30.999Z</time></trkpt><trkpt lat="44.52542544185785" lon="10.876243065310911"><ele>130.0</ele><time>2026-04-19T08:16:32.999Z</time></trkpt><trkpt lat="44.525335652690636" lon="10.876244882748859"><ele>130.0</ele><time>2026-04-19T08:16:34.999Z</time></trkpt><trkpt lat="44.525249683662544" lon="10.876247246654868"><ele>130.0</ele><time>2026-04-19T08:16:36.999Z</time></trkpt><trkpt lat="44.52516571508735" lon="10.87625182205366"><ele>130.5</ele><time>2026-04-19T08:16:38.999Z</time></trkpt><trkpt lat="44.525080804778995" lon="10.876260267990038"><ele>131.0</ele><time>2026-04-19T08:16:40.999Z</time></trkpt><trkpt lat="44.52499136411999" lon="10.876258486808183"><ele>131.5</ele><time>2026-04-19T08:16:42.999Z</time></trkpt><trkpt lat="44.524910079580714" lon="10.876263459663479"><ele>132.0</ele><time>2026-04-19T08:16:44.999Z</time></trkpt><trkpt lat="44.52481567809221" lon="10.87627197081438"><ele>132.5</ele><time>2026-04-19T08:16:46.999Z</time></trkpt><trkpt lat="44.52472641311924" lon="10.876265434329625"><ele>133.0</ele><time>2026-04-19T08:16:48.999Z</time></trkpt><trkpt lat="44.52462841860136" lon="10.876272786377902"><ele>133.20000000000002</ele><time>2026-04-19T08:16:50.999Z</time></trkpt><trkpt lat="44.52452987800591" lon="10.876277962349278"><ele>133.4</ele><time>2026-04-19T08:16:52.999Z</time></trkpt><trkpt lat="44.5244347190037" lon="10.876284131972428"><ele>133.60000000000002</ele><time>2026-04-19T08:16:54.999Z</time></trkpt><trkpt lat="44.524337381657084" lon="10.8762807356026"><ele>133.8</ele><time>2026-04-19T08:16:56.999Z</time></trkpt><trkpt lat="44.52423626926005" lon="10.876282475398664"><ele>134.0</ele><time>2026-04-19T08:16:58.999Z</time></trkpt><trkpt lat="44.52414284218987" lon="10.876283386427287"><ele>134.0</ele><time>2026-04-19T08:17:00.999Z</time></trkpt><trkpt lat="44.52405346515768" lon="10.87628255193374"><ele>134.0</ele><time>2026-04-19T08:17:02.999Z</time></trkpt><trkpt lat="44.52396453555165" lon="10.876270697337576"><ele>134.0</ele><time>2026-04-19T08:17:04.999Z</time></trkpt><trkpt lat="44.52387835916139" lon="10.876234896261165"><ele>134.0</ele><time>2026-04-19T08:17:06.999Z</time></trkpt><trkpt lat="44.52381031486202" lon="10.876166937640717"><ele>134.0</ele><time>2026-04-19T08:17:08.999Z</time></trkpt><trkpt lat="44.52374469521019" lon="10.876119010488479"><ele>134.0</ele><time>2026-04-19T08:17:10.999Z</time></trkpt><trkpt lat="44.523684571801546" lon="10.876041569888738"><ele>134.16666666666666</ele><time>2026-04-19T08:17:12.999Z</time></trkpt><trkpt lat="44.52363232661583" lon="10.87599168060363"><ele>134.33333333333331</ele><time>2026-04-19T08:17:14.999Z</time></trkpt><trkpt lat="44.52367689491591" lon="10.875852896501828"><ele>134.5</ele><time>2026-04-19T08:17:15.999Z</time></trkpt><trkpt lat="44.523698376074236" lon="10.875734520039043"><ele>134.66666666666666</ele><time>2026-04-19T08:17:17.999Z</time></trkpt><trkpt lat="44.523709650520836" lon="10.875625773335882"><ele>134.83333333333334</ele><time>2026-04-19T08:17:19.999Z</time></trkpt><trkpt lat="44.52372662751309" lon="10.875521197011015"><ele>135.0</ele><time>2026-04-19T08:17:21.999Z</time></trkpt><trkpt lat="44.52373572327108" lon="10.875397290857704"><ele>134.83333333333334</ele><time>2026-04-19T08:17:23.999Z</time></trkpt><trkpt lat="44.523750677337134" lon="10.87526961087686"><ele>134.66666666666666</ele><time>2026-04-19T08:17:25.999Z</time></trkpt><trkpt lat="44.52376595562386" lon="10.87514882680503"><ele>134.5</ele><time>2026-04-19T08:17:27.999Z</time></trkpt><trkpt lat="44.52377719058164" lon="10.875025961126324"><ele>134.33333333333331</ele><time>2026-04-19T08:17:29.998Z</time></trkpt><trkpt lat="44.52378992767419" lon="10.874905021068972"><ele>134.16666666666666</ele><time>2026-04-19T08:17:31.998Z</time></trkpt><trkpt lat="44.52380704257005" lon="10.874779928134636"><ele>134.0</ele><time>2026-04-19T08:17:33.998Z</time></trkpt><trkpt lat="44.52382462432047" lon="10.874663667988571"><ele>134.0</ele><time>2026-04-19T08:17:35.998Z</time></trkpt><trkpt lat="44.52383815457223" lon="10.874534178959843"><ele>134.0</ele><time>2026-04-19T08:17:37.998Z</time></trkpt><trkpt lat="44.52384688689684" lon="10.874406082057419"><ele>134.0</ele><time>2026-04-19T08:17:39.998Z</time></trkpt><trkpt lat="44.52386443254681" lon="10.874284590823738"><ele>134.0</ele><time>2026-04-19T08:17:41.998Z</time></trkpt><trkpt lat="44.52388287311767" lon="10.87416261913027"><ele>134.0</ele><time>2026-04-19T08:17:43.998Z</time></trkpt><trkpt lat="44.52389333374975" lon="10.874028100185917"><ele>134.0</ele><time>2026-04-19T08:17:46Z</time></trkpt><trkpt lat="44.523912450473475" lon="10.873909043935788"><ele>134.0</ele><time>2026-04-19T08:17:48Z</time></trkpt><trkpt lat="44.5239291511642" lon="10.873779754263218"><ele>134.0</ele><time>2026-04-19T08:17:50Z</time></trkpt><trkpt lat="44.523944484389084" lon="10.873661588229318"><ele>134.0</ele><time>2026-04-19T08:17:52Z</time></trkpt><trkpt lat="44.5239591287644" lon="10.873531153021165"><ele>134.0</ele><time>2026-04-19T08:17:54Z</time></trkpt><trkpt lat="44.523974138058215" lon="10.873408354904566"><ele>134.0</ele><time>2026-04-19T08:17:56Z</time></trkpt><trkpt lat="44.523997039106476" lon="10.873282985559058"><ele>134.0</ele><time>2026-04-19T08:17:58Z</time></trkpt><trkpt lat="44.52401294262301" lon="10.87313887094113"><ele>134.0</ele><time>2026-04-19T08:18:00Z</time></trkpt><trkpt lat="44.52402375213143" lon="10.873002476702364"><ele>134.0</ele><time>2026-04-19T08:18:02Z</time></trkpt><trkpt lat="44.52403745327861" lon="10.872856486489013"><ele>134.0</ele><time>2026-04-19T08:18:04Z</time></trkpt><trkpt lat="44.52405073183005" lon="10.872722979365932"><ele>134.0</ele><time>2026-04-19T08:18:06Z</time></trkpt><trkpt lat="44.524065720824694" lon="10.87258166236435"><ele>134.2</ele><time>2026-04-19T08:18:08Z</time></trkpt><trkpt lat="44.52407816660819" lon="10.872440622604664"><ele>134.4</ele><time>2026-04-19T08:18:10Z</time></trkpt><trkpt lat="44.52409175780458" lon="10.872302094996577"><ele>134.6</ele><time>2026-04-19T08:18:12Z</time></trkpt><trkpt lat="44.524112020369834" lon="10.872172110837706"><ele>134.8</ele><time>2026-04-19T08:18:14Z</time></trkpt><trkpt lat="44.524123659078924" lon="10.872038285901446"><ele>135.0</ele><time>2026-04-19T08:18:16Z</time></trkpt><trkpt lat="44.524162505943025" lon="10.871910774750097"><ele>135.0</ele><time>2026-04-19T08:18:18Z</time></trkpt><trkpt lat="44.52421841048902" lon="10.87179345400757"><ele>135.0</ele><time>2026-04-19T08:18:20Z</time></trkpt><trkpt lat="44.524184700491396" lon="10.871649861148892"><ele>135.0</ele><time>2026-04-19T08:18:22Z</time></trkpt><trkpt lat="44.52415012209092" lon="10.871520925425681"><ele>135.0</ele><time>2026-04-19T08:18:24Z</time></trkpt><trkpt lat="44.52415005546207" lon="10.871368593760328"><ele>135.0</ele><time>2026-04-19T08:18:26Z</time></trkpt><trkpt lat="44.52415194858022" lon="10.871210877284303"><ele>134.8</ele><time>2026-04-19T08:18:28Z</time></trkpt><trkpt lat="44.52415371929705" lon="10.871047616132405"><ele>134.6</ele><time>2026-04-19T08:18:30Z</time></trkpt><trkpt lat="44.524158202508794" lon="10.87088415893338"><ele>134.4</ele><time>2026-04-19T08:18:31.999Z</time></trkpt><trkpt lat="44.524162425281666" lon="10.870730734669598"><ele>134.2</ele><time>2026-04-19T08:18:33.999Z</time></trkpt><trkpt lat="44.52416984870464" lon="10.87058172762484"><ele>134.0</ele><time>2026-04-19T08:18:35.999Z</time></trkpt><trkpt lat="44.5241816737888" lon="10.870456712781658"><ele>133.83333333333331</ele><time>2026-04-19T08:18:37.999Z</time></trkpt><trkpt lat="44.52417786518793" lon="10.870342840025593"><ele>133.66666666666666</ele><time>2026-04-19T08:18:39.999Z</time></trkpt><trkpt lat="44.524162860511915" lon="10.870435567654168"><ele>133.5</ele><time>2026-04-19T08:20:28Z</time></trkpt><trkpt lat="44.52411584169572" lon="10.870558314603725"><ele>133.33333333333334</ele><time>2026-04-19T08:20:31Z</time></trkpt><trkpt lat="44.52410871325486" lon="10.870654873214312"><ele>133.16666666666669</ele><time>2026-04-19T08:20:33Z</time></trkpt><trkpt lat="44.524101050293375" lon="10.870761362217022"><ele>133.0</ele><time>2026-04-19T08:20:35Z</time></trkpt><trkpt lat="44.52409917116572" lon="10.87086405937684"><ele>133.16666666666669</ele><time>2026-04-19T08:20:37Z</time></trkpt><trkpt lat="44.52409946112233" lon="10.870974391667762"><ele>133.33333333333334</ele><time>2026-04-19T08:20:39Z</time></trkpt><trkpt lat="44.52409921509665" lon="10.871099656933279"><ele>133.5</ele><time>2026-04-19T08:20:41Z</time></trkpt><trkpt lat="44.52409877838555" lon="10.871209092199987"><ele>133.66666666666666</ele><time>2026-04-19T08:20:43Z</time></trkpt><trkpt lat="44.5241009189592" lon="10.87132877372371"><ele>133.83333333333331</ele><time>2026-04-19T08:20:45Z</time></trkpt><trkpt lat="44.52408614097198" lon="10.871444484083536"><ele>134.0</ele><time>2026-04-19T08:20:47Z</time></trkpt><trkpt lat="44.524076780683316" lon="10.871557763485745"><ele>134.0</ele><time>2026-04-19T08:20:49Z</time></trkpt><trkpt lat="44.52405649865723" lon="10.871646430851182"><ele>134.0</ele><time>2026-04-19T08:20:50.999Z</time></trkpt><trkpt lat="44.524002951304" lon="10.871709837972018"><ele>134.0</ele><time>2026-04-19T08:20:52.999Z</time></trkpt><trkpt lat="44.52393442004955" lon="10.871740584954942"><ele>134.0</ele><time>2026-04-19T08:20:54.999Z</time></trkpt><trkpt lat="44.52385184289626" lon="10.871698057477914"><ele>134.0</ele><time>2026-04-19T08:20:57.999Z</time></trkpt><trkpt lat="44.5237735157812" lon="10.871667569235642"><ele>134.0</ele><time>2026-04-19T08:21:00.999Z</time></trkpt><trkpt lat="44.523705608861555" lon="10.87162588746337"><ele>135.16666666666666</ele><time>2026-04-19T08:21:04.999Z</time></trkpt><trkpt lat="44.523630232917945" lon="10.871594772644965"><ele>136.33333333333331</ele><time>2026-04-19T08:21:07.999Z</time></trkpt><trkpt lat="44.52355184400058" lon="10.871567936423851"><ele>137.5</ele><time>2026-04-19T08:21:10.999Z</time></trkpt><trkpt lat="44.52347077913673" lon="10.87153982289617"><ele>138.66666666666666</ele><time>2026-04-19T08:21:13.999Z</time></trkpt><trkpt lat="44.523390236591595" lon="10.871519341877628"><ele>139.83333333333334</ele><time>2026-04-19T08:21:16.999Z</time></trkpt><trkpt lat="44.523305992472125" lon="10.871489580257272"><ele>141.0</ele><time>2026-04-19T08:21:19.999Z</time></trkpt><trkpt lat="44.5232234486437" lon="10.871454779896684"><ele>141.0</ele><time>2026-04-19T08:21:22.999Z</time></trkpt><trkpt lat="44.52313821279264" lon="10.87141444709429"><ele>141.0</ele><time>2026-04-19T08:21:25.999Z</time></trkpt><trkpt lat="44.523048392153584" lon="10.871383725383323"><ele>141.0</ele><time>2026-04-19T08:21:28.999Z</time></trkpt><trkpt lat="44.52296634491399" lon="10.871351549304794"><ele>141.0</ele><time>2026-04-19T08:21:31.999Z</time></trkpt><trkpt lat="44.522902867292935" lon="10.871330169341103"><ele>141.0</ele><time>2026-04-19T08:21:33.999Z</time></trkpt><trkpt lat="44.52282616637683" lon="10.87130072288328"><ele>141.0</ele><time>2026-04-19T08:21:36.999Z</time></trkpt><trkpt lat="44.522753720983864" lon="10.871262362313601"><ele>141.66666666666666</ele><time>2026-04-19T08:21:39.999Z</time></trkpt><trkpt lat="44.5226734964976" lon="10.871223067855615"><ele>142.33333333333334</ele><time>2026-04-19T08:21:42.999Z</time></trkpt><trkpt lat="44.52259834013751" lon="10.871188364758934"><ele>143.0</ele><time>2026-04-19T08:21:45.999Z</time></trkpt><trkpt lat="44.5225251896428" lon="10.871159506811715"><ele>143.66666666666669</ele><time>2026-04-19T08:21:48.999Z</time></trkpt><trkpt lat="44.52244886645505" lon="10.871128629354024"><ele>144.33333333333334</ele><time>2026-04-19T08:21:52.999Z</time></trkpt><trkpt lat="44.5223798956433" lon="10.871093697100102"><ele>145.0</ele><time>2026-04-19T08:21:56.998Z</time></trkpt><trkpt lat="44.5223088213835" lon="10.871051616956953"><ele>145.0</ele><time>2026-04-19T08:22:01Z</time></trkpt><trkpt lat="44.52224230595809" lon="10.871007815499809"><ele>145.0</ele><time>2026-04-19T08:22:05Z</time></trkpt><trkpt lat="44.52216569033638" lon="10.870971137568807"><ele>145.0</ele><time>2026-04-19T08:22:09Z</time></trkpt><trkpt lat="44.52209459000159" lon="10.87093525016902"><ele>145.0</ele><time>2026-04-19T08:22:13Z</time></trkpt><trkpt lat="44.52202968729054" lon="10.870897364402872"><ele>145.0</ele><time>2026-04-19T08:22:16Z</time></trkpt><trkpt lat="44.521967342432625" lon="10.870870733822914"><ele>145.0</ele><time>2026-04-19T08:22:19Z</time></trkpt><trkpt lat="44.5218960856949" lon="10.870838523874205"><ele>145.0</ele><time>2026-04-19T08:22:22Z</time></trkpt><trkpt lat="44.52183009308867" lon="10.870806319079142"><ele>145.66666666666669</ele><time>2026-04-19T08:22:25Z</time></trkpt><trkpt lat="44.52176556476668" lon="10.870777973062236"><ele>146.33333333333334</ele><time>2026-04-19T08:22:28Z</time></trkpt><trkpt lat="44.521685632776894" lon="10.870745119422821"><ele>147.0</ele><time>2026-04-19T08:22:32Z</time></trkpt><trkpt lat="44.521609720546195" lon="10.87071138850011"><ele>147.66666666666666</ele><time>2026-04-19T08:22:36Z</time></trkpt><trkpt lat="44.52154197016562" lon="10.870682989900562"><ele>148.33333333333331</ele><time>2026-04-19T08:22:40Z</time></trkpt><trkpt lat="44.52147664331901" lon="10.870652315820173"><ele>149.0</ele><time>2026-04-19T08:22:44Z</time></trkpt><trkpt lat="44.52139178142995" lon="10.870648036233069"><ele>149.0</ele><time>2026-04-19T08:22:48Z</time></trkpt><trkpt lat="44.52131511361429" lon="10.87066492585516"><ele>149.0</ele><time>2026-04-19T08:22:50.999Z</time></trkpt><trkpt lat="44.52124716338878" lon="10.870721068327107"><ele>149.0</ele><time>2026-04-19T08:22:53.999Z</time></trkpt><trkpt lat="44.5211900347464" lon="10.870808135127577"><ele>149.0</ele><time>2026-04-19T08:22:56.999Z</time></trkpt><trkpt lat="44.52114142070333" lon="10.870904606527485"><ele>149.0</ele><time>2026-04-19T08:22:59.999Z</time></trkpt><trkpt lat="44.521106045790404" lon="10.870978417256476"><ele>149.0</ele><time>2026-04-19T08:23:01.999Z</time></trkpt><trkpt lat="44.52106793909942" lon="10.871102956473496"><ele>149.14285714285714</ele><time>2026-04-19T08:23:04.999Z</time></trkpt><trkpt lat="44.52103594928561" lon="10.87118758259511"><ele>149.28571428571428</ele><time>2026-04-19T08:23:06.999Z</time></trkpt><trkpt lat="44.521006729277815" lon="10.871273941080222"><ele>149.42857142857142</ele><time>2026-04-19T08:23:08.999Z</time></trkpt><trkpt lat="44.520974233372655" lon="10.871366958126465"><ele>149.57142857142856</ele><time>2026-04-19T08:23:10.999Z</time></trkpt><trkpt lat="44.52094684612768" lon="10.871452700633933"><ele>149.71428571428572</ele><time>2026-04-19T08:23:12.999Z</time></trkpt><trkpt lat="44.52091429741983" lon="10.871538015020327"><ele>149.85714285714283</ele><time>2026-04-19T08:23:14.999Z</time></trkpt><trkpt lat="44.52088606987675" lon="10.871622618360059"><ele>150.0</ele><time>2026-04-19T08:23:16.999Z</time></trkpt><trkpt lat="44.520854133762604" lon="10.871721918675556"><ele>150.16666666666666</ele><time>2026-04-19T08:23:18.999Z</time></trkpt><trkpt lat="44.52082065459242" lon="10.871813182730715"><ele>150.33333333333334</ele><time>2026-04-19T08:23:20.999Z</time></trkpt><trkpt lat="44.520786444950886" lon="10.871913751036589"><ele>150.5</ele><time>2026-04-19T08:23:22.999Z</time></trkpt><trkpt lat="44.52075463061576" lon="10.8720121256008"><ele>150.66666666666669</ele><time>2026-04-19T08:23:24.999Z</time></trkpt><trkpt lat="44.52072329775755" lon="10.872113922148072"><ele>150.83333333333334</ele><time>2026-04-19T08:23:26.999Z</time></trkpt><trkpt lat="44.520683694473405" lon="10.87223269105757"><ele>151.0</ele><time>2026-04-19T08:23:28.999Z</time></trkpt><trkpt lat="44.52063576012632" lon="10.872353167100195"><ele>151.0</ele><time>2026-04-19T08:23:30.999Z</time></trkpt><trkpt lat="44.52058911562554" lon="10.872485303659632"><ele>151.0</ele><time>2026-04-19T08:23:32.999Z</time></trkpt><trkpt lat="44.520540717900744" lon="10.872626855875435"><ele>151.0</ele><time>2026-04-19T08:23:34.999Z</time></trkpt><trkpt lat="44.5204882340605" lon="10.872779742481661"><ele>151.0</ele><time>2026-04-19T08:23:36.999Z</time></trkpt><trkpt lat="44.52043284575859" lon="10.872932706176911"><ele>150.8</ele><time>2026-04-19T08:23:38.999Z</time></trkpt><trkpt lat="44.520382126860355" lon="10.873077320545287"><ele>150.6</ele><time>2026-04-19T08:23:40.999Z</time></trkpt><trkpt lat="44.52032687359119" lon="10.87322804729272"><ele>150.4</ele><time>2026-04-19T08:23:42.999Z</time></trkpt><trkpt lat="44.520285031401755" lon="10.873358989456833"><ele>150.2</ele><time>2026-04-19T08:23:44.999Z</time></trkpt><trkpt lat="44.52023777522672" lon="10.87349509068668"><ele>150.0</ele><time>2026-04-19T08:23:46.999Z</time></trkpt><trkpt lat="44.52019912560962" lon="10.873617345430349"><ele>150.0</ele><time>2026-04-19T08:23:48.999Z</time></trkpt><trkpt lat="44.52014825842498" lon="10.873749505080092"><ele>150.0</ele><time>2026-04-19T08:23:50.999Z</time></trkpt><trkpt lat="44.52009537211983" lon="10.87387844474087"><ele>150.0</ele><time>2026-04-19T08:23:52.998Z</time></trkpt><trkpt lat="44.520022836308094" lon="10.873991935673136"><ele>150.0</ele><time>2026-04-19T08:23:54.998Z</time></trkpt><trkpt lat="44.51995170234976" lon="10.87409951317782"><ele>150.0</ele><time>2026-04-19T08:23:56.998Z</time></trkpt><trkpt lat="44.51988366985718" lon="10.87420033614732"><ele>150.0</ele><time>2026-04-19T08:23:58.998Z</time></trkpt><trkpt lat="44.51977931303606" lon="10.874235001354824"><ele>150.0</ele><time>2026-04-19T08:24:00.998Z</time></trkpt><trkpt lat="44.51968034607584" lon="10.874241850390202"><ele>150.0</ele><time>2026-04-19T08:24:02.998Z</time></trkpt><trkpt lat="44.519607787872935" lon="10.874328669823303"><ele>150.0</ele><time>2026-04-19T08:24:05Z</time></trkpt><trkpt lat="44.51956997543765" lon="10.874467777361517"><ele>150.0</ele><time>2026-04-19T08:24:07Z</time></trkpt><trkpt lat="44.519600016314826" lon="10.874614765756826"><ele>149.8</ele><time>2026-04-19T08:24:09Z</time></trkpt><trkpt lat="44.519642495027455" lon="10.874728812239146"><ele>149.6</ele><time>2026-04-19T08:24:11Z</time></trkpt><trkpt lat="44.51955170113303" lon="10.874869655117415"><ele>149.4</ele><time>2026-04-19T08:24:13Z</time></trkpt><trkpt lat="44.519483901212155" lon="10.874966931930851"><ele>149.2</ele><time>2026-04-19T08:24:15Z</time></trkpt><trkpt lat="44.519435704412246" lon="10.875068461945071"><ele>149.0</ele><time>2026-04-19T08:24:17Z</time></trkpt><trkpt lat="44.519383720876085" lon="10.87516347418988"><ele>150.0</ele><time>2026-04-19T08:24:19Z</time></trkpt><trkpt lat="44.519327611088585" lon="10.875249652570549"><ele>151.0</ele><time>2026-04-19T08:24:21Z</time></trkpt><trkpt lat="44.519277509867614" lon="10.875343768889971"><ele>152.0</ele><time>2026-04-19T08:24:23Z</time></trkpt><trkpt lat="44.51922289949618" lon="10.87542895307396"><ele>153.0</ele><time>2026-04-19T08:24:25Z</time></trkpt><trkpt lat="44.51917452115606" lon="10.875519749634023"><ele>154.0</ele><time>2026-04-19T08:24:27Z</time></trkpt><trkpt lat="44.51911951437535" lon="10.87560963582718"><ele>155.0</ele><time>2026-04-19T08:24:29Z</time></trkpt><trkpt lat="44.519067731147636" lon="10.875689799032669"><ele>155.0</ele><time>2026-04-19T08:24:31Z</time></trkpt><trkpt lat="44.519016309013615" lon="10.875778117731276"><ele>155.0</ele><time>2026-04-19T08:24:33Z</time></trkpt><trkpt lat="44.518960176556234" lon="10.87584908998876"><ele>155.0</ele><time>2026-04-19T08:24:35Z</time></trkpt><trkpt lat="44.51889915111254" lon="10.875929524520732"><ele>155.0</ele><time>2026-04-19T08:24:37Z</time></trkpt><trkpt lat="44.51882962608575" lon="10.875971645951301"><ele>155.0</ele><time>2026-04-19T08:24:39Z</time></trkpt><trkpt lat="44.51875155170313" lon="10.875983644980634"><ele>155.0</ele><time>2026-04-19T08:24:41Z</time></trkpt><trkpt lat="44.5186792635926" lon="10.875980098339975"><ele>155.16666666666666</ele><time>2026-04-19T08:24:43Z</time></trkpt><trkpt lat="44.51861374190787" lon="10.875953524727347"><ele>155.33333333333331</ele><time>2026-04-19T08:24:45Z</time></trkpt><trkpt lat="44.51853424783386" lon="10.87592861451827"><ele>155.5</ele><time>2026-04-19T08:24:47Z</time></trkpt><trkpt lat="44.51845666011741" lon="10.87589704625224"><ele>155.66666666666666</ele><time>2026-04-19T08:24:49Z</time></trkpt><trkpt lat="44.51837977723021" lon="10.875861834190973"><ele>155.83333333333334</ele><time>2026-04-19T08:24:51Z</time></trkpt><trkpt lat="44.51829332033169" lon="10.875829291329733"><ele>156.0</ele><time>2026-04-19T08:24:52.999Z</time></trkpt><trkpt lat="44.51820268996206" lon="10.87579667301089"><ele>156.0</ele><time>2026-04-19T08:24:54.999Z</time></trkpt><trkpt lat="44.51811255088562" lon="10.87576816248286"><ele>156.0</ele><time>2026-04-19T08:24:56.999Z</time></trkpt><trkpt lat="44.51803280394318" lon="10.875751058659914"><ele>156.0</ele><time>2026-04-19T08:24:58.999Z</time></trkpt><trkpt lat="44.51795270516881" lon="10.875709761731759"><ele>156.0</ele><time>2026-04-19T08:25:00.999Z</time></trkpt><trkpt lat="44.51787738065031" lon="10.875680231274245"><ele>156.0</ele><time>2026-04-19T08:25:02.999Z</time></trkpt><trkpt lat="44.517803103431554" lon="10.875641314846943"><ele>156.0</ele><time>2026-04-19T08:25:04.999Z</time></trkpt><trkpt lat="44.51773086460093" lon="10.875604803340673"><ele>156.0</ele><time>2026-04-19T08:25:06.999Z</time></trkpt><trkpt lat="44.51765819314494" lon="10.875569497175997"><ele>156.0</ele><time>2026-04-19T08:25:08.999Z</time></trkpt><trkpt lat="44.51758875492772" lon="10.875541870720959"><ele>156.0</ele><time>2026-04-19T08:25:10.999Z</time></trkpt><trkpt lat="44.51751306614412" lon="10.875502670895836"><ele>156.0</ele><time>2026-04-19T08:25:12.999Z</time></trkpt><trkpt lat="44.517441505199834" lon="10.87547238764849"><ele>156.0</ele><time>2026-04-19T08:25:14.999Z</time></trkpt><trkpt lat="44.51736039344411" lon="10.875434879772866"><ele>156.0</ele><time>2026-04-19T08:25:16.999Z</time></trkpt><trkpt lat="44.51728255515219" lon="10.87540498526923"><ele>156.0</ele><time>2026-04-19T08:25:18.999Z</time></trkpt><trkpt lat="44.51720879477302" lon="10.87537451341391"><ele>156.0</ele><time>2026-04-19T08:25:20.999Z</time></trkpt><trkpt lat="44.517131538213974" lon="10.875346364727546"><ele>156.0</ele><time>2026-04-19T08:25:22.999Z</time></trkpt><trkpt lat="44.51705386965163" lon="10.875312858990098"><ele>156.0</ele><time>2026-04-19T08:25:24.999Z</time></trkpt><trkpt lat="44.516978748372075" lon="10.875287954519315"><ele>156.0</ele><time>2026-04-19T08:25:26.999Z</time></trkpt><trkpt lat="44.516906088959544" lon="10.875262580335868"><ele>156.0</ele><time>2026-04-19T08:25:28.999Z</time></trkpt><trkpt lat="44.5168436116548" lon="10.875236747380926"><ele>156.0</ele><time>2026-04-19T08:25:30.999Z</time></trkpt><trkpt lat="44.51678300459618" lon="10.875199489526226"><ele>156.0</ele><time>2026-04-19T08:25:32.999Z</time></trkpt><trkpt lat="44.51669319926594" lon="10.875177291631465"><ele>156.0</ele><time>2026-04-19T08:25:35.999Z</time></trkpt><trkpt lat="44.51662355113981" lon="10.875141615826694"><ele>156.0</ele><time>2026-04-19T08:25:37.999Z</time></trkpt><trkpt lat="44.51655732492942" lon="10.875121365176712"><ele>156.0</ele><time>2026-04-19T08:25:39.999Z</time></trkpt><trkpt lat="44.516489329866616" lon="10.875090594586398"><ele>156.0</ele><time>2026-04-19T08:25:41.999Z</time></trkpt><trkpt lat="44.51641873411368" lon="10.87506426094321"><ele>156.0</ele><time>2026-04-19T08:25:43.999Z</time></trkpt><trkpt lat="44.51635186505298" lon="10.875035271936829"><ele>156.0</ele><time>2026-04-19T08:25:45.999Z</time></trkpt><trkpt lat="44.51627523585877" lon="10.875002011950134"><ele>156.0</ele><time>2026-04-19T08:25:47.999Z</time></trkpt><trkpt lat="44.51620615998495" lon="10.87497641737677"><ele>156.0</ele><time>2026-04-19T08:25:49.999Z</time></trkpt><trkpt lat="44.516133652296325" lon="10.874948615521573"><ele>156.0</ele><time>2026-04-19T08:25:51.999Z</time></trkpt><trkpt lat="44.51606237646531" lon="10.874913922019008"><ele>156.0</ele><time>2026-04-19T08:25:53.999Z</time></trkpt><trkpt lat="44.51599188684926" lon="10.874881447566233"><ele>156.0</ele><time>2026-04-19T08:25:55.998Z</time></trkpt><trkpt lat="44.51592148820233" lon="10.874858878779733"><ele>156.0</ele><time>2026-04-19T08:25:57.998Z</time></trkpt><trkpt lat="44.515855390614554" lon="10.87482371311416"><ele>156.66666666666666</ele><time>2026-04-19T08:25:59.998Z</time></trkpt><trkpt lat="44.51576967154572" lon="10.874787647057014"><ele>157.33333333333334</ele><time>2026-04-19T08:26:02.998Z</time></trkpt><trkpt lat="44.515689049858466" lon="10.874757997654143"><ele>158.0</ele><time>2026-04-19T08:26:05.998Z</time></trkpt><trkpt lat="44.51561249311521" lon="10.874724320891117"><ele>158.66666666666669</ele><time>2026-04-19T08:26:08.998Z</time></trkpt><trkpt lat="44.51552440602696" lon="10.874684822874247"><ele>159.33333333333334</ele><time>2026-04-19T08:26:12Z</time></trkpt><trkpt lat="44.515436970899756" lon="10.874655586650459"><ele>160.0</ele><time>2026-04-19T08:26:15Z</time></trkpt><trkpt lat="44.51537279926079" lon="10.874631743149832"><ele>160.28571428571428</ele><time>2026-04-19T08:26:17Z</time></trkpt><trkpt lat="44.515304934938555" lon="10.874610214703564"><ele>160.57142857142858</ele><time>2026-04-19T08:26:19Z</time></trkpt><trkpt lat="44.51523073047106" lon="10.874581731086458"><ele>160.85714285714286</ele><time>2026-04-19T08:26:21Z</time></trkpt><trkpt lat="44.51516010128892" lon="10.874553417204346"><ele>161.14285714285714</ele><time>2026-04-19T08:26:23Z</time></trkpt><trkpt lat="44.51508004147463" lon="10.874540767614253"><ele>161.42857142857142</ele><time>2026-04-19T08:26:25Z</time></trkpt><trkpt lat="44.51500903078064" lon="10.874523593892425"><ele>161.71428571428572</ele><time>2026-04-19T08:26:27Z</time></trkpt><trkpt lat="44.514938051841064" lon="10.874511596517676"><ele>162.0</ele><time>2026-04-19T08:26:29Z</time></trkpt><trkpt lat="44.5148695861848" lon="10.87447845634055"><ele>162.0</ele><time>2026-04-19T08:26:31Z</time></trkpt><trkpt lat="44.51480743993126" lon="10.874529191327248"><ele>162.0</ele><time>2026-04-19T08:26:33Z</time></trkpt><trkpt lat="44.51480328623597" lon="10.87465570788676"><ele>162.0</ele><time>2026-04-19T08:26:35Z</time></trkpt><trkpt lat="44.514783337106586" lon="10.874773032983546"><ele>162.0</ele><time>2026-04-19T08:26:37Z</time></trkpt><trkpt lat="44.51474800522417" lon="10.874890821691462"><ele>162.0</ele><time>2026-04-19T08:26:39Z</time></trkpt><trkpt lat="44.514725858784296" lon="10.87500219477609"><ele>162.0</ele><time>2026-04-19T08:26:41Z</time></trkpt><trkpt lat="44.51470136034754" lon="10.875117926464918"><ele>162.0</ele><time>2026-04-19T08:26:43Z</time></trkpt><trkpt lat="44.51467422834329" lon="10.875236305191727"><ele>162.0</ele><time>2026-04-19T08:26:45Z</time></trkpt><trkpt lat="44.51464729573673" lon="10.875363967710758"><ele>162.0</ele><time>2026-04-19T08:26:47Z</time></trkpt><trkpt lat="44.51462125825552" lon="10.875516158666155"><ele>162.0</ele><time>2026-04-19T08:26:49Z</time></trkpt><trkpt lat="44.51458867565112" lon="10.875662555069177"><ele>162.0</ele><time>2026-04-19T08:26:51Z</time></trkpt><trkpt lat="44.51455966651817" lon="10.87579134961143"><ele>162.25</ele><time>2026-04-19T08:26:53Z</time></trkpt><trkpt lat="44.51453328169519" lon="10.87594680116181"><ele>162.5</ele><time>2026-04-19T08:26:55Z</time></trkpt><trkpt lat="44.51450239934511" lon="10.876105770452938"><ele>162.75</ele><time>2026-04-19T08:26:56.999Z</time></trkpt><trkpt lat="44.51446782897037" lon="10.87626335575895"><ele>163.0</ele><time>2026-04-19T08:26:58.999Z</time></trkpt><trkpt lat="44.51442953407251" lon="10.876426752913629"><ele>163.0</ele><time>2026-04-19T08:27:00.999Z</time></trkpt><trkpt lat="44.51439916386832" lon="10.876592691143628"><ele>163.0</ele><time>2026-04-19T08:27:02.999Z</time></trkpt><trkpt lat="44.5143673877129" lon="10.876742341457916"><ele>163.0</ele><time>2026-04-19T08:27:04.999Z</time></trkpt><trkpt lat="44.51433291328755" lon="10.87690651135042"><ele>163.0</ele><time>2026-04-19T08:27:06.999Z</time></trkpt><trkpt lat="44.51431804936223" lon="10.876996021770918"><ele>163.0</ele><time>2026-04-19T08:27:07.999Z</time></trkpt><trkpt lat="44.51429001401831" lon="10.877146294368966"><ele>162.60000000000002</ele><time>2026-04-19T08:27:09.999Z</time></trkpt><trkpt lat="44.514273436158504" lon="10.877231732250054"><ele>162.20000000000002</ele><time>2026-04-19T08:27:10.999Z</time></trkpt><trkpt lat="44.514231020741946" lon="10.877404118806004"><ele>161.8</ele><time>2026-04-19T08:27:12.999Z</time></trkpt><trkpt lat="44.51419434082239" lon="10.877571186226678"><ele>161.4</ele><time>2026-04-19T08:27:14.999Z</time></trkpt><trkpt lat="44.51417532959134" lon="10.877663318370793"><ele>161.0</ele><time>2026-04-19T08:27:15.999Z</time></trkpt><trkpt lat="44.51415849155677" lon="10.87775409944826"><ele>160.5</ele><time>2026-04-19T08:27:16.999Z</time></trkpt><trkpt lat="44.51413546238276" lon="10.877853981137447"><ele>160.0</ele><time>2026-04-19T08:27:17.999Z</time></trkpt><trkpt lat="44.51411008763222" lon="10.877964126382217"><ele>159.5</ele><time>2026-04-19T08:27:18.999Z</time></trkpt><trkpt lat="44.514088729198654" lon="10.878077470470409"><ele>159.0</ele><time>2026-04-19T08:27:19.999Z</time></trkpt><trkpt lat="44.514065229720586" lon="10.878200633117581"><ele>158.5</ele><time>2026-04-19T08:27:20.999Z</time></trkpt><trkpt lat="44.51404188357012" lon="10.878325000361489"><ele>158.0</ele><time>2026-04-19T08:27:21.999Z</time></trkpt><trkpt lat="44.5140145753737" lon="10.878456190468592"><ele>157.16666666666666</ele><time>2026-04-19T08:27:22.999Z</time></trkpt><trkpt lat="44.51399169253404" lon="10.878565802467671"><ele>156.33333333333331</ele><time>2026-04-19T08:27:23.999Z</time></trkpt><trkpt lat="44.51397010956036" lon="10.87867846077916"><ele>155.5</ele><time>2026-04-19T08:27:24.999Z</time></trkpt><trkpt lat="44.51393707002441" lon="10.878838193959915"><ele>154.66666666666666</ele><time>2026-04-19T08:27:26.999Z</time></trkpt><trkpt lat="44.51392147087173" lon="10.878924032570614"><ele>153.83333333333334</ele><time>2026-04-19T08:27:28.999Z</time></trkpt><trkpt lat="44.513885769640595" lon="10.879021263506974"><ele>153.0</ele><time>2026-04-19T08:27:30.999Z</time></trkpt><trkpt lat="44.51384662518819" lon="10.87912420494039"><ele>153.0</ele><time>2026-04-19T08:27:32.999Z</time></trkpt><trkpt lat="44.51392497546545" lon="10.879183552256906"><ele>153.0</ele><time>2026-04-19T08:27:35.999Z</time></trkpt><trkpt lat="44.51399180708857" lon="10.879192053429666"><ele>153.0</ele><time>2026-04-19T08:27:38.999Z</time></trkpt><trkpt lat="44.5140773699542" lon="10.879256595237655"><ele>153.0</ele><time>2026-04-19T08:27:41.999Z</time></trkpt><trkpt lat="44.51413946315546" lon="10.87930466654491"><ele>153.0</ele><time>2026-04-19T08:27:43.999Z</time></trkpt><trkpt lat="44.5142020023115" lon="10.879351369270418"><ele>153.0</ele><time>2026-04-19T08:27:45.999Z</time></trkpt><trkpt lat="44.51426680660025" lon="10.87940667658514"><ele>153.20000000000002</ele><time>2026-04-19T08:27:47.999Z</time></trkpt><trkpt lat="44.514337678830145" lon="10.879464547348345"><ele>153.4</ele><time>2026-04-19T08:27:49.999Z</time></trkpt><trkpt lat="44.51441461372166" lon="10.879516259637382"><ele>153.60000000000002</ele><time>2026-04-19T08:27:51.999Z</time></trkpt><trkpt lat="44.51449472373789" lon="10.879572235029924"><ele>153.8</ele><time>2026-04-19T08:27:53.999Z</time></trkpt><trkpt lat="44.514582960503844" lon="10.879638293786293"><ele>154.0</ele><time>2026-04-19T08:27:55.999Z</time></trkpt><trkpt lat="44.51467554433275" lon="10.879697893453091"><ele>154.0</ele><time>2026-04-19T08:27:57.999Z</time></trkpt><trkpt lat="44.51476482261416" lon="10.879771569559699"><ele>154.0</ele><time>2026-04-19T08:27:59.998Z</time></trkpt><trkpt lat="44.51485297919161" lon="10.879840462629609"><ele>154.0</ele><time>2026-04-19T08:28:01.998Z</time></trkpt><trkpt lat="44.51494091041492" lon="10.879911009151664"><ele>154.0</ele><time>2026-04-19T08:28:03.998Z</time></trkpt><trkpt lat="44.515025658622136" lon="10.879973906805919"><ele>154.0</ele><time>2026-04-19T08:28:05.998Z</time></trkpt><trkpt lat="44.51511149310819" lon="10.88004965753961"><ele>153.6</ele><time>2026-04-19T08:28:07.998Z</time></trkpt><trkpt lat="44.51519625344577" lon="10.880119442420634"><ele>153.2</ele><time>2026-04-19T08:28:09.998Z</time></trkpt><trkpt lat="44.51527950113546" lon="10.880182650680897"><ele>152.79999999999998</ele><time>2026-04-19T08:28:11.998Z</time></trkpt><trkpt lat="44.515354149270316" lon="10.880262702050926"><ele>152.4</ele><time>2026-04-19T08:28:13.998Z</time></trkpt><trkpt lat="44.51542332146867" lon="10.88034085391709"><ele>152.0</ele><time>2026-04-19T08:28:16Z</time></trkpt><trkpt lat="44.5154695267709" lon="10.880437047672666"><ele>151.83333333333331</ele><time>2026-04-19T08:28:18Z</time></trkpt><trkpt lat="44.51551910076455" lon="10.880525100726961"><ele>151.66666666666666</ele><time>2026-04-19T08:28:20Z</time></trkpt><trkpt lat="44.51556488036313" lon="10.880628501564434"><ele>151.5</ele><time>2026-04-19T08:28:22Z</time></trkpt><trkpt lat="44.5156045096797" lon="10.880743157106865"><ele>151.33333333333334</ele><time>2026-04-19T08:28:24Z</time></trkpt><trkpt lat="44.515642551130135" lon="10.880859286056324"><ele>151.16666666666669</ele><time>2026-04-19T08:28:26Z</time></trkpt><trkpt lat="44.51567660576316" lon="10.88098065548533"><ele>151.0</ele><time>2026-04-19T08:28:28Z</time></trkpt><trkpt lat="44.51570887558667" lon="10.881100747350889"><ele>150.6</ele><time>2026-04-19T08:28:30Z</time></trkpt><trkpt lat="44.51574175297166" lon="10.881225470916831"><ele>150.2</ele><time>2026-04-19T08:28:32Z</time></trkpt><trkpt lat="44.51578256551616" lon="10.881348478459376"><ele>149.8</ele><time>2026-04-19T08:28:34Z</time></trkpt><trkpt lat="44.51582963697372" lon="10.881456642752266"><ele>149.4</ele><time>2026-04-19T08:28:36Z</time></trkpt><trkpt lat="44.5158865136756" lon="10.881556726693157"><ele>149.0</ele><time>2026-04-19T08:28:38Z</time></trkpt><trkpt lat="44.5159414567874" lon="10.88167439069655"><ele>148.8</ele><time>2026-04-19T08:28:40Z</time></trkpt><trkpt lat="44.5159883057065" lon="10.881799021448138"><ele>148.60000000000002</ele><time>2026-04-19T08:28:42Z</time></trkpt><trkpt lat="44.516035681392154" lon="10.881934169835699"><ele>148.4</ele><time>2026-04-19T08:28:44Z</time></trkpt><trkpt lat="44.51608536444276" lon="10.882074653398972"><ele>148.20000000000002</ele><time>2026-04-19T08:28:46Z</time></trkpt><trkpt lat="44.516142280880366" lon="10.882207757729818"><ele>148.0</ele><time>2026-04-19T08:28:48Z</time></trkpt><trkpt lat="44.51624637770211" lon="10.88228772387789"><ele>148.0</ele><time>2026-04-19T08:28:50Z</time></trkpt><trkpt lat="44.516341399842815" lon="10.882373011578604"><ele>148.0</ele><time>2026-04-19T08:28:52Z</time></trkpt><trkpt lat="44.5163988112482" lon="10.88240971447152"><ele>148.0</ele><time>2026-04-19T08:28:53Z</time></trkpt><trkpt lat="44.51650339658866" lon="10.882477400544209"><ele>148.0</ele><time>2026-04-19T08:28:55Z</time></trkpt><trkpt lat="44.51662688471678" lon="10.882544729637067"><ele>148.0</ele><time>2026-04-19T08:28:57Z</time></trkpt><trkpt lat="44.51669036079596" lon="10.882580754208277"><ele>148.0</ele><time>2026-04-19T08:28:58Z</time></trkpt><trkpt lat="44.51675638315087" lon="10.882637263222538"><ele>148.0</ele><time>2026-04-19T08:28:59Z</time></trkpt><trkpt lat="44.51682123864184" lon="10.882694267629633"><ele>148.0</ele><time>2026-04-19T08:28:59.999Z</time></trkpt><trkpt lat="44.516881515316946" lon="10.88274439140862"><ele>148.0</ele><time>2026-04-19T08:29:00.999Z</time></trkpt><trkpt lat="44.51694337649389" lon="10.88279717277578"><ele>148.0</ele><time>2026-04-19T08:29:01.999Z</time></trkpt><trkpt lat="44.517008011723526" lon="10.88285265450252"><ele>148.0</ele><time>2026-04-19T08:29:02.999Z</time></trkpt><trkpt lat="44.51706813457056" lon="10.882913738667229"><ele>148.0</ele><time>2026-04-19T08:29:03.999Z</time></trkpt><trkpt lat="44.517124970284314" lon="10.882980471768304"><ele>148.0</ele><time>2026-04-19T08:29:04.999Z</time></trkpt><trkpt lat="44.51717829313602" lon="10.883050191021892"><ele>148.0</ele><time>2026-04-19T08:29:05.999Z</time></trkpt><trkpt lat="44.51723138960779" lon="10.883120790789453"><ele>148.0</ele><time>2026-04-19T08:29:06.999Z</time></trkpt><trkpt lat="44.51728640876768" lon="10.883187598802738"><ele>148.0</ele><time>2026-04-19T08:29:07.999Z</time></trkpt><trkpt lat="44.51733620706033" lon="10.88326236658673"><ele>148.0</ele><time>2026-04-19T08:29:08.999Z</time></trkpt><trkpt lat="44.517384716623056" lon="10.883330056198755"><ele>148.0</ele><time>2026-04-19T08:29:09.999Z</time></trkpt><trkpt lat="44.51743573859245" lon="10.883401724998933"><ele>148.0</ele><time>2026-04-19T08:29:10.999Z</time></trkpt><trkpt lat="44.51748746430933" lon="10.883463385601347"><ele>147.28571428571428</ele><time>2026-04-19T08:29:11.999Z</time></trkpt><trkpt lat="44.51753639226926" lon="10.883531107487402"><ele>146.57142857142856</ele><time>2026-04-19T08:29:12.999Z</time></trkpt><trkpt lat="44.51758146780189" lon="10.883599227615028"><ele>145.85714285714283</ele><time>2026-04-19T08:29:13.999Z</time></trkpt><trkpt lat="44.51762860502622" lon="10.883668806382465"><ele>145.14285714285714</ele><time>2026-04-19T08:29:14.999Z</time></trkpt><trkpt lat="44.51767489006673" lon="10.883740255567602"><ele>144.42857142857142</ele><time>2026-04-19T08:29:15.999Z</time></trkpt><trkpt lat="44.51771682061863" lon="10.883811012852945"><ele>143.7142857142857</ele><time>2026-04-19T08:29:16.999Z</time></trkpt><trkpt lat="44.51775776685558" lon="10.883883074219815"><ele>143.0</ele><time>2026-04-19T08:29:17.999Z</time></trkpt><trkpt lat="44.51780127736579" lon="10.883955095803998"><ele>143.0</ele><time>2026-04-19T08:29:18.999Z</time></trkpt><trkpt lat="44.517843238125266" lon="10.884026356409855"><ele>143.0</ele><time>2026-04-19T08:29:19.999Z</time></trkpt><trkpt lat="44.51788599598896" lon="10.884097686206339"><ele>143.0</ele><time>2026-04-19T08:29:20.999Z</time></trkpt><trkpt lat="44.51793000181297" lon="10.88416533062244"><ele>143.0</ele><time>2026-04-19T08:29:21.999Z</time></trkpt><trkpt lat="44.51797076217146" lon="10.884234768975537"><ele>143.0</ele><time>2026-04-19T08:29:22.999Z</time></trkpt><trkpt lat="44.51801431078824" lon="10.884300303656126"><ele>143.0</ele><time>2026-04-19T08:29:23.999Z</time></trkpt><trkpt lat="44.5181074466984" lon="10.88441571224562"><ele>143.0</ele><time>2026-04-19T08:29:25.999Z</time></trkpt><trkpt lat="44.51820270435989" lon="10.884529215247198"><ele>143.0</ele><time>2026-04-19T08:29:27.999Z</time></trkpt><trkpt lat="44.51825103313018" lon="10.884586804089723"><ele>143.0</ele><time>2026-04-19T08:29:28.999Z</time></trkpt><trkpt lat="44.51835420924284" lon="10.884688592836623"><ele>143.0</ele><time>2026-04-19T08:29:30.999Z</time></trkpt><trkpt lat="44.51846458500373" lon="10.884778394623115"><ele>143.0</ele><time>2026-04-19T08:29:32.999Z</time></trkpt><trkpt lat="44.51852297372969" lon="10.884826464361241"><ele>142.99999999999997</ele><time>2026-04-19T08:29:33.999Z</time></trkpt><trkpt lat="44.518581641398725" lon="10.88488186378199"><ele>143.0</ele><time>2026-04-19T08:29:34.999Z</time></trkpt><trkpt lat="44.518638963971235" lon="10.884941000515004"><ele>143.0</ele><time>2026-04-19T08:29:35.999Z</time></trkpt><trkpt lat="44.51869790235453" lon="10.884994923493363"><ele>143.0</ele><time>2026-04-19T08:29:36.999Z</time></trkpt><trkpt lat="44.51875721691554" lon="10.88505158665451"><ele>143.0</ele><time>2026-04-19T08:29:37.999Z</time></trkpt><trkpt lat="44.518821361505665" lon="10.885096118819183"><ele>142.99999999999997</ele><time>2026-04-19T08:29:38.999Z</time></trkpt><trkpt lat="44.51887938521071" lon="10.885153992684458"><ele>143.0</ele><time>2026-04-19T08:29:39.999Z</time></trkpt><trkpt lat="44.518936875081536" lon="10.885208229359929"><ele>142.57142857142856</ele><time>2026-04-19T08:29:40.999Z</time></trkpt><trkpt lat="44.5189973200077" lon="10.885261687645356"><ele>142.14285714285714</ele><time>2026-04-19T08:29:41.999Z</time></trkpt><trkpt lat="44.51905386958791" lon="10.885318087076516"><ele>141.71428571428572</ele><time>2026-04-19T08:29:42.999Z</time></trkpt><trkpt lat="44.51911298182909" lon="10.885369281355343"><ele>141.28571428571428</ele><time>2026-04-19T08:29:43.999Z</time></trkpt><trkpt lat="44.51916746717382" lon="10.885423836924058"><ele>140.85714285714286</ele><time>2026-04-19T08:29:44.999Z</time></trkpt><trkpt lat="44.51922731334505" lon="10.885481448529145"><ele>140.42857142857142</ele><time>2026-04-19T08:29:45.999Z</time></trkpt><trkpt lat="44.51928693914448" lon="10.885535235057349"><ele>140.0</ele><time>2026-04-19T08:29:46.999Z</time></trkpt><trkpt lat="44.51934577424141" lon="10.88559393174948"><ele>140.0</ele><time>2026-04-19T08:29:47.999Z</time></trkpt><trkpt lat="44.51940492058751" lon="10.885648769602513"><ele>140.0</ele><time>2026-04-19T08:29:48.999Z</time></trkpt><trkpt lat="44.519462383316345" lon="10.885701463937169"><ele>140.0</ele><time>2026-04-19T08:29:49.999Z</time></trkpt><trkpt lat="44.51952201135872" lon="10.88575666149457"><ele>140.0</ele><time>2026-04-19T08:29:50.999Z</time></trkpt><trkpt lat="44.51958131295657" lon="10.885812778403691"><ele>140.0</ele><time>2026-04-19T08:29:51.999Z</time></trkpt><trkpt lat="44.51964620091732" lon="10.885868199865724"><ele>140.0</ele><time>2026-04-19T08:29:52.999Z</time></trkpt><trkpt lat="44.51969928073933" lon="10.885920909449334"><ele>140.0</ele><time>2026-04-19T08:29:53.999Z</time></trkpt><trkpt lat="44.519759269906054" lon="10.885974699853405"><ele>139.85714285714286</ele><time>2026-04-19T08:29:54.999Z</time></trkpt><trkpt lat="44.51981442837761" lon="10.886027200586913"><ele>139.71428571428572</ele><time>2026-04-19T08:29:55.999Z</time></trkpt><trkpt lat="44.5198735134641" lon="10.886077380304688"><ele>139.57142857142856</ele><time>2026-04-19T08:29:56.999Z</time></trkpt><trkpt lat="44.51993329683681" lon="10.886131792376357"><ele>139.42857142857144</ele><time>2026-04-19T08:29:57.999Z</time></trkpt><trkpt lat="44.5199883868556" lon="10.88618917451217"><ele>139.28571428571428</ele><time>2026-04-19T08:29:58.999Z</time></trkpt><trkpt lat="44.520046242399964" lon="10.88624445249548"><ele>139.14285714285714</ele><time>2026-04-19T08:29:59.999Z</time></trkpt><trkpt lat="44.52010246580288" lon="10.886296481026164"><ele>139.0</ele><time>2026-04-19T08:30:00.999Z</time></trkpt><trkpt lat="44.52016392977866" lon="10.886359100821952"><ele>139.0</ele><time>2026-04-19T08:30:01.999Z</time></trkpt><trkpt lat="44.52022180808997" lon="10.886416913899847"><ele>139.0</ele><time>2026-04-19T08:30:02.999Z</time></trkpt><trkpt lat="44.5202823317625" lon="10.886478553966699"><ele>139.0</ele><time>2026-04-19T08:30:03.999Z</time></trkpt><trkpt lat="44.52033653191903" lon="10.886538767446018"><ele>139.0</ele><time>2026-04-19T08:30:04.998Z</time></trkpt><trkpt lat="44.52039835254793" lon="10.886597518043237"><ele>139.0</ele><time>2026-04-19T08:30:05.998Z</time></trkpt><trkpt lat="44.52046156740621" lon="10.886651995460944"><ele>139.0</ele><time>2026-04-19T08:30:06.998Z</time></trkpt><trkpt lat="44.520518715881764" lon="10.88670979225993"><ele>139.0</ele><time>2026-04-19T08:30:07.998Z</time></trkpt><trkpt lat="44.52057363058137" lon="10.886776252962031"><ele>139.0</ele><time>2026-04-19T08:30:08.998Z</time></trkpt><trkpt lat="44.520629344345544" lon="10.886839747297861"><ele>139.0</ele><time>2026-04-19T08:30:09.998Z</time></trkpt><trkpt lat="44.520689433899975" lon="10.886905535973472"><ele>139.0</ele><time>2026-04-19T08:30:10.998Z</time></trkpt><trkpt lat="44.52074587474243" lon="10.886968202664706"><ele>139.0</ele><time>2026-04-19T08:30:11.998Z</time></trkpt><trkpt lat="44.52080488347761" lon="10.887033633840307"><ele>139.0</ele><time>2026-04-19T08:30:12.998Z</time></trkpt><trkpt lat="44.52086660881574" lon="10.887096019385774"><ele>139.0</ele><time>2026-04-19T08:30:13.998Z</time></trkpt><trkpt lat="44.52092761200201" lon="10.887157584723436"><ele>139.0</ele><time>2026-04-19T08:30:14.998Z</time></trkpt><trkpt lat="44.52098327625579" lon="10.8872253790341"><ele>139.0</ele><time>2026-04-19T08:30:15.998Z</time></trkpt><trkpt lat="44.521042179555636" lon="10.887287851842236"><ele>139.0</ele><time>2026-04-19T08:30:16.998Z</time></trkpt><trkpt lat="44.52110247893567" lon="10.887352827994686"><ele>139.0</ele><time>2026-04-19T08:30:17.998Z</time></trkpt><trkpt lat="44.5211675942038" lon="10.887421649694906"><ele>139.0</ele><time>2026-04-19T08:30:18.998Z</time></trkpt><trkpt lat="44.52123733223032" lon="10.887488554765953"><ele>139.0</ele><time>2026-04-19T08:30:19.998Z</time></trkpt><trkpt lat="44.5212957845471" lon="10.887545909434198"><ele>139.0</ele><time>2026-04-19T08:30:20.998Z</time></trkpt><trkpt lat="44.52134960683145" lon="10.887595380886435"><ele>138.2</ele><time>2026-04-19T08:30:22Z</time></trkpt><trkpt lat="44.52140752154145" lon="10.887653362239554"><ele>137.4</ele><time>2026-04-19T08:30:23Z</time></trkpt><trkpt lat="44.521454663038156" lon="10.887731220777024"><ele>136.6</ele><time>2026-04-19T08:30:24Z</time></trkpt><trkpt lat="44.52151139176246" lon="10.887791538065612"><ele>135.8</ele><time>2026-04-19T08:30:25Z</time></trkpt><trkpt lat="44.52163883026416" lon="10.887585184359986"><ele>135.0</ele><time>2026-04-19T08:30:28Z</time></trkpt><trkpt lat="44.52167402246932" lon="10.887451411911115"><ele>135.0</ele><time>2026-04-19T08:30:30Z</time></trkpt><trkpt lat="44.521719711525954" lon="10.887324125752341"><ele>135.0</ele><time>2026-04-19T08:30:32Z</time></trkpt><trkpt lat="44.52177478865698" lon="10.887215797469906"><ele>135.0</ele><time>2026-04-19T08:30:34Z</time></trkpt><trkpt lat="44.52182377195191" lon="10.887095918867729"><ele>135.0</ele><time>2026-04-19T08:30:36Z</time></trkpt><trkpt lat="44.52187326493574" lon="10.886973718179284"><ele>135.0</ele><time>2026-04-19T08:30:38Z</time></trkpt><trkpt lat="44.52190887716342" lon="10.886843184276929"><ele>135.0</ele><time>2026-04-19T08:30:40Z</time></trkpt><trkpt lat="44.521945164223354" lon="10.886717576751566"><ele>135.0</ele><time>2026-04-19T08:30:42Z</time></trkpt><trkpt lat="44.5219948792773" lon="10.886609956683346"><ele>135.0</ele><time>2026-04-19T08:30:44Z</time></trkpt><trkpt lat="44.52204112052392" lon="10.886494642346468"><ele>135.0</ele><time>2026-04-19T08:30:46Z</time></trkpt><trkpt lat="44.52208302985752" lon="10.88637880711583"><ele>135.0</ele><time>2026-04-19T08:30:48Z</time></trkpt><trkpt lat="44.522128814327" lon="10.886271069319035"><ele>135.0</ele><time>2026-04-19T08:30:50Z</time></trkpt><trkpt lat="44.52216893020035" lon="10.886161583168816"><ele>135.0</ele><time>2026-04-19T08:30:52Z</time></trkpt><trkpt lat="44.52221390719684" lon="10.886058307823571"><ele>135.0</ele><time>2026-04-19T08:30:54Z</time></trkpt><trkpt lat="44.52225531902631" lon="10.885953383409692"><ele>135.0</ele><time>2026-04-19T08:30:56Z</time></trkpt><trkpt lat="44.522295410798826" lon="10.885848091022893"><ele>135.0</ele><time>2026-04-19T08:30:58Z</time></trkpt><trkpt lat="44.52233743241586" lon="10.88574635090006"><ele>135.0</ele><time>2026-04-19T08:31:00Z</time></trkpt><trkpt lat="44.52238029095418" lon="10.885644219799003"><ele>135.0</ele><time>2026-04-19T08:31:02Z</time></trkpt><trkpt lat="44.52242711736945" lon="10.88554267714146"><ele>135.0</ele><time>2026-04-19T08:31:03.999Z</time></trkpt><trkpt lat="44.52245889504758" lon="10.885434247198562"><ele>135.0</ele><time>2026-04-19T08:31:05.999Z</time></trkpt><trkpt lat="44.52249280116398" lon="10.885323119827097"><ele>135.0</ele><time>2026-04-19T08:31:07.999Z</time></trkpt><trkpt lat="44.52253348963266" lon="10.885215384869811"><ele>135.0</ele><time>2026-04-19T08:31:09.999Z</time></trkpt><trkpt lat="44.52256137610595" lon="10.885101631405554"><ele>135.0</ele><time>2026-04-19T08:31:11.999Z</time></trkpt><trkpt lat="44.522601664940765" lon="10.885013828483235"><ele>134.83333333333334</ele><time>2026-04-19T08:31:13.999Z</time></trkpt><trkpt lat="44.52264212177719" lon="10.884917942007409"><ele>134.66666666666666</ele><time>2026-04-19T08:31:15.999Z</time></trkpt><trkpt lat="44.52267548183832" lon="10.884814559812822"><ele>134.5</ele><time>2026-04-19T08:31:17.999Z</time></trkpt><trkpt lat="44.522718095838" lon="10.88472134078973"><ele>134.33333333333331</ele><time>2026-04-19T08:31:19.999Z</time></trkpt><trkpt lat="44.52274127322534" lon="10.884615858676469"><ele>134.16666666666666</ele><time>2026-04-19T08:31:22.999Z</time></trkpt><trkpt lat="44.52276881724905" lon="10.884528203438245"><ele>134.0</ele><time>2026-04-19T08:31:24.999Z</time></trkpt><trkpt lat="44.52297301822744" lon="10.88458813322299"><ele>133.66666666666666</ele><time>2026-04-19T08:31:28.999Z</time></trkpt><trkpt lat="44.52304344420225" lon="10.884633801518465"><ele>133.33333333333331</ele><time>2026-04-19T08:31:30.999Z</time></trkpt><trkpt lat="44.523112238588375" lon="10.884680930310944"><ele>133.0</ele><time>2026-04-19T08:31:32.999Z</time></trkpt><trkpt lat="44.52318749905672" lon="10.88474145664103"><ele>132.66666666666666</ele><time>2026-04-19T08:31:34.999Z</time></trkpt><trkpt lat="44.52326152248725" lon="10.884792557883687"><ele>132.33333333333334</ele><time>2026-04-19T08:31:36.999Z</time></trkpt><trkpt lat="44.52333587685565" lon="10.884852628248886"><ele>132.0</ele><time>2026-04-19T08:31:38.999Z</time></trkpt><trkpt lat="44.52341082469989" lon="10.884905632647595"><ele>132.0</ele><time>2026-04-19T08:31:40.999Z</time></trkpt><trkpt lat="44.52345758424942" lon="10.885000673678002"><ele>132.0</ele><time>2026-04-19T08:31:42.999Z</time></trkpt><trkpt lat="44.52344259061795" lon="10.885127659732202"><ele>132.0</ele><time>2026-04-19T08:31:44.999Z</time></trkpt><trkpt lat="44.523406439656476" lon="10.885236100065312"><ele>132.0</ele><time>2026-04-19T08:31:46.999Z</time></trkpt><trkpt lat="44.52336980905984" lon="10.885351514391232"><ele>132.0</ele><time>2026-04-19T08:31:48.999Z</time></trkpt><trkpt lat="44.52333108695674" lon="10.885474559003715"><ele>132.0</ele><time>2026-04-19T08:31:50.999Z</time></trkpt><trkpt lat="44.52327452505653" lon="10.885551362603113"><ele>132.4</ele><time>2026-04-19T08:31:52.999Z</time></trkpt><trkpt lat="44.5232184454846" lon="10.885654020807225"><ele>132.79999999999998</ele><time>2026-04-19T08:31:54.999Z</time></trkpt><trkpt lat="44.52317578936924" lon="10.88576884257048"><ele>133.2</ele><time>2026-04-19T08:31:56.999Z</time></trkpt><trkpt lat="44.52313536640101" lon="10.885864830042728"><ele>133.6</ele><time>2026-04-19T08:31:58.999Z</time></trkpt><trkpt lat="44.523080054826806" lon="10.885977778160523"><ele>134.0</ele><time>2026-04-19T08:32:00.999Z</time></trkpt><trkpt lat="44.52303436137663" lon="10.886089649656379"><ele>134.0</ele><time>2026-04-19T08:32:02.999Z</time></trkpt><trkpt lat="44.52298852799058" lon="10.88619439846959"><ele>134.0</ele><time>2026-04-19T08:32:04.999Z</time></trkpt><trkpt lat="44.522943725762694" lon="10.88630193361655"><ele>134.0</ele><time>2026-04-19T08:32:06.999Z</time></trkpt><trkpt lat="44.522902365439236" lon="10.886406319962445"><ele>134.0</ele><time>2026-04-19T08:32:08.999Z</time></trkpt><trkpt lat="44.52286000505282" lon="10.88650470883861"><ele>134.0</ele><time>2026-04-19T08:32:10.998Z</time></trkpt><trkpt lat="44.5228094047362" lon="10.886615268568892"><ele>134.0</ele><time>2026-04-19T08:32:12.998Z</time></trkpt><trkpt lat="44.522765648902855" lon="10.886724047024774"><ele>134.0</ele><time>2026-04-19T08:32:14.998Z</time></trkpt><trkpt lat="44.52276941123976" lon="10.886819395487679"><ele>134.0</ele><time>2026-04-19T08:32:16.998Z</time></trkpt><trkpt lat="44.522833825082444" lon="10.886902139474484"><ele>134.0</ele><time>2026-04-19T08:32:18.998Z</time></trkpt><trkpt lat="44.5229120712443" lon="10.886964271184043"><ele>134.0</ele><time>2026-04-19T08:32:20.998Z</time></trkpt><trkpt lat="44.522985373010194" lon="10.887021174038289"><ele>134.0</ele><time>2026-04-19T08:32:22.998Z</time></trkpt><trkpt lat="44.52305966104226" lon="10.887087583083323"><ele>134.0</ele><time>2026-04-19T08:32:24.998Z</time></trkpt><trkpt lat="44.52302449801745" lon="10.887211458557456"><ele>134.0</ele><time>2026-04-19T08:32:26.998Z</time></trkpt><trkpt lat="44.52296069970643" lon="10.887305580793209"><ele>134.0</ele><time>2026-04-19T08:32:29Z</time></trkpt><trkpt lat="44.52291406549014" lon="10.887409756030781"><ele>134.0</ele><time>2026-04-19T08:32:31Z</time></trkpt><trkpt lat="44.52287333049473" lon="10.887513379556989"><ele>134.0</ele><time>2026-04-19T08:32:33Z</time></trkpt><trkpt lat="44.52282378976614" lon="10.887631002155796"><ele>134.0</ele><time>2026-04-19T08:32:35Z</time></trkpt><trkpt lat="44.52278485147208" lon="10.887733386585406"><ele>134.0</ele><time>2026-04-19T08:32:37Z</time></trkpt><trkpt lat="44.52274321605763" lon="10.887840828528768"><ele>134.33333333333331</ele><time>2026-04-19T08:32:39Z</time></trkpt><trkpt lat="44.522684894681056" lon="10.88792002048114"><ele>134.66666666666666</ele><time>2026-04-19T08:32:41Z</time></trkpt><trkpt lat="44.52259608974598" lon="10.88789155938478"><ele>135.0</ele><time>2026-04-19T08:32:43Z</time></trkpt><trkpt lat="44.52253284484597" lon="10.887814394695265"><ele>135.33333333333334</ele><time>2026-04-19T08:32:45Z</time></trkpt><trkpt lat="44.52247022214068" lon="10.887767346337663"><ele>135.66666666666669</ele><time>2026-04-19T08:32:47Z</time></trkpt><trkpt lat="44.522532983528855" lon="10.887849771768561"><ele>136.0</ele><time>2026-04-19T08:32:50Z</time></trkpt><trkpt lat="44.52259376887354" lon="10.887906610607352"><ele>136.0</ele><time>2026-04-19T08:32:52Z</time></trkpt><trkpt lat="44.52266335138936" lon="10.887964732911296"><ele>136.0</ele><time>2026-04-19T08:32:54Z</time></trkpt><trkpt lat="44.52273620287583" lon="10.88801896043341"><ele>136.0</ele><time>2026-04-19T08:32:56Z</time></trkpt><trkpt lat="44.52280903587536" lon="10.888092283222775"><ele>136.0</ele><time>2026-04-19T08:32:58Z</time></trkpt><trkpt lat="44.52288635453747" lon="10.888147112534629"><ele>136.0</ele><time>2026-04-19T08:33:00Z</time></trkpt><trkpt lat="44.52296646901187" lon="10.888182850275594"><ele>136.0</ele><time>2026-04-19T08:33:02Z</time></trkpt><trkpt lat="44.52304625816737" lon="10.888237923280586"><ele>135.6</ele><time>2026-04-19T08:33:04Z</time></trkpt><trkpt lat="44.523120252909635" lon="10.888295053794756"><ele>135.2</ele><time>2026-04-19T08:33:06Z</time></trkpt><trkpt lat="44.52308109328131" lon="10.888448181665982"><ele>134.8</ele><time>2026-04-19T08:33:09Z</time></trkpt><trkpt lat="44.52302859656525" lon="10.888544342811924"><ele>134.4</ele><time>2026-04-19T08:33:11Z</time></trkpt><trkpt lat="44.522988929317314" lon="10.888665765555809"><ele>134.0</ele><time>2026-04-19T08:33:12.999Z</time></trkpt><trkpt lat="44.522932481089946" lon="10.888775623948836"><ele>134.0</ele><time>2026-04-19T08:33:14.999Z</time></trkpt><trkpt lat="44.52288525708501" lon="10.888876153116279"><ele>134.0</ele><time>2026-04-19T08:33:16.999Z</time></trkpt><trkpt lat="44.52295664072833" lon="10.888814727716092"><ele>134.0</ele><time>2026-04-19T08:33:21.999Z</time></trkpt><trkpt lat="44.52299558462644" lon="10.888696672066319"><ele>134.0</ele><time>2026-04-19T08:33:23.999Z</time></trkpt><trkpt lat="44.523029692310736" lon="10.888602708609216"><ele>134.0</ele><time>2026-04-19T08:33:25.999Z</time></trkpt><trkpt lat="44.52306998271841" lon="10.88849315715966"><ele>134.0</ele><time>2026-04-19T08:33:27.999Z</time></trkpt><trkpt lat="44.523126491724476" lon="10.888397945688023"><ele>134.0</ele><time>2026-04-19T08:33:29.999Z</time></trkpt><trkpt lat="44.52313169644138" lon="10.888272711985305"><ele>134.0</ele><time>2026-04-19T08:33:31.999Z</time></trkpt><trkpt lat="44.5228806994937" lon="10.888622518868074"><ele>134.0</ele><time>2026-04-19T08:33:34.999Z</time></trkpt><trkpt lat="44.52296211417888" lon="10.888359160394858"><ele>134.0</ele><time>2026-04-19T08:33:41.999Z</time></trkpt></trkseg></trk></gpx>